<?xml version="1.0" encoding="UTF-8" standalone="no" ?>
<gpx xmlns="http://www.topografix.com/GPX/1/1" xmlns:xsi="http://www.w3.org/2001/XMLSchema-instance" xsi:schemaLocation="http://www.topografix.com/GPX/1/1 http://www.topografix.com/GPX/1/1/gpx.xsd" version="1.1" creator="VisuGPX - https://www.visugpx.com">
  <metadata>
    <name>Kermezen en La Roche Derrien</name>
    <desc><![CDATA[circuit en sous-bois le long du Jaudy , château de Kermezen]]></desc>
  </metadata>
  <trk>
    <name><![CDATA[2013-11-24 17:43:24]]></name>
    <trkseg>
      <trkpt lat="48.74732" lon="-3.2628">
        <ele>21.77</ele>
        <time>2013-11-24T12:56:32Z</time>
      </trkpt>
      <trkpt lat="48.74732" lon="-3.2628">
        <ele>20.32</ele>
        <time>2013-11-24T12:56:34Z</time>
      </trkpt>
      <trkpt lat="48.74733" lon="-3.2628">
        <ele>20.32</ele>
        <time>2013-11-24T12:56:36Z</time>
      </trkpt>
      <trkpt lat="48.74732" lon="-3.2628">
        <ele>21.77</ele>
        <time>2013-11-24T12:56:38Z</time>
      </trkpt>
      <trkpt lat="48.74732" lon="-3.2628">
        <ele>21.77</ele>
        <time>2013-11-24T12:56:40Z</time>
      </trkpt>
      <trkpt lat="48.74732" lon="-3.26281">
        <ele>18.4</ele>
        <time>2013-11-24T12:56:42Z</time>
      </trkpt>
      <trkpt lat="48.74733" lon="-3.26281">
        <ele>21.29</ele>
        <time>2013-11-24T12:56:44Z</time>
      </trkpt>
      <trkpt lat="48.74733" lon="-3.26281">
        <ele>21.29</ele>
        <time>2013-11-24T12:56:46Z</time>
      </trkpt>
      <trkpt lat="48.74733" lon="-3.26281">
        <ele>21.29</ele>
        <time>2013-11-24T12:56:48Z</time>
      </trkpt>
      <trkpt lat="48.74733" lon="-3.26282">
        <ele>21.29</ele>
        <time>2013-11-24T12:56:50Z</time>
      </trkpt>
      <trkpt lat="48.74733" lon="-3.26282">
        <ele>21.29</ele>
        <time>2013-11-24T12:56:52Z</time>
      </trkpt>
      <trkpt lat="48.74733" lon="-3.26282">
        <ele>17.92</ele>
        <time>2013-11-24T12:56:54Z</time>
      </trkpt>
      <trkpt lat="48.74733" lon="-3.26282">
        <ele>17.92</ele>
        <time>2013-11-24T12:56:56Z</time>
      </trkpt>
      <trkpt lat="48.74733" lon="-3.26282">
        <ele>17.92</ele>
        <time>2013-11-24T12:56:58Z</time>
      </trkpt>
      <trkpt lat="48.74733" lon="-3.26282">
        <ele>19.84</ele>
        <time>2013-11-24T12:57:00Z</time>
      </trkpt>
      <trkpt lat="48.74733" lon="-3.26282">
        <ele>19.84</ele>
        <time>2013-11-24T12:57:02Z</time>
      </trkpt>
      <trkpt lat="48.74733" lon="-3.26282">
        <ele>19.84</ele>
        <time>2013-11-24T12:57:04Z</time>
      </trkpt>
      <trkpt lat="48.74733" lon="-3.26282">
        <ele>19.84</ele>
        <time>2013-11-24T12:57:06Z</time>
      </trkpt>
      <trkpt lat="48.74732" lon="-3.26281">
        <ele>19.84</ele>
        <time>2013-11-24T12:57:08Z</time>
      </trkpt>
      <trkpt lat="48.74732" lon="-3.26281">
        <ele>19.84</ele>
        <time>2013-11-24T12:57:10Z</time>
      </trkpt>
      <trkpt lat="48.74732" lon="-3.26281">
        <ele>19.84</ele>
        <time>2013-11-24T12:57:12Z</time>
      </trkpt>
      <trkpt lat="48.74732" lon="-3.26281">
        <ele>17.92</ele>
        <time>2013-11-24T12:57:14Z</time>
      </trkpt>
      <trkpt lat="48.74732" lon="-3.26281">
        <ele>15.52</ele>
        <time>2013-11-24T12:57:16Z</time>
      </trkpt>
      <trkpt lat="48.74732" lon="-3.26281">
        <ele>16.96</ele>
        <time>2013-11-24T12:57:18Z</time>
      </trkpt>
      <trkpt lat="48.74732" lon="-3.26281">
        <ele>16.96</ele>
        <time>2013-11-24T12:57:20Z</time>
      </trkpt>
      <trkpt lat="48.74731" lon="-3.26281">
        <ele>16.96</ele>
        <time>2013-11-24T12:57:22Z</time>
      </trkpt>
      <trkpt lat="48.74731" lon="-3.2628">
        <ele>16.96</ele>
        <time>2013-11-24T12:57:24Z</time>
      </trkpt>
      <trkpt lat="48.7473" lon="-3.26281">
        <ele>16.96</ele>
        <time>2013-11-24T12:57:26Z</time>
      </trkpt>
      <trkpt lat="48.74729" lon="-3.2628">
        <ele>16.96</ele>
        <time>2013-11-24T12:57:28Z</time>
      </trkpt>
      <trkpt lat="48.74729" lon="-3.2628">
        <ele>17.44</ele>
        <time>2013-11-24T12:57:30Z</time>
      </trkpt>
      <trkpt lat="48.74729" lon="-3.2628">
        <ele>17.44</ele>
        <time>2013-11-24T12:57:32Z</time>
      </trkpt>
      <trkpt lat="48.74729" lon="-3.26281">
        <ele>17.44</ele>
        <time>2013-11-24T12:57:34Z</time>
      </trkpt>
      <trkpt lat="48.7473" lon="-3.2628">
        <ele>17.44</ele>
        <time>2013-11-24T12:57:36Z</time>
      </trkpt>
      <trkpt lat="48.74731" lon="-3.26279">
        <ele>17.44</ele>
        <time>2013-11-24T12:57:38Z</time>
      </trkpt>
      <trkpt lat="48.74731" lon="-3.26279">
        <ele>17.44</ele>
        <time>2013-11-24T12:57:40Z</time>
      </trkpt>
      <trkpt lat="48.74731" lon="-3.26279">
        <ele>17.44</ele>
        <time>2013-11-24T12:57:42Z</time>
      </trkpt>
      <trkpt lat="48.74731" lon="-3.26279">
        <ele>17.44</ele>
        <time>2013-11-24T12:57:44Z</time>
      </trkpt>
      <trkpt lat="48.74731" lon="-3.2628">
        <ele>17.44</ele>
        <time>2013-11-24T12:57:46Z</time>
      </trkpt>
      <trkpt lat="48.74732" lon="-3.26281">
        <ele>17.44</ele>
        <time>2013-11-24T12:57:48Z</time>
      </trkpt>
      <trkpt lat="48.74732" lon="-3.26283">
        <ele>17.44</ele>
        <time>2013-11-24T12:57:50Z</time>
      </trkpt>
      <trkpt lat="48.74733" lon="-3.26285">
        <ele>17.44</ele>
        <time>2013-11-24T12:57:52Z</time>
      </trkpt>
      <trkpt lat="48.74734" lon="-3.26287">
        <ele>17.44</ele>
        <time>2013-11-24T12:57:54Z</time>
      </trkpt>
      <trkpt lat="48.74736" lon="-3.26288">
        <ele>17.44</ele>
        <time>2013-11-24T12:57:56Z</time>
      </trkpt>
      <trkpt lat="48.74738" lon="-3.2629">
        <ele>17.92</ele>
        <time>2013-11-24T12:57:58Z</time>
      </trkpt>
      <trkpt lat="48.7474" lon="-3.26291">
        <ele>17.92</ele>
        <time>2013-11-24T12:58:00Z</time>
      </trkpt>
      <trkpt lat="48.74742" lon="-3.26292">
        <ele>17.92</ele>
        <time>2013-11-24T12:58:02Z</time>
      </trkpt>
      <trkpt lat="48.74744" lon="-3.26293">
        <ele>17.92</ele>
        <time>2013-11-24T12:58:04Z</time>
      </trkpt>
      <trkpt lat="48.74745" lon="-3.26293">
        <ele>17.92</ele>
        <time>2013-11-24T12:58:06Z</time>
      </trkpt>
      <trkpt lat="48.74746" lon="-3.26296">
        <ele>17.92</ele>
        <time>2013-11-24T12:58:08Z</time>
      </trkpt>
      <trkpt lat="48.74747" lon="-3.26299">
        <ele>18.4</ele>
        <time>2013-11-24T12:58:10Z</time>
      </trkpt>
      <trkpt lat="48.74748" lon="-3.26302">
        <ele>18.4</ele>
        <time>2013-11-24T12:58:12Z</time>
      </trkpt>
      <trkpt lat="48.7475" lon="-3.26305">
        <ele>18.4</ele>
        <time>2013-11-24T12:58:14Z</time>
      </trkpt>
      <trkpt lat="48.74751" lon="-3.26307">
        <ele>18.88</ele>
        <time>2013-11-24T12:58:16Z</time>
      </trkpt>
      <trkpt lat="48.74753" lon="-3.26308">
        <ele>18.88</ele>
        <time>2013-11-24T12:58:18Z</time>
      </trkpt>
      <trkpt lat="48.74755" lon="-3.2631">
        <ele>18.88</ele>
        <time>2013-11-24T12:58:20Z</time>
      </trkpt>
      <trkpt lat="48.74756" lon="-3.26312">
        <ele>18.88</ele>
        <time>2013-11-24T12:58:22Z</time>
      </trkpt>
      <trkpt lat="48.74758" lon="-3.26313">
        <ele>19.36</ele>
        <time>2013-11-24T12:58:24Z</time>
      </trkpt>
      <trkpt lat="48.7476" lon="-3.26315">
        <ele>19.36</ele>
        <time>2013-11-24T12:58:26Z</time>
      </trkpt>
      <trkpt lat="48.74762" lon="-3.26317">
        <ele>19.36</ele>
        <time>2013-11-24T12:58:28Z</time>
      </trkpt>
      <trkpt lat="48.74764" lon="-3.2632">
        <ele>19.84</ele>
        <time>2013-11-24T12:58:30Z</time>
      </trkpt>
      <trkpt lat="48.74765" lon="-3.26323">
        <ele>19.84</ele>
        <time>2013-11-24T12:58:32Z</time>
      </trkpt>
      <trkpt lat="48.74767" lon="-3.26324">
        <ele>19.84</ele>
        <time>2013-11-24T12:58:34Z</time>
      </trkpt>
      <trkpt lat="48.7477" lon="-3.26325">
        <ele>20.32</ele>
        <time>2013-11-24T12:58:36Z</time>
      </trkpt>
      <trkpt lat="48.74772" lon="-3.26325">
        <ele>20.32</ele>
        <time>2013-11-24T12:58:38Z</time>
      </trkpt>
      <trkpt lat="48.74775" lon="-3.26325">
        <ele>20.32</ele>
        <time>2013-11-24T12:58:40Z</time>
      </trkpt>
      <trkpt lat="48.74777" lon="-3.26326">
        <ele>20.81</ele>
        <time>2013-11-24T12:58:42Z</time>
      </trkpt>
      <trkpt lat="48.7478" lon="-3.26327">
        <ele>20.81</ele>
        <time>2013-11-24T12:58:44Z</time>
      </trkpt>
      <trkpt lat="48.74782" lon="-3.26327">
        <ele>21.29</ele>
        <time>2013-11-24T12:58:46Z</time>
      </trkpt>
      <trkpt lat="48.74784" lon="-3.26327">
        <ele>21.29</ele>
        <time>2013-11-24T12:58:48Z</time>
      </trkpt>
      <trkpt lat="48.74786" lon="-3.26327">
        <ele>21.29</ele>
        <time>2013-11-24T12:58:50Z</time>
      </trkpt>
      <trkpt lat="48.74788" lon="-3.26327">
        <ele>21.77</ele>
        <time>2013-11-24T12:58:52Z</time>
      </trkpt>
      <trkpt lat="48.74791" lon="-3.26328">
        <ele>21.77</ele>
        <time>2013-11-24T12:58:54Z</time>
      </trkpt>
      <trkpt lat="48.74794" lon="-3.26328">
        <ele>21.77</ele>
        <time>2013-11-24T12:58:56Z</time>
      </trkpt>
      <trkpt lat="48.74796" lon="-3.26328">
        <ele>22.25</ele>
        <time>2013-11-24T12:58:58Z</time>
      </trkpt>
      <trkpt lat="48.74799" lon="-3.26327">
        <ele>22.25</ele>
        <time>2013-11-24T12:59:00Z</time>
      </trkpt>
      <trkpt lat="48.74802" lon="-3.26327">
        <ele>22.25</ele>
        <time>2013-11-24T12:59:02Z</time>
      </trkpt>
      <trkpt lat="48.74805" lon="-3.26326">
        <ele>22.73</ele>
        <time>2013-11-24T12:59:04Z</time>
      </trkpt>
      <trkpt lat="48.74807" lon="-3.26326">
        <ele>22.73</ele>
        <time>2013-11-24T12:59:06Z</time>
      </trkpt>
      <trkpt lat="48.7481" lon="-3.26326">
        <ele>22.73</ele>
        <time>2013-11-24T12:59:08Z</time>
      </trkpt>
      <trkpt lat="48.74813" lon="-3.26326">
        <ele>23.21</ele>
        <time>2013-11-24T12:59:10Z</time>
      </trkpt>
      <trkpt lat="48.74815" lon="-3.26325">
        <ele>23.21</ele>
        <time>2013-11-24T12:59:12Z</time>
      </trkpt>
      <trkpt lat="48.74818" lon="-3.26325">
        <ele>23.21</ele>
        <time>2013-11-24T12:59:14Z</time>
      </trkpt>
      <trkpt lat="48.7482" lon="-3.26325">
        <ele>23.21</ele>
        <time>2013-11-24T12:59:16Z</time>
      </trkpt>
      <trkpt lat="48.74822" lon="-3.26325">
        <ele>23.69</ele>
        <time>2013-11-24T12:59:18Z</time>
      </trkpt>
      <trkpt lat="48.74825" lon="-3.26324">
        <ele>23.69</ele>
        <time>2013-11-24T12:59:20Z</time>
      </trkpt>
      <trkpt lat="48.74827" lon="-3.26323">
        <ele>24.17</ele>
        <time>2013-11-24T12:59:22Z</time>
      </trkpt>
      <trkpt lat="48.74829" lon="-3.26322">
        <ele>24.17</ele>
        <time>2013-11-24T12:59:24Z</time>
      </trkpt>
      <trkpt lat="48.7483" lon="-3.26321">
        <ele>24.65</ele>
        <time>2013-11-24T12:59:26Z</time>
      </trkpt>
      <trkpt lat="48.74832" lon="-3.26321">
        <ele>24.65</ele>
        <time>2013-11-24T12:59:28Z</time>
      </trkpt>
      <trkpt lat="48.74832" lon="-3.26321">
        <ele>25.13</ele>
        <time>2013-11-24T12:59:30Z</time>
      </trkpt>
      <trkpt lat="48.74833" lon="-3.26322">
        <ele>25.13</ele>
        <time>2013-11-24T12:59:32Z</time>
      </trkpt>
      <trkpt lat="48.74835" lon="-3.26324">
        <ele>25.13</ele>
        <time>2013-11-24T12:59:34Z</time>
      </trkpt>
      <trkpt lat="48.74837" lon="-3.26325">
        <ele>25.61</ele>
        <time>2013-11-24T12:59:36Z</time>
      </trkpt>
      <trkpt lat="48.74839" lon="-3.26327">
        <ele>25.61</ele>
        <time>2013-11-24T12:59:38Z</time>
      </trkpt>
      <trkpt lat="48.7484" lon="-3.26329">
        <ele>26.09</ele>
        <time>2013-11-24T12:59:40Z</time>
      </trkpt>
      <trkpt lat="48.74842" lon="-3.26332">
        <ele>26.09</ele>
        <time>2013-11-24T12:59:42Z</time>
      </trkpt>
      <trkpt lat="48.74843" lon="-3.26335">
        <ele>26.09</ele>
        <time>2013-11-24T12:59:44Z</time>
      </trkpt>
      <trkpt lat="48.74845" lon="-3.26338">
        <ele>26.09</ele>
        <time>2013-11-24T12:59:46Z</time>
      </trkpt>
      <trkpt lat="48.74846" lon="-3.26341">
        <ele>26.57</ele>
        <time>2013-11-24T12:59:48Z</time>
      </trkpt>
      <trkpt lat="48.74848" lon="-3.26344">
        <ele>26.57</ele>
        <time>2013-11-24T12:59:50Z</time>
      </trkpt>
      <trkpt lat="48.74849" lon="-3.26346">
        <ele>26.57</ele>
        <time>2013-11-24T12:59:52Z</time>
      </trkpt>
      <trkpt lat="48.74851" lon="-3.26349">
        <ele>27.05</ele>
        <time>2013-11-24T12:59:54Z</time>
      </trkpt>
      <trkpt lat="48.74853" lon="-3.26352">
        <ele>27.05</ele>
        <time>2013-11-24T12:59:56Z</time>
      </trkpt>
      <trkpt lat="48.74855" lon="-3.26355">
        <ele>27.53</ele>
        <time>2013-11-24T12:59:58Z</time>
      </trkpt>
      <trkpt lat="48.74857" lon="-3.26358">
        <ele>27.53</ele>
        <time>2013-11-24T13:00:00Z</time>
      </trkpt>
      <trkpt lat="48.74859" lon="-3.2636">
        <ele>28.02</ele>
        <time>2013-11-24T13:00:02Z</time>
      </trkpt>
      <trkpt lat="48.74861" lon="-3.26361">
        <ele>28.02</ele>
        <time>2013-11-24T13:00:04Z</time>
      </trkpt>
      <trkpt lat="48.74862" lon="-3.26363">
        <ele>28.5</ele>
        <time>2013-11-24T13:00:06Z</time>
      </trkpt>
      <trkpt lat="48.74864" lon="-3.26365">
        <ele>28.02</ele>
        <time>2013-11-24T13:00:08Z</time>
      </trkpt>
      <trkpt lat="48.74866" lon="-3.26367">
        <ele>28.5</ele>
        <time>2013-11-24T13:00:10Z</time>
      </trkpt>
      <trkpt lat="48.74868" lon="-3.26369">
        <ele>28.5</ele>
        <time>2013-11-24T13:00:12Z</time>
      </trkpt>
      <trkpt lat="48.74869" lon="-3.26369">
        <ele>28.98</ele>
        <time>2013-11-24T13:00:14Z</time>
      </trkpt>
      <trkpt lat="48.7487" lon="-3.26371">
        <ele>28.98</ele>
        <time>2013-11-24T13:00:16Z</time>
      </trkpt>
      <trkpt lat="48.74872" lon="-3.26373">
        <ele>28.98</ele>
        <time>2013-11-24T13:00:18Z</time>
      </trkpt>
      <trkpt lat="48.74874" lon="-3.26376">
        <ele>29.46</ele>
        <time>2013-11-24T13:00:20Z</time>
      </trkpt>
      <trkpt lat="48.74876" lon="-3.26377">
        <ele>29.94</ele>
        <time>2013-11-24T13:00:22Z</time>
      </trkpt>
      <trkpt lat="48.74878" lon="-3.2638">
        <ele>29.94</ele>
        <time>2013-11-24T13:00:24Z</time>
      </trkpt>
      <trkpt lat="48.7488" lon="-3.26382">
        <ele>29.94</ele>
        <time>2013-11-24T13:00:26Z</time>
      </trkpt>
      <trkpt lat="48.74882" lon="-3.26385">
        <ele>30.42</ele>
        <time>2013-11-24T13:00:28Z</time>
      </trkpt>
      <trkpt lat="48.74884" lon="-3.26387">
        <ele>30.42</ele>
        <time>2013-11-24T13:00:30Z</time>
      </trkpt>
      <trkpt lat="48.74886" lon="-3.2639">
        <ele>30.42</ele>
        <time>2013-11-24T13:00:32Z</time>
      </trkpt>
      <trkpt lat="48.74887" lon="-3.26392">
        <ele>30.42</ele>
        <time>2013-11-24T13:00:34Z</time>
      </trkpt>
      <trkpt lat="48.74889" lon="-3.26394">
        <ele>30.9</ele>
        <time>2013-11-24T13:00:36Z</time>
      </trkpt>
      <trkpt lat="48.74891" lon="-3.26397">
        <ele>30.9</ele>
        <time>2013-11-24T13:00:38Z</time>
      </trkpt>
      <trkpt lat="48.74893" lon="-3.264">
        <ele>31.38</ele>
        <time>2013-11-24T13:00:40Z</time>
      </trkpt>
      <trkpt lat="48.74895" lon="-3.26402">
        <ele>31.38</ele>
        <time>2013-11-24T13:00:42Z</time>
      </trkpt>
      <trkpt lat="48.74897" lon="-3.26405">
        <ele>31.86</ele>
        <time>2013-11-24T13:00:44Z</time>
      </trkpt>
      <trkpt lat="48.74899" lon="-3.26408">
        <ele>31.86</ele>
        <time>2013-11-24T13:00:46Z</time>
      </trkpt>
      <trkpt lat="48.749" lon="-3.26411">
        <ele>31.86</ele>
        <time>2013-11-24T13:00:48Z</time>
      </trkpt>
      <trkpt lat="48.74902" lon="-3.26413">
        <ele>32.34</ele>
        <time>2013-11-24T13:00:50Z</time>
      </trkpt>
      <trkpt lat="48.74903" lon="-3.26416">
        <ele>32.34</ele>
        <time>2013-11-24T13:00:52Z</time>
      </trkpt>
      <trkpt lat="48.74905" lon="-3.26419">
        <ele>32.34</ele>
        <time>2013-11-24T13:00:54Z</time>
      </trkpt>
      <trkpt lat="48.74906" lon="-3.26422">
        <ele>32.82</ele>
        <time>2013-11-24T13:00:56Z</time>
      </trkpt>
      <trkpt lat="48.74908" lon="-3.26424">
        <ele>32.34</ele>
        <time>2013-11-24T13:00:58Z</time>
      </trkpt>
      <trkpt lat="48.7491" lon="-3.26426">
        <ele>33.3</ele>
        <time>2013-11-24T13:01:00Z</time>
      </trkpt>
      <trkpt lat="48.74911" lon="-3.26429">
        <ele>33.3</ele>
        <time>2013-11-24T13:01:02Z</time>
      </trkpt>
      <trkpt lat="48.74913" lon="-3.26432">
        <ele>33.78</ele>
        <time>2013-11-24T13:01:04Z</time>
      </trkpt>
      <trkpt lat="48.74915" lon="-3.26435">
        <ele>33.78</ele>
        <time>2013-11-24T13:01:06Z</time>
      </trkpt>
      <trkpt lat="48.74916" lon="-3.26438">
        <ele>33.78</ele>
        <time>2013-11-24T13:01:08Z</time>
      </trkpt>
      <trkpt lat="48.74918" lon="-3.26441">
        <ele>34.26</ele>
        <time>2013-11-24T13:01:10Z</time>
      </trkpt>
      <trkpt lat="48.74919" lon="-3.26444">
        <ele>34.26</ele>
        <time>2013-11-24T13:01:12Z</time>
      </trkpt>
      <trkpt lat="48.74921" lon="-3.26447">
        <ele>34.74</ele>
        <time>2013-11-24T13:01:14Z</time>
      </trkpt>
      <trkpt lat="48.74922" lon="-3.2645">
        <ele>34.74</ele>
        <time>2013-11-24T13:01:16Z</time>
      </trkpt>
      <trkpt lat="48.74924" lon="-3.26453">
        <ele>34.74</ele>
        <time>2013-11-24T13:01:18Z</time>
      </trkpt>
      <trkpt lat="48.74924" lon="-3.26455">
        <ele>35.23</ele>
        <time>2013-11-24T13:01:20Z</time>
      </trkpt>
      <trkpt lat="48.74926" lon="-3.26457">
        <ele>35.23</ele>
        <time>2013-11-24T13:01:22Z</time>
      </trkpt>
      <trkpt lat="48.74927" lon="-3.26459">
        <ele>35.23</ele>
        <time>2013-11-24T13:01:24Z</time>
      </trkpt>
      <trkpt lat="48.74929" lon="-3.26461">
        <ele>35.23</ele>
        <time>2013-11-24T13:01:26Z</time>
      </trkpt>
      <trkpt lat="48.7493" lon="-3.26465">
        <ele>35.71</ele>
        <time>2013-11-24T13:01:28Z</time>
      </trkpt>
      <trkpt lat="48.74932" lon="-3.26468">
        <ele>35.71</ele>
        <time>2013-11-24T13:01:30Z</time>
      </trkpt>
      <trkpt lat="48.74934" lon="-3.26471">
        <ele>36.19</ele>
        <time>2013-11-24T13:01:32Z</time>
      </trkpt>
      <trkpt lat="48.74936" lon="-3.26474">
        <ele>36.19</ele>
        <time>2013-11-24T13:01:34Z</time>
      </trkpt>
      <trkpt lat="48.74937" lon="-3.26477">
        <ele>36.19</ele>
        <time>2013-11-24T13:01:36Z</time>
      </trkpt>
      <trkpt lat="48.7494" lon="-3.26479">
        <ele>36.67</ele>
        <time>2013-11-24T13:01:38Z</time>
      </trkpt>
      <trkpt lat="48.74942" lon="-3.2648">
        <ele>36.67</ele>
        <time>2013-11-24T13:01:40Z</time>
      </trkpt>
      <trkpt lat="48.74943" lon="-3.26482">
        <ele>37.15</ele>
        <time>2013-11-24T13:01:42Z</time>
      </trkpt>
      <trkpt lat="48.74945" lon="-3.26484">
        <ele>37.15</ele>
        <time>2013-11-24T13:01:44Z</time>
      </trkpt>
      <trkpt lat="48.74947" lon="-3.26487">
        <ele>37.63</ele>
        <time>2013-11-24T13:01:46Z</time>
      </trkpt>
      <trkpt lat="48.74949" lon="-3.26489">
        <ele>37.63</ele>
        <time>2013-11-24T13:01:48Z</time>
      </trkpt>
      <trkpt lat="48.7495" lon="-3.26491">
        <ele>38.11</ele>
        <time>2013-11-24T13:01:50Z</time>
      </trkpt>
      <trkpt lat="48.74952" lon="-3.26494">
        <ele>37.63</ele>
        <time>2013-11-24T13:01:52Z</time>
      </trkpt>
      <trkpt lat="48.74953" lon="-3.26496">
        <ele>37.63</ele>
        <time>2013-11-24T13:01:54Z</time>
      </trkpt>
      <trkpt lat="48.74955" lon="-3.26498">
        <ele>38.11</ele>
        <time>2013-11-24T13:01:56Z</time>
      </trkpt>
      <trkpt lat="48.74956" lon="-3.26501">
        <ele>38.11</ele>
        <time>2013-11-24T13:01:58Z</time>
      </trkpt>
      <trkpt lat="48.74958" lon="-3.26503">
        <ele>38.59</ele>
        <time>2013-11-24T13:02:00Z</time>
      </trkpt>
      <trkpt lat="48.74959" lon="-3.26505">
        <ele>38.59</ele>
        <time>2013-11-24T13:02:02Z</time>
      </trkpt>
      <trkpt lat="48.74961" lon="-3.26507">
        <ele>39.07</ele>
        <time>2013-11-24T13:02:04Z</time>
      </trkpt>
      <trkpt lat="48.74962" lon="-3.26509">
        <ele>39.07</ele>
        <time>2013-11-24T13:02:06Z</time>
      </trkpt>
      <trkpt lat="48.74964" lon="-3.2651">
        <ele>39.55</ele>
        <time>2013-11-24T13:02:08Z</time>
      </trkpt>
      <trkpt lat="48.74964" lon="-3.26512">
        <ele>39.07</ele>
        <time>2013-11-24T13:02:10Z</time>
      </trkpt>
      <trkpt lat="48.74964" lon="-3.26514">
        <ele>39.55</ele>
        <time>2013-11-24T13:02:12Z</time>
      </trkpt>
      <trkpt lat="48.74965" lon="-3.26515">
        <ele>39.55</ele>
        <time>2013-11-24T13:02:14Z</time>
      </trkpt>
      <trkpt lat="48.74967" lon="-3.26517">
        <ele>40.03</ele>
        <time>2013-11-24T13:02:16Z</time>
      </trkpt>
      <trkpt lat="48.74967" lon="-3.2652">
        <ele>40.03</ele>
        <time>2013-11-24T13:02:18Z</time>
      </trkpt>
      <trkpt lat="48.74968" lon="-3.26522">
        <ele>40.51</ele>
        <time>2013-11-24T13:02:20Z</time>
      </trkpt>
      <trkpt lat="48.74969" lon="-3.26524">
        <ele>40.51</ele>
        <time>2013-11-24T13:02:22Z</time>
      </trkpt>
      <trkpt lat="48.7497" lon="-3.26526">
        <ele>40.51</ele>
        <time>2013-11-24T13:02:24Z</time>
      </trkpt>
      <trkpt lat="48.74972" lon="-3.26527">
        <ele>40.51</ele>
        <time>2013-11-24T13:02:26Z</time>
      </trkpt>
      <trkpt lat="48.74973" lon="-3.26529">
        <ele>40.99</ele>
        <time>2013-11-24T13:02:28Z</time>
      </trkpt>
      <trkpt lat="48.74974" lon="-3.26533">
        <ele>41.47</ele>
        <time>2013-11-24T13:02:30Z</time>
      </trkpt>
      <trkpt lat="48.74975" lon="-3.26537">
        <ele>41.47</ele>
        <time>2013-11-24T13:02:32Z</time>
      </trkpt>
      <trkpt lat="48.74975" lon="-3.26539">
        <ele>41.47</ele>
        <time>2013-11-24T13:02:34Z</time>
      </trkpt>
      <trkpt lat="48.74976" lon="-3.26542">
        <ele>41.47</ele>
        <time>2013-11-24T13:02:36Z</time>
      </trkpt>
      <trkpt lat="48.74977" lon="-3.26544">
        <ele>41.95</ele>
        <time>2013-11-24T13:02:38Z</time>
      </trkpt>
      <trkpt lat="48.74978" lon="-3.26547">
        <ele>41.95</ele>
        <time>2013-11-24T13:02:40Z</time>
      </trkpt>
      <trkpt lat="48.74979" lon="-3.2655">
        <ele>41.95</ele>
        <time>2013-11-24T13:02:42Z</time>
      </trkpt>
      <trkpt lat="48.7498" lon="-3.26553">
        <ele>42.44</ele>
        <time>2013-11-24T13:02:44Z</time>
      </trkpt>
      <trkpt lat="48.74981" lon="-3.26556">
        <ele>42.44</ele>
        <time>2013-11-24T13:02:46Z</time>
      </trkpt>
      <trkpt lat="48.74983" lon="-3.26558">
        <ele>42.92</ele>
        <time>2013-11-24T13:02:48Z</time>
      </trkpt>
      <trkpt lat="48.74984" lon="-3.2656">
        <ele>42.44</ele>
        <time>2013-11-24T13:02:50Z</time>
      </trkpt>
      <trkpt lat="48.74986" lon="-3.26561">
        <ele>42.92</ele>
        <time>2013-11-24T13:02:52Z</time>
      </trkpt>
      <trkpt lat="48.74988" lon="-3.26564">
        <ele>42.92</ele>
        <time>2013-11-24T13:02:54Z</time>
      </trkpt>
      <trkpt lat="48.7499" lon="-3.26564">
        <ele>43.4</ele>
        <time>2013-11-24T13:02:56Z</time>
      </trkpt>
      <trkpt lat="48.74992" lon="-3.26565">
        <ele>43.4</ele>
        <time>2013-11-24T13:02:58Z</time>
      </trkpt>
      <trkpt lat="48.74994" lon="-3.26565">
        <ele>43.4</ele>
        <time>2013-11-24T13:03:00Z</time>
      </trkpt>
      <trkpt lat="48.74996" lon="-3.26563">
        <ele>43.88</ele>
        <time>2013-11-24T13:03:02Z</time>
      </trkpt>
      <trkpt lat="48.74999" lon="-3.26562">
        <ele>43.88</ele>
        <time>2013-11-24T13:03:04Z</time>
      </trkpt>
      <trkpt lat="48.75001" lon="-3.26563">
        <ele>43.88</ele>
        <time>2013-11-24T13:03:06Z</time>
      </trkpt>
      <trkpt lat="48.75004" lon="-3.26563">
        <ele>44.36</ele>
        <time>2013-11-24T13:03:08Z</time>
      </trkpt>
      <trkpt lat="48.75006" lon="-3.26564">
        <ele>44.84</ele>
        <time>2013-11-24T13:03:10Z</time>
      </trkpt>
      <trkpt lat="48.75008" lon="-3.26566">
        <ele>44.36</ele>
        <time>2013-11-24T13:03:12Z</time>
      </trkpt>
      <trkpt lat="48.7501" lon="-3.26569">
        <ele>44.36</ele>
        <time>2013-11-24T13:03:14Z</time>
      </trkpt>
      <trkpt lat="48.75011" lon="-3.26572">
        <ele>44.84</ele>
        <time>2013-11-24T13:03:16Z</time>
      </trkpt>
      <trkpt lat="48.75012" lon="-3.26575">
        <ele>44.84</ele>
        <time>2013-11-24T13:03:18Z</time>
      </trkpt>
      <trkpt lat="48.75013" lon="-3.26578">
        <ele>45.32</ele>
        <time>2013-11-24T13:03:20Z</time>
      </trkpt>
      <trkpt lat="48.75014" lon="-3.26582">
        <ele>45.32</ele>
        <time>2013-11-24T13:03:22Z</time>
      </trkpt>
      <trkpt lat="48.75015" lon="-3.26586">
        <ele>45.8</ele>
        <time>2013-11-24T13:03:24Z</time>
      </trkpt>
      <trkpt lat="48.75016" lon="-3.26589">
        <ele>45.8</ele>
        <time>2013-11-24T13:03:26Z</time>
      </trkpt>
      <trkpt lat="48.75017" lon="-3.26591">
        <ele>45.32</ele>
        <time>2013-11-24T13:03:28Z</time>
      </trkpt>
      <trkpt lat="48.75018" lon="-3.26595">
        <ele>45.8</ele>
        <time>2013-11-24T13:03:30Z</time>
      </trkpt>
      <trkpt lat="48.75019" lon="-3.26598">
        <ele>45.8</ele>
        <time>2013-11-24T13:03:32Z</time>
      </trkpt>
      <trkpt lat="48.7502" lon="-3.26601">
        <ele>46.28</ele>
        <time>2013-11-24T13:03:34Z</time>
      </trkpt>
      <trkpt lat="48.75021" lon="-3.26604">
        <ele>46.28</ele>
        <time>2013-11-24T13:03:36Z</time>
      </trkpt>
      <trkpt lat="48.75021" lon="-3.26606">
        <ele>46.76</ele>
        <time>2013-11-24T13:03:38Z</time>
      </trkpt>
      <trkpt lat="48.7502" lon="-3.26606">
        <ele>46.76</ele>
        <time>2013-11-24T13:03:40Z</time>
      </trkpt>
      <trkpt lat="48.7502" lon="-3.26605">
        <ele>47.24</ele>
        <time>2013-11-24T13:03:42Z</time>
      </trkpt>
      <trkpt lat="48.7502" lon="-3.26603">
        <ele>47.24</ele>
        <time>2013-11-24T13:03:44Z</time>
      </trkpt>
      <trkpt lat="48.7502" lon="-3.266">
        <ele>46.76</ele>
        <time>2013-11-24T13:03:46Z</time>
      </trkpt>
      <trkpt lat="48.7502" lon="-3.26597">
        <ele>47.24</ele>
        <time>2013-11-24T13:03:48Z</time>
      </trkpt>
      <trkpt lat="48.7502" lon="-3.26594">
        <ele>47.24</ele>
        <time>2013-11-24T13:03:50Z</time>
      </trkpt>
      <trkpt lat="48.75019" lon="-3.26591">
        <ele>47.72</ele>
        <time>2013-11-24T13:03:52Z</time>
      </trkpt>
      <trkpt lat="48.75019" lon="-3.26587">
        <ele>48.2</ele>
        <time>2013-11-24T13:03:54Z</time>
      </trkpt>
      <trkpt lat="48.75018" lon="-3.26583">
        <ele>48.2</ele>
        <time>2013-11-24T13:03:56Z</time>
      </trkpt>
      <trkpt lat="48.75017" lon="-3.26579">
        <ele>48.68</ele>
        <time>2013-11-24T13:03:58Z</time>
      </trkpt>
      <trkpt lat="48.75016" lon="-3.26576">
        <ele>48.2</ele>
        <time>2013-11-24T13:04:00Z</time>
      </trkpt>
      <trkpt lat="48.75015" lon="-3.26573">
        <ele>48.2</ele>
        <time>2013-11-24T13:04:02Z</time>
      </trkpt>
      <trkpt lat="48.75015" lon="-3.26569">
        <ele>48.68</ele>
        <time>2013-11-24T13:04:04Z</time>
      </trkpt>
      <trkpt lat="48.75014" lon="-3.26565">
        <ele>48.68</ele>
        <time>2013-11-24T13:04:06Z</time>
      </trkpt>
      <trkpt lat="48.75014" lon="-3.26562">
        <ele>49.16</ele>
        <time>2013-11-24T13:04:08Z</time>
      </trkpt>
      <trkpt lat="48.75013" lon="-3.26559">
        <ele>49.16</ele>
        <time>2013-11-24T13:04:10Z</time>
      </trkpt>
      <trkpt lat="48.75011" lon="-3.26558">
        <ele>49.65</ele>
        <time>2013-11-24T13:04:12Z</time>
      </trkpt>
      <trkpt lat="48.75008" lon="-3.26558">
        <ele>49.65</ele>
        <time>2013-11-24T13:04:14Z</time>
      </trkpt>
      <trkpt lat="48.75006" lon="-3.26559">
        <ele>50.13</ele>
        <time>2013-11-24T13:04:16Z</time>
      </trkpt>
      <trkpt lat="48.75003" lon="-3.2656">
        <ele>49.65</ele>
        <time>2013-11-24T13:04:18Z</time>
      </trkpt>
      <trkpt lat="48.75001" lon="-3.2656">
        <ele>50.13</ele>
        <time>2013-11-24T13:04:20Z</time>
      </trkpt>
      <trkpt lat="48.75" lon="-3.2656">
        <ele>50.13</ele>
        <time>2013-11-24T13:04:22Z</time>
      </trkpt>
      <trkpt lat="48.74997" lon="-3.26561">
        <ele>50.13</ele>
        <time>2013-11-24T13:04:24Z</time>
      </trkpt>
      <trkpt lat="48.74995" lon="-3.26563">
        <ele>50.61</ele>
        <time>2013-11-24T13:04:26Z</time>
      </trkpt>
      <trkpt lat="48.74993" lon="-3.26564">
        <ele>50.61</ele>
        <time>2013-11-24T13:04:28Z</time>
      </trkpt>
      <trkpt lat="48.7499" lon="-3.26565">
        <ele>51.09</ele>
        <time>2013-11-24T13:04:30Z</time>
      </trkpt>
      <trkpt lat="48.74988" lon="-3.26565">
        <ele>51.09</ele>
        <time>2013-11-24T13:04:32Z</time>
      </trkpt>
      <trkpt lat="48.74986" lon="-3.26566">
        <ele>51.09</ele>
        <time>2013-11-24T13:04:34Z</time>
      </trkpt>
      <trkpt lat="48.74983" lon="-3.26567">
        <ele>51.57</ele>
        <time>2013-11-24T13:04:36Z</time>
      </trkpt>
      <trkpt lat="48.74981" lon="-3.26568">
        <ele>52.05</ele>
        <time>2013-11-24T13:04:38Z</time>
      </trkpt>
      <trkpt lat="48.74979" lon="-3.2657">
        <ele>52.05</ele>
        <time>2013-11-24T13:04:40Z</time>
      </trkpt>
      <trkpt lat="48.74977" lon="-3.26572">
        <ele>52.05</ele>
        <time>2013-11-24T13:04:42Z</time>
      </trkpt>
      <trkpt lat="48.74974" lon="-3.26573">
        <ele>52.05</ele>
        <time>2013-11-24T13:04:44Z</time>
      </trkpt>
      <trkpt lat="48.74972" lon="-3.26575">
        <ele>52.53</ele>
        <time>2013-11-24T13:04:46Z</time>
      </trkpt>
      <trkpt lat="48.7497" lon="-3.26577">
        <ele>52.53</ele>
        <time>2013-11-24T13:04:48Z</time>
      </trkpt>
      <trkpt lat="48.74968" lon="-3.26579">
        <ele>52.53</ele>
        <time>2013-11-24T13:04:50Z</time>
      </trkpt>
      <trkpt lat="48.74966" lon="-3.26581">
        <ele>53.01</ele>
        <time>2013-11-24T13:04:52Z</time>
      </trkpt>
      <trkpt lat="48.74964" lon="-3.26582">
        <ele>52.53</ele>
        <time>2013-11-24T13:04:54Z</time>
      </trkpt>
      <trkpt lat="48.74962" lon="-3.26583">
        <ele>53.01</ele>
        <time>2013-11-24T13:04:56Z</time>
      </trkpt>
      <trkpt lat="48.74959" lon="-3.26585">
        <ele>53.01</ele>
        <time>2013-11-24T13:04:58Z</time>
      </trkpt>
      <trkpt lat="48.74957" lon="-3.26587">
        <ele>53.01</ele>
        <time>2013-11-24T13:05:00Z</time>
      </trkpt>
      <trkpt lat="48.74955" lon="-3.26589">
        <ele>53.49</ele>
        <time>2013-11-24T13:05:02Z</time>
      </trkpt>
      <trkpt lat="48.74953" lon="-3.26591">
        <ele>53.49</ele>
        <time>2013-11-24T13:05:04Z</time>
      </trkpt>
      <trkpt lat="48.74951" lon="-3.26592">
        <ele>53.49</ele>
        <time>2013-11-24T13:05:06Z</time>
      </trkpt>
      <trkpt lat="48.74948" lon="-3.26593">
        <ele>53.97</ele>
        <time>2013-11-24T13:05:08Z</time>
      </trkpt>
      <trkpt lat="48.74946" lon="-3.26594">
        <ele>54.45</ele>
        <time>2013-11-24T13:05:10Z</time>
      </trkpt>
      <trkpt lat="48.74944" lon="-3.26595">
        <ele>53.97</ele>
        <time>2013-11-24T13:05:12Z</time>
      </trkpt>
      <trkpt lat="48.74941" lon="-3.26596">
        <ele>53.97</ele>
        <time>2013-11-24T13:05:14Z</time>
      </trkpt>
      <trkpt lat="48.7494" lon="-3.26597">
        <ele>53.97</ele>
        <time>2013-11-24T13:05:16Z</time>
      </trkpt>
      <trkpt lat="48.74938" lon="-3.26599">
        <ele>54.45</ele>
        <time>2013-11-24T13:05:18Z</time>
      </trkpt>
      <trkpt lat="48.74938" lon="-3.26603">
        <ele>54.45</ele>
        <time>2013-11-24T13:05:20Z</time>
      </trkpt>
      <trkpt lat="48.74939" lon="-3.26606">
        <ele>54.45</ele>
        <time>2013-11-24T13:05:22Z</time>
      </trkpt>
      <trkpt lat="48.74941" lon="-3.26609">
        <ele>54.93</ele>
        <time>2013-11-24T13:05:24Z</time>
      </trkpt>
      <trkpt lat="48.74944" lon="-3.26612">
        <ele>54.93</ele>
        <time>2013-11-24T13:05:26Z</time>
      </trkpt>
      <trkpt lat="48.74945" lon="-3.26614">
        <ele>55.41</ele>
        <time>2013-11-24T13:05:28Z</time>
      </trkpt>
      <trkpt lat="48.74947" lon="-3.26617">
        <ele>55.41</ele>
        <time>2013-11-24T13:05:30Z</time>
      </trkpt>
      <trkpt lat="48.74949" lon="-3.2662">
        <ele>55.41</ele>
        <time>2013-11-24T13:05:32Z</time>
      </trkpt>
      <trkpt lat="48.74951" lon="-3.26623">
        <ele>54.93</ele>
        <time>2013-11-24T13:05:34Z</time>
      </trkpt>
      <trkpt lat="48.74952" lon="-3.26626">
        <ele>55.41</ele>
        <time>2013-11-24T13:05:36Z</time>
      </trkpt>
      <trkpt lat="48.74952" lon="-3.26628">
        <ele>55.41</ele>
        <time>2013-11-24T13:05:38Z</time>
      </trkpt>
      <trkpt lat="48.74952" lon="-3.26631">
        <ele>55.41</ele>
        <time>2013-11-24T13:05:40Z</time>
      </trkpt>
      <trkpt lat="48.74951" lon="-3.26634">
        <ele>55.89</ele>
        <time>2013-11-24T13:05:42Z</time>
      </trkpt>
      <trkpt lat="48.74951" lon="-3.26637">
        <ele>55.89</ele>
        <time>2013-11-24T13:05:44Z</time>
      </trkpt>
      <trkpt lat="48.74953" lon="-3.26639">
        <ele>55.89</ele>
        <time>2013-11-24T13:05:46Z</time>
      </trkpt>
      <trkpt lat="48.74954" lon="-3.26642">
        <ele>56.37</ele>
        <time>2013-11-24T13:05:48Z</time>
      </trkpt>
      <trkpt lat="48.74955" lon="-3.26645">
        <ele>56.37</ele>
        <time>2013-11-24T13:05:50Z</time>
      </trkpt>
      <trkpt lat="48.74957" lon="-3.26649">
        <ele>56.37</ele>
        <time>2013-11-24T13:05:52Z</time>
      </trkpt>
      <trkpt lat="48.74958" lon="-3.26653">
        <ele>56.37</ele>
        <time>2013-11-24T13:05:54Z</time>
      </trkpt>
      <trkpt lat="48.74959" lon="-3.26657">
        <ele>56.86</ele>
        <time>2013-11-24T13:05:56Z</time>
      </trkpt>
      <trkpt lat="48.7496" lon="-3.26661">
        <ele>56.86</ele>
        <time>2013-11-24T13:05:58Z</time>
      </trkpt>
      <trkpt lat="48.74962" lon="-3.26665">
        <ele>56.86</ele>
        <time>2013-11-24T13:06:00Z</time>
      </trkpt>
      <trkpt lat="48.74963" lon="-3.2667">
        <ele>56.86</ele>
        <time>2013-11-24T13:06:02Z</time>
      </trkpt>
      <trkpt lat="48.74963" lon="-3.26673">
        <ele>56.86</ele>
        <time>2013-11-24T13:06:04Z</time>
      </trkpt>
      <trkpt lat="48.74965" lon="-3.26676">
        <ele>56.86</ele>
        <time>2013-11-24T13:06:06Z</time>
      </trkpt>
      <trkpt lat="48.74965" lon="-3.26679">
        <ele>57.34</ele>
        <time>2013-11-24T13:06:08Z</time>
      </trkpt>
      <trkpt lat="48.74966" lon="-3.26682">
        <ele>57.34</ele>
        <time>2013-11-24T13:06:10Z</time>
      </trkpt>
      <trkpt lat="48.74967" lon="-3.26684">
        <ele>57.82</ele>
        <time>2013-11-24T13:06:12Z</time>
      </trkpt>
      <trkpt lat="48.74967" lon="-3.26686">
        <ele>57.82</ele>
        <time>2013-11-24T13:06:14Z</time>
      </trkpt>
      <trkpt lat="48.74967" lon="-3.26687">
        <ele>57.82</ele>
        <time>2013-11-24T13:06:16Z</time>
      </trkpt>
      <trkpt lat="48.74966" lon="-3.26687">
        <ele>57.82</ele>
        <time>2013-11-24T13:06:18Z</time>
      </trkpt>
      <trkpt lat="48.74965" lon="-3.26689">
        <ele>57.82</ele>
        <time>2013-11-24T13:06:20Z</time>
      </trkpt>
      <trkpt lat="48.74964" lon="-3.2669">
        <ele>57.82</ele>
        <time>2013-11-24T13:06:22Z</time>
      </trkpt>
      <trkpt lat="48.74962" lon="-3.2669">
        <ele>58.3</ele>
        <time>2013-11-24T13:06:24Z</time>
      </trkpt>
      <trkpt lat="48.7496" lon="-3.26691">
        <ele>58.3</ele>
        <time>2013-11-24T13:06:26Z</time>
      </trkpt>
      <trkpt lat="48.74958" lon="-3.26691">
        <ele>57.82</ele>
        <time>2013-11-24T13:06:28Z</time>
      </trkpt>
      <trkpt lat="48.74956" lon="-3.26691">
        <ele>58.3</ele>
        <time>2013-11-24T13:06:30Z</time>
      </trkpt>
      <trkpt lat="48.74954" lon="-3.2669">
        <ele>58.3</ele>
        <time>2013-11-24T13:06:32Z</time>
      </trkpt>
      <trkpt lat="48.74952" lon="-3.26689">
        <ele>58.3</ele>
        <time>2013-11-24T13:06:34Z</time>
      </trkpt>
      <trkpt lat="48.7495" lon="-3.26689">
        <ele>58.78</ele>
        <time>2013-11-24T13:06:36Z</time>
      </trkpt>
      <trkpt lat="48.74948" lon="-3.26689">
        <ele>58.78</ele>
        <time>2013-11-24T13:06:38Z</time>
      </trkpt>
      <trkpt lat="48.74946" lon="-3.26688">
        <ele>58.78</ele>
        <time>2013-11-24T13:06:40Z</time>
      </trkpt>
      <trkpt lat="48.74944" lon="-3.26688">
        <ele>59.26</ele>
        <time>2013-11-24T13:06:42Z</time>
      </trkpt>
      <trkpt lat="48.74942" lon="-3.26687">
        <ele>58.78</ele>
        <time>2013-11-24T13:06:44Z</time>
      </trkpt>
      <trkpt lat="48.74941" lon="-3.26687">
        <ele>58.78</ele>
        <time>2013-11-24T13:06:46Z</time>
      </trkpt>
      <trkpt lat="48.74939" lon="-3.26687">
        <ele>59.26</ele>
        <time>2013-11-24T13:06:48Z</time>
      </trkpt>
      <trkpt lat="48.74937" lon="-3.26686">
        <ele>59.26</ele>
        <time>2013-11-24T13:06:50Z</time>
      </trkpt>
      <trkpt lat="48.74935" lon="-3.26685">
        <ele>59.74</ele>
        <time>2013-11-24T13:06:52Z</time>
      </trkpt>
      <trkpt lat="48.74933" lon="-3.26684">
        <ele>59.26</ele>
        <time>2013-11-24T13:06:54Z</time>
      </trkpt>
      <trkpt lat="48.74931" lon="-3.26685">
        <ele>59.26</ele>
        <time>2013-11-24T13:06:56Z</time>
      </trkpt>
      <trkpt lat="48.74928" lon="-3.26685">
        <ele>59.74</ele>
        <time>2013-11-24T13:06:58Z</time>
      </trkpt>
      <trkpt lat="48.74926" lon="-3.26685">
        <ele>59.74</ele>
        <time>2013-11-24T13:07:00Z</time>
      </trkpt>
      <trkpt lat="48.74924" lon="-3.26685">
        <ele>59.74</ele>
        <time>2013-11-24T13:07:02Z</time>
      </trkpt>
      <trkpt lat="48.74921" lon="-3.26685">
        <ele>60.22</ele>
        <time>2013-11-24T13:07:04Z</time>
      </trkpt>
      <trkpt lat="48.74919" lon="-3.26685">
        <ele>59.74</ele>
        <time>2013-11-24T13:07:06Z</time>
      </trkpt>
      <trkpt lat="48.74916" lon="-3.26684">
        <ele>60.22</ele>
        <time>2013-11-24T13:07:08Z</time>
      </trkpt>
      <trkpt lat="48.74914" lon="-3.26684">
        <ele>60.22</ele>
        <time>2013-11-24T13:07:10Z</time>
      </trkpt>
      <trkpt lat="48.74911" lon="-3.26684">
        <ele>60.22</ele>
        <time>2013-11-24T13:07:12Z</time>
      </trkpt>
      <trkpt lat="48.74909" lon="-3.26683">
        <ele>60.22</ele>
        <time>2013-11-24T13:07:14Z</time>
      </trkpt>
      <trkpt lat="48.74906" lon="-3.26684">
        <ele>60.7</ele>
        <time>2013-11-24T13:07:16Z</time>
      </trkpt>
      <trkpt lat="48.74904" lon="-3.26683">
        <ele>60.22</ele>
        <time>2013-11-24T13:07:18Z</time>
      </trkpt>
      <trkpt lat="48.74902" lon="-3.26683">
        <ele>60.22</ele>
        <time>2013-11-24T13:07:20Z</time>
      </trkpt>
      <trkpt lat="48.749" lon="-3.26681">
        <ele>60.7</ele>
        <time>2013-11-24T13:07:22Z</time>
      </trkpt>
      <trkpt lat="48.74897" lon="-3.2668">
        <ele>60.7</ele>
        <time>2013-11-24T13:07:24Z</time>
      </trkpt>
      <trkpt lat="48.74895" lon="-3.26678">
        <ele>60.7</ele>
        <time>2013-11-24T13:07:26Z</time>
      </trkpt>
      <trkpt lat="48.74893" lon="-3.26675">
        <ele>61.18</ele>
        <time>2013-11-24T13:07:28Z</time>
      </trkpt>
      <trkpt lat="48.74892" lon="-3.26673">
        <ele>61.18</ele>
        <time>2013-11-24T13:07:30Z</time>
      </trkpt>
      <trkpt lat="48.7489" lon="-3.26671">
        <ele>60.7</ele>
        <time>2013-11-24T13:07:32Z</time>
      </trkpt>
      <trkpt lat="48.74888" lon="-3.26669">
        <ele>61.18</ele>
        <time>2013-11-24T13:07:34Z</time>
      </trkpt>
      <trkpt lat="48.74886" lon="-3.26668">
        <ele>61.18</ele>
        <time>2013-11-24T13:07:36Z</time>
      </trkpt>
      <trkpt lat="48.74883" lon="-3.26667">
        <ele>61.18</ele>
        <time>2013-11-24T13:07:38Z</time>
      </trkpt>
      <trkpt lat="48.74881" lon="-3.26665">
        <ele>61.18</ele>
        <time>2013-11-24T13:07:40Z</time>
      </trkpt>
      <trkpt lat="48.74878" lon="-3.26665">
        <ele>61.18</ele>
        <time>2013-11-24T13:07:42Z</time>
      </trkpt>
      <trkpt lat="48.74875" lon="-3.26665">
        <ele>61.18</ele>
        <time>2013-11-24T13:07:44Z</time>
      </trkpt>
      <trkpt lat="48.7487" lon="-3.26667">
        <ele>61.66</ele>
        <time>2013-11-24T13:07:46Z</time>
      </trkpt>
      <trkpt lat="48.74867" lon="-3.26666">
        <ele>61.66</ele>
        <time>2013-11-24T13:07:48Z</time>
      </trkpt>
      <trkpt lat="48.74866" lon="-3.26665">
        <ele>62.14</ele>
        <time>2013-11-24T13:07:50Z</time>
      </trkpt>
      <trkpt lat="48.74863" lon="-3.26663">
        <ele>61.66</ele>
        <time>2013-11-24T13:07:52Z</time>
      </trkpt>
      <trkpt lat="48.74861" lon="-3.26662">
        <ele>61.66</ele>
        <time>2013-11-24T13:07:54Z</time>
      </trkpt>
      <trkpt lat="48.74859" lon="-3.26661">
        <ele>62.14</ele>
        <time>2013-11-24T13:07:56Z</time>
      </trkpt>
      <trkpt lat="48.74857" lon="-3.26659">
        <ele>62.14</ele>
        <time>2013-11-24T13:07:58Z</time>
      </trkpt>
      <trkpt lat="48.74856" lon="-3.26658">
        <ele>62.62</ele>
        <time>2013-11-24T13:08:00Z</time>
      </trkpt>
      <trkpt lat="48.74853" lon="-3.26657">
        <ele>62.14</ele>
        <time>2013-11-24T13:08:02Z</time>
      </trkpt>
      <trkpt lat="48.74852" lon="-3.26656">
        <ele>62.14</ele>
        <time>2013-11-24T13:08:04Z</time>
      </trkpt>
      <trkpt lat="48.7485" lon="-3.26655">
        <ele>62.14</ele>
        <time>2013-11-24T13:08:06Z</time>
      </trkpt>
      <trkpt lat="48.74849" lon="-3.26652">
        <ele>62.62</ele>
        <time>2013-11-24T13:08:08Z</time>
      </trkpt>
      <trkpt lat="48.74848" lon="-3.26651">
        <ele>62.62</ele>
        <time>2013-11-24T13:08:10Z</time>
      </trkpt>
      <trkpt lat="48.74846" lon="-3.2665">
        <ele>62.14</ele>
        <time>2013-11-24T13:08:12Z</time>
      </trkpt>
      <trkpt lat="48.74844" lon="-3.26648">
        <ele>62.62</ele>
        <time>2013-11-24T13:08:14Z</time>
      </trkpt>
      <trkpt lat="48.74842" lon="-3.26647">
        <ele>62.62</ele>
        <time>2013-11-24T13:08:16Z</time>
      </trkpt>
      <trkpt lat="48.7484" lon="-3.26645">
        <ele>62.62</ele>
        <time>2013-11-24T13:08:18Z</time>
      </trkpt>
      <trkpt lat="48.74838" lon="-3.26644">
        <ele>63.1</ele>
        <time>2013-11-24T13:08:20Z</time>
      </trkpt>
      <trkpt lat="48.74836" lon="-3.26642">
        <ele>62.62</ele>
        <time>2013-11-24T13:08:22Z</time>
      </trkpt>
      <trkpt lat="48.74833" lon="-3.2664">
        <ele>62.62</ele>
        <time>2013-11-24T13:08:24Z</time>
      </trkpt>
      <trkpt lat="48.7483" lon="-3.26639">
        <ele>63.1</ele>
        <time>2013-11-24T13:08:26Z</time>
      </trkpt>
      <trkpt lat="48.74828" lon="-3.26636">
        <ele>63.1</ele>
        <time>2013-11-24T13:08:28Z</time>
      </trkpt>
      <trkpt lat="48.74825" lon="-3.26634">
        <ele>63.1</ele>
        <time>2013-11-24T13:08:30Z</time>
      </trkpt>
      <trkpt lat="48.74823" lon="-3.26632">
        <ele>63.1</ele>
        <time>2013-11-24T13:08:32Z</time>
      </trkpt>
      <trkpt lat="48.74821" lon="-3.2663">
        <ele>63.1</ele>
        <time>2013-11-24T13:08:34Z</time>
      </trkpt>
      <trkpt lat="48.74819" lon="-3.26627">
        <ele>63.1</ele>
        <time>2013-11-24T13:08:36Z</time>
      </trkpt>
      <trkpt lat="48.74817" lon="-3.26625">
        <ele>63.58</ele>
        <time>2013-11-24T13:08:38Z</time>
      </trkpt>
      <trkpt lat="48.74815" lon="-3.26623">
        <ele>63.58</ele>
        <time>2013-11-24T13:08:40Z</time>
      </trkpt>
      <trkpt lat="48.74813" lon="-3.26622">
        <ele>63.58</ele>
        <time>2013-11-24T13:08:42Z</time>
      </trkpt>
      <trkpt lat="48.74811" lon="-3.2662">
        <ele>63.58</ele>
        <time>2013-11-24T13:08:44Z</time>
      </trkpt>
      <trkpt lat="48.74807" lon="-3.26618">
        <ele>63.58</ele>
        <time>2013-11-24T13:08:46Z</time>
      </trkpt>
      <trkpt lat="48.74805" lon="-3.26617">
        <ele>63.58</ele>
        <time>2013-11-24T13:08:48Z</time>
      </trkpt>
      <trkpt lat="48.74803" lon="-3.26616">
        <ele>63.58</ele>
        <time>2013-11-24T13:08:50Z</time>
      </trkpt>
      <trkpt lat="48.74801" lon="-3.26615">
        <ele>64.07</ele>
        <time>2013-11-24T13:08:52Z</time>
      </trkpt>
      <trkpt lat="48.74799" lon="-3.26614">
        <ele>64.07</ele>
        <time>2013-11-24T13:08:54Z</time>
      </trkpt>
      <trkpt lat="48.74797" lon="-3.26613">
        <ele>64.07</ele>
        <time>2013-11-24T13:08:56Z</time>
      </trkpt>
      <trkpt lat="48.74794" lon="-3.26613">
        <ele>64.07</ele>
        <time>2013-11-24T13:08:58Z</time>
      </trkpt>
      <trkpt lat="48.74791" lon="-3.26613">
        <ele>64.07</ele>
        <time>2013-11-24T13:09:00Z</time>
      </trkpt>
      <trkpt lat="48.7479" lon="-3.26612">
        <ele>64.07</ele>
        <time>2013-11-24T13:09:02Z</time>
      </trkpt>
      <trkpt lat="48.74787" lon="-3.26611">
        <ele>64.07</ele>
        <time>2013-11-24T13:09:04Z</time>
      </trkpt>
      <trkpt lat="48.74785" lon="-3.26611">
        <ele>64.07</ele>
        <time>2013-11-24T13:09:06Z</time>
      </trkpt>
      <trkpt lat="48.74782" lon="-3.2661">
        <ele>64.07</ele>
        <time>2013-11-24T13:09:08Z</time>
      </trkpt>
      <trkpt lat="48.74779" lon="-3.2661">
        <ele>64.55</ele>
        <time>2013-11-24T13:09:10Z</time>
      </trkpt>
      <trkpt lat="48.74776" lon="-3.2661">
        <ele>64.55</ele>
        <time>2013-11-24T13:09:12Z</time>
      </trkpt>
      <trkpt lat="48.74774" lon="-3.26609">
        <ele>64.55</ele>
        <time>2013-11-24T13:09:14Z</time>
      </trkpt>
      <trkpt lat="48.74771" lon="-3.26609">
        <ele>64.55</ele>
        <time>2013-11-24T13:09:16Z</time>
      </trkpt>
      <trkpt lat="48.74768" lon="-3.26608">
        <ele>64.55</ele>
        <time>2013-11-24T13:09:18Z</time>
      </trkpt>
      <trkpt lat="48.74765" lon="-3.26608">
        <ele>64.55</ele>
        <time>2013-11-24T13:09:20Z</time>
      </trkpt>
      <trkpt lat="48.74763" lon="-3.26607">
        <ele>64.55</ele>
        <time>2013-11-24T13:09:22Z</time>
      </trkpt>
      <trkpt lat="48.7476" lon="-3.26606">
        <ele>65.03</ele>
        <time>2013-11-24T13:09:24Z</time>
      </trkpt>
      <trkpt lat="48.74757" lon="-3.26606">
        <ele>64.55</ele>
        <time>2013-11-24T13:09:26Z</time>
      </trkpt>
      <trkpt lat="48.74755" lon="-3.26605">
        <ele>64.55</ele>
        <time>2013-11-24T13:09:28Z</time>
      </trkpt>
      <trkpt lat="48.74752" lon="-3.26603">
        <ele>65.03</ele>
        <time>2013-11-24T13:09:30Z</time>
      </trkpt>
      <trkpt lat="48.7475" lon="-3.26602">
        <ele>65.03</ele>
        <time>2013-11-24T13:09:32Z</time>
      </trkpt>
      <trkpt lat="48.74747" lon="-3.266">
        <ele>65.03</ele>
        <time>2013-11-24T13:09:34Z</time>
      </trkpt>
      <trkpt lat="48.74745" lon="-3.26598">
        <ele>65.03</ele>
        <time>2013-11-24T13:09:36Z</time>
      </trkpt>
      <trkpt lat="48.74742" lon="-3.26596">
        <ele>65.03</ele>
        <time>2013-11-24T13:09:38Z</time>
      </trkpt>
      <trkpt lat="48.7474" lon="-3.26593">
        <ele>65.03</ele>
        <time>2013-11-24T13:09:40Z</time>
      </trkpt>
      <trkpt lat="48.74739" lon="-3.26589">
        <ele>65.03</ele>
        <time>2013-11-24T13:09:42Z</time>
      </trkpt>
      <trkpt lat="48.74737" lon="-3.26586">
        <ele>65.51</ele>
        <time>2013-11-24T13:09:44Z</time>
      </trkpt>
      <trkpt lat="48.74735" lon="-3.26584">
        <ele>65.51</ele>
        <time>2013-11-24T13:09:46Z</time>
      </trkpt>
      <trkpt lat="48.74733" lon="-3.26582">
        <ele>65.51</ele>
        <time>2013-11-24T13:09:48Z</time>
      </trkpt>
      <trkpt lat="48.74731" lon="-3.26581">
        <ele>65.03</ele>
        <time>2013-11-24T13:09:50Z</time>
      </trkpt>
      <trkpt lat="48.7473" lon="-3.26577">
        <ele>65.03</ele>
        <time>2013-11-24T13:09:52Z</time>
      </trkpt>
      <trkpt lat="48.7473" lon="-3.26572">
        <ele>65.51</ele>
        <time>2013-11-24T13:09:54Z</time>
      </trkpt>
      <trkpt lat="48.74729" lon="-3.26568">
        <ele>65.51</ele>
        <time>2013-11-24T13:09:56Z</time>
      </trkpt>
      <trkpt lat="48.74728" lon="-3.26565">
        <ele>65.99</ele>
        <time>2013-11-24T13:09:58Z</time>
      </trkpt>
      <trkpt lat="48.74726" lon="-3.26563">
        <ele>65.51</ele>
        <time>2013-11-24T13:10:00Z</time>
      </trkpt>
      <trkpt lat="48.74725" lon="-3.26561">
        <ele>65.51</ele>
        <time>2013-11-24T13:10:02Z</time>
      </trkpt>
      <trkpt lat="48.74723" lon="-3.26559">
        <ele>65.51</ele>
        <time>2013-11-24T13:10:04Z</time>
      </trkpt>
      <trkpt lat="48.74721" lon="-3.26556">
        <ele>65.51</ele>
        <time>2013-11-24T13:10:06Z</time>
      </trkpt>
      <trkpt lat="48.74718" lon="-3.26552">
        <ele>65.51</ele>
        <time>2013-11-24T13:10:08Z</time>
      </trkpt>
      <trkpt lat="48.74716" lon="-3.26549">
        <ele>65.51</ele>
        <time>2013-11-24T13:10:10Z</time>
      </trkpt>
      <trkpt lat="48.74714" lon="-3.26547">
        <ele>65.51</ele>
        <time>2013-11-24T13:10:12Z</time>
      </trkpt>
      <trkpt lat="48.7471" lon="-3.26545">
        <ele>65.51</ele>
        <time>2013-11-24T13:10:14Z</time>
      </trkpt>
      <trkpt lat="48.74707" lon="-3.26543">
        <ele>65.51</ele>
        <time>2013-11-24T13:10:16Z</time>
      </trkpt>
      <trkpt lat="48.74703" lon="-3.26541">
        <ele>65.51</ele>
        <time>2013-11-24T13:10:18Z</time>
      </trkpt>
      <trkpt lat="48.74701" lon="-3.2654">
        <ele>65.99</ele>
        <time>2013-11-24T13:10:20Z</time>
      </trkpt>
      <trkpt lat="48.74699" lon="-3.26538">
        <ele>65.99</ele>
        <time>2013-11-24T13:10:22Z</time>
      </trkpt>
      <trkpt lat="48.74697" lon="-3.26535">
        <ele>65.99</ele>
        <time>2013-11-24T13:10:24Z</time>
      </trkpt>
      <trkpt lat="48.74694" lon="-3.26533">
        <ele>65.99</ele>
        <time>2013-11-24T13:10:26Z</time>
      </trkpt>
      <trkpt lat="48.74692" lon="-3.26531">
        <ele>65.99</ele>
        <time>2013-11-24T13:10:28Z</time>
      </trkpt>
      <trkpt lat="48.74689" lon="-3.2653">
        <ele>65.99</ele>
        <time>2013-11-24T13:10:30Z</time>
      </trkpt>
      <trkpt lat="48.74687" lon="-3.26529">
        <ele>65.99</ele>
        <time>2013-11-24T13:10:32Z</time>
      </trkpt>
      <trkpt lat="48.74685" lon="-3.26527">
        <ele>66.47</ele>
        <time>2013-11-24T13:10:34Z</time>
      </trkpt>
      <trkpt lat="48.74683" lon="-3.26524">
        <ele>65.99</ele>
        <time>2013-11-24T13:10:36Z</time>
      </trkpt>
      <trkpt lat="48.74681" lon="-3.26522">
        <ele>65.99</ele>
        <time>2013-11-24T13:10:38Z</time>
      </trkpt>
      <trkpt lat="48.74679" lon="-3.2652">
        <ele>65.99</ele>
        <time>2013-11-24T13:10:40Z</time>
      </trkpt>
      <trkpt lat="48.74677" lon="-3.26518">
        <ele>66.47</ele>
        <time>2013-11-24T13:10:42Z</time>
      </trkpt>
      <trkpt lat="48.74674" lon="-3.26517">
        <ele>66.47</ele>
        <time>2013-11-24T13:10:44Z</time>
      </trkpt>
      <trkpt lat="48.74671" lon="-3.26515">
        <ele>65.99</ele>
        <time>2013-11-24T13:10:46Z</time>
      </trkpt>
      <trkpt lat="48.74669" lon="-3.26513">
        <ele>66.47</ele>
        <time>2013-11-24T13:10:48Z</time>
      </trkpt>
      <trkpt lat="48.74667" lon="-3.26511">
        <ele>66.47</ele>
        <time>2013-11-24T13:10:50Z</time>
      </trkpt>
      <trkpt lat="48.74665" lon="-3.26509">
        <ele>66.47</ele>
        <time>2013-11-24T13:10:52Z</time>
      </trkpt>
      <trkpt lat="48.74663" lon="-3.26507">
        <ele>66.47</ele>
        <time>2013-11-24T13:10:54Z</time>
      </trkpt>
      <trkpt lat="48.74661" lon="-3.26506">
        <ele>66.95</ele>
        <time>2013-11-24T13:10:56Z</time>
      </trkpt>
      <trkpt lat="48.74658" lon="-3.26504">
        <ele>66.95</ele>
        <time>2013-11-24T13:10:58Z</time>
      </trkpt>
      <trkpt lat="48.74656" lon="-3.26502">
        <ele>66.95</ele>
        <time>2013-11-24T13:11:00Z</time>
      </trkpt>
      <trkpt lat="48.74654" lon="-3.26499">
        <ele>66.47</ele>
        <time>2013-11-24T13:11:02Z</time>
      </trkpt>
      <trkpt lat="48.74652" lon="-3.26497">
        <ele>66.95</ele>
        <time>2013-11-24T13:11:04Z</time>
      </trkpt>
      <trkpt lat="48.7465" lon="-3.26494">
        <ele>66.95</ele>
        <time>2013-11-24T13:11:06Z</time>
      </trkpt>
      <trkpt lat="48.74648" lon="-3.26493">
        <ele>67.43</ele>
        <time>2013-11-24T13:11:08Z</time>
      </trkpt>
      <trkpt lat="48.74646" lon="-3.26492">
        <ele>66.95</ele>
        <time>2013-11-24T13:11:10Z</time>
      </trkpt>
      <trkpt lat="48.74643" lon="-3.26491">
        <ele>66.95</ele>
        <time>2013-11-24T13:11:12Z</time>
      </trkpt>
      <trkpt lat="48.74641" lon="-3.26489">
        <ele>66.95</ele>
        <time>2013-11-24T13:11:14Z</time>
      </trkpt>
      <trkpt lat="48.74638" lon="-3.26487">
        <ele>66.95</ele>
        <time>2013-11-24T13:11:16Z</time>
      </trkpt>
      <trkpt lat="48.74636" lon="-3.26485">
        <ele>67.43</ele>
        <time>2013-11-24T13:11:18Z</time>
      </trkpt>
      <trkpt lat="48.74634" lon="-3.26483">
        <ele>67.43</ele>
        <time>2013-11-24T13:11:20Z</time>
      </trkpt>
      <trkpt lat="48.74632" lon="-3.26482">
        <ele>67.43</ele>
        <time>2013-11-24T13:11:22Z</time>
      </trkpt>
      <trkpt lat="48.7463" lon="-3.26481">
        <ele>66.95</ele>
        <time>2013-11-24T13:11:24Z</time>
      </trkpt>
      <trkpt lat="48.74628" lon="-3.26479">
        <ele>66.95</ele>
        <time>2013-11-24T13:11:26Z</time>
      </trkpt>
      <trkpt lat="48.74626" lon="-3.26478">
        <ele>67.43</ele>
        <time>2013-11-24T13:11:28Z</time>
      </trkpt>
      <trkpt lat="48.74623" lon="-3.26476">
        <ele>67.43</ele>
        <time>2013-11-24T13:11:30Z</time>
      </trkpt>
      <trkpt lat="48.74621" lon="-3.26474">
        <ele>67.43</ele>
        <time>2013-11-24T13:11:32Z</time>
      </trkpt>
      <trkpt lat="48.74619" lon="-3.26472">
        <ele>67.43</ele>
        <time>2013-11-24T13:11:34Z</time>
      </trkpt>
      <trkpt lat="48.74617" lon="-3.2647">
        <ele>67.43</ele>
        <time>2013-11-24T13:11:36Z</time>
      </trkpt>
      <trkpt lat="48.74615" lon="-3.26467">
        <ele>67.91</ele>
        <time>2013-11-24T13:11:38Z</time>
      </trkpt>
      <trkpt lat="48.74613" lon="-3.26465">
        <ele>67.91</ele>
        <time>2013-11-24T13:11:40Z</time>
      </trkpt>
      <trkpt lat="48.7461" lon="-3.26464">
        <ele>67.91</ele>
        <time>2013-11-24T13:11:42Z</time>
      </trkpt>
      <trkpt lat="48.74608" lon="-3.26463">
        <ele>67.43</ele>
        <time>2013-11-24T13:11:44Z</time>
      </trkpt>
      <trkpt lat="48.74606" lon="-3.26461">
        <ele>67.91</ele>
        <time>2013-11-24T13:11:46Z</time>
      </trkpt>
      <trkpt lat="48.74604" lon="-3.2646">
        <ele>67.91</ele>
        <time>2013-11-24T13:11:48Z</time>
      </trkpt>
      <trkpt lat="48.74602" lon="-3.26458">
        <ele>67.91</ele>
        <time>2013-11-24T13:11:50Z</time>
      </trkpt>
      <trkpt lat="48.746" lon="-3.26458">
        <ele>67.91</ele>
        <time>2013-11-24T13:11:52Z</time>
      </trkpt>
      <trkpt lat="48.74597" lon="-3.26458">
        <ele>67.91</ele>
        <time>2013-11-24T13:11:54Z</time>
      </trkpt>
      <trkpt lat="48.74595" lon="-3.26459">
        <ele>67.91</ele>
        <time>2013-11-24T13:11:56Z</time>
      </trkpt>
      <trkpt lat="48.74593" lon="-3.26457">
        <ele>67.91</ele>
        <time>2013-11-24T13:11:58Z</time>
      </trkpt>
      <trkpt lat="48.74591" lon="-3.26456">
        <ele>67.91</ele>
        <time>2013-11-24T13:12:00Z</time>
      </trkpt>
      <trkpt lat="48.74589" lon="-3.26455">
        <ele>67.91</ele>
        <time>2013-11-24T13:12:02Z</time>
      </trkpt>
      <trkpt lat="48.74587" lon="-3.26454">
        <ele>68.39</ele>
        <time>2013-11-24T13:12:04Z</time>
      </trkpt>
      <trkpt lat="48.74584" lon="-3.26453">
        <ele>68.39</ele>
        <time>2013-11-24T13:12:06Z</time>
      </trkpt>
      <trkpt lat="48.74582" lon="-3.26451">
        <ele>68.39</ele>
        <time>2013-11-24T13:12:08Z</time>
      </trkpt>
      <trkpt lat="48.74579" lon="-3.26449">
        <ele>67.91</ele>
        <time>2013-11-24T13:12:10Z</time>
      </trkpt>
      <trkpt lat="48.74577" lon="-3.26447">
        <ele>67.91</ele>
        <time>2013-11-24T13:12:12Z</time>
      </trkpt>
      <trkpt lat="48.74575" lon="-3.26445">
        <ele>68.39</ele>
        <time>2013-11-24T13:12:14Z</time>
      </trkpt>
      <trkpt lat="48.74573" lon="-3.26442">
        <ele>68.39</ele>
        <time>2013-11-24T13:12:16Z</time>
      </trkpt>
      <trkpt lat="48.74571" lon="-3.2644">
        <ele>68.39</ele>
        <time>2013-11-24T13:12:18Z</time>
      </trkpt>
      <trkpt lat="48.74569" lon="-3.26437">
        <ele>68.39</ele>
        <time>2013-11-24T13:12:20Z</time>
      </trkpt>
      <trkpt lat="48.74567" lon="-3.26435">
        <ele>68.39</ele>
        <time>2013-11-24T13:12:22Z</time>
      </trkpt>
      <trkpt lat="48.74565" lon="-3.26435">
        <ele>68.39</ele>
        <time>2013-11-24T13:12:24Z</time>
      </trkpt>
      <trkpt lat="48.74566" lon="-3.2644">
        <ele>68.39</ele>
        <time>2013-11-24T13:12:26Z</time>
      </trkpt>
      <trkpt lat="48.74566" lon="-3.2644">
        <ele>68.39</ele>
        <time>2013-11-24T13:12:28Z</time>
      </trkpt>
      <trkpt lat="48.74565" lon="-3.26439">
        <ele>68.87</ele>
        <time>2013-11-24T13:12:30Z</time>
      </trkpt>
      <trkpt lat="48.74563" lon="-3.26436">
        <ele>68.39</ele>
        <time>2013-11-24T13:12:32Z</time>
      </trkpt>
      <trkpt lat="48.74562" lon="-3.26433">
        <ele>68.39</ele>
        <time>2013-11-24T13:12:34Z</time>
      </trkpt>
      <trkpt lat="48.7456" lon="-3.26431">
        <ele>68.39</ele>
        <time>2013-11-24T13:12:36Z</time>
      </trkpt>
      <trkpt lat="48.74558" lon="-3.26428">
        <ele>68.39</ele>
        <time>2013-11-24T13:12:38Z</time>
      </trkpt>
      <trkpt lat="48.74557" lon="-3.26426">
        <ele>68.87</ele>
        <time>2013-11-24T13:12:40Z</time>
      </trkpt>
      <trkpt lat="48.74555" lon="-3.26424">
        <ele>68.87</ele>
        <time>2013-11-24T13:12:42Z</time>
      </trkpt>
      <trkpt lat="48.74554" lon="-3.26422">
        <ele>68.87</ele>
        <time>2013-11-24T13:12:44Z</time>
      </trkpt>
      <trkpt lat="48.74554" lon="-3.26419">
        <ele>68.87</ele>
        <time>2013-11-24T13:12:46Z</time>
      </trkpt>
      <trkpt lat="48.74553" lon="-3.26416">
        <ele>68.87</ele>
        <time>2013-11-24T13:12:48Z</time>
      </trkpt>
      <trkpt lat="48.74553" lon="-3.26413">
        <ele>68.87</ele>
        <time>2013-11-24T13:12:50Z</time>
      </trkpt>
      <trkpt lat="48.74552" lon="-3.26409">
        <ele>68.87</ele>
        <time>2013-11-24T13:12:52Z</time>
      </trkpt>
      <trkpt lat="48.74551" lon="-3.26406">
        <ele>68.87</ele>
        <time>2013-11-24T13:12:54Z</time>
      </trkpt>
      <trkpt lat="48.7455" lon="-3.26405">
        <ele>69.35</ele>
        <time>2013-11-24T13:12:56Z</time>
      </trkpt>
      <trkpt lat="48.7455" lon="-3.26406">
        <ele>68.87</ele>
        <time>2013-11-24T13:12:58Z</time>
      </trkpt>
      <trkpt lat="48.7455" lon="-3.26406">
        <ele>68.87</ele>
        <time>2013-11-24T13:13:00Z</time>
      </trkpt>
      <trkpt lat="48.7455" lon="-3.26406">
        <ele>69.35</ele>
        <time>2013-11-24T13:13:02Z</time>
      </trkpt>
      <trkpt lat="48.7455" lon="-3.26406">
        <ele>69.35</ele>
        <time>2013-11-24T13:13:04Z</time>
      </trkpt>
      <trkpt lat="48.74549" lon="-3.26406">
        <ele>69.35</ele>
        <time>2013-11-24T13:13:06Z</time>
      </trkpt>
      <trkpt lat="48.7455" lon="-3.26406">
        <ele>68.87</ele>
        <time>2013-11-24T13:13:08Z</time>
      </trkpt>
      <trkpt lat="48.7455" lon="-3.26405">
        <ele>68.87</ele>
        <time>2013-11-24T13:13:10Z</time>
      </trkpt>
      <trkpt lat="48.7455" lon="-3.26405">
        <ele>69.35</ele>
        <time>2013-11-24T13:13:12Z</time>
      </trkpt>
      <trkpt lat="48.7455" lon="-3.26404">
        <ele>69.35</ele>
        <time>2013-11-24T13:13:14Z</time>
      </trkpt>
      <trkpt lat="48.7455" lon="-3.26404">
        <ele>69.35</ele>
        <time>2013-11-24T13:13:16Z</time>
      </trkpt>
      <trkpt lat="48.7455" lon="-3.26404">
        <ele>69.35</ele>
        <time>2013-11-24T13:13:18Z</time>
      </trkpt>
      <trkpt lat="48.7455" lon="-3.26402">
        <ele>69.35</ele>
        <time>2013-11-24T13:13:20Z</time>
      </trkpt>
      <trkpt lat="48.74549" lon="-3.26399">
        <ele>69.35</ele>
        <time>2013-11-24T13:13:22Z</time>
      </trkpt>
      <trkpt lat="48.74549" lon="-3.26396">
        <ele>69.35</ele>
        <time>2013-11-24T13:13:24Z</time>
      </trkpt>
      <trkpt lat="48.74548" lon="-3.26393">
        <ele>69.35</ele>
        <time>2013-11-24T13:13:26Z</time>
      </trkpt>
      <trkpt lat="48.74547" lon="-3.26389">
        <ele>69.35</ele>
        <time>2013-11-24T13:13:28Z</time>
      </trkpt>
      <trkpt lat="48.74547" lon="-3.26386">
        <ele>69.35</ele>
        <time>2013-11-24T13:13:30Z</time>
      </trkpt>
      <trkpt lat="48.74547" lon="-3.26383">
        <ele>69.35</ele>
        <time>2013-11-24T13:13:32Z</time>
      </trkpt>
      <trkpt lat="48.74548" lon="-3.26379">
        <ele>69.35</ele>
        <time>2013-11-24T13:13:34Z</time>
      </trkpt>
      <trkpt lat="48.74547" lon="-3.26376">
        <ele>69.35</ele>
        <time>2013-11-24T13:13:36Z</time>
      </trkpt>
      <trkpt lat="48.74546" lon="-3.26374">
        <ele>69.35</ele>
        <time>2013-11-24T13:13:38Z</time>
      </trkpt>
      <trkpt lat="48.74545" lon="-3.26371">
        <ele>69.83</ele>
        <time>2013-11-24T13:13:40Z</time>
      </trkpt>
      <trkpt lat="48.74544" lon="-3.26367">
        <ele>69.35</ele>
        <time>2013-11-24T13:13:42Z</time>
      </trkpt>
      <trkpt lat="48.74542" lon="-3.26366">
        <ele>69.35</ele>
        <time>2013-11-24T13:13:44Z</time>
      </trkpt>
      <trkpt lat="48.7454" lon="-3.26363">
        <ele>69.35</ele>
        <time>2013-11-24T13:13:46Z</time>
      </trkpt>
      <trkpt lat="48.74538" lon="-3.26361">
        <ele>69.35</ele>
        <time>2013-11-24T13:13:48Z</time>
      </trkpt>
      <trkpt lat="48.74536" lon="-3.26359">
        <ele>69.83</ele>
        <time>2013-11-24T13:13:50Z</time>
      </trkpt>
      <trkpt lat="48.74535" lon="-3.26358">
        <ele>69.83</ele>
        <time>2013-11-24T13:13:52Z</time>
      </trkpt>
      <trkpt lat="48.74532" lon="-3.26358">
        <ele>69.35</ele>
        <time>2013-11-24T13:13:54Z</time>
      </trkpt>
      <trkpt lat="48.74529" lon="-3.26356">
        <ele>69.35</ele>
        <time>2013-11-24T13:13:56Z</time>
      </trkpt>
      <trkpt lat="48.74528" lon="-3.26355">
        <ele>69.35</ele>
        <time>2013-11-24T13:13:58Z</time>
      </trkpt>
      <trkpt lat="48.74525" lon="-3.26354">
        <ele>69.83</ele>
        <time>2013-11-24T13:14:00Z</time>
      </trkpt>
      <trkpt lat="48.74523" lon="-3.26352">
        <ele>69.83</ele>
        <time>2013-11-24T13:14:02Z</time>
      </trkpt>
      <trkpt lat="48.74522" lon="-3.26349">
        <ele>69.83</ele>
        <time>2013-11-24T13:14:04Z</time>
      </trkpt>
      <trkpt lat="48.74521" lon="-3.26345">
        <ele>69.35</ele>
        <time>2013-11-24T13:14:06Z</time>
      </trkpt>
      <trkpt lat="48.7452" lon="-3.26339">
        <ele>69.83</ele>
        <time>2013-11-24T13:14:08Z</time>
      </trkpt>
      <trkpt lat="48.7452" lon="-3.26333">
        <ele>69.83</ele>
        <time>2013-11-24T13:14:10Z</time>
      </trkpt>
      <trkpt lat="48.74521" lon="-3.26328">
        <ele>69.83</ele>
        <time>2013-11-24T13:14:12Z</time>
      </trkpt>
      <trkpt lat="48.74521" lon="-3.26322">
        <ele>69.83</ele>
        <time>2013-11-24T13:14:14Z</time>
      </trkpt>
      <trkpt lat="48.74522" lon="-3.26316">
        <ele>69.83</ele>
        <time>2013-11-24T13:14:16Z</time>
      </trkpt>
      <trkpt lat="48.74522" lon="-3.2631">
        <ele>69.83</ele>
        <time>2013-11-24T13:14:18Z</time>
      </trkpt>
      <trkpt lat="48.74521" lon="-3.26306">
        <ele>69.83</ele>
        <time>2013-11-24T13:14:20Z</time>
      </trkpt>
      <trkpt lat="48.74519" lon="-3.26301">
        <ele>69.83</ele>
        <time>2013-11-24T13:14:22Z</time>
      </trkpt>
      <trkpt lat="48.74518" lon="-3.26299">
        <ele>69.83</ele>
        <time>2013-11-24T13:14:24Z</time>
      </trkpt>
      <trkpt lat="48.74517" lon="-3.26296">
        <ele>69.83</ele>
        <time>2013-11-24T13:14:26Z</time>
      </trkpt>
      <trkpt lat="48.74515" lon="-3.26293">
        <ele>69.83</ele>
        <time>2013-11-24T13:14:28Z</time>
      </trkpt>
      <trkpt lat="48.74515" lon="-3.26288">
        <ele>69.83</ele>
        <time>2013-11-24T13:14:30Z</time>
      </trkpt>
      <trkpt lat="48.74514" lon="-3.26284">
        <ele>69.83</ele>
        <time>2013-11-24T13:14:32Z</time>
      </trkpt>
      <trkpt lat="48.74513" lon="-3.2628">
        <ele>70.31</ele>
        <time>2013-11-24T13:14:34Z</time>
      </trkpt>
      <trkpt lat="48.74513" lon="-3.26277">
        <ele>69.83</ele>
        <time>2013-11-24T13:14:36Z</time>
      </trkpt>
      <trkpt lat="48.74511" lon="-3.26276">
        <ele>69.83</ele>
        <time>2013-11-24T13:14:38Z</time>
      </trkpt>
      <trkpt lat="48.74509" lon="-3.26274">
        <ele>69.83</ele>
        <time>2013-11-24T13:14:40Z</time>
      </trkpt>
      <trkpt lat="48.74507" lon="-3.26272">
        <ele>69.83</ele>
        <time>2013-11-24T13:14:42Z</time>
      </trkpt>
      <trkpt lat="48.745" lon="-3.26276">
        <ele>69.83</ele>
        <time>2013-11-24T13:14:44Z</time>
      </trkpt>
      <trkpt lat="48.74494" lon="-3.2628">
        <ele>69.83</ele>
        <time>2013-11-24T13:14:46Z</time>
      </trkpt>
      <trkpt lat="48.7449" lon="-3.26279">
        <ele>69.83</ele>
        <time>2013-11-24T13:14:48Z</time>
      </trkpt>
      <trkpt lat="48.74489" lon="-3.26277">
        <ele>69.83</ele>
        <time>2013-11-24T13:14:50Z</time>
      </trkpt>
      <trkpt lat="48.74489" lon="-3.26275">
        <ele>69.83</ele>
        <time>2013-11-24T13:14:52Z</time>
      </trkpt>
      <trkpt lat="48.74489" lon="-3.26272">
        <ele>69.83</ele>
        <time>2013-11-24T13:14:54Z</time>
      </trkpt>
      <trkpt lat="48.74489" lon="-3.26267">
        <ele>70.31</ele>
        <time>2013-11-24T13:14:56Z</time>
      </trkpt>
      <trkpt lat="48.74489" lon="-3.26264">
        <ele>69.83</ele>
        <time>2013-11-24T13:14:58Z</time>
      </trkpt>
      <trkpt lat="48.74488" lon="-3.26262">
        <ele>69.83</ele>
        <time>2013-11-24T13:15:00Z</time>
      </trkpt>
      <trkpt lat="48.74486" lon="-3.2626">
        <ele>69.83</ele>
        <time>2013-11-24T13:15:02Z</time>
      </trkpt>
      <trkpt lat="48.74484" lon="-3.26258">
        <ele>69.83</ele>
        <time>2013-11-24T13:15:04Z</time>
      </trkpt>
      <trkpt lat="48.74482" lon="-3.26256">
        <ele>70.31</ele>
        <time>2013-11-24T13:15:06Z</time>
      </trkpt>
      <trkpt lat="48.74481" lon="-3.26253">
        <ele>70.31</ele>
        <time>2013-11-24T13:15:08Z</time>
      </trkpt>
      <trkpt lat="48.7448" lon="-3.26249">
        <ele>69.83</ele>
        <time>2013-11-24T13:15:10Z</time>
      </trkpt>
      <trkpt lat="48.74479" lon="-3.26247">
        <ele>69.83</ele>
        <time>2013-11-24T13:15:12Z</time>
      </trkpt>
      <trkpt lat="48.74479" lon="-3.26243">
        <ele>70.31</ele>
        <time>2013-11-24T13:15:14Z</time>
      </trkpt>
      <trkpt lat="48.74478" lon="-3.26239">
        <ele>70.31</ele>
        <time>2013-11-24T13:15:16Z</time>
      </trkpt>
      <trkpt lat="48.74477" lon="-3.26236">
        <ele>70.31</ele>
        <time>2013-11-24T13:15:18Z</time>
      </trkpt>
      <trkpt lat="48.74476" lon="-3.26232">
        <ele>70.31</ele>
        <time>2013-11-24T13:15:20Z</time>
      </trkpt>
      <trkpt lat="48.74475" lon="-3.26229">
        <ele>69.83</ele>
        <time>2013-11-24T13:15:22Z</time>
      </trkpt>
      <trkpt lat="48.74474" lon="-3.26226">
        <ele>70.31</ele>
        <time>2013-11-24T13:15:24Z</time>
      </trkpt>
      <trkpt lat="48.74473" lon="-3.26223">
        <ele>70.31</ele>
        <time>2013-11-24T13:15:26Z</time>
      </trkpt>
      <trkpt lat="48.74472" lon="-3.2622">
        <ele>70.31</ele>
        <time>2013-11-24T13:15:28Z</time>
      </trkpt>
      <trkpt lat="48.74471" lon="-3.26216">
        <ele>70.31</ele>
        <time>2013-11-24T13:15:30Z</time>
      </trkpt>
      <trkpt lat="48.7447" lon="-3.26212">
        <ele>70.31</ele>
        <time>2013-11-24T13:15:32Z</time>
      </trkpt>
      <trkpt lat="48.74468" lon="-3.26209">
        <ele>70.31</ele>
        <time>2013-11-24T13:15:34Z</time>
      </trkpt>
      <trkpt lat="48.74467" lon="-3.26206">
        <ele>70.31</ele>
        <time>2013-11-24T13:15:36Z</time>
      </trkpt>
      <trkpt lat="48.74465" lon="-3.26202">
        <ele>70.31</ele>
        <time>2013-11-24T13:15:38Z</time>
      </trkpt>
      <trkpt lat="48.74464" lon="-3.26198">
        <ele>70.31</ele>
        <time>2013-11-24T13:15:40Z</time>
      </trkpt>
      <trkpt lat="48.74462" lon="-3.26195">
        <ele>70.31</ele>
        <time>2013-11-24T13:15:42Z</time>
      </trkpt>
      <trkpt lat="48.74461" lon="-3.26192">
        <ele>70.31</ele>
        <time>2013-11-24T13:15:44Z</time>
      </trkpt>
      <trkpt lat="48.74459" lon="-3.26188">
        <ele>70.31</ele>
        <time>2013-11-24T13:15:46Z</time>
      </trkpt>
      <trkpt lat="48.74457" lon="-3.26184">
        <ele>70.31</ele>
        <time>2013-11-24T13:15:48Z</time>
      </trkpt>
      <trkpt lat="48.74454" lon="-3.26182">
        <ele>70.31</ele>
        <time>2013-11-24T13:15:50Z</time>
      </trkpt>
      <trkpt lat="48.74451" lon="-3.26183">
        <ele>70.31</ele>
        <time>2013-11-24T13:15:52Z</time>
      </trkpt>
      <trkpt lat="48.74449" lon="-3.26187">
        <ele>70.31</ele>
        <time>2013-11-24T13:15:54Z</time>
      </trkpt>
      <trkpt lat="48.74447" lon="-3.26191">
        <ele>70.31</ele>
        <time>2013-11-24T13:15:56Z</time>
      </trkpt>
      <trkpt lat="48.74446" lon="-3.26195">
        <ele>70.79</ele>
        <time>2013-11-24T13:15:58Z</time>
      </trkpt>
      <trkpt lat="48.74445" lon="-3.26199">
        <ele>70.31</ele>
        <time>2013-11-24T13:16:00Z</time>
      </trkpt>
      <trkpt lat="48.74443" lon="-3.26202">
        <ele>70.31</ele>
        <time>2013-11-24T13:16:02Z</time>
      </trkpt>
      <trkpt lat="48.74442" lon="-3.26206">
        <ele>70.31</ele>
        <time>2013-11-24T13:16:04Z</time>
      </trkpt>
      <trkpt lat="48.74441" lon="-3.26209">
        <ele>70.31</ele>
        <time>2013-11-24T13:16:06Z</time>
      </trkpt>
      <trkpt lat="48.7444" lon="-3.26213">
        <ele>70.31</ele>
        <time>2013-11-24T13:16:08Z</time>
      </trkpt>
      <trkpt lat="48.74438" lon="-3.26215">
        <ele>70.31</ele>
        <time>2013-11-24T13:16:10Z</time>
      </trkpt>
      <trkpt lat="48.74436" lon="-3.26215">
        <ele>70.31</ele>
        <time>2013-11-24T13:16:12Z</time>
      </trkpt>
      <trkpt lat="48.74434" lon="-3.26215">
        <ele>70.31</ele>
        <time>2013-11-24T13:16:14Z</time>
      </trkpt>
      <trkpt lat="48.74432" lon="-3.26214">
        <ele>70.31</ele>
        <time>2013-11-24T13:16:16Z</time>
      </trkpt>
      <trkpt lat="48.7443" lon="-3.26212">
        <ele>70.31</ele>
        <time>2013-11-24T13:16:18Z</time>
      </trkpt>
      <trkpt lat="48.74428" lon="-3.26209">
        <ele>70.31</ele>
        <time>2013-11-24T13:16:20Z</time>
      </trkpt>
      <trkpt lat="48.74426" lon="-3.26208">
        <ele>70.31</ele>
        <time>2013-11-24T13:16:22Z</time>
      </trkpt>
      <trkpt lat="48.74423" lon="-3.26206">
        <ele>70.31</ele>
        <time>2013-11-24T13:16:24Z</time>
      </trkpt>
      <trkpt lat="48.74421" lon="-3.26206">
        <ele>70.31</ele>
        <time>2013-11-24T13:16:26Z</time>
      </trkpt>
      <trkpt lat="48.74419" lon="-3.26206">
        <ele>70.31</ele>
        <time>2013-11-24T13:16:28Z</time>
      </trkpt>
      <trkpt lat="48.74417" lon="-3.26206">
        <ele>70.31</ele>
        <time>2013-11-24T13:16:30Z</time>
      </trkpt>
      <trkpt lat="48.74414" lon="-3.26206">
        <ele>70.31</ele>
        <time>2013-11-24T13:16:32Z</time>
      </trkpt>
      <trkpt lat="48.74412" lon="-3.26205">
        <ele>70.31</ele>
        <time>2013-11-24T13:16:34Z</time>
      </trkpt>
      <trkpt lat="48.7441" lon="-3.26206">
        <ele>70.31</ele>
        <time>2013-11-24T13:16:36Z</time>
      </trkpt>
      <trkpt lat="48.74407" lon="-3.26207">
        <ele>70.31</ele>
        <time>2013-11-24T13:16:38Z</time>
      </trkpt>
      <trkpt lat="48.74405" lon="-3.26207">
        <ele>70.79</ele>
        <time>2013-11-24T13:16:40Z</time>
      </trkpt>
      <trkpt lat="48.74402" lon="-3.26207">
        <ele>70.79</ele>
        <time>2013-11-24T13:16:42Z</time>
      </trkpt>
      <trkpt lat="48.744" lon="-3.26207">
        <ele>70.31</ele>
        <time>2013-11-24T13:16:44Z</time>
      </trkpt>
      <trkpt lat="48.74397" lon="-3.26208">
        <ele>70.31</ele>
        <time>2013-11-24T13:16:46Z</time>
      </trkpt>
      <trkpt lat="48.74396" lon="-3.26209">
        <ele>70.31</ele>
        <time>2013-11-24T13:16:48Z</time>
      </trkpt>
      <trkpt lat="48.74394" lon="-3.26209">
        <ele>70.31</ele>
        <time>2013-11-24T13:16:50Z</time>
      </trkpt>
      <trkpt lat="48.74392" lon="-3.2621">
        <ele>70.31</ele>
        <time>2013-11-24T13:16:52Z</time>
      </trkpt>
      <trkpt lat="48.7439" lon="-3.2621">
        <ele>70.79</ele>
        <time>2013-11-24T13:16:54Z</time>
      </trkpt>
      <trkpt lat="48.74388" lon="-3.2621">
        <ele>70.79</ele>
        <time>2013-11-24T13:16:56Z</time>
      </trkpt>
      <trkpt lat="48.74386" lon="-3.26211">
        <ele>70.31</ele>
        <time>2013-11-24T13:16:58Z</time>
      </trkpt>
      <trkpt lat="48.74384" lon="-3.26212">
        <ele>70.31</ele>
        <time>2013-11-24T13:17:00Z</time>
      </trkpt>
      <trkpt lat="48.74382" lon="-3.26212">
        <ele>70.31</ele>
        <time>2013-11-24T13:17:02Z</time>
      </trkpt>
      <trkpt lat="48.7438" lon="-3.26213">
        <ele>70.79</ele>
        <time>2013-11-24T13:17:04Z</time>
      </trkpt>
      <trkpt lat="48.74378" lon="-3.26213">
        <ele>70.79</ele>
        <time>2013-11-24T13:17:06Z</time>
      </trkpt>
      <trkpt lat="48.74376" lon="-3.26213">
        <ele>70.31</ele>
        <time>2013-11-24T13:17:08Z</time>
      </trkpt>
      <trkpt lat="48.74374" lon="-3.26214">
        <ele>70.31</ele>
        <time>2013-11-24T13:17:10Z</time>
      </trkpt>
      <trkpt lat="48.74372" lon="-3.26214">
        <ele>70.31</ele>
        <time>2013-11-24T13:17:12Z</time>
      </trkpt>
      <trkpt lat="48.7437" lon="-3.26215">
        <ele>70.31</ele>
        <time>2013-11-24T13:17:14Z</time>
      </trkpt>
      <trkpt lat="48.74368" lon="-3.26216">
        <ele>70.31</ele>
        <time>2013-11-24T13:17:16Z</time>
      </trkpt>
      <trkpt lat="48.74366" lon="-3.26217">
        <ele>70.79</ele>
        <time>2013-11-24T13:17:18Z</time>
      </trkpt>
      <trkpt lat="48.74364" lon="-3.26217">
        <ele>70.31</ele>
        <time>2013-11-24T13:17:20Z</time>
      </trkpt>
      <trkpt lat="48.74362" lon="-3.26217">
        <ele>70.31</ele>
        <time>2013-11-24T13:17:22Z</time>
      </trkpt>
      <trkpt lat="48.7436" lon="-3.26217">
        <ele>70.31</ele>
        <time>2013-11-24T13:17:24Z</time>
      </trkpt>
      <trkpt lat="48.74357" lon="-3.26219">
        <ele>70.31</ele>
        <time>2013-11-24T13:17:26Z</time>
      </trkpt>
      <trkpt lat="48.74356" lon="-3.26219">
        <ele>70.79</ele>
        <time>2013-11-24T13:17:28Z</time>
      </trkpt>
      <trkpt lat="48.74354" lon="-3.26218">
        <ele>70.31</ele>
        <time>2013-11-24T13:17:30Z</time>
      </trkpt>
      <trkpt lat="48.74352" lon="-3.26219">
        <ele>70.31</ele>
        <time>2013-11-24T13:17:32Z</time>
      </trkpt>
      <trkpt lat="48.7435" lon="-3.2622">
        <ele>70.31</ele>
        <time>2013-11-24T13:17:34Z</time>
      </trkpt>
      <trkpt lat="48.74348" lon="-3.26222">
        <ele>70.31</ele>
        <time>2013-11-24T13:17:36Z</time>
      </trkpt>
      <trkpt lat="48.74345" lon="-3.26223">
        <ele>70.31</ele>
        <time>2013-11-24T13:17:38Z</time>
      </trkpt>
      <trkpt lat="48.74342" lon="-3.26224">
        <ele>70.79</ele>
        <time>2013-11-24T13:17:40Z</time>
      </trkpt>
      <trkpt lat="48.7434" lon="-3.26227">
        <ele>70.31</ele>
        <time>2013-11-24T13:17:42Z</time>
      </trkpt>
      <trkpt lat="48.74338" lon="-3.26229">
        <ele>70.31</ele>
        <time>2013-11-24T13:17:44Z</time>
      </trkpt>
      <trkpt lat="48.74336" lon="-3.2623">
        <ele>70.31</ele>
        <time>2013-11-24T13:17:46Z</time>
      </trkpt>
      <trkpt lat="48.74332" lon="-3.26232">
        <ele>70.31</ele>
        <time>2013-11-24T13:17:48Z</time>
      </trkpt>
      <trkpt lat="48.7433" lon="-3.26234">
        <ele>70.31</ele>
        <time>2013-11-24T13:17:50Z</time>
      </trkpt>
      <trkpt lat="48.74328" lon="-3.26236">
        <ele>70.31</ele>
        <time>2013-11-24T13:17:52Z</time>
      </trkpt>
      <trkpt lat="48.74326" lon="-3.26238">
        <ele>70.31</ele>
        <time>2013-11-24T13:17:54Z</time>
      </trkpt>
      <trkpt lat="48.74324" lon="-3.2624">
        <ele>70.31</ele>
        <time>2013-11-24T13:17:56Z</time>
      </trkpt>
      <trkpt lat="48.74323" lon="-3.26242">
        <ele>70.31</ele>
        <time>2013-11-24T13:17:58Z</time>
      </trkpt>
      <trkpt lat="48.74321" lon="-3.26245">
        <ele>70.31</ele>
        <time>2013-11-24T13:18:00Z</time>
      </trkpt>
      <trkpt lat="48.7432" lon="-3.26246">
        <ele>70.31</ele>
        <time>2013-11-24T13:18:02Z</time>
      </trkpt>
      <trkpt lat="48.74318" lon="-3.26248">
        <ele>70.31</ele>
        <time>2013-11-24T13:18:04Z</time>
      </trkpt>
      <trkpt lat="48.74316" lon="-3.2625">
        <ele>69.83</ele>
        <time>2013-11-24T13:18:06Z</time>
      </trkpt>
      <trkpt lat="48.74314" lon="-3.26253">
        <ele>69.83</ele>
        <time>2013-11-24T13:18:08Z</time>
      </trkpt>
      <trkpt lat="48.74312" lon="-3.26255">
        <ele>70.31</ele>
        <time>2013-11-24T13:18:10Z</time>
      </trkpt>
      <trkpt lat="48.7431" lon="-3.26257">
        <ele>70.31</ele>
        <time>2013-11-24T13:18:12Z</time>
      </trkpt>
      <trkpt lat="48.74308" lon="-3.2626">
        <ele>70.31</ele>
        <time>2013-11-24T13:18:14Z</time>
      </trkpt>
      <trkpt lat="48.74306" lon="-3.26262">
        <ele>69.83</ele>
        <time>2013-11-24T13:18:16Z</time>
      </trkpt>
      <trkpt lat="48.74304" lon="-3.26265">
        <ele>70.31</ele>
        <time>2013-11-24T13:18:18Z</time>
      </trkpt>
      <trkpt lat="48.74302" lon="-3.26267">
        <ele>70.31</ele>
        <time>2013-11-24T13:18:20Z</time>
      </trkpt>
      <trkpt lat="48.74301" lon="-3.2627">
        <ele>70.31</ele>
        <time>2013-11-24T13:18:22Z</time>
      </trkpt>
      <trkpt lat="48.74299" lon="-3.26272">
        <ele>70.31</ele>
        <time>2013-11-24T13:18:24Z</time>
      </trkpt>
      <trkpt lat="48.74297" lon="-3.26276">
        <ele>69.83</ele>
        <time>2013-11-24T13:18:26Z</time>
      </trkpt>
      <trkpt lat="48.74296" lon="-3.26279">
        <ele>69.83</ele>
        <time>2013-11-24T13:18:28Z</time>
      </trkpt>
      <trkpt lat="48.74296" lon="-3.26282">
        <ele>69.83</ele>
        <time>2013-11-24T13:18:30Z</time>
      </trkpt>
      <trkpt lat="48.74293" lon="-3.26283">
        <ele>70.31</ele>
        <time>2013-11-24T13:18:32Z</time>
      </trkpt>
      <trkpt lat="48.74291" lon="-3.26285">
        <ele>70.31</ele>
        <time>2013-11-24T13:18:34Z</time>
      </trkpt>
      <trkpt lat="48.74288" lon="-3.26287">
        <ele>69.83</ele>
        <time>2013-11-24T13:18:36Z</time>
      </trkpt>
      <trkpt lat="48.74286" lon="-3.2629">
        <ele>69.83</ele>
        <time>2013-11-24T13:18:38Z</time>
      </trkpt>
      <trkpt lat="48.74284" lon="-3.26293">
        <ele>70.31</ele>
        <time>2013-11-24T13:18:40Z</time>
      </trkpt>
      <trkpt lat="48.74283" lon="-3.26296">
        <ele>70.31</ele>
        <time>2013-11-24T13:18:42Z</time>
      </trkpt>
      <trkpt lat="48.74282" lon="-3.26299">
        <ele>70.31</ele>
        <time>2013-11-24T13:18:44Z</time>
      </trkpt>
      <trkpt lat="48.7428" lon="-3.26302">
        <ele>69.83</ele>
        <time>2013-11-24T13:18:46Z</time>
      </trkpt>
      <trkpt lat="48.74279" lon="-3.26305">
        <ele>69.83</ele>
        <time>2013-11-24T13:18:48Z</time>
      </trkpt>
      <trkpt lat="48.74278" lon="-3.26308">
        <ele>70.31</ele>
        <time>2013-11-24T13:18:50Z</time>
      </trkpt>
      <trkpt lat="48.74277" lon="-3.26312">
        <ele>70.31</ele>
        <time>2013-11-24T13:18:52Z</time>
      </trkpt>
      <trkpt lat="48.74275" lon="-3.26315">
        <ele>70.31</ele>
        <time>2013-11-24T13:18:54Z</time>
      </trkpt>
      <trkpt lat="48.74275" lon="-3.26316">
        <ele>69.83</ele>
        <time>2013-11-24T13:18:56Z</time>
      </trkpt>
      <trkpt lat="48.74273" lon="-3.26317">
        <ele>69.83</ele>
        <time>2013-11-24T13:18:58Z</time>
      </trkpt>
      <trkpt lat="48.74271" lon="-3.26317">
        <ele>69.83</ele>
        <time>2013-11-24T13:19:00Z</time>
      </trkpt>
      <trkpt lat="48.74269" lon="-3.26317">
        <ele>70.31</ele>
        <time>2013-11-24T13:19:02Z</time>
      </trkpt>
      <trkpt lat="48.74266" lon="-3.26316">
        <ele>70.31</ele>
        <time>2013-11-24T13:19:04Z</time>
      </trkpt>
      <trkpt lat="48.74263" lon="-3.26315">
        <ele>70.31</ele>
        <time>2013-11-24T13:19:06Z</time>
      </trkpt>
      <trkpt lat="48.74261" lon="-3.26314">
        <ele>69.83</ele>
        <time>2013-11-24T13:19:08Z</time>
      </trkpt>
      <trkpt lat="48.74259" lon="-3.26311">
        <ele>69.83</ele>
        <time>2013-11-24T13:19:10Z</time>
      </trkpt>
      <trkpt lat="48.74256" lon="-3.26309">
        <ele>70.31</ele>
        <time>2013-11-24T13:19:12Z</time>
      </trkpt>
      <trkpt lat="48.74254" lon="-3.26307">
        <ele>70.31</ele>
        <time>2013-11-24T13:19:14Z</time>
      </trkpt>
      <trkpt lat="48.74252" lon="-3.26306">
        <ele>70.31</ele>
        <time>2013-11-24T13:19:16Z</time>
      </trkpt>
      <trkpt lat="48.74251" lon="-3.26306">
        <ele>70.31</ele>
        <time>2013-11-24T13:19:18Z</time>
      </trkpt>
      <trkpt lat="48.7425" lon="-3.26306">
        <ele>69.83</ele>
        <time>2013-11-24T13:19:20Z</time>
      </trkpt>
      <trkpt lat="48.74249" lon="-3.26306">
        <ele>69.83</ele>
        <time>2013-11-24T13:19:22Z</time>
      </trkpt>
      <trkpt lat="48.74248" lon="-3.26308">
        <ele>69.83</ele>
        <time>2013-11-24T13:19:24Z</time>
      </trkpt>
      <trkpt lat="48.74246" lon="-3.26311">
        <ele>70.31</ele>
        <time>2013-11-24T13:19:26Z</time>
      </trkpt>
      <trkpt lat="48.74244" lon="-3.26314">
        <ele>70.31</ele>
        <time>2013-11-24T13:19:28Z</time>
      </trkpt>
      <trkpt lat="48.74242" lon="-3.26316">
        <ele>69.83</ele>
        <time>2013-11-24T13:19:30Z</time>
      </trkpt>
      <trkpt lat="48.7424" lon="-3.26319">
        <ele>69.83</ele>
        <time>2013-11-24T13:19:32Z</time>
      </trkpt>
      <trkpt lat="48.74238" lon="-3.26322">
        <ele>69.83</ele>
        <time>2013-11-24T13:19:34Z</time>
      </trkpt>
      <trkpt lat="48.74237" lon="-3.26325">
        <ele>69.83</ele>
        <time>2013-11-24T13:19:36Z</time>
      </trkpt>
      <trkpt lat="48.74235" lon="-3.26327">
        <ele>69.83</ele>
        <time>2013-11-24T13:19:38Z</time>
      </trkpt>
      <trkpt lat="48.74234" lon="-3.2633">
        <ele>70.31</ele>
        <time>2013-11-24T13:19:40Z</time>
      </trkpt>
      <trkpt lat="48.74232" lon="-3.26334">
        <ele>70.31</ele>
        <time>2013-11-24T13:19:42Z</time>
      </trkpt>
      <trkpt lat="48.7423" lon="-3.26336">
        <ele>70.31</ele>
        <time>2013-11-24T13:19:44Z</time>
      </trkpt>
      <trkpt lat="48.74228" lon="-3.26339">
        <ele>69.83</ele>
        <time>2013-11-24T13:19:46Z</time>
      </trkpt>
      <trkpt lat="48.74225" lon="-3.26343">
        <ele>69.83</ele>
        <time>2013-11-24T13:19:48Z</time>
      </trkpt>
      <trkpt lat="48.74223" lon="-3.26347">
        <ele>69.83</ele>
        <time>2013-11-24T13:19:50Z</time>
      </trkpt>
      <trkpt lat="48.7422" lon="-3.2635">
        <ele>69.83</ele>
        <time>2013-11-24T13:19:52Z</time>
      </trkpt>
      <trkpt lat="48.74218" lon="-3.26353">
        <ele>69.83</ele>
        <time>2013-11-24T13:19:54Z</time>
      </trkpt>
      <trkpt lat="48.74217" lon="-3.26357">
        <ele>70.31</ele>
        <time>2013-11-24T13:19:56Z</time>
      </trkpt>
      <trkpt lat="48.74216" lon="-3.26359">
        <ele>69.83</ele>
        <time>2013-11-24T13:19:58Z</time>
      </trkpt>
      <trkpt lat="48.74214" lon="-3.26362">
        <ele>69.83</ele>
        <time>2013-11-24T13:20:00Z</time>
      </trkpt>
      <trkpt lat="48.74213" lon="-3.26365">
        <ele>69.83</ele>
        <time>2013-11-24T13:20:02Z</time>
      </trkpt>
      <trkpt lat="48.74211" lon="-3.26369">
        <ele>69.83</ele>
        <time>2013-11-24T13:20:04Z</time>
      </trkpt>
      <trkpt lat="48.7421" lon="-3.26372">
        <ele>69.83</ele>
        <time>2013-11-24T13:20:06Z</time>
      </trkpt>
      <trkpt lat="48.74208" lon="-3.26374">
        <ele>70.31</ele>
        <time>2013-11-24T13:20:08Z</time>
      </trkpt>
      <trkpt lat="48.74206" lon="-3.26377">
        <ele>69.83</ele>
        <time>2013-11-24T13:20:10Z</time>
      </trkpt>
      <trkpt lat="48.74205" lon="-3.2638">
        <ele>69.83</ele>
        <time>2013-11-24T13:20:12Z</time>
      </trkpt>
      <trkpt lat="48.74203" lon="-3.26382">
        <ele>69.83</ele>
        <time>2013-11-24T13:20:14Z</time>
      </trkpt>
      <trkpt lat="48.74202" lon="-3.26386">
        <ele>69.83</ele>
        <time>2013-11-24T13:20:16Z</time>
      </trkpt>
      <trkpt lat="48.74201" lon="-3.26388">
        <ele>69.83</ele>
        <time>2013-11-24T13:20:18Z</time>
      </trkpt>
      <trkpt lat="48.742" lon="-3.26391">
        <ele>70.31</ele>
        <time>2013-11-24T13:20:20Z</time>
      </trkpt>
      <trkpt lat="48.74199" lon="-3.26393">
        <ele>69.83</ele>
        <time>2013-11-24T13:20:22Z</time>
      </trkpt>
      <trkpt lat="48.74198" lon="-3.26395">
        <ele>69.83</ele>
        <time>2013-11-24T13:20:24Z</time>
      </trkpt>
      <trkpt lat="48.74197" lon="-3.26398">
        <ele>69.83</ele>
        <time>2013-11-24T13:20:26Z</time>
      </trkpt>
      <trkpt lat="48.74196" lon="-3.264">
        <ele>69.83</ele>
        <time>2013-11-24T13:20:28Z</time>
      </trkpt>
      <trkpt lat="48.74195" lon="-3.26403">
        <ele>69.83</ele>
        <time>2013-11-24T13:20:30Z</time>
      </trkpt>
      <trkpt lat="48.74193" lon="-3.26406">
        <ele>70.31</ele>
        <time>2013-11-24T13:20:32Z</time>
      </trkpt>
      <trkpt lat="48.74191" lon="-3.26409">
        <ele>70.31</ele>
        <time>2013-11-24T13:20:34Z</time>
      </trkpt>
      <trkpt lat="48.7419" lon="-3.26412">
        <ele>69.83</ele>
        <time>2013-11-24T13:20:36Z</time>
      </trkpt>
      <trkpt lat="48.74188" lon="-3.26415">
        <ele>69.83</ele>
        <time>2013-11-24T13:20:38Z</time>
      </trkpt>
      <trkpt lat="48.74186" lon="-3.26418">
        <ele>69.83</ele>
        <time>2013-11-24T13:20:40Z</time>
      </trkpt>
      <trkpt lat="48.74185" lon="-3.26421">
        <ele>69.83</ele>
        <time>2013-11-24T13:20:42Z</time>
      </trkpt>
      <trkpt lat="48.74184" lon="-3.26424">
        <ele>70.31</ele>
        <time>2013-11-24T13:20:44Z</time>
      </trkpt>
      <trkpt lat="48.74182" lon="-3.26427">
        <ele>70.31</ele>
        <time>2013-11-24T13:20:46Z</time>
      </trkpt>
      <trkpt lat="48.7418" lon="-3.2643">
        <ele>69.83</ele>
        <time>2013-11-24T13:20:48Z</time>
      </trkpt>
      <trkpt lat="48.74179" lon="-3.26433">
        <ele>69.83</ele>
        <time>2013-11-24T13:20:50Z</time>
      </trkpt>
      <trkpt lat="48.74177" lon="-3.26435">
        <ele>69.83</ele>
        <time>2013-11-24T13:20:52Z</time>
      </trkpt>
      <trkpt lat="48.74176" lon="-3.26438">
        <ele>69.83</ele>
        <time>2013-11-24T13:20:54Z</time>
      </trkpt>
      <trkpt lat="48.74174" lon="-3.2644">
        <ele>69.83</ele>
        <time>2013-11-24T13:20:56Z</time>
      </trkpt>
      <trkpt lat="48.74172" lon="-3.26443">
        <ele>69.83</ele>
        <time>2013-11-24T13:20:58Z</time>
      </trkpt>
      <trkpt lat="48.74171" lon="-3.26446">
        <ele>69.83</ele>
        <time>2013-11-24T13:21:00Z</time>
      </trkpt>
      <trkpt lat="48.74169" lon="-3.2645">
        <ele>69.83</ele>
        <time>2013-11-24T13:21:02Z</time>
      </trkpt>
      <trkpt lat="48.74168" lon="-3.26454">
        <ele>69.83</ele>
        <time>2013-11-24T13:21:04Z</time>
      </trkpt>
      <trkpt lat="48.74166" lon="-3.26457">
        <ele>69.83</ele>
        <time>2013-11-24T13:21:06Z</time>
      </trkpt>
      <trkpt lat="48.74165" lon="-3.2646">
        <ele>69.83</ele>
        <time>2013-11-24T13:21:08Z</time>
      </trkpt>
      <trkpt lat="48.74164" lon="-3.26462">
        <ele>69.83</ele>
        <time>2013-11-24T13:21:10Z</time>
      </trkpt>
      <trkpt lat="48.74162" lon="-3.26465">
        <ele>69.35</ele>
        <time>2013-11-24T13:21:12Z</time>
      </trkpt>
      <trkpt lat="48.7416" lon="-3.26468">
        <ele>69.83</ele>
        <time>2013-11-24T13:21:14Z</time>
      </trkpt>
      <trkpt lat="48.74158" lon="-3.2647">
        <ele>69.83</ele>
        <time>2013-11-24T13:21:16Z</time>
      </trkpt>
      <trkpt lat="48.74156" lon="-3.26473">
        <ele>69.83</ele>
        <time>2013-11-24T13:21:18Z</time>
      </trkpt>
      <trkpt lat="48.74154" lon="-3.26475">
        <ele>69.83</ele>
        <time>2013-11-24T13:21:20Z</time>
      </trkpt>
      <trkpt lat="48.74153" lon="-3.26477">
        <ele>69.83</ele>
        <time>2013-11-24T13:21:22Z</time>
      </trkpt>
      <trkpt lat="48.74151" lon="-3.26479">
        <ele>69.83</ele>
        <time>2013-11-24T13:21:24Z</time>
      </trkpt>
      <trkpt lat="48.7415" lon="-3.26481">
        <ele>69.83</ele>
        <time>2013-11-24T13:21:26Z</time>
      </trkpt>
      <trkpt lat="48.74148" lon="-3.26483">
        <ele>69.35</ele>
        <time>2013-11-24T13:21:28Z</time>
      </trkpt>
      <trkpt lat="48.74146" lon="-3.26485">
        <ele>69.83</ele>
        <time>2013-11-24T13:21:30Z</time>
      </trkpt>
      <trkpt lat="48.74144" lon="-3.26488">
        <ele>69.83</ele>
        <time>2013-11-24T13:21:32Z</time>
      </trkpt>
      <trkpt lat="48.74142" lon="-3.2649">
        <ele>69.83</ele>
        <time>2013-11-24T13:21:34Z</time>
      </trkpt>
      <trkpt lat="48.74141" lon="-3.26493">
        <ele>69.83</ele>
        <time>2013-11-24T13:21:36Z</time>
      </trkpt>
      <trkpt lat="48.7414" lon="-3.26497">
        <ele>69.83</ele>
        <time>2013-11-24T13:21:38Z</time>
      </trkpt>
      <trkpt lat="48.74138" lon="-3.265">
        <ele>69.35</ele>
        <time>2013-11-24T13:21:40Z</time>
      </trkpt>
      <trkpt lat="48.74136" lon="-3.26504">
        <ele>69.35</ele>
        <time>2013-11-24T13:21:42Z</time>
      </trkpt>
      <trkpt lat="48.74134" lon="-3.26507">
        <ele>69.83</ele>
        <time>2013-11-24T13:21:44Z</time>
      </trkpt>
      <trkpt lat="48.74132" lon="-3.26511">
        <ele>69.83</ele>
        <time>2013-11-24T13:21:46Z</time>
      </trkpt>
      <trkpt lat="48.7413" lon="-3.26513">
        <ele>69.83</ele>
        <time>2013-11-24T13:21:48Z</time>
      </trkpt>
      <trkpt lat="48.74129" lon="-3.26516">
        <ele>69.35</ele>
        <time>2013-11-24T13:21:50Z</time>
      </trkpt>
      <trkpt lat="48.74127" lon="-3.26518">
        <ele>69.35</ele>
        <time>2013-11-24T13:21:52Z</time>
      </trkpt>
      <trkpt lat="48.74125" lon="-3.26521">
        <ele>69.35</ele>
        <time>2013-11-24T13:21:54Z</time>
      </trkpt>
      <trkpt lat="48.74124" lon="-3.26524">
        <ele>69.83</ele>
        <time>2013-11-24T13:21:56Z</time>
      </trkpt>
      <trkpt lat="48.74122" lon="-3.26528">
        <ele>69.83</ele>
        <time>2013-11-24T13:21:58Z</time>
      </trkpt>
      <trkpt lat="48.7412" lon="-3.26531">
        <ele>69.83</ele>
        <time>2013-11-24T13:22:00Z</time>
      </trkpt>
      <trkpt lat="48.74119" lon="-3.26534">
        <ele>69.35</ele>
        <time>2013-11-24T13:22:02Z</time>
      </trkpt>
      <trkpt lat="48.74117" lon="-3.26537">
        <ele>69.35</ele>
        <time>2013-11-24T13:22:04Z</time>
      </trkpt>
      <trkpt lat="48.74116" lon="-3.26541">
        <ele>69.35</ele>
        <time>2013-11-24T13:22:06Z</time>
      </trkpt>
      <trkpt lat="48.74114" lon="-3.26544">
        <ele>69.35</ele>
        <time>2013-11-24T13:22:08Z</time>
      </trkpt>
      <trkpt lat="48.74113" lon="-3.26546">
        <ele>69.35</ele>
        <time>2013-11-24T13:22:10Z</time>
      </trkpt>
      <trkpt lat="48.74111" lon="-3.26549">
        <ele>69.83</ele>
        <time>2013-11-24T13:22:12Z</time>
      </trkpt>
      <trkpt lat="48.74109" lon="-3.26552">
        <ele>69.35</ele>
        <time>2013-11-24T13:22:14Z</time>
      </trkpt>
      <trkpt lat="48.74107" lon="-3.26554">
        <ele>69.35</ele>
        <time>2013-11-24T13:22:16Z</time>
      </trkpt>
      <trkpt lat="48.74105" lon="-3.26557">
        <ele>69.35</ele>
        <time>2013-11-24T13:22:18Z</time>
      </trkpt>
      <trkpt lat="48.74103" lon="-3.2656">
        <ele>69.35</ele>
        <time>2013-11-24T13:22:20Z</time>
      </trkpt>
      <trkpt lat="48.74102" lon="-3.26563">
        <ele>69.35</ele>
        <time>2013-11-24T13:22:22Z</time>
      </trkpt>
      <trkpt lat="48.741" lon="-3.26566">
        <ele>69.35</ele>
        <time>2013-11-24T13:22:24Z</time>
      </trkpt>
      <trkpt lat="48.74099" lon="-3.2657">
        <ele>69.35</ele>
        <time>2013-11-24T13:22:26Z</time>
      </trkpt>
      <trkpt lat="48.74097" lon="-3.26573">
        <ele>69.35</ele>
        <time>2013-11-24T13:22:28Z</time>
      </trkpt>
      <trkpt lat="48.74095" lon="-3.26576">
        <ele>69.35</ele>
        <time>2013-11-24T13:22:30Z</time>
      </trkpt>
      <trkpt lat="48.74093" lon="-3.2658">
        <ele>69.35</ele>
        <time>2013-11-24T13:22:32Z</time>
      </trkpt>
      <trkpt lat="48.74092" lon="-3.26583">
        <ele>69.35</ele>
        <time>2013-11-24T13:22:34Z</time>
      </trkpt>
      <trkpt lat="48.7409" lon="-3.26586">
        <ele>69.35</ele>
        <time>2013-11-24T13:22:36Z</time>
      </trkpt>
      <trkpt lat="48.74089" lon="-3.26588">
        <ele>69.35</ele>
        <time>2013-11-24T13:22:38Z</time>
      </trkpt>
      <trkpt lat="48.74087" lon="-3.2659">
        <ele>69.35</ele>
        <time>2013-11-24T13:22:40Z</time>
      </trkpt>
      <trkpt lat="48.74085" lon="-3.26593">
        <ele>69.35</ele>
        <time>2013-11-24T13:22:42Z</time>
      </trkpt>
      <trkpt lat="48.74083" lon="-3.26595">
        <ele>69.35</ele>
        <time>2013-11-24T13:22:44Z</time>
      </trkpt>
      <trkpt lat="48.74081" lon="-3.26597">
        <ele>69.35</ele>
        <time>2013-11-24T13:22:46Z</time>
      </trkpt>
      <trkpt lat="48.74079" lon="-3.26599">
        <ele>68.87</ele>
        <time>2013-11-24T13:22:48Z</time>
      </trkpt>
      <trkpt lat="48.74076" lon="-3.26601">
        <ele>68.87</ele>
        <time>2013-11-24T13:22:50Z</time>
      </trkpt>
      <trkpt lat="48.74074" lon="-3.26602">
        <ele>69.35</ele>
        <time>2013-11-24T13:22:52Z</time>
      </trkpt>
      <trkpt lat="48.74072" lon="-3.26604">
        <ele>69.35</ele>
        <time>2013-11-24T13:22:54Z</time>
      </trkpt>
      <trkpt lat="48.74069" lon="-3.26605">
        <ele>69.35</ele>
        <time>2013-11-24T13:22:56Z</time>
      </trkpt>
      <trkpt lat="48.74066" lon="-3.26606">
        <ele>69.35</ele>
        <time>2013-11-24T13:22:58Z</time>
      </trkpt>
      <trkpt lat="48.74064" lon="-3.26608">
        <ele>69.35</ele>
        <time>2013-11-24T13:23:00Z</time>
      </trkpt>
      <trkpt lat="48.74062" lon="-3.26609">
        <ele>68.87</ele>
        <time>2013-11-24T13:23:02Z</time>
      </trkpt>
      <trkpt lat="48.7406" lon="-3.26611">
        <ele>68.87</ele>
        <time>2013-11-24T13:23:04Z</time>
      </trkpt>
      <trkpt lat="48.74057" lon="-3.26612">
        <ele>68.87</ele>
        <time>2013-11-24T13:23:06Z</time>
      </trkpt>
      <trkpt lat="48.74055" lon="-3.26612">
        <ele>69.35</ele>
        <time>2013-11-24T13:23:08Z</time>
      </trkpt>
      <trkpt lat="48.74052" lon="-3.26612">
        <ele>69.35</ele>
        <time>2013-11-24T13:23:10Z</time>
      </trkpt>
      <trkpt lat="48.74049" lon="-3.26612">
        <ele>69.35</ele>
        <time>2013-11-24T13:23:12Z</time>
      </trkpt>
      <trkpt lat="48.74047" lon="-3.26612">
        <ele>68.87</ele>
        <time>2013-11-24T13:23:14Z</time>
      </trkpt>
      <trkpt lat="48.74044" lon="-3.26611">
        <ele>68.87</ele>
        <time>2013-11-24T13:23:16Z</time>
      </trkpt>
      <trkpt lat="48.74041" lon="-3.2661">
        <ele>68.87</ele>
        <time>2013-11-24T13:23:18Z</time>
      </trkpt>
      <trkpt lat="48.74038" lon="-3.26608">
        <ele>68.87</ele>
        <time>2013-11-24T13:23:20Z</time>
      </trkpt>
      <trkpt lat="48.74036" lon="-3.26606">
        <ele>68.87</ele>
        <time>2013-11-24T13:23:22Z</time>
      </trkpt>
      <trkpt lat="48.74034" lon="-3.26605">
        <ele>69.35</ele>
        <time>2013-11-24T13:23:24Z</time>
      </trkpt>
      <trkpt lat="48.74032" lon="-3.26606">
        <ele>69.35</ele>
        <time>2013-11-24T13:23:26Z</time>
      </trkpt>
      <trkpt lat="48.7403" lon="-3.26608">
        <ele>68.87</ele>
        <time>2013-11-24T13:23:28Z</time>
      </trkpt>
      <trkpt lat="48.74028" lon="-3.2661">
        <ele>68.87</ele>
        <time>2013-11-24T13:23:30Z</time>
      </trkpt>
      <trkpt lat="48.74027" lon="-3.26612">
        <ele>68.87</ele>
        <time>2013-11-24T13:23:32Z</time>
      </trkpt>
      <trkpt lat="48.74025" lon="-3.26614">
        <ele>68.87</ele>
        <time>2013-11-24T13:23:34Z</time>
      </trkpt>
      <trkpt lat="48.74024" lon="-3.26616">
        <ele>68.87</ele>
        <time>2013-11-24T13:23:36Z</time>
      </trkpt>
      <trkpt lat="48.74023" lon="-3.26619">
        <ele>68.87</ele>
        <time>2013-11-24T13:23:38Z</time>
      </trkpt>
      <trkpt lat="48.74022" lon="-3.26622">
        <ele>68.87</ele>
        <time>2013-11-24T13:23:40Z</time>
      </trkpt>
      <trkpt lat="48.7402" lon="-3.26625">
        <ele>68.87</ele>
        <time>2013-11-24T13:23:42Z</time>
      </trkpt>
      <trkpt lat="48.74018" lon="-3.26629">
        <ele>68.87</ele>
        <time>2013-11-24T13:23:44Z</time>
      </trkpt>
      <trkpt lat="48.74016" lon="-3.26631">
        <ele>68.87</ele>
        <time>2013-11-24T13:23:46Z</time>
      </trkpt>
      <trkpt lat="48.74014" lon="-3.26631">
        <ele>68.87</ele>
        <time>2013-11-24T13:23:48Z</time>
      </trkpt>
      <trkpt lat="48.74012" lon="-3.26631">
        <ele>68.87</ele>
        <time>2013-11-24T13:23:50Z</time>
      </trkpt>
      <trkpt lat="48.74009" lon="-3.26632">
        <ele>68.87</ele>
        <time>2013-11-24T13:23:52Z</time>
      </trkpt>
      <trkpt lat="48.74007" lon="-3.26633">
        <ele>68.39</ele>
        <time>2013-11-24T13:23:54Z</time>
      </trkpt>
      <trkpt lat="48.74005" lon="-3.26633">
        <ele>68.39</ele>
        <time>2013-11-24T13:23:56Z</time>
      </trkpt>
      <trkpt lat="48.74003" lon="-3.26633">
        <ele>68.39</ele>
        <time>2013-11-24T13:23:58Z</time>
      </trkpt>
      <trkpt lat="48.74002" lon="-3.26634">
        <ele>68.87</ele>
        <time>2013-11-24T13:24:00Z</time>
      </trkpt>
      <trkpt lat="48.74" lon="-3.26635">
        <ele>68.87</ele>
        <time>2013-11-24T13:24:02Z</time>
      </trkpt>
      <trkpt lat="48.73999" lon="-3.26637">
        <ele>68.87</ele>
        <time>2013-11-24T13:24:04Z</time>
      </trkpt>
      <trkpt lat="48.73998" lon="-3.2664">
        <ele>68.39</ele>
        <time>2013-11-24T13:24:06Z</time>
      </trkpt>
      <trkpt lat="48.73996" lon="-3.26643">
        <ele>68.39</ele>
        <time>2013-11-24T13:24:08Z</time>
      </trkpt>
      <trkpt lat="48.73994" lon="-3.26646">
        <ele>68.39</ele>
        <time>2013-11-24T13:24:10Z</time>
      </trkpt>
      <trkpt lat="48.73992" lon="-3.26647">
        <ele>68.39</ele>
        <time>2013-11-24T13:24:12Z</time>
      </trkpt>
      <trkpt lat="48.7399" lon="-3.26648">
        <ele>68.39</ele>
        <time>2013-11-24T13:24:14Z</time>
      </trkpt>
      <trkpt lat="48.73988" lon="-3.26649">
        <ele>68.39</ele>
        <time>2013-11-24T13:24:16Z</time>
      </trkpt>
      <trkpt lat="48.73985" lon="-3.26649">
        <ele>68.39</ele>
        <time>2013-11-24T13:24:18Z</time>
      </trkpt>
      <trkpt lat="48.73983" lon="-3.2665">
        <ele>67.91</ele>
        <time>2013-11-24T13:24:20Z</time>
      </trkpt>
      <trkpt lat="48.73982" lon="-3.2665">
        <ele>68.39</ele>
        <time>2013-11-24T13:24:22Z</time>
      </trkpt>
      <trkpt lat="48.7398" lon="-3.26651">
        <ele>68.39</ele>
        <time>2013-11-24T13:24:24Z</time>
      </trkpt>
      <trkpt lat="48.73978" lon="-3.26651">
        <ele>68.39</ele>
        <time>2013-11-24T13:24:26Z</time>
      </trkpt>
      <trkpt lat="48.73976" lon="-3.26652">
        <ele>68.39</ele>
        <time>2013-11-24T13:24:28Z</time>
      </trkpt>
      <trkpt lat="48.73974" lon="-3.26653">
        <ele>67.91</ele>
        <time>2013-11-24T13:24:30Z</time>
      </trkpt>
      <trkpt lat="48.73972" lon="-3.26654">
        <ele>67.91</ele>
        <time>2013-11-24T13:24:32Z</time>
      </trkpt>
      <trkpt lat="48.7397" lon="-3.26654">
        <ele>67.91</ele>
        <time>2013-11-24T13:24:34Z</time>
      </trkpt>
      <trkpt lat="48.73967" lon="-3.26656">
        <ele>67.91</ele>
        <time>2013-11-24T13:24:36Z</time>
      </trkpt>
      <trkpt lat="48.73965" lon="-3.26656">
        <ele>68.39</ele>
        <time>2013-11-24T13:24:38Z</time>
      </trkpt>
      <trkpt lat="48.73962" lon="-3.26657">
        <ele>67.91</ele>
        <time>2013-11-24T13:24:40Z</time>
      </trkpt>
      <trkpt lat="48.7396" lon="-3.26657">
        <ele>67.91</ele>
        <time>2013-11-24T13:24:42Z</time>
      </trkpt>
      <trkpt lat="48.73958" lon="-3.26658">
        <ele>67.91</ele>
        <time>2013-11-24T13:24:44Z</time>
      </trkpt>
      <trkpt lat="48.73956" lon="-3.26658">
        <ele>67.91</ele>
        <time>2013-11-24T13:24:46Z</time>
      </trkpt>
      <trkpt lat="48.73954" lon="-3.26659">
        <ele>67.91</ele>
        <time>2013-11-24T13:24:48Z</time>
      </trkpt>
      <trkpt lat="48.73951" lon="-3.26658">
        <ele>67.91</ele>
        <time>2013-11-24T13:24:50Z</time>
      </trkpt>
      <trkpt lat="48.73949" lon="-3.26659">
        <ele>67.91</ele>
        <time>2013-11-24T13:24:52Z</time>
      </trkpt>
      <trkpt lat="48.73946" lon="-3.26659">
        <ele>67.91</ele>
        <time>2013-11-24T13:24:54Z</time>
      </trkpt>
      <trkpt lat="48.73944" lon="-3.2666">
        <ele>67.91</ele>
        <time>2013-11-24T13:24:56Z</time>
      </trkpt>
      <trkpt lat="48.73941" lon="-3.2666">
        <ele>67.91</ele>
        <time>2013-11-24T13:24:58Z</time>
      </trkpt>
      <trkpt lat="48.73938" lon="-3.26661">
        <ele>67.91</ele>
        <time>2013-11-24T13:25:00Z</time>
      </trkpt>
      <trkpt lat="48.73937" lon="-3.26661">
        <ele>67.91</ele>
        <time>2013-11-24T13:25:02Z</time>
      </trkpt>
      <trkpt lat="48.73934" lon="-3.26662">
        <ele>67.91</ele>
        <time>2013-11-24T13:25:04Z</time>
      </trkpt>
      <trkpt lat="48.73932" lon="-3.26663">
        <ele>67.91</ele>
        <time>2013-11-24T13:25:06Z</time>
      </trkpt>
      <trkpt lat="48.73929" lon="-3.26663">
        <ele>67.91</ele>
        <time>2013-11-24T13:25:08Z</time>
      </trkpt>
      <trkpt lat="48.73927" lon="-3.26664">
        <ele>67.91</ele>
        <time>2013-11-24T13:25:10Z</time>
      </trkpt>
      <trkpt lat="48.73925" lon="-3.26665">
        <ele>67.91</ele>
        <time>2013-11-24T13:25:12Z</time>
      </trkpt>
      <trkpt lat="48.73923" lon="-3.26666">
        <ele>67.91</ele>
        <time>2013-11-24T13:25:14Z</time>
      </trkpt>
      <trkpt lat="48.73921" lon="-3.26666">
        <ele>67.43</ele>
        <time>2013-11-24T13:25:16Z</time>
      </trkpt>
      <trkpt lat="48.73918" lon="-3.26668">
        <ele>67.91</ele>
        <time>2013-11-24T13:25:18Z</time>
      </trkpt>
      <trkpt lat="48.73916" lon="-3.2667">
        <ele>67.91</ele>
        <time>2013-11-24T13:25:20Z</time>
      </trkpt>
      <trkpt lat="48.73913" lon="-3.26672">
        <ele>67.91</ele>
        <time>2013-11-24T13:25:22Z</time>
      </trkpt>
      <trkpt lat="48.7391" lon="-3.26673">
        <ele>67.91</ele>
        <time>2013-11-24T13:25:24Z</time>
      </trkpt>
      <trkpt lat="48.73908" lon="-3.26675">
        <ele>67.91</ele>
        <time>2013-11-24T13:25:26Z</time>
      </trkpt>
      <trkpt lat="48.73906" lon="-3.26676">
        <ele>67.43</ele>
        <time>2013-11-24T13:25:28Z</time>
      </trkpt>
      <trkpt lat="48.73904" lon="-3.26677">
        <ele>67.43</ele>
        <time>2013-11-24T13:25:30Z</time>
      </trkpt>
      <trkpt lat="48.73902" lon="-3.26678">
        <ele>67.43</ele>
        <time>2013-11-24T13:25:32Z</time>
      </trkpt>
      <trkpt lat="48.739" lon="-3.26677">
        <ele>67.43</ele>
        <time>2013-11-24T13:25:34Z</time>
      </trkpt>
      <trkpt lat="48.73897" lon="-3.26675">
        <ele>67.43</ele>
        <time>2013-11-24T13:25:36Z</time>
      </trkpt>
      <trkpt lat="48.73894" lon="-3.26675">
        <ele>67.43</ele>
        <time>2013-11-24T13:25:38Z</time>
      </trkpt>
      <trkpt lat="48.73892" lon="-3.26674">
        <ele>67.43</ele>
        <time>2013-11-24T13:25:40Z</time>
      </trkpt>
      <trkpt lat="48.73888" lon="-3.26671">
        <ele>67.43</ele>
        <time>2013-11-24T13:25:42Z</time>
      </trkpt>
      <trkpt lat="48.73887" lon="-3.2667">
        <ele>67.43</ele>
        <time>2013-11-24T13:25:44Z</time>
      </trkpt>
      <trkpt lat="48.73886" lon="-3.26668">
        <ele>67.43</ele>
        <time>2013-11-24T13:25:46Z</time>
      </trkpt>
      <trkpt lat="48.73884" lon="-3.26665">
        <ele>67.43</ele>
        <time>2013-11-24T13:25:48Z</time>
      </trkpt>
      <trkpt lat="48.73883" lon="-3.26663">
        <ele>67.43</ele>
        <time>2013-11-24T13:25:50Z</time>
      </trkpt>
      <trkpt lat="48.73883" lon="-3.26661">
        <ele>67.43</ele>
        <time>2013-11-24T13:25:52Z</time>
      </trkpt>
      <trkpt lat="48.73882" lon="-3.2666">
        <ele>67.43</ele>
        <time>2013-11-24T13:25:54Z</time>
      </trkpt>
      <trkpt lat="48.73881" lon="-3.2666">
        <ele>67.43</ele>
        <time>2013-11-24T13:25:56Z</time>
      </trkpt>
      <trkpt lat="48.7388" lon="-3.26661">
        <ele>67.43</ele>
        <time>2013-11-24T13:25:58Z</time>
      </trkpt>
      <trkpt lat="48.73877" lon="-3.26662">
        <ele>67.43</ele>
        <time>2013-11-24T13:26:00Z</time>
      </trkpt>
      <trkpt lat="48.73875" lon="-3.26662">
        <ele>67.43</ele>
        <time>2013-11-24T13:26:02Z</time>
      </trkpt>
      <trkpt lat="48.73874" lon="-3.26663">
        <ele>67.91</ele>
        <time>2013-11-24T13:26:04Z</time>
      </trkpt>
      <trkpt lat="48.73872" lon="-3.26664">
        <ele>67.43</ele>
        <time>2013-11-24T13:26:06Z</time>
      </trkpt>
      <trkpt lat="48.7387" lon="-3.26666">
        <ele>67.43</ele>
        <time>2013-11-24T13:26:08Z</time>
      </trkpt>
      <trkpt lat="48.73869" lon="-3.26667">
        <ele>67.43</ele>
        <time>2013-11-24T13:26:10Z</time>
      </trkpt>
      <trkpt lat="48.73867" lon="-3.26668">
        <ele>67.43</ele>
        <time>2013-11-24T13:26:12Z</time>
      </trkpt>
      <trkpt lat="48.73864" lon="-3.2667">
        <ele>67.43</ele>
        <time>2013-11-24T13:26:14Z</time>
      </trkpt>
      <trkpt lat="48.73862" lon="-3.26672">
        <ele>67.43</ele>
        <time>2013-11-24T13:26:16Z</time>
      </trkpt>
      <trkpt lat="48.73861" lon="-3.26674">
        <ele>67.43</ele>
        <time>2013-11-24T13:26:18Z</time>
      </trkpt>
      <trkpt lat="48.7386" lon="-3.26676">
        <ele>67.43</ele>
        <time>2013-11-24T13:26:20Z</time>
      </trkpt>
      <trkpt lat="48.73858" lon="-3.26677">
        <ele>67.43</ele>
        <time>2013-11-24T13:26:22Z</time>
      </trkpt>
      <trkpt lat="48.73857" lon="-3.26679">
        <ele>67.43</ele>
        <time>2013-11-24T13:26:24Z</time>
      </trkpt>
      <trkpt lat="48.73854" lon="-3.26681">
        <ele>67.43</ele>
        <time>2013-11-24T13:26:26Z</time>
      </trkpt>
      <trkpt lat="48.73852" lon="-3.26683">
        <ele>67.43</ele>
        <time>2013-11-24T13:26:28Z</time>
      </trkpt>
      <trkpt lat="48.73849" lon="-3.26684">
        <ele>67.91</ele>
        <time>2013-11-24T13:26:30Z</time>
      </trkpt>
      <trkpt lat="48.73848" lon="-3.26685">
        <ele>67.43</ele>
        <time>2013-11-24T13:26:32Z</time>
      </trkpt>
      <trkpt lat="48.73846" lon="-3.26687">
        <ele>67.43</ele>
        <time>2013-11-24T13:26:34Z</time>
      </trkpt>
      <trkpt lat="48.73845" lon="-3.26688">
        <ele>67.43</ele>
        <time>2013-11-24T13:26:36Z</time>
      </trkpt>
      <trkpt lat="48.73845" lon="-3.26689">
        <ele>67.43</ele>
        <time>2013-11-24T13:26:38Z</time>
      </trkpt>
      <trkpt lat="48.73843" lon="-3.26689">
        <ele>67.43</ele>
        <time>2013-11-24T13:26:40Z</time>
      </trkpt>
      <trkpt lat="48.73841" lon="-3.2669">
        <ele>67.43</ele>
        <time>2013-11-24T13:26:42Z</time>
      </trkpt>
      <trkpt lat="48.73839" lon="-3.26691">
        <ele>66.95</ele>
        <time>2013-11-24T13:26:44Z</time>
      </trkpt>
      <trkpt lat="48.73838" lon="-3.26693">
        <ele>67.43</ele>
        <time>2013-11-24T13:26:46Z</time>
      </trkpt>
      <trkpt lat="48.73835" lon="-3.26695">
        <ele>67.43</ele>
        <time>2013-11-24T13:26:48Z</time>
      </trkpt>
      <trkpt lat="48.73834" lon="-3.26697">
        <ele>67.43</ele>
        <time>2013-11-24T13:26:50Z</time>
      </trkpt>
      <trkpt lat="48.73832" lon="-3.267">
        <ele>67.43</ele>
        <time>2013-11-24T13:26:52Z</time>
      </trkpt>
      <trkpt lat="48.73831" lon="-3.26701">
        <ele>67.43</ele>
        <time>2013-11-24T13:26:54Z</time>
      </trkpt>
      <trkpt lat="48.7383" lon="-3.26702">
        <ele>67.43</ele>
        <time>2013-11-24T13:26:56Z</time>
      </trkpt>
      <trkpt lat="48.73829" lon="-3.26703">
        <ele>66.95</ele>
        <time>2013-11-24T13:26:58Z</time>
      </trkpt>
      <trkpt lat="48.73828" lon="-3.26704">
        <ele>67.43</ele>
        <time>2013-11-24T13:27:00Z</time>
      </trkpt>
      <trkpt lat="48.73828" lon="-3.26708">
        <ele>67.43</ele>
        <time>2013-11-24T13:27:02Z</time>
      </trkpt>
      <trkpt lat="48.73827" lon="-3.2671">
        <ele>67.43</ele>
        <time>2013-11-24T13:27:04Z</time>
      </trkpt>
      <trkpt lat="48.73826" lon="-3.26713">
        <ele>67.43</ele>
        <time>2013-11-24T13:27:06Z</time>
      </trkpt>
      <trkpt lat="48.73824" lon="-3.26716">
        <ele>67.43</ele>
        <time>2013-11-24T13:27:08Z</time>
      </trkpt>
      <trkpt lat="48.73823" lon="-3.26718">
        <ele>66.95</ele>
        <time>2013-11-24T13:27:10Z</time>
      </trkpt>
      <trkpt lat="48.73823" lon="-3.26721">
        <ele>66.95</ele>
        <time>2013-11-24T13:27:12Z</time>
      </trkpt>
      <trkpt lat="48.7382" lon="-3.26723">
        <ele>66.95</ele>
        <time>2013-11-24T13:27:14Z</time>
      </trkpt>
      <trkpt lat="48.73818" lon="-3.26724">
        <ele>66.95</ele>
        <time>2013-11-24T13:27:16Z</time>
      </trkpt>
      <trkpt lat="48.73817" lon="-3.26726">
        <ele>66.95</ele>
        <time>2013-11-24T13:27:18Z</time>
      </trkpt>
      <trkpt lat="48.73814" lon="-3.26729">
        <ele>66.95</ele>
        <time>2013-11-24T13:27:20Z</time>
      </trkpt>
      <trkpt lat="48.73811" lon="-3.26731">
        <ele>66.95</ele>
        <time>2013-11-24T13:27:22Z</time>
      </trkpt>
      <trkpt lat="48.7381" lon="-3.26732">
        <ele>66.95</ele>
        <time>2013-11-24T13:27:24Z</time>
      </trkpt>
      <trkpt lat="48.73808" lon="-3.26734">
        <ele>66.95</ele>
        <time>2013-11-24T13:27:26Z</time>
      </trkpt>
      <trkpt lat="48.73807" lon="-3.26735">
        <ele>66.95</ele>
        <time>2013-11-24T13:27:28Z</time>
      </trkpt>
      <trkpt lat="48.73806" lon="-3.26735">
        <ele>66.95</ele>
        <time>2013-11-24T13:27:30Z</time>
      </trkpt>
      <trkpt lat="48.73805" lon="-3.26735">
        <ele>66.95</ele>
        <time>2013-11-24T13:27:32Z</time>
      </trkpt>
      <trkpt lat="48.73804" lon="-3.26735">
        <ele>66.47</ele>
        <time>2013-11-24T13:27:34Z</time>
      </trkpt>
      <trkpt lat="48.73803" lon="-3.26736">
        <ele>66.47</ele>
        <time>2013-11-24T13:27:36Z</time>
      </trkpt>
      <trkpt lat="48.738" lon="-3.26737">
        <ele>66.47</ele>
        <time>2013-11-24T13:27:38Z</time>
      </trkpt>
      <trkpt lat="48.73798" lon="-3.26738">
        <ele>66.47</ele>
        <time>2013-11-24T13:27:40Z</time>
      </trkpt>
      <trkpt lat="48.73797" lon="-3.26738">
        <ele>66.95</ele>
        <time>2013-11-24T13:27:42Z</time>
      </trkpt>
      <trkpt lat="48.73795" lon="-3.26739">
        <ele>66.95</ele>
        <time>2013-11-24T13:27:44Z</time>
      </trkpt>
      <trkpt lat="48.73793" lon="-3.26739">
        <ele>66.47</ele>
        <time>2013-11-24T13:27:46Z</time>
      </trkpt>
      <trkpt lat="48.73791" lon="-3.2674">
        <ele>66.47</ele>
        <time>2013-11-24T13:27:48Z</time>
      </trkpt>
      <trkpt lat="48.73788" lon="-3.2674">
        <ele>66.95</ele>
        <time>2013-11-24T13:27:50Z</time>
      </trkpt>
      <trkpt lat="48.73786" lon="-3.26741">
        <ele>66.95</ele>
        <time>2013-11-24T13:27:52Z</time>
      </trkpt>
      <trkpt lat="48.73784" lon="-3.26741">
        <ele>66.95</ele>
        <time>2013-11-24T13:27:54Z</time>
      </trkpt>
      <trkpt lat="48.73782" lon="-3.26742">
        <ele>66.47</ele>
        <time>2013-11-24T13:27:56Z</time>
      </trkpt>
      <trkpt lat="48.73781" lon="-3.26743">
        <ele>66.95</ele>
        <time>2013-11-24T13:27:58Z</time>
      </trkpt>
      <trkpt lat="48.7378" lon="-3.26745">
        <ele>66.95</ele>
        <time>2013-11-24T13:28:00Z</time>
      </trkpt>
      <trkpt lat="48.73777" lon="-3.26745">
        <ele>66.95</ele>
        <time>2013-11-24T13:28:02Z</time>
      </trkpt>
      <trkpt lat="48.73776" lon="-3.26746">
        <ele>66.95</ele>
        <time>2013-11-24T13:28:04Z</time>
      </trkpt>
      <trkpt lat="48.73774" lon="-3.26746">
        <ele>66.47</ele>
        <time>2013-11-24T13:28:06Z</time>
      </trkpt>
      <trkpt lat="48.73773" lon="-3.26747">
        <ele>66.47</ele>
        <time>2013-11-24T13:28:08Z</time>
      </trkpt>
      <trkpt lat="48.73772" lon="-3.26747">
        <ele>66.47</ele>
        <time>2013-11-24T13:28:10Z</time>
      </trkpt>
      <trkpt lat="48.7377" lon="-3.26748">
        <ele>66.95</ele>
        <time>2013-11-24T13:28:12Z</time>
      </trkpt>
      <trkpt lat="48.73769" lon="-3.26749">
        <ele>66.95</ele>
        <time>2013-11-24T13:28:14Z</time>
      </trkpt>
      <trkpt lat="48.73768" lon="-3.2675">
        <ele>66.95</ele>
        <time>2013-11-24T13:28:16Z</time>
      </trkpt>
      <trkpt lat="48.73766" lon="-3.26752">
        <ele>66.47</ele>
        <time>2013-11-24T13:28:18Z</time>
      </trkpt>
      <trkpt lat="48.73765" lon="-3.26753">
        <ele>66.47</ele>
        <time>2013-11-24T13:28:20Z</time>
      </trkpt>
      <trkpt lat="48.73763" lon="-3.26755">
        <ele>66.95</ele>
        <time>2013-11-24T13:28:22Z</time>
      </trkpt>
      <trkpt lat="48.73762" lon="-3.26757">
        <ele>66.95</ele>
        <time>2013-11-24T13:28:24Z</time>
      </trkpt>
      <trkpt lat="48.73758" lon="-3.26759">
        <ele>66.95</ele>
        <time>2013-11-24T13:28:26Z</time>
      </trkpt>
      <trkpt lat="48.73754" lon="-3.26761">
        <ele>66.47</ele>
        <time>2013-11-24T13:28:28Z</time>
      </trkpt>
      <trkpt lat="48.73751" lon="-3.26762">
        <ele>66.47</ele>
        <time>2013-11-24T13:28:30Z</time>
      </trkpt>
      <trkpt lat="48.73747" lon="-3.26764">
        <ele>66.47</ele>
        <time>2013-11-24T13:28:32Z</time>
      </trkpt>
      <trkpt lat="48.73744" lon="-3.26767">
        <ele>66.95</ele>
        <time>2013-11-24T13:28:34Z</time>
      </trkpt>
      <trkpt lat="48.73741" lon="-3.26768">
        <ele>66.95</ele>
        <time>2013-11-24T13:28:36Z</time>
      </trkpt>
      <trkpt lat="48.7374" lon="-3.2677">
        <ele>66.47</ele>
        <time>2013-11-24T13:28:38Z</time>
      </trkpt>
      <trkpt lat="48.73739" lon="-3.26772">
        <ele>66.47</ele>
        <time>2013-11-24T13:28:40Z</time>
      </trkpt>
      <trkpt lat="48.73738" lon="-3.26774">
        <ele>66.47</ele>
        <time>2013-11-24T13:28:42Z</time>
      </trkpt>
      <trkpt lat="48.73736" lon="-3.26775">
        <ele>66.47</ele>
        <time>2013-11-24T13:28:44Z</time>
      </trkpt>
      <trkpt lat="48.73734" lon="-3.26777">
        <ele>66.95</ele>
        <time>2013-11-24T13:28:46Z</time>
      </trkpt>
      <trkpt lat="48.73732" lon="-3.26779">
        <ele>66.95</ele>
        <time>2013-11-24T13:28:48Z</time>
      </trkpt>
      <trkpt lat="48.7373" lon="-3.2678">
        <ele>66.47</ele>
        <time>2013-11-24T13:28:50Z</time>
      </trkpt>
      <trkpt lat="48.73728" lon="-3.26781">
        <ele>66.47</ele>
        <time>2013-11-24T13:28:52Z</time>
      </trkpt>
      <trkpt lat="48.73726" lon="-3.26782">
        <ele>66.47</ele>
        <time>2013-11-24T13:28:54Z</time>
      </trkpt>
      <trkpt lat="48.73721" lon="-3.26784">
        <ele>66.47</ele>
        <time>2013-11-24T13:28:56Z</time>
      </trkpt>
      <trkpt lat="48.7372" lon="-3.26784">
        <ele>66.47</ele>
        <time>2013-11-24T13:28:58Z</time>
      </trkpt>
      <trkpt lat="48.73719" lon="-3.26785">
        <ele>66.47</ele>
        <time>2013-11-24T13:29:00Z</time>
      </trkpt>
      <trkpt lat="48.73717" lon="-3.26785">
        <ele>66.47</ele>
        <time>2013-11-24T13:29:02Z</time>
      </trkpt>
      <trkpt lat="48.73715" lon="-3.26785">
        <ele>66.47</ele>
        <time>2013-11-24T13:29:04Z</time>
      </trkpt>
      <trkpt lat="48.73713" lon="-3.26784">
        <ele>66.47</ele>
        <time>2013-11-24T13:29:06Z</time>
      </trkpt>
      <trkpt lat="48.7371" lon="-3.26785">
        <ele>66.95</ele>
        <time>2013-11-24T13:29:08Z</time>
      </trkpt>
      <trkpt lat="48.73707" lon="-3.26785">
        <ele>66.47</ele>
        <time>2013-11-24T13:29:10Z</time>
      </trkpt>
      <trkpt lat="48.73705" lon="-3.26785">
        <ele>66.47</ele>
        <time>2013-11-24T13:29:12Z</time>
      </trkpt>
      <trkpt lat="48.73703" lon="-3.26784">
        <ele>66.47</ele>
        <time>2013-11-24T13:29:14Z</time>
      </trkpt>
      <trkpt lat="48.73701" lon="-3.26785">
        <ele>66.47</ele>
        <time>2013-11-24T13:29:16Z</time>
      </trkpt>
      <trkpt lat="48.73699" lon="-3.26786">
        <ele>66.47</ele>
        <time>2013-11-24T13:29:18Z</time>
      </trkpt>
      <trkpt lat="48.73697" lon="-3.26788">
        <ele>66.95</ele>
        <time>2013-11-24T13:29:20Z</time>
      </trkpt>
      <trkpt lat="48.73696" lon="-3.2679">
        <ele>66.47</ele>
        <time>2013-11-24T13:29:22Z</time>
      </trkpt>
      <trkpt lat="48.73694" lon="-3.26793">
        <ele>66.47</ele>
        <time>2013-11-24T13:29:24Z</time>
      </trkpt>
      <trkpt lat="48.73693" lon="-3.26795">
        <ele>66.47</ele>
        <time>2013-11-24T13:29:26Z</time>
      </trkpt>
      <trkpt lat="48.73692" lon="-3.26799">
        <ele>66.47</ele>
        <time>2013-11-24T13:29:28Z</time>
      </trkpt>
      <trkpt lat="48.73691" lon="-3.26802">
        <ele>66.95</ele>
        <time>2013-11-24T13:29:30Z</time>
      </trkpt>
      <trkpt lat="48.73691" lon="-3.26805">
        <ele>66.95</ele>
        <time>2013-11-24T13:29:32Z</time>
      </trkpt>
      <trkpt lat="48.73691" lon="-3.26809">
        <ele>66.47</ele>
        <time>2013-11-24T13:29:34Z</time>
      </trkpt>
      <trkpt lat="48.7369" lon="-3.26812">
        <ele>66.47</ele>
        <time>2013-11-24T13:29:36Z</time>
      </trkpt>
      <trkpt lat="48.73688" lon="-3.26816">
        <ele>66.47</ele>
        <time>2013-11-24T13:29:38Z</time>
      </trkpt>
      <trkpt lat="48.73687" lon="-3.26818">
        <ele>66.47</ele>
        <time>2013-11-24T13:29:40Z</time>
      </trkpt>
      <trkpt lat="48.73686" lon="-3.2682">
        <ele>66.47</ele>
        <time>2013-11-24T13:29:42Z</time>
      </trkpt>
      <trkpt lat="48.73685" lon="-3.26823">
        <ele>66.47</ele>
        <time>2013-11-24T13:29:44Z</time>
      </trkpt>
      <trkpt lat="48.73684" lon="-3.26825">
        <ele>65.99</ele>
        <time>2013-11-24T13:29:46Z</time>
      </trkpt>
      <trkpt lat="48.73683" lon="-3.26828">
        <ele>66.47</ele>
        <time>2013-11-24T13:29:48Z</time>
      </trkpt>
      <trkpt lat="48.73682" lon="-3.2683">
        <ele>66.47</ele>
        <time>2013-11-24T13:29:50Z</time>
      </trkpt>
      <trkpt lat="48.73681" lon="-3.26832">
        <ele>66.47</ele>
        <time>2013-11-24T13:29:52Z</time>
      </trkpt>
      <trkpt lat="48.73679" lon="-3.26833">
        <ele>66.47</ele>
        <time>2013-11-24T13:29:54Z</time>
      </trkpt>
      <trkpt lat="48.73678" lon="-3.26836">
        <ele>66.47</ele>
        <time>2013-11-24T13:29:56Z</time>
      </trkpt>
      <trkpt lat="48.73677" lon="-3.26838">
        <ele>66.47</ele>
        <time>2013-11-24T13:29:58Z</time>
      </trkpt>
      <trkpt lat="48.73675" lon="-3.2684">
        <ele>66.47</ele>
        <time>2013-11-24T13:30:00Z</time>
      </trkpt>
      <trkpt lat="48.73674" lon="-3.26841">
        <ele>66.47</ele>
        <time>2013-11-24T13:30:02Z</time>
      </trkpt>
      <trkpt lat="48.73672" lon="-3.26844">
        <ele>66.47</ele>
        <time>2013-11-24T13:30:04Z</time>
      </trkpt>
      <trkpt lat="48.73671" lon="-3.26846">
        <ele>66.47</ele>
        <time>2013-11-24T13:30:06Z</time>
      </trkpt>
      <trkpt lat="48.73669" lon="-3.2685">
        <ele>65.99</ele>
        <time>2013-11-24T13:30:08Z</time>
      </trkpt>
      <trkpt lat="48.73667" lon="-3.26853">
        <ele>66.47</ele>
        <time>2013-11-24T13:30:10Z</time>
      </trkpt>
      <trkpt lat="48.73665" lon="-3.26855">
        <ele>66.47</ele>
        <time>2013-11-24T13:30:12Z</time>
      </trkpt>
      <trkpt lat="48.73664" lon="-3.26857">
        <ele>66.47</ele>
        <time>2013-11-24T13:30:14Z</time>
      </trkpt>
      <trkpt lat="48.73662" lon="-3.2686">
        <ele>66.47</ele>
        <time>2013-11-24T13:30:16Z</time>
      </trkpt>
      <trkpt lat="48.7366" lon="-3.26862">
        <ele>66.47</ele>
        <time>2013-11-24T13:30:18Z</time>
      </trkpt>
      <trkpt lat="48.73658" lon="-3.26864">
        <ele>66.47</ele>
        <time>2013-11-24T13:30:20Z</time>
      </trkpt>
      <trkpt lat="48.73657" lon="-3.26865">
        <ele>66.47</ele>
        <time>2013-11-24T13:30:22Z</time>
      </trkpt>
      <trkpt lat="48.73657" lon="-3.26866">
        <ele>66.47</ele>
        <time>2013-11-24T13:30:24Z</time>
      </trkpt>
      <trkpt lat="48.73655" lon="-3.26868">
        <ele>66.95</ele>
        <time>2013-11-24T13:30:26Z</time>
      </trkpt>
      <trkpt lat="48.73654" lon="-3.26869">
        <ele>66.47</ele>
        <time>2013-11-24T13:30:28Z</time>
      </trkpt>
      <trkpt lat="48.73652" lon="-3.26871">
        <ele>66.47</ele>
        <time>2013-11-24T13:30:30Z</time>
      </trkpt>
      <trkpt lat="48.7365" lon="-3.26873">
        <ele>66.47</ele>
        <time>2013-11-24T13:30:32Z</time>
      </trkpt>
      <trkpt lat="48.73649" lon="-3.26875">
        <ele>66.47</ele>
        <time>2013-11-24T13:30:34Z</time>
      </trkpt>
      <trkpt lat="48.73646" lon="-3.26878">
        <ele>66.47</ele>
        <time>2013-11-24T13:30:36Z</time>
      </trkpt>
      <trkpt lat="48.73646" lon="-3.2688">
        <ele>66.47</ele>
        <time>2013-11-24T13:30:38Z</time>
      </trkpt>
      <trkpt lat="48.73645" lon="-3.26881">
        <ele>66.47</ele>
        <time>2013-11-24T13:30:40Z</time>
      </trkpt>
      <trkpt lat="48.73644" lon="-3.26882">
        <ele>66.47</ele>
        <time>2013-11-24T13:30:42Z</time>
      </trkpt>
      <trkpt lat="48.73642" lon="-3.26886">
        <ele>66.47</ele>
        <time>2013-11-24T13:30:44Z</time>
      </trkpt>
      <trkpt lat="48.73641" lon="-3.26891">
        <ele>66.47</ele>
        <time>2013-11-24T13:30:46Z</time>
      </trkpt>
      <trkpt lat="48.7364" lon="-3.26895">
        <ele>66.47</ele>
        <time>2013-11-24T13:30:48Z</time>
      </trkpt>
      <trkpt lat="48.73639" lon="-3.26897">
        <ele>65.99</ele>
        <time>2013-11-24T13:30:50Z</time>
      </trkpt>
      <trkpt lat="48.73638" lon="-3.26899">
        <ele>66.47</ele>
        <time>2013-11-24T13:30:52Z</time>
      </trkpt>
      <trkpt lat="48.73636" lon="-3.26902">
        <ele>66.47</ele>
        <time>2013-11-24T13:30:54Z</time>
      </trkpt>
      <trkpt lat="48.73635" lon="-3.26904">
        <ele>66.47</ele>
        <time>2013-11-24T13:30:56Z</time>
      </trkpt>
      <trkpt lat="48.73634" lon="-3.26906">
        <ele>66.47</ele>
        <time>2013-11-24T13:30:58Z</time>
      </trkpt>
      <trkpt lat="48.73633" lon="-3.26908">
        <ele>66.47</ele>
        <time>2013-11-24T13:31:00Z</time>
      </trkpt>
      <trkpt lat="48.73632" lon="-3.26909">
        <ele>66.95</ele>
        <time>2013-11-24T13:31:02Z</time>
      </trkpt>
      <trkpt lat="48.73631" lon="-3.26912">
        <ele>66.47</ele>
        <time>2013-11-24T13:31:04Z</time>
      </trkpt>
      <trkpt lat="48.7363" lon="-3.26914">
        <ele>66.47</ele>
        <time>2013-11-24T13:31:06Z</time>
      </trkpt>
      <trkpt lat="48.73629" lon="-3.26916">
        <ele>66.47</ele>
        <time>2013-11-24T13:31:08Z</time>
      </trkpt>
      <trkpt lat="48.73628" lon="-3.26918">
        <ele>66.47</ele>
        <time>2013-11-24T13:31:10Z</time>
      </trkpt>
      <trkpt lat="48.73626" lon="-3.26921">
        <ele>66.47</ele>
        <time>2013-11-24T13:31:12Z</time>
      </trkpt>
      <trkpt lat="48.73625" lon="-3.26923">
        <ele>66.95</ele>
        <time>2013-11-24T13:31:14Z</time>
      </trkpt>
      <trkpt lat="48.73623" lon="-3.26926">
        <ele>66.47</ele>
        <time>2013-11-24T13:31:16Z</time>
      </trkpt>
      <trkpt lat="48.73621" lon="-3.26927">
        <ele>66.47</ele>
        <time>2013-11-24T13:31:18Z</time>
      </trkpt>
      <trkpt lat="48.7362" lon="-3.26929">
        <ele>66.95</ele>
        <time>2013-11-24T13:31:20Z</time>
      </trkpt>
      <trkpt lat="48.7362" lon="-3.26931">
        <ele>66.95</ele>
        <time>2013-11-24T13:31:22Z</time>
      </trkpt>
      <trkpt lat="48.7362" lon="-3.26932">
        <ele>66.95</ele>
        <time>2013-11-24T13:31:24Z</time>
      </trkpt>
      <trkpt lat="48.73618" lon="-3.26933">
        <ele>66.95</ele>
        <time>2013-11-24T13:31:26Z</time>
      </trkpt>
      <trkpt lat="48.73618" lon="-3.26935">
        <ele>66.95</ele>
        <time>2013-11-24T13:31:28Z</time>
      </trkpt>
      <trkpt lat="48.73618" lon="-3.26937">
        <ele>66.47</ele>
        <time>2013-11-24T13:31:30Z</time>
      </trkpt>
      <trkpt lat="48.73618" lon="-3.26939">
        <ele>66.47</ele>
        <time>2013-11-24T13:31:32Z</time>
      </trkpt>
      <trkpt lat="48.73617" lon="-3.26941">
        <ele>66.47</ele>
        <time>2013-11-24T13:31:34Z</time>
      </trkpt>
      <trkpt lat="48.73616" lon="-3.26944">
        <ele>66.47</ele>
        <time>2013-11-24T13:31:36Z</time>
      </trkpt>
      <trkpt lat="48.73615" lon="-3.26947">
        <ele>66.47</ele>
        <time>2013-11-24T13:31:38Z</time>
      </trkpt>
      <trkpt lat="48.73613" lon="-3.26949">
        <ele>66.47</ele>
        <time>2013-11-24T13:31:40Z</time>
      </trkpt>
      <trkpt lat="48.73613" lon="-3.26951">
        <ele>66.47</ele>
        <time>2013-11-24T13:31:42Z</time>
      </trkpt>
      <trkpt lat="48.73614" lon="-3.26952">
        <ele>66.95</ele>
        <time>2013-11-24T13:31:44Z</time>
      </trkpt>
      <trkpt lat="48.73613" lon="-3.26953">
        <ele>66.47</ele>
        <time>2013-11-24T13:31:46Z</time>
      </trkpt>
      <trkpt lat="48.73613" lon="-3.26955">
        <ele>66.47</ele>
        <time>2013-11-24T13:31:48Z</time>
      </trkpt>
      <trkpt lat="48.73613" lon="-3.26957">
        <ele>66.47</ele>
        <time>2013-11-24T13:31:50Z</time>
      </trkpt>
      <trkpt lat="48.73613" lon="-3.2696">
        <ele>66.47</ele>
        <time>2013-11-24T13:31:52Z</time>
      </trkpt>
      <trkpt lat="48.73612" lon="-3.26963">
        <ele>66.47</ele>
        <time>2013-11-24T13:31:54Z</time>
      </trkpt>
      <trkpt lat="48.73612" lon="-3.26966">
        <ele>66.47</ele>
        <time>2013-11-24T13:31:56Z</time>
      </trkpt>
      <trkpt lat="48.73611" lon="-3.26968">
        <ele>66.47</ele>
        <time>2013-11-24T13:31:58Z</time>
      </trkpt>
      <trkpt lat="48.73611" lon="-3.26969">
        <ele>66.47</ele>
        <time>2013-11-24T13:32:00Z</time>
      </trkpt>
      <trkpt lat="48.7361" lon="-3.2697">
        <ele>66.47</ele>
        <time>2013-11-24T13:32:02Z</time>
      </trkpt>
      <trkpt lat="48.73608" lon="-3.26972">
        <ele>66.47</ele>
        <time>2013-11-24T13:32:04Z</time>
      </trkpt>
      <trkpt lat="48.73607" lon="-3.26975">
        <ele>66.47</ele>
        <time>2013-11-24T13:32:06Z</time>
      </trkpt>
      <trkpt lat="48.73606" lon="-3.26976">
        <ele>66.47</ele>
        <time>2013-11-24T13:32:08Z</time>
      </trkpt>
      <trkpt lat="48.73605" lon="-3.26978">
        <ele>66.47</ele>
        <time>2013-11-24T13:32:10Z</time>
      </trkpt>
      <trkpt lat="48.73603" lon="-3.2698">
        <ele>66.47</ele>
        <time>2013-11-24T13:32:12Z</time>
      </trkpt>
      <trkpt lat="48.73602" lon="-3.26982">
        <ele>66.47</ele>
        <time>2013-11-24T13:32:14Z</time>
      </trkpt>
      <trkpt lat="48.73601" lon="-3.26985">
        <ele>66.47</ele>
        <time>2013-11-24T13:32:16Z</time>
      </trkpt>
      <trkpt lat="48.73599" lon="-3.26987">
        <ele>66.47</ele>
        <time>2013-11-24T13:32:18Z</time>
      </trkpt>
      <trkpt lat="48.73598" lon="-3.2699">
        <ele>66.47</ele>
        <time>2013-11-24T13:32:20Z</time>
      </trkpt>
      <trkpt lat="48.73598" lon="-3.26992">
        <ele>66.47</ele>
        <time>2013-11-24T13:32:22Z</time>
      </trkpt>
      <trkpt lat="48.73597" lon="-3.26993">
        <ele>66.47</ele>
        <time>2013-11-24T13:32:24Z</time>
      </trkpt>
      <trkpt lat="48.73597" lon="-3.26994">
        <ele>66.47</ele>
        <time>2013-11-24T13:32:26Z</time>
      </trkpt>
      <trkpt lat="48.73596" lon="-3.26996">
        <ele>66.47</ele>
        <time>2013-11-24T13:32:28Z</time>
      </trkpt>
      <trkpt lat="48.73594" lon="-3.26996">
        <ele>66.47</ele>
        <time>2013-11-24T13:32:30Z</time>
      </trkpt>
      <trkpt lat="48.73593" lon="-3.26997">
        <ele>66.47</ele>
        <time>2013-11-24T13:32:32Z</time>
      </trkpt>
      <trkpt lat="48.73592" lon="-3.26997">
        <ele>66.47</ele>
        <time>2013-11-24T13:32:34Z</time>
      </trkpt>
      <trkpt lat="48.73592" lon="-3.26997">
        <ele>66.47</ele>
        <time>2013-11-24T13:32:36Z</time>
      </trkpt>
      <trkpt lat="48.73591" lon="-3.26999">
        <ele>66.47</ele>
        <time>2013-11-24T13:32:38Z</time>
      </trkpt>
      <trkpt lat="48.7359" lon="-3.27">
        <ele>66.47</ele>
        <time>2013-11-24T13:32:40Z</time>
      </trkpt>
      <trkpt lat="48.73589" lon="-3.27">
        <ele>66.47</ele>
        <time>2013-11-24T13:32:42Z</time>
      </trkpt>
      <trkpt lat="48.73588" lon="-3.27">
        <ele>66.47</ele>
        <time>2013-11-24T13:32:44Z</time>
      </trkpt>
      <trkpt lat="48.73587" lon="-3.27">
        <ele>66.47</ele>
        <time>2013-11-24T13:32:46Z</time>
      </trkpt>
      <trkpt lat="48.73586" lon="-3.27001">
        <ele>65.99</ele>
        <time>2013-11-24T13:32:48Z</time>
      </trkpt>
      <trkpt lat="48.73585" lon="-3.27002">
        <ele>65.99</ele>
        <time>2013-11-24T13:32:50Z</time>
      </trkpt>
      <trkpt lat="48.73584" lon="-3.27004">
        <ele>66.47</ele>
        <time>2013-11-24T13:32:52Z</time>
      </trkpt>
      <trkpt lat="48.73583" lon="-3.27007">
        <ele>66.47</ele>
        <time>2013-11-24T13:32:54Z</time>
      </trkpt>
      <trkpt lat="48.73581" lon="-3.27009">
        <ele>66.47</ele>
        <time>2013-11-24T13:32:56Z</time>
      </trkpt>
      <trkpt lat="48.7358" lon="-3.2701">
        <ele>66.47</ele>
        <time>2013-11-24T13:32:58Z</time>
      </trkpt>
      <trkpt lat="48.73578" lon="-3.27012">
        <ele>65.99</ele>
        <time>2013-11-24T13:33:00Z</time>
      </trkpt>
      <trkpt lat="48.73576" lon="-3.27012">
        <ele>65.99</ele>
        <time>2013-11-24T13:33:02Z</time>
      </trkpt>
      <trkpt lat="48.73574" lon="-3.27013">
        <ele>65.99</ele>
        <time>2013-11-24T13:33:04Z</time>
      </trkpt>
      <trkpt lat="48.73573" lon="-3.27013">
        <ele>65.99</ele>
        <time>2013-11-24T13:33:06Z</time>
      </trkpt>
      <trkpt lat="48.73571" lon="-3.27013">
        <ele>65.99</ele>
        <time>2013-11-24T13:33:08Z</time>
      </trkpt>
      <trkpt lat="48.7357" lon="-3.27013">
        <ele>65.99</ele>
        <time>2013-11-24T13:33:10Z</time>
      </trkpt>
      <trkpt lat="48.73568" lon="-3.27013">
        <ele>65.99</ele>
        <time>2013-11-24T13:33:12Z</time>
      </trkpt>
      <trkpt lat="48.73567" lon="-3.27015">
        <ele>65.99</ele>
        <time>2013-11-24T13:33:14Z</time>
      </trkpt>
      <trkpt lat="48.73565" lon="-3.27016">
        <ele>65.99</ele>
        <time>2013-11-24T13:33:16Z</time>
      </trkpt>
      <trkpt lat="48.73563" lon="-3.27017">
        <ele>65.99</ele>
        <time>2013-11-24T13:33:18Z</time>
      </trkpt>
      <trkpt lat="48.73562" lon="-3.27019">
        <ele>65.99</ele>
        <time>2013-11-24T13:33:20Z</time>
      </trkpt>
      <trkpt lat="48.7356" lon="-3.27021">
        <ele>65.99</ele>
        <time>2013-11-24T13:33:22Z</time>
      </trkpt>
      <trkpt lat="48.73558" lon="-3.27023">
        <ele>65.51</ele>
        <time>2013-11-24T13:33:24Z</time>
      </trkpt>
      <trkpt lat="48.73557" lon="-3.27023">
        <ele>65.51</ele>
        <time>2013-11-24T13:33:26Z</time>
      </trkpt>
      <trkpt lat="48.73556" lon="-3.27025">
        <ele>65.99</ele>
        <time>2013-11-24T13:33:28Z</time>
      </trkpt>
      <trkpt lat="48.73554" lon="-3.27029">
        <ele>65.99</ele>
        <time>2013-11-24T13:33:30Z</time>
      </trkpt>
      <trkpt lat="48.73552" lon="-3.27032">
        <ele>65.99</ele>
        <time>2013-11-24T13:33:32Z</time>
      </trkpt>
      <trkpt lat="48.7355" lon="-3.27035">
        <ele>65.99</ele>
        <time>2013-11-24T13:33:34Z</time>
      </trkpt>
      <trkpt lat="48.73548" lon="-3.27038">
        <ele>65.51</ele>
        <time>2013-11-24T13:33:36Z</time>
      </trkpt>
      <trkpt lat="48.73545" lon="-3.27041">
        <ele>65.99</ele>
        <time>2013-11-24T13:33:38Z</time>
      </trkpt>
      <trkpt lat="48.73544" lon="-3.27043">
        <ele>65.99</ele>
        <time>2013-11-24T13:33:40Z</time>
      </trkpt>
      <trkpt lat="48.73543" lon="-3.27045">
        <ele>65.99</ele>
        <time>2013-11-24T13:33:42Z</time>
      </trkpt>
      <trkpt lat="48.73542" lon="-3.27047">
        <ele>65.99</ele>
        <time>2013-11-24T13:33:44Z</time>
      </trkpt>
      <trkpt lat="48.73541" lon="-3.27049">
        <ele>65.51</ele>
        <time>2013-11-24T13:33:46Z</time>
      </trkpt>
      <trkpt lat="48.73541" lon="-3.2705">
        <ele>65.51</ele>
        <time>2013-11-24T13:33:48Z</time>
      </trkpt>
      <trkpt lat="48.7354" lon="-3.2705">
        <ele>65.51</ele>
        <time>2013-11-24T13:33:50Z</time>
      </trkpt>
      <trkpt lat="48.7354" lon="-3.27052">
        <ele>65.51</ele>
        <time>2013-11-24T13:33:52Z</time>
      </trkpt>
      <trkpt lat="48.73539" lon="-3.27053">
        <ele>65.99</ele>
        <time>2013-11-24T13:33:54Z</time>
      </trkpt>
      <trkpt lat="48.73539" lon="-3.27054">
        <ele>65.99</ele>
        <time>2013-11-24T13:33:56Z</time>
      </trkpt>
      <trkpt lat="48.73539" lon="-3.27056">
        <ele>65.99</ele>
        <time>2013-11-24T13:33:58Z</time>
      </trkpt>
      <trkpt lat="48.73538" lon="-3.27058">
        <ele>65.51</ele>
        <time>2013-11-24T13:34:00Z</time>
      </trkpt>
      <trkpt lat="48.73538" lon="-3.27061">
        <ele>65.51</ele>
        <time>2013-11-24T13:34:02Z</time>
      </trkpt>
      <trkpt lat="48.73539" lon="-3.27062">
        <ele>65.51</ele>
        <time>2013-11-24T13:34:04Z</time>
      </trkpt>
      <trkpt lat="48.73539" lon="-3.27064">
        <ele>65.51</ele>
        <time>2013-11-24T13:34:06Z</time>
      </trkpt>
      <trkpt lat="48.73539" lon="-3.27067">
        <ele>65.51</ele>
        <time>2013-11-24T13:34:08Z</time>
      </trkpt>
      <trkpt lat="48.73538" lon="-3.27071">
        <ele>65.51</ele>
        <time>2013-11-24T13:34:10Z</time>
      </trkpt>
      <trkpt lat="48.73536" lon="-3.27075">
        <ele>65.51</ele>
        <time>2013-11-24T13:34:12Z</time>
      </trkpt>
      <trkpt lat="48.73536" lon="-3.27077">
        <ele>65.03</ele>
        <time>2013-11-24T13:34:14Z</time>
      </trkpt>
      <trkpt lat="48.73536" lon="-3.27079">
        <ele>65.03</ele>
        <time>2013-11-24T13:34:16Z</time>
      </trkpt>
      <trkpt lat="48.73536" lon="-3.27082">
        <ele>65.03</ele>
        <time>2013-11-24T13:34:18Z</time>
      </trkpt>
      <trkpt lat="48.73537" lon="-3.27085">
        <ele>65.51</ele>
        <time>2013-11-24T13:34:20Z</time>
      </trkpt>
      <trkpt lat="48.73537" lon="-3.27087">
        <ele>65.51</ele>
        <time>2013-11-24T13:34:22Z</time>
      </trkpt>
      <trkpt lat="48.73537" lon="-3.27088">
        <ele>65.51</ele>
        <time>2013-11-24T13:34:24Z</time>
      </trkpt>
      <trkpt lat="48.73536" lon="-3.27092">
        <ele>65.03</ele>
        <time>2013-11-24T13:34:26Z</time>
      </trkpt>
      <trkpt lat="48.73536" lon="-3.27092">
        <ele>65.03</ele>
        <time>2013-11-24T13:34:28Z</time>
      </trkpt>
      <trkpt lat="48.73536" lon="-3.27092">
        <ele>65.03</ele>
        <time>2013-11-24T13:34:30Z</time>
      </trkpt>
      <trkpt lat="48.73536" lon="-3.27093">
        <ele>65.03</ele>
        <time>2013-11-24T13:34:32Z</time>
      </trkpt>
      <trkpt lat="48.73536" lon="-3.27095">
        <ele>65.51</ele>
        <time>2013-11-24T13:34:34Z</time>
      </trkpt>
      <trkpt lat="48.73535" lon="-3.27097">
        <ele>65.51</ele>
        <time>2013-11-24T13:34:36Z</time>
      </trkpt>
      <trkpt lat="48.73534" lon="-3.271">
        <ele>65.51</ele>
        <time>2013-11-24T13:34:38Z</time>
      </trkpt>
      <trkpt lat="48.73534" lon="-3.27104">
        <ele>65.03</ele>
        <time>2013-11-24T13:34:40Z</time>
      </trkpt>
      <trkpt lat="48.73534" lon="-3.27108">
        <ele>65.03</ele>
        <time>2013-11-24T13:34:42Z</time>
      </trkpt>
      <trkpt lat="48.73534" lon="-3.2711">
        <ele>65.03</ele>
        <time>2013-11-24T13:34:44Z</time>
      </trkpt>
      <trkpt lat="48.73533" lon="-3.27113">
        <ele>65.03</ele>
        <time>2013-11-24T13:34:46Z</time>
      </trkpt>
      <trkpt lat="48.73533" lon="-3.27117">
        <ele>65.03</ele>
        <time>2013-11-24T13:34:48Z</time>
      </trkpt>
      <trkpt lat="48.73532" lon="-3.27121">
        <ele>65.03</ele>
        <time>2013-11-24T13:34:50Z</time>
      </trkpt>
      <trkpt lat="48.73532" lon="-3.27123">
        <ele>65.03</ele>
        <time>2013-11-24T13:34:52Z</time>
      </trkpt>
      <trkpt lat="48.73532" lon="-3.27126">
        <ele>65.03</ele>
        <time>2013-11-24T13:34:54Z</time>
      </trkpt>
      <trkpt lat="48.73531" lon="-3.27129">
        <ele>65.03</ele>
        <time>2013-11-24T13:34:56Z</time>
      </trkpt>
      <trkpt lat="48.7353" lon="-3.2713">
        <ele>65.03</ele>
        <time>2013-11-24T13:34:58Z</time>
      </trkpt>
      <trkpt lat="48.7353" lon="-3.27131">
        <ele>65.03</ele>
        <time>2013-11-24T13:35:00Z</time>
      </trkpt>
      <trkpt lat="48.73531" lon="-3.2713">
        <ele>65.03</ele>
        <time>2013-11-24T13:35:02Z</time>
      </trkpt>
      <trkpt lat="48.7353" lon="-3.27131">
        <ele>64.55</ele>
        <time>2013-11-24T13:35:04Z</time>
      </trkpt>
      <trkpt lat="48.7353" lon="-3.27132">
        <ele>65.03</ele>
        <time>2013-11-24T13:35:06Z</time>
      </trkpt>
      <trkpt lat="48.7353" lon="-3.27135">
        <ele>65.03</ele>
        <time>2013-11-24T13:35:08Z</time>
      </trkpt>
      <trkpt lat="48.7353" lon="-3.27136">
        <ele>65.03</ele>
        <time>2013-11-24T13:35:10Z</time>
      </trkpt>
      <trkpt lat="48.73529" lon="-3.27139">
        <ele>65.03</ele>
        <time>2013-11-24T13:35:12Z</time>
      </trkpt>
      <trkpt lat="48.73529" lon="-3.27141">
        <ele>65.03</ele>
        <time>2013-11-24T13:35:14Z</time>
      </trkpt>
      <trkpt lat="48.73528" lon="-3.27142">
        <ele>64.55</ele>
        <time>2013-11-24T13:35:16Z</time>
      </trkpt>
      <trkpt lat="48.73528" lon="-3.27142">
        <ele>64.55</ele>
        <time>2013-11-24T13:35:18Z</time>
      </trkpt>
      <trkpt lat="48.73528" lon="-3.27144">
        <ele>64.55</ele>
        <time>2013-11-24T13:35:20Z</time>
      </trkpt>
      <trkpt lat="48.73528" lon="-3.27146">
        <ele>64.55</ele>
        <time>2013-11-24T13:35:22Z</time>
      </trkpt>
      <trkpt lat="48.73527" lon="-3.27148">
        <ele>65.03</ele>
        <time>2013-11-24T13:35:24Z</time>
      </trkpt>
      <trkpt lat="48.73527" lon="-3.27149">
        <ele>64.55</ele>
        <time>2013-11-24T13:35:26Z</time>
      </trkpt>
      <trkpt lat="48.73525" lon="-3.27151">
        <ele>64.55</ele>
        <time>2013-11-24T13:35:28Z</time>
      </trkpt>
      <trkpt lat="48.73525" lon="-3.27154">
        <ele>64.55</ele>
        <time>2013-11-24T13:35:30Z</time>
      </trkpt>
      <trkpt lat="48.73524" lon="-3.27157">
        <ele>64.55</ele>
        <time>2013-11-24T13:35:32Z</time>
      </trkpt>
      <trkpt lat="48.73523" lon="-3.2716">
        <ele>64.55</ele>
        <time>2013-11-24T13:35:34Z</time>
      </trkpt>
      <trkpt lat="48.73524" lon="-3.27163">
        <ele>64.55</ele>
        <time>2013-11-24T13:35:36Z</time>
      </trkpt>
      <trkpt lat="48.73523" lon="-3.27166">
        <ele>64.55</ele>
        <time>2013-11-24T13:35:38Z</time>
      </trkpt>
      <trkpt lat="48.73522" lon="-3.2717">
        <ele>64.55</ele>
        <time>2013-11-24T13:35:40Z</time>
      </trkpt>
      <trkpt lat="48.73521" lon="-3.27172">
        <ele>64.55</ele>
        <time>2013-11-24T13:35:42Z</time>
      </trkpt>
      <trkpt lat="48.7352" lon="-3.27174">
        <ele>64.55</ele>
        <time>2013-11-24T13:35:44Z</time>
      </trkpt>
      <trkpt lat="48.73519" lon="-3.27174">
        <ele>64.55</ele>
        <time>2013-11-24T13:35:46Z</time>
      </trkpt>
      <trkpt lat="48.73519" lon="-3.27174">
        <ele>64.07</ele>
        <time>2013-11-24T13:35:48Z</time>
      </trkpt>
      <trkpt lat="48.73518" lon="-3.27176">
        <ele>64.07</ele>
        <time>2013-11-24T13:35:50Z</time>
      </trkpt>
      <trkpt lat="48.73518" lon="-3.27177">
        <ele>64.55</ele>
        <time>2013-11-24T13:35:52Z</time>
      </trkpt>
      <trkpt lat="48.73518" lon="-3.27177">
        <ele>64.55</ele>
        <time>2013-11-24T13:35:54Z</time>
      </trkpt>
      <trkpt lat="48.73518" lon="-3.27177">
        <ele>64.55</ele>
        <time>2013-11-24T13:35:56Z</time>
      </trkpt>
      <trkpt lat="48.73519" lon="-3.27178">
        <ele>64.07</ele>
        <time>2013-11-24T13:35:58Z</time>
      </trkpt>
      <trkpt lat="48.7352" lon="-3.27179">
        <ele>64.07</ele>
        <time>2013-11-24T13:36:00Z</time>
      </trkpt>
      <trkpt lat="48.73521" lon="-3.27179">
        <ele>64.07</ele>
        <time>2013-11-24T13:36:02Z</time>
      </trkpt>
      <trkpt lat="48.73521" lon="-3.27179">
        <ele>64.07</ele>
        <time>2013-11-24T13:36:04Z</time>
      </trkpt>
      <trkpt lat="48.73522" lon="-3.27179">
        <ele>64.07</ele>
        <time>2013-11-24T13:36:06Z</time>
      </trkpt>
      <trkpt lat="48.73522" lon="-3.27179">
        <ele>64.07</ele>
        <time>2013-11-24T13:36:08Z</time>
      </trkpt>
      <trkpt lat="48.73523" lon="-3.27179">
        <ele>64.07</ele>
        <time>2013-11-24T13:36:10Z</time>
      </trkpt>
      <trkpt lat="48.73523" lon="-3.2718">
        <ele>63.58</ele>
        <time>2013-11-24T13:36:12Z</time>
      </trkpt>
      <trkpt lat="48.73524" lon="-3.2718">
        <ele>63.58</ele>
        <time>2013-11-24T13:36:14Z</time>
      </trkpt>
      <trkpt lat="48.73526" lon="-3.27181">
        <ele>64.07</ele>
        <time>2013-11-24T13:36:16Z</time>
      </trkpt>
      <trkpt lat="48.73527" lon="-3.27181">
        <ele>64.07</ele>
        <time>2013-11-24T13:36:18Z</time>
      </trkpt>
      <trkpt lat="48.73528" lon="-3.27181">
        <ele>64.07</ele>
        <time>2013-11-24T13:36:20Z</time>
      </trkpt>
      <trkpt lat="48.73528" lon="-3.27181">
        <ele>63.58</ele>
        <time>2013-11-24T13:36:22Z</time>
      </trkpt>
      <trkpt lat="48.73528" lon="-3.27181">
        <ele>63.58</ele>
        <time>2013-11-24T13:36:24Z</time>
      </trkpt>
      <trkpt lat="48.73528" lon="-3.27181">
        <ele>63.58</ele>
        <time>2013-11-24T13:36:26Z</time>
      </trkpt>
      <trkpt lat="48.73527" lon="-3.27181">
        <ele>63.58</ele>
        <time>2013-11-24T13:36:28Z</time>
      </trkpt>
      <trkpt lat="48.73526" lon="-3.27182">
        <ele>63.58</ele>
        <time>2013-11-24T13:36:30Z</time>
      </trkpt>
      <trkpt lat="48.73525" lon="-3.27183">
        <ele>63.58</ele>
        <time>2013-11-24T13:36:32Z</time>
      </trkpt>
      <trkpt lat="48.73524" lon="-3.27183">
        <ele>63.1</ele>
        <time>2013-11-24T13:36:34Z</time>
      </trkpt>
      <trkpt lat="48.73523" lon="-3.27184">
        <ele>63.1</ele>
        <time>2013-11-24T13:36:36Z</time>
      </trkpt>
      <trkpt lat="48.73523" lon="-3.27185">
        <ele>63.1</ele>
        <time>2013-11-24T13:36:38Z</time>
      </trkpt>
      <trkpt lat="48.73523" lon="-3.27185">
        <ele>63.1</ele>
        <time>2013-11-24T13:36:40Z</time>
      </trkpt>
      <trkpt lat="48.73523" lon="-3.27185">
        <ele>63.58</ele>
        <time>2013-11-24T13:36:42Z</time>
      </trkpt>
      <trkpt lat="48.73522" lon="-3.27185">
        <ele>63.58</ele>
        <time>2013-11-24T13:36:44Z</time>
      </trkpt>
      <trkpt lat="48.73522" lon="-3.27185">
        <ele>63.58</ele>
        <time>2013-11-24T13:36:46Z</time>
      </trkpt>
      <trkpt lat="48.73521" lon="-3.27185">
        <ele>63.1</ele>
        <time>2013-11-24T13:36:48Z</time>
      </trkpt>
      <trkpt lat="48.73521" lon="-3.27185">
        <ele>63.1</ele>
        <time>2013-11-24T13:36:50Z</time>
      </trkpt>
      <trkpt lat="48.73521" lon="-3.27186">
        <ele>63.1</ele>
        <time>2013-11-24T13:36:52Z</time>
      </trkpt>
      <trkpt lat="48.73521" lon="-3.27187">
        <ele>63.1</ele>
        <time>2013-11-24T13:36:54Z</time>
      </trkpt>
      <trkpt lat="48.7352" lon="-3.27187">
        <ele>63.1</ele>
        <time>2013-11-24T13:36:56Z</time>
      </trkpt>
      <trkpt lat="48.73519" lon="-3.2719">
        <ele>63.1</ele>
        <time>2013-11-24T13:36:58Z</time>
      </trkpt>
      <trkpt lat="48.73518" lon="-3.27192">
        <ele>63.1</ele>
        <time>2013-11-24T13:37:00Z</time>
      </trkpt>
      <trkpt lat="48.73518" lon="-3.27192">
        <ele>62.62</ele>
        <time>2013-11-24T13:37:02Z</time>
      </trkpt>
      <trkpt lat="48.73518" lon="-3.27192">
        <ele>62.62</ele>
        <time>2013-11-24T13:37:04Z</time>
      </trkpt>
      <trkpt lat="48.7352" lon="-3.2719">
        <ele>62.62</ele>
        <time>2013-11-24T13:37:06Z</time>
      </trkpt>
      <trkpt lat="48.73521" lon="-3.27189">
        <ele>63.1</ele>
        <time>2013-11-24T13:37:08Z</time>
      </trkpt>
      <trkpt lat="48.73521" lon="-3.27188">
        <ele>63.1</ele>
        <time>2013-11-24T13:37:10Z</time>
      </trkpt>
      <trkpt lat="48.73523" lon="-3.27188">
        <ele>63.1</ele>
        <time>2013-11-24T13:37:12Z</time>
      </trkpt>
      <trkpt lat="48.73524" lon="-3.27187">
        <ele>63.1</ele>
        <time>2013-11-24T13:37:14Z</time>
      </trkpt>
      <trkpt lat="48.73524" lon="-3.27188">
        <ele>62.62</ele>
        <time>2013-11-24T13:37:16Z</time>
      </trkpt>
      <trkpt lat="48.73524" lon="-3.27188">
        <ele>62.62</ele>
        <time>2013-11-24T13:37:18Z</time>
      </trkpt>
      <trkpt lat="48.73524" lon="-3.27187">
        <ele>62.62</ele>
        <time>2013-11-24T13:37:20Z</time>
      </trkpt>
      <trkpt lat="48.73525" lon="-3.27187">
        <ele>62.62</ele>
        <time>2013-11-24T13:37:22Z</time>
      </trkpt>
      <trkpt lat="48.73525" lon="-3.27186">
        <ele>62.62</ele>
        <time>2013-11-24T13:37:24Z</time>
      </trkpt>
      <trkpt lat="48.73525" lon="-3.27186">
        <ele>62.62</ele>
        <time>2013-11-24T13:37:26Z</time>
      </trkpt>
      <trkpt lat="48.73524" lon="-3.27187">
        <ele>62.62</ele>
        <time>2013-11-24T13:37:28Z</time>
      </trkpt>
      <trkpt lat="48.73524" lon="-3.27187">
        <ele>62.62</ele>
        <time>2013-11-24T13:37:30Z</time>
      </trkpt>
      <trkpt lat="48.73524" lon="-3.27187">
        <ele>62.62</ele>
        <time>2013-11-24T13:37:32Z</time>
      </trkpt>
      <trkpt lat="48.73524" lon="-3.27187">
        <ele>62.14</ele>
        <time>2013-11-24T13:37:34Z</time>
      </trkpt>
      <trkpt lat="48.73524" lon="-3.27187">
        <ele>62.14</ele>
        <time>2013-11-24T13:37:36Z</time>
      </trkpt>
      <trkpt lat="48.73523" lon="-3.27187">
        <ele>62.14</ele>
        <time>2013-11-24T13:37:38Z</time>
      </trkpt>
      <trkpt lat="48.73523" lon="-3.27187">
        <ele>62.14</ele>
        <time>2013-11-24T13:37:40Z</time>
      </trkpt>
      <trkpt lat="48.73522" lon="-3.27187">
        <ele>62.14</ele>
        <time>2013-11-24T13:37:42Z</time>
      </trkpt>
      <trkpt lat="48.73522" lon="-3.27188">
        <ele>62.14</ele>
        <time>2013-11-24T13:37:44Z</time>
      </trkpt>
      <trkpt lat="48.73522" lon="-3.27188">
        <ele>62.14</ele>
        <time>2013-11-24T13:37:46Z</time>
      </trkpt>
      <trkpt lat="48.73522" lon="-3.27189">
        <ele>62.14</ele>
        <time>2013-11-24T13:37:48Z</time>
      </trkpt>
      <trkpt lat="48.73522" lon="-3.27189">
        <ele>62.14</ele>
        <time>2013-11-24T13:37:50Z</time>
      </trkpt>
      <trkpt lat="48.73521" lon="-3.27189">
        <ele>62.14</ele>
        <time>2013-11-24T13:37:52Z</time>
      </trkpt>
      <trkpt lat="48.7352" lon="-3.2719">
        <ele>61.66</ele>
        <time>2013-11-24T13:37:54Z</time>
      </trkpt>
      <trkpt lat="48.73518" lon="-3.27192">
        <ele>61.66</ele>
        <time>2013-11-24T13:37:56Z</time>
      </trkpt>
      <trkpt lat="48.73518" lon="-3.27193">
        <ele>61.66</ele>
        <time>2013-11-24T13:37:58Z</time>
      </trkpt>
      <trkpt lat="48.73516" lon="-3.27196">
        <ele>61.66</ele>
        <time>2013-11-24T13:38:00Z</time>
      </trkpt>
      <trkpt lat="48.73515" lon="-3.27198">
        <ele>61.66</ele>
        <time>2013-11-24T13:38:02Z</time>
      </trkpt>
      <trkpt lat="48.73514" lon="-3.27199">
        <ele>61.66</ele>
        <time>2013-11-24T13:38:04Z</time>
      </trkpt>
      <trkpt lat="48.73513" lon="-3.27202">
        <ele>61.66</ele>
        <time>2013-11-24T13:38:06Z</time>
      </trkpt>
      <trkpt lat="48.73512" lon="-3.27202">
        <ele>61.66</ele>
        <time>2013-11-24T13:38:08Z</time>
      </trkpt>
      <trkpt lat="48.73512" lon="-3.27202">
        <ele>61.18</ele>
        <time>2013-11-24T13:38:10Z</time>
      </trkpt>
      <trkpt lat="48.73511" lon="-3.27202">
        <ele>61.18</ele>
        <time>2013-11-24T13:38:12Z</time>
      </trkpt>
      <trkpt lat="48.73511" lon="-3.27202">
        <ele>61.18</ele>
        <time>2013-11-24T13:38:14Z</time>
      </trkpt>
      <trkpt lat="48.7351" lon="-3.27203">
        <ele>61.18</ele>
        <time>2013-11-24T13:38:16Z</time>
      </trkpt>
      <trkpt lat="48.73509" lon="-3.27204">
        <ele>61.18</ele>
        <time>2013-11-24T13:38:18Z</time>
      </trkpt>
      <trkpt lat="48.73508" lon="-3.27205">
        <ele>61.18</ele>
        <time>2013-11-24T13:38:20Z</time>
      </trkpt>
      <trkpt lat="48.73508" lon="-3.27208">
        <ele>61.18</ele>
        <time>2013-11-24T13:38:22Z</time>
      </trkpt>
      <trkpt lat="48.73506" lon="-3.27211">
        <ele>61.18</ele>
        <time>2013-11-24T13:38:24Z</time>
      </trkpt>
      <trkpt lat="48.73503" lon="-3.27213">
        <ele>60.7</ele>
        <time>2013-11-24T13:38:26Z</time>
      </trkpt>
      <trkpt lat="48.73499" lon="-3.27217">
        <ele>60.7</ele>
        <time>2013-11-24T13:38:28Z</time>
      </trkpt>
      <trkpt lat="48.73497" lon="-3.27219">
        <ele>60.7</ele>
        <time>2013-11-24T13:38:30Z</time>
      </trkpt>
      <trkpt lat="48.73496" lon="-3.2722">
        <ele>60.7</ele>
        <time>2013-11-24T13:38:32Z</time>
      </trkpt>
      <trkpt lat="48.73495" lon="-3.27222">
        <ele>60.7</ele>
        <time>2013-11-24T13:38:34Z</time>
      </trkpt>
      <trkpt lat="48.73494" lon="-3.27222">
        <ele>60.7</ele>
        <time>2013-11-24T13:38:36Z</time>
      </trkpt>
      <trkpt lat="48.73494" lon="-3.27223">
        <ele>60.7</ele>
        <time>2013-11-24T13:38:38Z</time>
      </trkpt>
      <trkpt lat="48.73493" lon="-3.27224">
        <ele>60.7</ele>
        <time>2013-11-24T13:38:40Z</time>
      </trkpt>
      <trkpt lat="48.73492" lon="-3.27225">
        <ele>60.22</ele>
        <time>2013-11-24T13:38:42Z</time>
      </trkpt>
      <trkpt lat="48.73492" lon="-3.27226">
        <ele>60.22</ele>
        <time>2013-11-24T13:38:44Z</time>
      </trkpt>
      <trkpt lat="48.73492" lon="-3.27227">
        <ele>60.7</ele>
        <time>2013-11-24T13:38:46Z</time>
      </trkpt>
      <trkpt lat="48.7349" lon="-3.27228">
        <ele>60.7</ele>
        <time>2013-11-24T13:38:48Z</time>
      </trkpt>
      <trkpt lat="48.73489" lon="-3.2723">
        <ele>60.7</ele>
        <time>2013-11-24T13:38:50Z</time>
      </trkpt>
      <trkpt lat="48.73488" lon="-3.27231">
        <ele>60.7</ele>
        <time>2013-11-24T13:38:52Z</time>
      </trkpt>
      <trkpt lat="48.73487" lon="-3.27231">
        <ele>60.22</ele>
        <time>2013-11-24T13:38:54Z</time>
      </trkpt>
      <trkpt lat="48.73486" lon="-3.27234">
        <ele>60.22</ele>
        <time>2013-11-24T13:38:56Z</time>
      </trkpt>
      <trkpt lat="48.73486" lon="-3.27236">
        <ele>60.22</ele>
        <time>2013-11-24T13:38:58Z</time>
      </trkpt>
      <trkpt lat="48.73486" lon="-3.2724">
        <ele>60.22</ele>
        <time>2013-11-24T13:39:00Z</time>
      </trkpt>
      <trkpt lat="48.73485" lon="-3.27243">
        <ele>60.22</ele>
        <time>2013-11-24T13:39:02Z</time>
      </trkpt>
      <trkpt lat="48.73484" lon="-3.27247">
        <ele>60.22</ele>
        <time>2013-11-24T13:39:04Z</time>
      </trkpt>
      <trkpt lat="48.73483" lon="-3.27249">
        <ele>60.22</ele>
        <time>2013-11-24T13:39:06Z</time>
      </trkpt>
      <trkpt lat="48.73483" lon="-3.2725">
        <ele>60.22</ele>
        <time>2013-11-24T13:39:08Z</time>
      </trkpt>
      <trkpt lat="48.73482" lon="-3.27251">
        <ele>59.74</ele>
        <time>2013-11-24T13:39:10Z</time>
      </trkpt>
      <trkpt lat="48.73482" lon="-3.27253">
        <ele>59.74</ele>
        <time>2013-11-24T13:39:12Z</time>
      </trkpt>
      <trkpt lat="48.73482" lon="-3.27255">
        <ele>59.74</ele>
        <time>2013-11-24T13:39:14Z</time>
      </trkpt>
      <trkpt lat="48.73482" lon="-3.27257">
        <ele>59.74</ele>
        <time>2013-11-24T13:39:16Z</time>
      </trkpt>
      <trkpt lat="48.73482" lon="-3.2726">
        <ele>59.74</ele>
        <time>2013-11-24T13:39:18Z</time>
      </trkpt>
      <trkpt lat="48.73482" lon="-3.27261">
        <ele>59.74</ele>
        <time>2013-11-24T13:39:20Z</time>
      </trkpt>
      <trkpt lat="48.73481" lon="-3.27263">
        <ele>59.74</ele>
        <time>2013-11-24T13:39:22Z</time>
      </trkpt>
      <trkpt lat="48.7348" lon="-3.27266">
        <ele>59.74</ele>
        <time>2013-11-24T13:39:24Z</time>
      </trkpt>
      <trkpt lat="48.73479" lon="-3.27268">
        <ele>59.26</ele>
        <time>2013-11-24T13:39:26Z</time>
      </trkpt>
      <trkpt lat="48.73478" lon="-3.2727">
        <ele>59.26</ele>
        <time>2013-11-24T13:39:28Z</time>
      </trkpt>
      <trkpt lat="48.73478" lon="-3.27272">
        <ele>59.26</ele>
        <time>2013-11-24T13:39:30Z</time>
      </trkpt>
      <trkpt lat="48.73477" lon="-3.27273">
        <ele>59.26</ele>
        <time>2013-11-24T13:39:32Z</time>
      </trkpt>
      <trkpt lat="48.73476" lon="-3.27274">
        <ele>59.26</ele>
        <time>2013-11-24T13:39:34Z</time>
      </trkpt>
      <trkpt lat="48.73475" lon="-3.27276">
        <ele>59.26</ele>
        <time>2013-11-24T13:39:36Z</time>
      </trkpt>
      <trkpt lat="48.73474" lon="-3.27279">
        <ele>59.26</ele>
        <time>2013-11-24T13:39:38Z</time>
      </trkpt>
      <trkpt lat="48.73472" lon="-3.27283">
        <ele>59.26</ele>
        <time>2013-11-24T13:39:40Z</time>
      </trkpt>
      <trkpt lat="48.73471" lon="-3.27286">
        <ele>58.78</ele>
        <time>2013-11-24T13:39:42Z</time>
      </trkpt>
      <trkpt lat="48.73469" lon="-3.27288">
        <ele>58.78</ele>
        <time>2013-11-24T13:39:44Z</time>
      </trkpt>
      <trkpt lat="48.73468" lon="-3.27292">
        <ele>58.78</ele>
        <time>2013-11-24T13:39:46Z</time>
      </trkpt>
      <trkpt lat="48.73466" lon="-3.27294">
        <ele>58.78</ele>
        <time>2013-11-24T13:39:48Z</time>
      </trkpt>
      <trkpt lat="48.73465" lon="-3.27297">
        <ele>58.78</ele>
        <time>2013-11-24T13:39:50Z</time>
      </trkpt>
      <trkpt lat="48.73464" lon="-3.27299">
        <ele>58.78</ele>
        <time>2013-11-24T13:39:52Z</time>
      </trkpt>
      <trkpt lat="48.73463" lon="-3.27302">
        <ele>58.78</ele>
        <time>2013-11-24T13:39:54Z</time>
      </trkpt>
      <trkpt lat="48.73461" lon="-3.27304">
        <ele>58.78</ele>
        <time>2013-11-24T13:39:56Z</time>
      </trkpt>
      <trkpt lat="48.7346" lon="-3.27308">
        <ele>58.78</ele>
        <time>2013-11-24T13:39:58Z</time>
      </trkpt>
      <trkpt lat="48.73459" lon="-3.27311">
        <ele>58.3</ele>
        <time>2013-11-24T13:40:00Z</time>
      </trkpt>
      <trkpt lat="48.73458" lon="-3.27313">
        <ele>58.3</ele>
        <time>2013-11-24T13:40:02Z</time>
      </trkpt>
      <trkpt lat="48.73457" lon="-3.27316">
        <ele>58.3</ele>
        <time>2013-11-24T13:40:04Z</time>
      </trkpt>
      <trkpt lat="48.73456" lon="-3.27319">
        <ele>58.3</ele>
        <time>2013-11-24T13:40:06Z</time>
      </trkpt>
      <trkpt lat="48.73457" lon="-3.27322">
        <ele>58.3</ele>
        <time>2013-11-24T13:40:08Z</time>
      </trkpt>
      <trkpt lat="48.73457" lon="-3.27326">
        <ele>58.3</ele>
        <time>2013-11-24T13:40:10Z</time>
      </trkpt>
      <trkpt lat="48.73457" lon="-3.27328">
        <ele>58.3</ele>
        <time>2013-11-24T13:40:12Z</time>
      </trkpt>
      <trkpt lat="48.73456" lon="-3.2733">
        <ele>58.78</ele>
        <time>2013-11-24T13:40:14Z</time>
      </trkpt>
      <trkpt lat="48.73455" lon="-3.27333">
        <ele>58.3</ele>
        <time>2013-11-24T13:40:16Z</time>
      </trkpt>
      <trkpt lat="48.73454" lon="-3.27337">
        <ele>58.3</ele>
        <time>2013-11-24T13:40:18Z</time>
      </trkpt>
      <trkpt lat="48.73454" lon="-3.2734">
        <ele>58.3</ele>
        <time>2013-11-24T13:40:20Z</time>
      </trkpt>
      <trkpt lat="48.73453" lon="-3.27344">
        <ele>58.3</ele>
        <time>2013-11-24T13:40:22Z</time>
      </trkpt>
      <trkpt lat="48.73453" lon="-3.27347">
        <ele>58.3</ele>
        <time>2013-11-24T13:40:24Z</time>
      </trkpt>
      <trkpt lat="48.73452" lon="-3.2735">
        <ele>58.3</ele>
        <time>2013-11-24T13:40:26Z</time>
      </trkpt>
      <trkpt lat="48.73453" lon="-3.27354">
        <ele>58.3</ele>
        <time>2013-11-24T13:40:28Z</time>
      </trkpt>
      <trkpt lat="48.73454" lon="-3.27358">
        <ele>58.3</ele>
        <time>2013-11-24T13:40:30Z</time>
      </trkpt>
      <trkpt lat="48.73456" lon="-3.27362">
        <ele>58.3</ele>
        <time>2013-11-24T13:40:32Z</time>
      </trkpt>
      <trkpt lat="48.73456" lon="-3.27366">
        <ele>57.82</ele>
        <time>2013-11-24T13:40:34Z</time>
      </trkpt>
      <trkpt lat="48.73456" lon="-3.2737">
        <ele>57.82</ele>
        <time>2013-11-24T13:40:36Z</time>
      </trkpt>
      <trkpt lat="48.73456" lon="-3.27375">
        <ele>57.82</ele>
        <time>2013-11-24T13:40:38Z</time>
      </trkpt>
      <trkpt lat="48.73456" lon="-3.27378">
        <ele>57.82</ele>
        <time>2013-11-24T13:40:40Z</time>
      </trkpt>
      <trkpt lat="48.73456" lon="-3.27382">
        <ele>57.82</ele>
        <time>2013-11-24T13:40:42Z</time>
      </trkpt>
      <trkpt lat="48.73456" lon="-3.27385">
        <ele>57.82</ele>
        <time>2013-11-24T13:40:44Z</time>
      </trkpt>
      <trkpt lat="48.73455" lon="-3.27389">
        <ele>57.82</ele>
        <time>2013-11-24T13:40:46Z</time>
      </trkpt>
      <trkpt lat="48.73454" lon="-3.27391">
        <ele>57.82</ele>
        <time>2013-11-24T13:40:48Z</time>
      </trkpt>
      <trkpt lat="48.73453" lon="-3.27395">
        <ele>57.34</ele>
        <time>2013-11-24T13:40:50Z</time>
      </trkpt>
      <trkpt lat="48.73452" lon="-3.27398">
        <ele>57.34</ele>
        <time>2013-11-24T13:40:52Z</time>
      </trkpt>
      <trkpt lat="48.73452" lon="-3.27401">
        <ele>57.34</ele>
        <time>2013-11-24T13:40:54Z</time>
      </trkpt>
      <trkpt lat="48.73451" lon="-3.27404">
        <ele>57.34</ele>
        <time>2013-11-24T13:40:56Z</time>
      </trkpt>
      <trkpt lat="48.73449" lon="-3.27409">
        <ele>57.34</ele>
        <time>2013-11-24T13:40:58Z</time>
      </trkpt>
      <trkpt lat="48.73447" lon="-3.27412">
        <ele>57.34</ele>
        <time>2013-11-24T13:41:00Z</time>
      </trkpt>
      <trkpt lat="48.73446" lon="-3.27415">
        <ele>57.34</ele>
        <time>2013-11-24T13:41:02Z</time>
      </trkpt>
      <trkpt lat="48.73444" lon="-3.27417">
        <ele>57.34</ele>
        <time>2013-11-24T13:41:04Z</time>
      </trkpt>
      <trkpt lat="48.73443" lon="-3.2742">
        <ele>56.86</ele>
        <time>2013-11-24T13:41:06Z</time>
      </trkpt>
      <trkpt lat="48.73442" lon="-3.27422">
        <ele>56.86</ele>
        <time>2013-11-24T13:41:08Z</time>
      </trkpt>
      <trkpt lat="48.73442" lon="-3.27423">
        <ele>56.86</ele>
        <time>2013-11-24T13:41:10Z</time>
      </trkpt>
      <trkpt lat="48.73442" lon="-3.27425">
        <ele>56.86</ele>
        <time>2013-11-24T13:41:12Z</time>
      </trkpt>
      <trkpt lat="48.73441" lon="-3.27428">
        <ele>56.86</ele>
        <time>2013-11-24T13:41:14Z</time>
      </trkpt>
      <trkpt lat="48.7344" lon="-3.27431">
        <ele>56.86</ele>
        <time>2013-11-24T13:41:16Z</time>
      </trkpt>
      <trkpt lat="48.73438" lon="-3.27434">
        <ele>56.86</ele>
        <time>2013-11-24T13:41:18Z</time>
      </trkpt>
      <trkpt lat="48.73435" lon="-3.27437">
        <ele>56.86</ele>
        <time>2013-11-24T13:41:20Z</time>
      </trkpt>
      <trkpt lat="48.73434" lon="-3.27438">
        <ele>56.37</ele>
        <time>2013-11-24T13:41:22Z</time>
      </trkpt>
      <trkpt lat="48.73431" lon="-3.2744">
        <ele>56.37</ele>
        <time>2013-11-24T13:41:24Z</time>
      </trkpt>
      <trkpt lat="48.73429" lon="-3.27444">
        <ele>56.37</ele>
        <time>2013-11-24T13:41:26Z</time>
      </trkpt>
      <trkpt lat="48.73427" lon="-3.27446">
        <ele>56.37</ele>
        <time>2013-11-24T13:41:28Z</time>
      </trkpt>
      <trkpt lat="48.73425" lon="-3.27448">
        <ele>56.37</ele>
        <time>2013-11-24T13:41:30Z</time>
      </trkpt>
      <trkpt lat="48.73423" lon="-3.2745">
        <ele>56.86</ele>
        <time>2013-11-24T13:41:32Z</time>
      </trkpt>
      <trkpt lat="48.73421" lon="-3.27452">
        <ele>56.86</ele>
        <time>2013-11-24T13:41:34Z</time>
      </trkpt>
      <trkpt lat="48.7342" lon="-3.27454">
        <ele>56.37</ele>
        <time>2013-11-24T13:41:36Z</time>
      </trkpt>
      <trkpt lat="48.73418" lon="-3.27455">
        <ele>56.37</ele>
        <time>2013-11-24T13:41:38Z</time>
      </trkpt>
      <trkpt lat="48.73417" lon="-3.27456">
        <ele>56.37</ele>
        <time>2013-11-24T13:41:40Z</time>
      </trkpt>
      <trkpt lat="48.73415" lon="-3.27456">
        <ele>56.37</ele>
        <time>2013-11-24T13:41:42Z</time>
      </trkpt>
      <trkpt lat="48.73414" lon="-3.27456">
        <ele>56.37</ele>
        <time>2013-11-24T13:41:44Z</time>
      </trkpt>
      <trkpt lat="48.73413" lon="-3.27457">
        <ele>56.37</ele>
        <time>2013-11-24T13:41:46Z</time>
      </trkpt>
      <trkpt lat="48.73413" lon="-3.27458">
        <ele>56.37</ele>
        <time>2013-11-24T13:41:48Z</time>
      </trkpt>
      <trkpt lat="48.73411" lon="-3.2746">
        <ele>55.89</ele>
        <time>2013-11-24T13:41:50Z</time>
      </trkpt>
      <trkpt lat="48.73409" lon="-3.2746">
        <ele>56.37</ele>
        <time>2013-11-24T13:41:52Z</time>
      </trkpt>
      <trkpt lat="48.73408" lon="-3.2746">
        <ele>56.37</ele>
        <time>2013-11-24T13:41:54Z</time>
      </trkpt>
      <trkpt lat="48.73408" lon="-3.2746">
        <ele>56.37</ele>
        <time>2013-11-24T13:41:56Z</time>
      </trkpt>
      <trkpt lat="48.73407" lon="-3.2746">
        <ele>56.37</ele>
        <time>2013-11-24T13:41:58Z</time>
      </trkpt>
      <trkpt lat="48.73407" lon="-3.2746">
        <ele>56.37</ele>
        <time>2013-11-24T13:42:00Z</time>
      </trkpt>
      <trkpt lat="48.73405" lon="-3.27461">
        <ele>56.37</ele>
        <time>2013-11-24T13:42:02Z</time>
      </trkpt>
      <trkpt lat="48.73403" lon="-3.27463">
        <ele>56.37</ele>
        <time>2013-11-24T13:42:04Z</time>
      </trkpt>
      <trkpt lat="48.73401" lon="-3.27464">
        <ele>56.37</ele>
        <time>2013-11-24T13:42:06Z</time>
      </trkpt>
      <trkpt lat="48.73398" lon="-3.27466">
        <ele>56.37</ele>
        <time>2013-11-24T13:42:08Z</time>
      </trkpt>
      <trkpt lat="48.73396" lon="-3.27467">
        <ele>56.37</ele>
        <time>2013-11-24T13:42:10Z</time>
      </trkpt>
      <trkpt lat="48.73393" lon="-3.27471">
        <ele>56.37</ele>
        <time>2013-11-24T13:42:12Z</time>
      </trkpt>
      <trkpt lat="48.73391" lon="-3.27473">
        <ele>56.37</ele>
        <time>2013-11-24T13:42:14Z</time>
      </trkpt>
      <trkpt lat="48.73388" lon="-3.27475">
        <ele>56.37</ele>
        <time>2013-11-24T13:42:16Z</time>
      </trkpt>
      <trkpt lat="48.73386" lon="-3.27478">
        <ele>55.89</ele>
        <time>2013-11-24T13:42:18Z</time>
      </trkpt>
      <trkpt lat="48.73385" lon="-3.2748">
        <ele>55.89</ele>
        <time>2013-11-24T13:42:20Z</time>
      </trkpt>
      <trkpt lat="48.73383" lon="-3.27482">
        <ele>55.89</ele>
        <time>2013-11-24T13:42:22Z</time>
      </trkpt>
      <trkpt lat="48.73382" lon="-3.27485">
        <ele>55.89</ele>
        <time>2013-11-24T13:42:24Z</time>
      </trkpt>
      <trkpt lat="48.7338" lon="-3.27487">
        <ele>55.89</ele>
        <time>2013-11-24T13:42:26Z</time>
      </trkpt>
      <trkpt lat="48.73378" lon="-3.27489">
        <ele>55.89</ele>
        <time>2013-11-24T13:42:28Z</time>
      </trkpt>
      <trkpt lat="48.73376" lon="-3.27489">
        <ele>55.89</ele>
        <time>2013-11-24T13:42:30Z</time>
      </trkpt>
      <trkpt lat="48.73375" lon="-3.2749">
        <ele>55.89</ele>
        <time>2013-11-24T13:42:32Z</time>
      </trkpt>
      <trkpt lat="48.73373" lon="-3.27492">
        <ele>56.37</ele>
        <time>2013-11-24T13:42:34Z</time>
      </trkpt>
      <trkpt lat="48.73371" lon="-3.27495">
        <ele>55.89</ele>
        <time>2013-11-24T13:42:36Z</time>
      </trkpt>
      <trkpt lat="48.7337" lon="-3.27498">
        <ele>55.89</ele>
        <time>2013-11-24T13:42:38Z</time>
      </trkpt>
      <trkpt lat="48.7337" lon="-3.275">
        <ele>55.89</ele>
        <time>2013-11-24T13:42:40Z</time>
      </trkpt>
      <trkpt lat="48.73369" lon="-3.27503">
        <ele>55.89</ele>
        <time>2013-11-24T13:42:42Z</time>
      </trkpt>
      <trkpt lat="48.73369" lon="-3.27506">
        <ele>55.89</ele>
        <time>2013-11-24T13:42:44Z</time>
      </trkpt>
      <trkpt lat="48.73368" lon="-3.27509">
        <ele>55.89</ele>
        <time>2013-11-24T13:42:46Z</time>
      </trkpt>
      <trkpt lat="48.73367" lon="-3.27512">
        <ele>55.89</ele>
        <time>2013-11-24T13:42:48Z</time>
      </trkpt>
      <trkpt lat="48.73366" lon="-3.27515">
        <ele>55.41</ele>
        <time>2013-11-24T13:42:50Z</time>
      </trkpt>
      <trkpt lat="48.73366" lon="-3.27517">
        <ele>55.41</ele>
        <time>2013-11-24T13:42:52Z</time>
      </trkpt>
      <trkpt lat="48.73365" lon="-3.2752">
        <ele>55.41</ele>
        <time>2013-11-24T13:42:54Z</time>
      </trkpt>
      <trkpt lat="48.73365" lon="-3.27523">
        <ele>55.41</ele>
        <time>2013-11-24T13:42:56Z</time>
      </trkpt>
      <trkpt lat="48.73364" lon="-3.27526">
        <ele>55.41</ele>
        <time>2013-11-24T13:42:58Z</time>
      </trkpt>
      <trkpt lat="48.73362" lon="-3.27529">
        <ele>55.41</ele>
        <time>2013-11-24T13:43:00Z</time>
      </trkpt>
      <trkpt lat="48.73362" lon="-3.27532">
        <ele>55.89</ele>
        <time>2013-11-24T13:43:02Z</time>
      </trkpt>
      <trkpt lat="48.73361" lon="-3.27535">
        <ele>55.89</ele>
        <time>2013-11-24T13:43:04Z</time>
      </trkpt>
      <trkpt lat="48.7336" lon="-3.27538">
        <ele>55.41</ele>
        <time>2013-11-24T13:43:06Z</time>
      </trkpt>
      <trkpt lat="48.73359" lon="-3.2754">
        <ele>55.41</ele>
        <time>2013-11-24T13:43:08Z</time>
      </trkpt>
      <trkpt lat="48.73358" lon="-3.27543">
        <ele>55.41</ele>
        <time>2013-11-24T13:43:10Z</time>
      </trkpt>
      <trkpt lat="48.73357" lon="-3.27547">
        <ele>55.41</ele>
        <time>2013-11-24T13:43:12Z</time>
      </trkpt>
      <trkpt lat="48.73356" lon="-3.27549">
        <ele>55.41</ele>
        <time>2013-11-24T13:43:14Z</time>
      </trkpt>
      <trkpt lat="48.73355" lon="-3.27552">
        <ele>55.89</ele>
        <time>2013-11-24T13:43:16Z</time>
      </trkpt>
      <trkpt lat="48.73353" lon="-3.27555">
        <ele>55.41</ele>
        <time>2013-11-24T13:43:18Z</time>
      </trkpt>
      <trkpt lat="48.73352" lon="-3.27558">
        <ele>55.41</ele>
        <time>2013-11-24T13:43:20Z</time>
      </trkpt>
      <trkpt lat="48.73351" lon="-3.27561">
        <ele>55.41</ele>
        <time>2013-11-24T13:43:22Z</time>
      </trkpt>
      <trkpt lat="48.73351" lon="-3.27563">
        <ele>55.41</ele>
        <time>2013-11-24T13:43:24Z</time>
      </trkpt>
      <trkpt lat="48.73351" lon="-3.27566">
        <ele>55.41</ele>
        <time>2013-11-24T13:43:26Z</time>
      </trkpt>
      <trkpt lat="48.7335" lon="-3.27569">
        <ele>55.41</ele>
        <time>2013-11-24T13:43:28Z</time>
      </trkpt>
      <trkpt lat="48.7335" lon="-3.27572">
        <ele>55.41</ele>
        <time>2013-11-24T13:43:30Z</time>
      </trkpt>
      <trkpt lat="48.73349" lon="-3.27575">
        <ele>55.41</ele>
        <time>2013-11-24T13:43:32Z</time>
      </trkpt>
      <trkpt lat="48.73349" lon="-3.27578">
        <ele>54.93</ele>
        <time>2013-11-24T13:43:34Z</time>
      </trkpt>
      <trkpt lat="48.73348" lon="-3.2758">
        <ele>54.93</ele>
        <time>2013-11-24T13:43:36Z</time>
      </trkpt>
      <trkpt lat="48.73347" lon="-3.27581">
        <ele>55.41</ele>
        <time>2013-11-24T13:43:38Z</time>
      </trkpt>
      <trkpt lat="48.73346" lon="-3.27583">
        <ele>55.41</ele>
        <time>2013-11-24T13:43:40Z</time>
      </trkpt>
      <trkpt lat="48.73343" lon="-3.27586">
        <ele>55.41</ele>
        <time>2013-11-24T13:43:42Z</time>
      </trkpt>
      <trkpt lat="48.73341" lon="-3.27587">
        <ele>55.41</ele>
        <time>2013-11-24T13:43:44Z</time>
      </trkpt>
      <trkpt lat="48.73338" lon="-3.27588">
        <ele>54.93</ele>
        <time>2013-11-24T13:43:46Z</time>
      </trkpt>
      <trkpt lat="48.73337" lon="-3.2759">
        <ele>54.93</ele>
        <time>2013-11-24T13:43:48Z</time>
      </trkpt>
      <trkpt lat="48.73334" lon="-3.27591">
        <ele>54.93</ele>
        <time>2013-11-24T13:43:50Z</time>
      </trkpt>
      <trkpt lat="48.73332" lon="-3.27592">
        <ele>54.93</ele>
        <time>2013-11-24T13:43:52Z</time>
      </trkpt>
      <trkpt lat="48.7333" lon="-3.27593">
        <ele>54.93</ele>
        <time>2013-11-24T13:43:54Z</time>
      </trkpt>
      <trkpt lat="48.73328" lon="-3.27594">
        <ele>54.93</ele>
        <time>2013-11-24T13:43:56Z</time>
      </trkpt>
      <trkpt lat="48.73325" lon="-3.27594">
        <ele>54.93</ele>
        <time>2013-11-24T13:43:58Z</time>
      </trkpt>
      <trkpt lat="48.73323" lon="-3.27595">
        <ele>54.93</ele>
        <time>2013-11-24T13:44:00Z</time>
      </trkpt>
      <trkpt lat="48.73319" lon="-3.27596">
        <ele>54.93</ele>
        <time>2013-11-24T13:44:02Z</time>
      </trkpt>
      <trkpt lat="48.73316" lon="-3.27597">
        <ele>54.93</ele>
        <time>2013-11-24T13:44:04Z</time>
      </trkpt>
      <trkpt lat="48.73314" lon="-3.27597">
        <ele>54.93</ele>
        <time>2013-11-24T13:44:06Z</time>
      </trkpt>
      <trkpt lat="48.73312" lon="-3.27598">
        <ele>54.93</ele>
        <time>2013-11-24T13:44:08Z</time>
      </trkpt>
      <trkpt lat="48.7331" lon="-3.27598">
        <ele>54.93</ele>
        <time>2013-11-24T13:44:10Z</time>
      </trkpt>
      <trkpt lat="48.7331" lon="-3.27599">
        <ele>54.93</ele>
        <time>2013-11-24T13:44:12Z</time>
      </trkpt>
      <trkpt lat="48.7331" lon="-3.27599">
        <ele>54.45</ele>
        <time>2013-11-24T13:44:14Z</time>
      </trkpt>
      <trkpt lat="48.7331" lon="-3.27599">
        <ele>54.45</ele>
        <time>2013-11-24T13:44:16Z</time>
      </trkpt>
      <trkpt lat="48.7331" lon="-3.27599">
        <ele>54.93</ele>
        <time>2013-11-24T13:44:18Z</time>
      </trkpt>
      <trkpt lat="48.73309" lon="-3.27599">
        <ele>54.93</ele>
        <time>2013-11-24T13:44:20Z</time>
      </trkpt>
      <trkpt lat="48.73309" lon="-3.27599">
        <ele>54.93</ele>
        <time>2013-11-24T13:44:22Z</time>
      </trkpt>
      <trkpt lat="48.73309" lon="-3.27599">
        <ele>54.93</ele>
        <time>2013-11-24T13:44:24Z</time>
      </trkpt>
      <trkpt lat="48.73309" lon="-3.27599">
        <ele>54.93</ele>
        <time>2013-11-24T13:44:26Z</time>
      </trkpt>
      <trkpt lat="48.73308" lon="-3.27599">
        <ele>54.45</ele>
        <time>2013-11-24T13:44:28Z</time>
      </trkpt>
      <trkpt lat="48.73306" lon="-3.276">
        <ele>54.45</ele>
        <time>2013-11-24T13:44:30Z</time>
      </trkpt>
      <trkpt lat="48.73305" lon="-3.276">
        <ele>54.45</ele>
        <time>2013-11-24T13:44:32Z</time>
      </trkpt>
      <trkpt lat="48.73303" lon="-3.27602">
        <ele>54.45</ele>
        <time>2013-11-24T13:44:34Z</time>
      </trkpt>
      <trkpt lat="48.73301" lon="-3.27603">
        <ele>54.45</ele>
        <time>2013-11-24T13:44:36Z</time>
      </trkpt>
      <trkpt lat="48.73299" lon="-3.27604">
        <ele>54.93</ele>
        <time>2013-11-24T13:44:38Z</time>
      </trkpt>
      <trkpt lat="48.73297" lon="-3.27605">
        <ele>54.93</ele>
        <time>2013-11-24T13:44:40Z</time>
      </trkpt>
      <trkpt lat="48.73295" lon="-3.27605">
        <ele>54.45</ele>
        <time>2013-11-24T13:44:42Z</time>
      </trkpt>
      <trkpt lat="48.73293" lon="-3.27606">
        <ele>54.45</ele>
        <time>2013-11-24T13:44:44Z</time>
      </trkpt>
      <trkpt lat="48.73291" lon="-3.27605">
        <ele>54.45</ele>
        <time>2013-11-24T13:44:46Z</time>
      </trkpt>
      <trkpt lat="48.73289" lon="-3.27606">
        <ele>54.45</ele>
        <time>2013-11-24T13:44:48Z</time>
      </trkpt>
      <trkpt lat="48.73287" lon="-3.27606">
        <ele>54.45</ele>
        <time>2013-11-24T13:44:50Z</time>
      </trkpt>
      <trkpt lat="48.73285" lon="-3.27606">
        <ele>54.45</ele>
        <time>2013-11-24T13:44:52Z</time>
      </trkpt>
      <trkpt lat="48.73284" lon="-3.27606">
        <ele>54.45</ele>
        <time>2013-11-24T13:44:54Z</time>
      </trkpt>
      <trkpt lat="48.73282" lon="-3.27606">
        <ele>54.45</ele>
        <time>2013-11-24T13:44:56Z</time>
      </trkpt>
      <trkpt lat="48.7328" lon="-3.27606">
        <ele>54.45</ele>
        <time>2013-11-24T13:44:58Z</time>
      </trkpt>
      <trkpt lat="48.73279" lon="-3.27606">
        <ele>54.45</ele>
        <time>2013-11-24T13:45:00Z</time>
      </trkpt>
      <trkpt lat="48.73278" lon="-3.27606">
        <ele>54.45</ele>
        <time>2013-11-24T13:45:02Z</time>
      </trkpt>
      <trkpt lat="48.73276" lon="-3.27606">
        <ele>54.45</ele>
        <time>2013-11-24T13:45:04Z</time>
      </trkpt>
      <trkpt lat="48.73274" lon="-3.27607">
        <ele>54.45</ele>
        <time>2013-11-24T13:45:06Z</time>
      </trkpt>
      <trkpt lat="48.73273" lon="-3.27607">
        <ele>54.45</ele>
        <time>2013-11-24T13:45:08Z</time>
      </trkpt>
      <trkpt lat="48.73271" lon="-3.27606">
        <ele>54.45</ele>
        <time>2013-11-24T13:45:10Z</time>
      </trkpt>
      <trkpt lat="48.73269" lon="-3.27606">
        <ele>54.45</ele>
        <time>2013-11-24T13:45:12Z</time>
      </trkpt>
      <trkpt lat="48.73267" lon="-3.27607">
        <ele>54.45</ele>
        <time>2013-11-24T13:45:14Z</time>
      </trkpt>
      <trkpt lat="48.73265" lon="-3.27606">
        <ele>54.45</ele>
        <time>2013-11-24T13:45:16Z</time>
      </trkpt>
      <trkpt lat="48.73262" lon="-3.27607">
        <ele>54.45</ele>
        <time>2013-11-24T13:45:18Z</time>
      </trkpt>
      <trkpt lat="48.7326" lon="-3.27608">
        <ele>54.45</ele>
        <time>2013-11-24T13:45:20Z</time>
      </trkpt>
      <trkpt lat="48.73258" lon="-3.27608">
        <ele>54.45</ele>
        <time>2013-11-24T13:45:22Z</time>
      </trkpt>
      <trkpt lat="48.73256" lon="-3.27608">
        <ele>54.45</ele>
        <time>2013-11-24T13:45:24Z</time>
      </trkpt>
      <trkpt lat="48.73254" lon="-3.27608">
        <ele>54.45</ele>
        <time>2013-11-24T13:45:26Z</time>
      </trkpt>
      <trkpt lat="48.73253" lon="-3.27608">
        <ele>53.97</ele>
        <time>2013-11-24T13:45:28Z</time>
      </trkpt>
      <trkpt lat="48.73252" lon="-3.27608">
        <ele>53.97</ele>
        <time>2013-11-24T13:45:30Z</time>
      </trkpt>
      <trkpt lat="48.7325" lon="-3.27607">
        <ele>53.97</ele>
        <time>2013-11-24T13:45:32Z</time>
      </trkpt>
      <trkpt lat="48.73249" lon="-3.27607">
        <ele>53.97</ele>
        <time>2013-11-24T13:45:34Z</time>
      </trkpt>
      <trkpt lat="48.73248" lon="-3.27607">
        <ele>53.97</ele>
        <time>2013-11-24T13:45:36Z</time>
      </trkpt>
      <trkpt lat="48.73247" lon="-3.27607">
        <ele>53.97</ele>
        <time>2013-11-24T13:45:38Z</time>
      </trkpt>
      <trkpt lat="48.73246" lon="-3.27607">
        <ele>53.97</ele>
        <time>2013-11-24T13:45:40Z</time>
      </trkpt>
      <trkpt lat="48.73244" lon="-3.27606">
        <ele>53.97</ele>
        <time>2013-11-24T13:45:42Z</time>
      </trkpt>
      <trkpt lat="48.73243" lon="-3.27605">
        <ele>53.97</ele>
        <time>2013-11-24T13:45:44Z</time>
      </trkpt>
      <trkpt lat="48.73241" lon="-3.27604">
        <ele>53.49</ele>
        <time>2013-11-24T13:45:46Z</time>
      </trkpt>
      <trkpt lat="48.73239" lon="-3.27604">
        <ele>53.49</ele>
        <time>2013-11-24T13:45:48Z</time>
      </trkpt>
      <trkpt lat="48.73238" lon="-3.27602">
        <ele>53.49</ele>
        <time>2013-11-24T13:45:50Z</time>
      </trkpt>
      <trkpt lat="48.73236" lon="-3.27601">
        <ele>53.49</ele>
        <time>2013-11-24T13:45:52Z</time>
      </trkpt>
      <trkpt lat="48.73235" lon="-3.276">
        <ele>53.97</ele>
        <time>2013-11-24T13:45:54Z</time>
      </trkpt>
      <trkpt lat="48.73233" lon="-3.276">
        <ele>53.97</ele>
        <time>2013-11-24T13:45:56Z</time>
      </trkpt>
      <trkpt lat="48.73231" lon="-3.27599">
        <ele>53.97</ele>
        <time>2013-11-24T13:45:58Z</time>
      </trkpt>
      <trkpt lat="48.73228" lon="-3.27598">
        <ele>53.49</ele>
        <time>2013-11-24T13:46:00Z</time>
      </trkpt>
      <trkpt lat="48.73225" lon="-3.27597">
        <ele>53.49</ele>
        <time>2013-11-24T13:46:02Z</time>
      </trkpt>
      <trkpt lat="48.73221" lon="-3.27598">
        <ele>53.49</ele>
        <time>2013-11-24T13:46:04Z</time>
      </trkpt>
      <trkpt lat="48.73217" lon="-3.27598">
        <ele>53.49</ele>
        <time>2013-11-24T13:46:06Z</time>
      </trkpt>
      <trkpt lat="48.73216" lon="-3.27597">
        <ele>53.49</ele>
        <time>2013-11-24T13:46:08Z</time>
      </trkpt>
      <trkpt lat="48.73213" lon="-3.27595">
        <ele>53.49</ele>
        <time>2013-11-24T13:46:10Z</time>
      </trkpt>
      <trkpt lat="48.7321" lon="-3.27593">
        <ele>53.49</ele>
        <time>2013-11-24T13:46:12Z</time>
      </trkpt>
      <trkpt lat="48.73209" lon="-3.2759">
        <ele>53.49</ele>
        <time>2013-11-24T13:46:14Z</time>
      </trkpt>
      <trkpt lat="48.73207" lon="-3.27588">
        <ele>53.01</ele>
        <time>2013-11-24T13:46:16Z</time>
      </trkpt>
      <trkpt lat="48.73206" lon="-3.27585">
        <ele>53.01</ele>
        <time>2013-11-24T13:46:18Z</time>
      </trkpt>
      <trkpt lat="48.73203" lon="-3.27583">
        <ele>53.01</ele>
        <time>2013-11-24T13:46:20Z</time>
      </trkpt>
      <trkpt lat="48.73201" lon="-3.27581">
        <ele>53.01</ele>
        <time>2013-11-24T13:46:22Z</time>
      </trkpt>
      <trkpt lat="48.732" lon="-3.27579">
        <ele>53.49</ele>
        <time>2013-11-24T13:46:24Z</time>
      </trkpt>
      <trkpt lat="48.73198" lon="-3.27578">
        <ele>53.49</ele>
        <time>2013-11-24T13:46:26Z</time>
      </trkpt>
      <trkpt lat="48.73197" lon="-3.27576">
        <ele>53.49</ele>
        <time>2013-11-24T13:46:28Z</time>
      </trkpt>
      <trkpt lat="48.73195" lon="-3.27573">
        <ele>53.01</ele>
        <time>2013-11-24T13:46:30Z</time>
      </trkpt>
      <trkpt lat="48.73193" lon="-3.2757">
        <ele>53.01</ele>
        <time>2013-11-24T13:46:32Z</time>
      </trkpt>
      <trkpt lat="48.73192" lon="-3.27567">
        <ele>53.01</ele>
        <time>2013-11-24T13:46:34Z</time>
      </trkpt>
      <trkpt lat="48.73191" lon="-3.27565">
        <ele>53.01</ele>
        <time>2013-11-24T13:46:36Z</time>
      </trkpt>
      <trkpt lat="48.73189" lon="-3.27563">
        <ele>53.01</ele>
        <time>2013-11-24T13:46:38Z</time>
      </trkpt>
      <trkpt lat="48.73188" lon="-3.2756">
        <ele>53.01</ele>
        <time>2013-11-24T13:46:40Z</time>
      </trkpt>
      <trkpt lat="48.73187" lon="-3.27558">
        <ele>53.01</ele>
        <time>2013-11-24T13:46:42Z</time>
      </trkpt>
      <trkpt lat="48.73184" lon="-3.27555">
        <ele>53.01</ele>
        <time>2013-11-24T13:46:44Z</time>
      </trkpt>
      <trkpt lat="48.73183" lon="-3.27553">
        <ele>53.01</ele>
        <time>2013-11-24T13:46:46Z</time>
      </trkpt>
      <trkpt lat="48.73182" lon="-3.27551">
        <ele>53.01</ele>
        <time>2013-11-24T13:46:48Z</time>
      </trkpt>
      <trkpt lat="48.73182" lon="-3.27549">
        <ele>53.01</ele>
        <time>2013-11-24T13:46:50Z</time>
      </trkpt>
      <trkpt lat="48.73181" lon="-3.27548">
        <ele>53.01</ele>
        <time>2013-11-24T13:46:52Z</time>
      </trkpt>
      <trkpt lat="48.7318" lon="-3.27546">
        <ele>53.01</ele>
        <time>2013-11-24T13:46:54Z</time>
      </trkpt>
      <trkpt lat="48.73178" lon="-3.27544">
        <ele>53.01</ele>
        <time>2013-11-24T13:46:56Z</time>
      </trkpt>
      <trkpt lat="48.73177" lon="-3.27542">
        <ele>53.01</ele>
        <time>2013-11-24T13:46:58Z</time>
      </trkpt>
      <trkpt lat="48.73175" lon="-3.2754">
        <ele>53.01</ele>
        <time>2013-11-24T13:47:00Z</time>
      </trkpt>
      <trkpt lat="48.73173" lon="-3.27539">
        <ele>53.01</ele>
        <time>2013-11-24T13:47:02Z</time>
      </trkpt>
      <trkpt lat="48.73171" lon="-3.27537">
        <ele>52.53</ele>
        <time>2013-11-24T13:47:04Z</time>
      </trkpt>
      <trkpt lat="48.73169" lon="-3.27537">
        <ele>52.53</ele>
        <time>2013-11-24T13:47:06Z</time>
      </trkpt>
      <trkpt lat="48.73168" lon="-3.27536">
        <ele>52.53</ele>
        <time>2013-11-24T13:47:08Z</time>
      </trkpt>
      <trkpt lat="48.73167" lon="-3.27534">
        <ele>52.53</ele>
        <time>2013-11-24T13:47:10Z</time>
      </trkpt>
      <trkpt lat="48.73166" lon="-3.27532">
        <ele>52.53</ele>
        <time>2013-11-24T13:47:12Z</time>
      </trkpt>
      <trkpt lat="48.73167" lon="-3.2753">
        <ele>52.53</ele>
        <time>2013-11-24T13:47:14Z</time>
      </trkpt>
      <trkpt lat="48.73167" lon="-3.27528">
        <ele>52.53</ele>
        <time>2013-11-24T13:47:16Z</time>
      </trkpt>
      <trkpt lat="48.73166" lon="-3.27527">
        <ele>52.53</ele>
        <time>2013-11-24T13:47:18Z</time>
      </trkpt>
      <trkpt lat="48.73164" lon="-3.27524">
        <ele>52.53</ele>
        <time>2013-11-24T13:47:20Z</time>
      </trkpt>
      <trkpt lat="48.73161" lon="-3.27522">
        <ele>52.53</ele>
        <time>2013-11-24T13:47:22Z</time>
      </trkpt>
      <trkpt lat="48.73158" lon="-3.27519">
        <ele>52.53</ele>
        <time>2013-11-24T13:47:24Z</time>
      </trkpt>
      <trkpt lat="48.73157" lon="-3.27515">
        <ele>52.53</ele>
        <time>2013-11-24T13:47:26Z</time>
      </trkpt>
      <trkpt lat="48.73156" lon="-3.27513">
        <ele>52.53</ele>
        <time>2013-11-24T13:47:28Z</time>
      </trkpt>
      <trkpt lat="48.73155" lon="-3.27512">
        <ele>52.05</ele>
        <time>2013-11-24T13:47:30Z</time>
      </trkpt>
      <trkpt lat="48.73153" lon="-3.27511">
        <ele>52.05</ele>
        <time>2013-11-24T13:47:32Z</time>
      </trkpt>
      <trkpt lat="48.73152" lon="-3.27511">
        <ele>52.05</ele>
        <time>2013-11-24T13:47:34Z</time>
      </trkpt>
      <trkpt lat="48.73151" lon="-3.2751">
        <ele>52.05</ele>
        <time>2013-11-24T13:47:36Z</time>
      </trkpt>
      <trkpt lat="48.73149" lon="-3.2751">
        <ele>52.05</ele>
        <time>2013-11-24T13:47:38Z</time>
      </trkpt>
      <trkpt lat="48.73147" lon="-3.27509">
        <ele>52.05</ele>
        <time>2013-11-24T13:47:40Z</time>
      </trkpt>
      <trkpt lat="48.73146" lon="-3.27507">
        <ele>52.05</ele>
        <time>2013-11-24T13:47:42Z</time>
      </trkpt>
      <trkpt lat="48.73144" lon="-3.27505">
        <ele>51.57</ele>
        <time>2013-11-24T13:47:44Z</time>
      </trkpt>
      <trkpt lat="48.73142" lon="-3.27502">
        <ele>52.05</ele>
        <time>2013-11-24T13:47:46Z</time>
      </trkpt>
      <trkpt lat="48.73141" lon="-3.27499">
        <ele>52.05</ele>
        <time>2013-11-24T13:47:48Z</time>
      </trkpt>
      <trkpt lat="48.7314" lon="-3.27497">
        <ele>52.05</ele>
        <time>2013-11-24T13:47:50Z</time>
      </trkpt>
      <trkpt lat="48.73139" lon="-3.27495">
        <ele>52.05</ele>
        <time>2013-11-24T13:47:52Z</time>
      </trkpt>
      <trkpt lat="48.73139" lon="-3.27493">
        <ele>52.05</ele>
        <time>2013-11-24T13:47:54Z</time>
      </trkpt>
      <trkpt lat="48.73139" lon="-3.27492">
        <ele>52.05</ele>
        <time>2013-11-24T13:47:56Z</time>
      </trkpt>
      <trkpt lat="48.73138" lon="-3.27491">
        <ele>52.05</ele>
        <time>2013-11-24T13:47:58Z</time>
      </trkpt>
      <trkpt lat="48.73138" lon="-3.2749">
        <ele>51.57</ele>
        <time>2013-11-24T13:48:00Z</time>
      </trkpt>
      <trkpt lat="48.73137" lon="-3.27488">
        <ele>51.57</ele>
        <time>2013-11-24T13:48:02Z</time>
      </trkpt>
      <trkpt lat="48.73136" lon="-3.27487">
        <ele>51.57</ele>
        <time>2013-11-24T13:48:04Z</time>
      </trkpt>
      <trkpt lat="48.73135" lon="-3.27485">
        <ele>51.57</ele>
        <time>2013-11-24T13:48:06Z</time>
      </trkpt>
      <trkpt lat="48.73134" lon="-3.27483">
        <ele>51.57</ele>
        <time>2013-11-24T13:48:08Z</time>
      </trkpt>
      <trkpt lat="48.73133" lon="-3.2748">
        <ele>51.57</ele>
        <time>2013-11-24T13:48:10Z</time>
      </trkpt>
      <trkpt lat="48.73132" lon="-3.27478">
        <ele>51.57</ele>
        <time>2013-11-24T13:48:12Z</time>
      </trkpt>
      <trkpt lat="48.73131" lon="-3.27476">
        <ele>51.57</ele>
        <time>2013-11-24T13:48:14Z</time>
      </trkpt>
      <trkpt lat="48.7313" lon="-3.27475">
        <ele>51.57</ele>
        <time>2013-11-24T13:48:16Z</time>
      </trkpt>
      <trkpt lat="48.73128" lon="-3.27473">
        <ele>51.57</ele>
        <time>2013-11-24T13:48:18Z</time>
      </trkpt>
      <trkpt lat="48.73126" lon="-3.27472">
        <ele>51.57</ele>
        <time>2013-11-24T13:48:20Z</time>
      </trkpt>
      <trkpt lat="48.73125" lon="-3.2747">
        <ele>51.57</ele>
        <time>2013-11-24T13:48:22Z</time>
      </trkpt>
      <trkpt lat="48.73122" lon="-3.27469">
        <ele>51.09</ele>
        <time>2013-11-24T13:48:24Z</time>
      </trkpt>
      <trkpt lat="48.73121" lon="-3.27469">
        <ele>51.09</ele>
        <time>2013-11-24T13:48:26Z</time>
      </trkpt>
      <trkpt lat="48.73119" lon="-3.27467">
        <ele>51.09</ele>
        <time>2013-11-24T13:48:28Z</time>
      </trkpt>
      <trkpt lat="48.73119" lon="-3.27466">
        <ele>51.09</ele>
        <time>2013-11-24T13:48:30Z</time>
      </trkpt>
      <trkpt lat="48.73118" lon="-3.27465">
        <ele>51.09</ele>
        <time>2013-11-24T13:48:32Z</time>
      </trkpt>
      <trkpt lat="48.73117" lon="-3.27462">
        <ele>51.09</ele>
        <time>2013-11-24T13:48:34Z</time>
      </trkpt>
      <trkpt lat="48.73116" lon="-3.2746">
        <ele>50.61</ele>
        <time>2013-11-24T13:48:36Z</time>
      </trkpt>
      <trkpt lat="48.73116" lon="-3.27458">
        <ele>50.61</ele>
        <time>2013-11-24T13:48:38Z</time>
      </trkpt>
      <trkpt lat="48.73115" lon="-3.27455">
        <ele>50.61</ele>
        <time>2013-11-24T13:48:40Z</time>
      </trkpt>
      <trkpt lat="48.73113" lon="-3.27452">
        <ele>50.61</ele>
        <time>2013-11-24T13:48:42Z</time>
      </trkpt>
      <trkpt lat="48.73112" lon="-3.27449">
        <ele>50.61</ele>
        <time>2013-11-24T13:48:44Z</time>
      </trkpt>
      <trkpt lat="48.73111" lon="-3.27447">
        <ele>50.61</ele>
        <time>2013-11-24T13:48:46Z</time>
      </trkpt>
      <trkpt lat="48.7311" lon="-3.27445">
        <ele>50.13</ele>
        <time>2013-11-24T13:48:48Z</time>
      </trkpt>
      <trkpt lat="48.7311" lon="-3.27441">
        <ele>50.13</ele>
        <time>2013-11-24T13:48:50Z</time>
      </trkpt>
      <trkpt lat="48.73109" lon="-3.27438">
        <ele>50.13</ele>
        <time>2013-11-24T13:48:52Z</time>
      </trkpt>
      <trkpt lat="48.73107" lon="-3.27435">
        <ele>50.13</ele>
        <time>2013-11-24T13:48:54Z</time>
      </trkpt>
      <trkpt lat="48.73106" lon="-3.27432">
        <ele>50.13</ele>
        <time>2013-11-24T13:48:56Z</time>
      </trkpt>
      <trkpt lat="48.73105" lon="-3.27431">
        <ele>50.13</ele>
        <time>2013-11-24T13:48:58Z</time>
      </trkpt>
      <trkpt lat="48.73103" lon="-3.27431">
        <ele>49.65</ele>
        <time>2013-11-24T13:49:00Z</time>
      </trkpt>
      <trkpt lat="48.73103" lon="-3.2743">
        <ele>49.65</ele>
        <time>2013-11-24T13:49:02Z</time>
      </trkpt>
      <trkpt lat="48.73103" lon="-3.2743">
        <ele>49.65</ele>
        <time>2013-11-24T13:49:04Z</time>
      </trkpt>
      <trkpt lat="48.73103" lon="-3.2743">
        <ele>49.65</ele>
        <time>2013-11-24T13:49:06Z</time>
      </trkpt>
      <trkpt lat="48.73103" lon="-3.27428">
        <ele>50.13</ele>
        <time>2013-11-24T13:49:08Z</time>
      </trkpt>
      <trkpt lat="48.73102" lon="-3.27426">
        <ele>50.13</ele>
        <time>2013-11-24T13:49:10Z</time>
      </trkpt>
      <trkpt lat="48.73101" lon="-3.27425">
        <ele>49.65</ele>
        <time>2013-11-24T13:49:12Z</time>
      </trkpt>
      <trkpt lat="48.731" lon="-3.27424">
        <ele>49.65</ele>
        <time>2013-11-24T13:49:14Z</time>
      </trkpt>
      <trkpt lat="48.731" lon="-3.27422">
        <ele>49.65</ele>
        <time>2013-11-24T13:49:16Z</time>
      </trkpt>
      <trkpt lat="48.73098" lon="-3.27419">
        <ele>49.65</ele>
        <time>2013-11-24T13:49:18Z</time>
      </trkpt>
      <trkpt lat="48.73096" lon="-3.27416">
        <ele>49.65</ele>
        <time>2013-11-24T13:49:20Z</time>
      </trkpt>
      <trkpt lat="48.73094" lon="-3.27414">
        <ele>49.65</ele>
        <time>2013-11-24T13:49:22Z</time>
      </trkpt>
      <trkpt lat="48.73092" lon="-3.27415">
        <ele>49.65</ele>
        <time>2013-11-24T13:49:24Z</time>
      </trkpt>
      <trkpt lat="48.73091" lon="-3.27413">
        <ele>49.16</ele>
        <time>2013-11-24T13:49:26Z</time>
      </trkpt>
      <trkpt lat="48.73091" lon="-3.27412">
        <ele>49.16</ele>
        <time>2013-11-24T13:49:28Z</time>
      </trkpt>
      <trkpt lat="48.7309" lon="-3.27411">
        <ele>49.16</ele>
        <time>2013-11-24T13:49:30Z</time>
      </trkpt>
      <trkpt lat="48.73089" lon="-3.2741">
        <ele>49.16</ele>
        <time>2013-11-24T13:49:32Z</time>
      </trkpt>
      <trkpt lat="48.73089" lon="-3.2741">
        <ele>49.16</ele>
        <time>2013-11-24T13:49:34Z</time>
      </trkpt>
      <trkpt lat="48.73089" lon="-3.2741">
        <ele>49.16</ele>
        <time>2013-11-24T13:49:36Z</time>
      </trkpt>
      <trkpt lat="48.73089" lon="-3.27411">
        <ele>49.16</ele>
        <time>2013-11-24T13:49:38Z</time>
      </trkpt>
      <trkpt lat="48.73089" lon="-3.27411">
        <ele>48.68</ele>
        <time>2013-11-24T13:49:40Z</time>
      </trkpt>
      <trkpt lat="48.7309" lon="-3.27411">
        <ele>48.68</ele>
        <time>2013-11-24T13:49:42Z</time>
      </trkpt>
      <trkpt lat="48.7309" lon="-3.27411">
        <ele>48.68</ele>
        <time>2013-11-24T13:49:44Z</time>
      </trkpt>
      <trkpt lat="48.7309" lon="-3.27411">
        <ele>48.68</ele>
        <time>2013-11-24T13:49:46Z</time>
      </trkpt>
      <trkpt lat="48.7309" lon="-3.27412">
        <ele>48.68</ele>
        <time>2013-11-24T13:49:48Z</time>
      </trkpt>
      <trkpt lat="48.73089" lon="-3.27412">
        <ele>48.68</ele>
        <time>2013-11-24T13:49:50Z</time>
      </trkpt>
      <trkpt lat="48.73089" lon="-3.27412">
        <ele>48.68</ele>
        <time>2013-11-24T13:49:52Z</time>
      </trkpt>
      <trkpt lat="48.73089" lon="-3.27413">
        <ele>48.2</ele>
        <time>2013-11-24T13:49:54Z</time>
      </trkpt>
      <trkpt lat="48.73089" lon="-3.27413">
        <ele>48.2</ele>
        <time>2013-11-24T13:49:56Z</time>
      </trkpt>
      <trkpt lat="48.73089" lon="-3.27413">
        <ele>48.2</ele>
        <time>2013-11-24T13:49:58Z</time>
      </trkpt>
      <trkpt lat="48.73089" lon="-3.27412">
        <ele>48.2</ele>
        <time>2013-11-24T13:50:00Z</time>
      </trkpt>
      <trkpt lat="48.73089" lon="-3.27411">
        <ele>48.2</ele>
        <time>2013-11-24T13:50:02Z</time>
      </trkpt>
      <trkpt lat="48.73089" lon="-3.27411">
        <ele>48.2</ele>
        <time>2013-11-24T13:50:04Z</time>
      </trkpt>
      <trkpt lat="48.73089" lon="-3.27413">
        <ele>48.2</ele>
        <time>2013-11-24T13:50:06Z</time>
      </trkpt>
      <trkpt lat="48.73089" lon="-3.27416">
        <ele>47.72</ele>
        <time>2013-11-24T13:50:08Z</time>
      </trkpt>
      <trkpt lat="48.73089" lon="-3.27419">
        <ele>47.72</ele>
        <time>2013-11-24T13:50:10Z</time>
      </trkpt>
      <trkpt lat="48.73089" lon="-3.27419">
        <ele>47.72</ele>
        <time>2013-11-24T13:50:12Z</time>
      </trkpt>
      <trkpt lat="48.73091" lon="-3.27421">
        <ele>47.72</ele>
        <time>2013-11-24T13:50:14Z</time>
      </trkpt>
      <trkpt lat="48.73094" lon="-3.27423">
        <ele>48.2</ele>
        <time>2013-11-24T13:50:16Z</time>
      </trkpt>
      <trkpt lat="48.73093" lon="-3.27423">
        <ele>48.2</ele>
        <time>2013-11-24T13:50:18Z</time>
      </trkpt>
      <trkpt lat="48.73094" lon="-3.27423">
        <ele>48.2</ele>
        <time>2013-11-24T13:50:20Z</time>
      </trkpt>
      <trkpt lat="48.73095" lon="-3.27423">
        <ele>47.72</ele>
        <time>2013-11-24T13:50:22Z</time>
      </trkpt>
      <trkpt lat="48.73096" lon="-3.27422">
        <ele>47.72</ele>
        <time>2013-11-24T13:50:24Z</time>
      </trkpt>
      <trkpt lat="48.73097" lon="-3.27421">
        <ele>47.72</ele>
        <time>2013-11-24T13:50:26Z</time>
      </trkpt>
      <trkpt lat="48.73098" lon="-3.27421">
        <ele>47.72</ele>
        <time>2013-11-24T13:50:28Z</time>
      </trkpt>
      <trkpt lat="48.731" lon="-3.27419">
        <ele>47.72</ele>
        <time>2013-11-24T13:50:30Z</time>
      </trkpt>
      <trkpt lat="48.73101" lon="-3.27417">
        <ele>47.72</ele>
        <time>2013-11-24T13:50:32Z</time>
      </trkpt>
      <trkpt lat="48.73102" lon="-3.27417">
        <ele>47.72</ele>
        <time>2013-11-24T13:50:34Z</time>
      </trkpt>
      <trkpt lat="48.73102" lon="-3.27417">
        <ele>47.72</ele>
        <time>2013-11-24T13:50:36Z</time>
      </trkpt>
      <trkpt lat="48.73102" lon="-3.27417">
        <ele>47.24</ele>
        <time>2013-11-24T13:50:38Z</time>
      </trkpt>
      <trkpt lat="48.73102" lon="-3.27418">
        <ele>47.24</ele>
        <time>2013-11-24T13:50:40Z</time>
      </trkpt>
      <trkpt lat="48.73101" lon="-3.27419">
        <ele>47.24</ele>
        <time>2013-11-24T13:50:42Z</time>
      </trkpt>
      <trkpt lat="48.73101" lon="-3.27418">
        <ele>47.24</ele>
        <time>2013-11-24T13:50:44Z</time>
      </trkpt>
      <trkpt lat="48.731" lon="-3.27419">
        <ele>47.24</ele>
        <time>2013-11-24T13:50:46Z</time>
      </trkpt>
      <trkpt lat="48.73099" lon="-3.27419">
        <ele>47.24</ele>
        <time>2013-11-24T13:50:48Z</time>
      </trkpt>
      <trkpt lat="48.73098" lon="-3.2742">
        <ele>47.24</ele>
        <time>2013-11-24T13:50:50Z</time>
      </trkpt>
      <trkpt lat="48.73098" lon="-3.2742">
        <ele>47.24</ele>
        <time>2013-11-24T13:50:52Z</time>
      </trkpt>
      <trkpt lat="48.73098" lon="-3.2742">
        <ele>47.24</ele>
        <time>2013-11-24T13:50:54Z</time>
      </trkpt>
      <trkpt lat="48.73099" lon="-3.27422">
        <ele>46.76</ele>
        <time>2013-11-24T13:50:56Z</time>
      </trkpt>
      <trkpt lat="48.73097" lon="-3.27423">
        <ele>46.76</ele>
        <time>2013-11-24T13:50:58Z</time>
      </trkpt>
      <trkpt lat="48.73094" lon="-3.27426">
        <ele>46.76</ele>
        <time>2013-11-24T13:51:00Z</time>
      </trkpt>
      <trkpt lat="48.73092" lon="-3.27428">
        <ele>46.76</ele>
        <time>2013-11-24T13:51:02Z</time>
      </trkpt>
      <trkpt lat="48.73091" lon="-3.27429">
        <ele>46.76</ele>
        <time>2013-11-24T13:51:04Z</time>
      </trkpt>
      <trkpt lat="48.73089" lon="-3.27431">
        <ele>46.76</ele>
        <time>2013-11-24T13:51:06Z</time>
      </trkpt>
      <trkpt lat="48.73088" lon="-3.27432">
        <ele>46.76</ele>
        <time>2013-11-24T13:51:08Z</time>
      </trkpt>
      <trkpt lat="48.73085" lon="-3.27433">
        <ele>46.76</ele>
        <time>2013-11-24T13:51:10Z</time>
      </trkpt>
      <trkpt lat="48.73083" lon="-3.27434">
        <ele>46.76</ele>
        <time>2013-11-24T13:51:12Z</time>
      </trkpt>
      <trkpt lat="48.73081" lon="-3.27436">
        <ele>46.76</ele>
        <time>2013-11-24T13:51:14Z</time>
      </trkpt>
      <trkpt lat="48.73079" lon="-3.27436">
        <ele>46.28</ele>
        <time>2013-11-24T13:51:16Z</time>
      </trkpt>
      <trkpt lat="48.73077" lon="-3.27437">
        <ele>46.28</ele>
        <time>2013-11-24T13:51:18Z</time>
      </trkpt>
      <trkpt lat="48.73075" lon="-3.27438">
        <ele>45.32</ele>
        <time>2013-11-24T13:51:20Z</time>
      </trkpt>
      <trkpt lat="48.73074" lon="-3.27439">
        <ele>45.32</ele>
        <time>2013-11-24T13:51:22Z</time>
      </trkpt>
      <trkpt lat="48.73072" lon="-3.2744">
        <ele>45.32</ele>
        <time>2013-11-24T13:51:24Z</time>
      </trkpt>
      <trkpt lat="48.7307" lon="-3.2744">
        <ele>45.32</ele>
        <time>2013-11-24T13:51:26Z</time>
      </trkpt>
      <trkpt lat="48.7307" lon="-3.27438">
        <ele>44.84</ele>
        <time>2013-11-24T13:51:28Z</time>
      </trkpt>
      <trkpt lat="48.73069" lon="-3.27437">
        <ele>44.84</ele>
        <time>2013-11-24T13:51:30Z</time>
      </trkpt>
      <trkpt lat="48.73069" lon="-3.27437">
        <ele>44.84</ele>
        <time>2013-11-24T13:51:32Z</time>
      </trkpt>
      <trkpt lat="48.73066" lon="-3.27437">
        <ele>44.84</ele>
        <time>2013-11-24T13:51:34Z</time>
      </trkpt>
      <trkpt lat="48.73065" lon="-3.27437">
        <ele>44.84</ele>
        <time>2013-11-24T13:51:36Z</time>
      </trkpt>
      <trkpt lat="48.73063" lon="-3.27437">
        <ele>44.84</ele>
        <time>2013-11-24T13:51:38Z</time>
      </trkpt>
      <trkpt lat="48.73061" lon="-3.27438">
        <ele>44.84</ele>
        <time>2013-11-24T13:51:40Z</time>
      </trkpt>
      <trkpt lat="48.73059" lon="-3.27437">
        <ele>44.84</ele>
        <time>2013-11-24T13:51:42Z</time>
      </trkpt>
      <trkpt lat="48.73058" lon="-3.27437">
        <ele>44.84</ele>
        <time>2013-11-24T13:51:44Z</time>
      </trkpt>
      <trkpt lat="48.73056" lon="-3.27436">
        <ele>44.84</ele>
        <time>2013-11-24T13:51:46Z</time>
      </trkpt>
      <trkpt lat="48.73055" lon="-3.27437">
        <ele>44.36</ele>
        <time>2013-11-24T13:51:48Z</time>
      </trkpt>
      <trkpt lat="48.73053" lon="-3.27437">
        <ele>44.36</ele>
        <time>2013-11-24T13:51:50Z</time>
      </trkpt>
      <trkpt lat="48.73052" lon="-3.27437">
        <ele>44.36</ele>
        <time>2013-11-24T13:51:52Z</time>
      </trkpt>
      <trkpt lat="48.73051" lon="-3.27437">
        <ele>44.36</ele>
        <time>2013-11-24T13:51:54Z</time>
      </trkpt>
      <trkpt lat="48.7305" lon="-3.27436">
        <ele>44.36</ele>
        <time>2013-11-24T13:51:56Z</time>
      </trkpt>
      <trkpt lat="48.73048" lon="-3.27436">
        <ele>44.36</ele>
        <time>2013-11-24T13:51:58Z</time>
      </trkpt>
      <trkpt lat="48.73046" lon="-3.27435">
        <ele>44.36</ele>
        <time>2013-11-24T13:52:00Z</time>
      </trkpt>
      <trkpt lat="48.73044" lon="-3.27435">
        <ele>44.36</ele>
        <time>2013-11-24T13:52:02Z</time>
      </trkpt>
      <trkpt lat="48.73042" lon="-3.27435">
        <ele>44.36</ele>
        <time>2013-11-24T13:52:04Z</time>
      </trkpt>
      <trkpt lat="48.7304" lon="-3.27435">
        <ele>43.88</ele>
        <time>2013-11-24T13:52:06Z</time>
      </trkpt>
      <trkpt lat="48.73038" lon="-3.27435">
        <ele>43.88</ele>
        <time>2013-11-24T13:52:08Z</time>
      </trkpt>
      <trkpt lat="48.73036" lon="-3.27435">
        <ele>43.88</ele>
        <time>2013-11-24T13:52:10Z</time>
      </trkpt>
      <trkpt lat="48.73035" lon="-3.27436">
        <ele>43.88</ele>
        <time>2013-11-24T13:52:12Z</time>
      </trkpt>
      <trkpt lat="48.73035" lon="-3.27435">
        <ele>43.88</ele>
        <time>2013-11-24T13:52:14Z</time>
      </trkpt>
      <trkpt lat="48.73034" lon="-3.27436">
        <ele>43.4</ele>
        <time>2013-11-24T13:52:16Z</time>
      </trkpt>
      <trkpt lat="48.73033" lon="-3.27437">
        <ele>43.4</ele>
        <time>2013-11-24T13:52:18Z</time>
      </trkpt>
      <trkpt lat="48.73031" lon="-3.27439">
        <ele>43.4</ele>
        <time>2013-11-24T13:52:20Z</time>
      </trkpt>
      <trkpt lat="48.73029" lon="-3.2744">
        <ele>43.4</ele>
        <time>2013-11-24T13:52:22Z</time>
      </trkpt>
      <trkpt lat="48.73027" lon="-3.27441">
        <ele>43.4</ele>
        <time>2013-11-24T13:52:24Z</time>
      </trkpt>
      <trkpt lat="48.73026" lon="-3.27443">
        <ele>43.4</ele>
        <time>2013-11-24T13:52:26Z</time>
      </trkpt>
      <trkpt lat="48.73024" lon="-3.27445">
        <ele>43.4</ele>
        <time>2013-11-24T13:52:28Z</time>
      </trkpt>
      <trkpt lat="48.73023" lon="-3.27446">
        <ele>42.92</ele>
        <time>2013-11-24T13:52:30Z</time>
      </trkpt>
      <trkpt lat="48.73021" lon="-3.27448">
        <ele>42.92</ele>
        <time>2013-11-24T13:52:32Z</time>
      </trkpt>
      <trkpt lat="48.73019" lon="-3.2745">
        <ele>42.92</ele>
        <time>2013-11-24T13:52:34Z</time>
      </trkpt>
      <trkpt lat="48.73017" lon="-3.27451">
        <ele>42.92</ele>
        <time>2013-11-24T13:52:36Z</time>
      </trkpt>
      <trkpt lat="48.73015" lon="-3.27452">
        <ele>42.92</ele>
        <time>2013-11-24T13:52:38Z</time>
      </trkpt>
      <trkpt lat="48.73013" lon="-3.27453">
        <ele>42.92</ele>
        <time>2013-11-24T13:52:40Z</time>
      </trkpt>
      <trkpt lat="48.73011" lon="-3.27455">
        <ele>42.92</ele>
        <time>2013-11-24T13:52:42Z</time>
      </trkpt>
      <trkpt lat="48.73009" lon="-3.27457">
        <ele>42.92</ele>
        <time>2013-11-24T13:52:44Z</time>
      </trkpt>
      <trkpt lat="48.73007" lon="-3.27458">
        <ele>42.92</ele>
        <time>2013-11-24T13:52:46Z</time>
      </trkpt>
      <trkpt lat="48.73006" lon="-3.2746">
        <ele>42.92</ele>
        <time>2013-11-24T13:52:48Z</time>
      </trkpt>
      <trkpt lat="48.73004" lon="-3.27462">
        <ele>42.92</ele>
        <time>2013-11-24T13:52:50Z</time>
      </trkpt>
      <trkpt lat="48.73002" lon="-3.27465">
        <ele>42.92</ele>
        <time>2013-11-24T13:52:52Z</time>
      </trkpt>
      <trkpt lat="48.73" lon="-3.27468">
        <ele>42.44</ele>
        <time>2013-11-24T13:52:54Z</time>
      </trkpt>
      <trkpt lat="48.72998" lon="-3.27471">
        <ele>42.44</ele>
        <time>2013-11-24T13:52:56Z</time>
      </trkpt>
      <trkpt lat="48.72995" lon="-3.27473">
        <ele>42.92</ele>
        <time>2013-11-24T13:52:58Z</time>
      </trkpt>
      <trkpt lat="48.72994" lon="-3.27475">
        <ele>42.44</ele>
        <time>2013-11-24T13:53:00Z</time>
      </trkpt>
      <trkpt lat="48.72992" lon="-3.27476">
        <ele>42.44</ele>
        <time>2013-11-24T13:53:02Z</time>
      </trkpt>
      <trkpt lat="48.72989" lon="-3.27477">
        <ele>42.44</ele>
        <time>2013-11-24T13:53:04Z</time>
      </trkpt>
      <trkpt lat="48.72988" lon="-3.27477">
        <ele>42.44</ele>
        <time>2013-11-24T13:53:06Z</time>
      </trkpt>
      <trkpt lat="48.72986" lon="-3.27478">
        <ele>42.44</ele>
        <time>2013-11-24T13:53:08Z</time>
      </trkpt>
      <trkpt lat="48.72984" lon="-3.27479">
        <ele>42.44</ele>
        <time>2013-11-24T13:53:10Z</time>
      </trkpt>
      <trkpt lat="48.72982" lon="-3.27479">
        <ele>42.44</ele>
        <time>2013-11-24T13:53:12Z</time>
      </trkpt>
      <trkpt lat="48.72979" lon="-3.2748">
        <ele>42.44</ele>
        <time>2013-11-24T13:53:14Z</time>
      </trkpt>
      <trkpt lat="48.72976" lon="-3.2748">
        <ele>41.95</ele>
        <time>2013-11-24T13:53:16Z</time>
      </trkpt>
      <trkpt lat="48.72974" lon="-3.27479">
        <ele>41.95</ele>
        <time>2013-11-24T13:53:18Z</time>
      </trkpt>
      <trkpt lat="48.72972" lon="-3.27479">
        <ele>41.95</ele>
        <time>2013-11-24T13:53:20Z</time>
      </trkpt>
      <trkpt lat="48.72971" lon="-3.27479">
        <ele>41.95</ele>
        <time>2013-11-24T13:53:21Z</time>
      </trkpt>
      <trkpt lat="48.7297" lon="-3.27479">
        <ele>41.95</ele>
        <time>2013-11-24T13:53:24Z</time>
      </trkpt>
      <trkpt lat="48.72968" lon="-3.27479">
        <ele>41.95</ele>
        <time>2013-11-24T13:53:26Z</time>
      </trkpt>
      <trkpt lat="48.72966" lon="-3.27479">
        <ele>41.95</ele>
        <time>2013-11-24T13:53:28Z</time>
      </trkpt>
      <trkpt lat="48.72963" lon="-3.27479">
        <ele>41.95</ele>
        <time>2013-11-24T13:53:30Z</time>
      </trkpt>
      <trkpt lat="48.72962" lon="-3.27479">
        <ele>41.95</ele>
        <time>2013-11-24T13:53:32Z</time>
      </trkpt>
      <trkpt lat="48.7296" lon="-3.27479">
        <ele>41.95</ele>
        <time>2013-11-24T13:53:34Z</time>
      </trkpt>
      <trkpt lat="48.72958" lon="-3.27479">
        <ele>41.47</ele>
        <time>2013-11-24T13:53:36Z</time>
      </trkpt>
      <trkpt lat="48.72956" lon="-3.27479">
        <ele>41.47</ele>
        <time>2013-11-24T13:53:38Z</time>
      </trkpt>
      <trkpt lat="48.72954" lon="-3.27478">
        <ele>41.47</ele>
        <time>2013-11-24T13:53:40Z</time>
      </trkpt>
      <trkpt lat="48.72953" lon="-3.27477">
        <ele>41.47</ele>
        <time>2013-11-24T13:53:42Z</time>
      </trkpt>
      <trkpt lat="48.72951" lon="-3.27476">
        <ele>41.47</ele>
        <time>2013-11-24T13:53:44Z</time>
      </trkpt>
      <trkpt lat="48.72951" lon="-3.27475">
        <ele>41.47</ele>
        <time>2013-11-24T13:53:45Z</time>
      </trkpt>
      <trkpt lat="48.7295" lon="-3.27474">
        <ele>41.47</ele>
        <time>2013-11-24T13:53:47Z</time>
      </trkpt>
      <trkpt lat="48.72948" lon="-3.27472">
        <ele>41.47</ele>
        <time>2013-11-24T13:53:50Z</time>
      </trkpt>
      <trkpt lat="48.72947" lon="-3.27471">
        <ele>41.47</ele>
        <time>2013-11-24T13:53:52Z</time>
      </trkpt>
      <trkpt lat="48.72946" lon="-3.2747">
        <ele>40.99</ele>
        <time>2013-11-24T13:53:53Z</time>
      </trkpt>
      <trkpt lat="48.72944" lon="-3.2747">
        <ele>40.99</ele>
        <time>2013-11-24T13:53:55Z</time>
      </trkpt>
      <trkpt lat="48.72943" lon="-3.27469">
        <ele>42.44</ele>
        <time>2013-11-24T13:53:57Z</time>
      </trkpt>
      <trkpt lat="48.72942" lon="-3.27468">
        <ele>42.44</ele>
        <time>2013-11-24T13:53:59Z</time>
      </trkpt>
      <trkpt lat="48.7294" lon="-3.27467">
        <ele>42.44</ele>
        <time>2013-11-24T13:54:01Z</time>
      </trkpt>
      <trkpt lat="48.72939" lon="-3.27466">
        <ele>41.95</ele>
        <time>2013-11-24T13:54:03Z</time>
      </trkpt>
      <trkpt lat="48.72937" lon="-3.27466">
        <ele>41.95</ele>
        <time>2013-11-24T13:54:05Z</time>
      </trkpt>
      <trkpt lat="48.72936" lon="-3.27466">
        <ele>41.95</ele>
        <time>2013-11-24T13:54:07Z</time>
      </trkpt>
      <trkpt lat="48.72934" lon="-3.27465">
        <ele>41.95</ele>
        <time>2013-11-24T13:54:09Z</time>
      </trkpt>
      <trkpt lat="48.72933" lon="-3.27464">
        <ele>41.95</ele>
        <time>2013-11-24T13:54:11Z</time>
      </trkpt>
      <trkpt lat="48.72932" lon="-3.27464">
        <ele>41.95</ele>
        <time>2013-11-24T13:54:12Z</time>
      </trkpt>
      <trkpt lat="48.72929" lon="-3.27463">
        <ele>41.95</ele>
        <time>2013-11-24T13:54:14Z</time>
      </trkpt>
      <trkpt lat="48.72927" lon="-3.27462">
        <ele>42.44</ele>
        <time>2013-11-24T13:54:16Z</time>
      </trkpt>
      <trkpt lat="48.72923" lon="-3.2746">
        <ele>42.44</ele>
        <time>2013-11-24T13:54:19Z</time>
      </trkpt>
      <trkpt lat="48.7292" lon="-3.27459">
        <ele>41.95</ele>
        <time>2013-11-24T13:54:21Z</time>
      </trkpt>
      <trkpt lat="48.72918" lon="-3.27459">
        <ele>41.95</ele>
        <time>2013-11-24T13:54:23Z</time>
      </trkpt>
      <trkpt lat="48.72914" lon="-3.27459">
        <ele>41.95</ele>
        <time>2013-11-24T13:54:25Z</time>
      </trkpt>
      <trkpt lat="48.72911" lon="-3.2746">
        <ele>41.95</ele>
        <time>2013-11-24T13:54:27Z</time>
      </trkpt>
      <trkpt lat="48.72909" lon="-3.2746">
        <ele>41.95</ele>
        <time>2013-11-24T13:54:29Z</time>
      </trkpt>
      <trkpt lat="48.72906" lon="-3.2746">
        <ele>41.95</ele>
        <time>2013-11-24T13:54:31Z</time>
      </trkpt>
      <trkpt lat="48.72904" lon="-3.27461">
        <ele>41.95</ele>
        <time>2013-11-24T13:54:33Z</time>
      </trkpt>
      <trkpt lat="48.72903" lon="-3.27462">
        <ele>41.95</ele>
        <time>2013-11-24T13:54:35Z</time>
      </trkpt>
      <trkpt lat="48.72901" lon="-3.27463">
        <ele>41.95</ele>
        <time>2013-11-24T13:54:37Z</time>
      </trkpt>
      <trkpt lat="48.729" lon="-3.27464">
        <ele>41.47</ele>
        <time>2013-11-24T13:54:38Z</time>
      </trkpt>
      <trkpt lat="48.72899" lon="-3.27464">
        <ele>41.47</ele>
        <time>2013-11-24T13:54:40Z</time>
      </trkpt>
      <trkpt lat="48.72897" lon="-3.27465">
        <ele>41.47</ele>
        <time>2013-11-24T13:54:42Z</time>
      </trkpt>
      <trkpt lat="48.72894" lon="-3.27466">
        <ele>41.47</ele>
        <time>2013-11-24T13:54:44Z</time>
      </trkpt>
      <trkpt lat="48.72891" lon="-3.27467">
        <ele>41.47</ele>
        <time>2013-11-24T13:54:46Z</time>
      </trkpt>
      <trkpt lat="48.7289" lon="-3.27468">
        <ele>41.47</ele>
        <time>2013-11-24T13:54:48Z</time>
      </trkpt>
      <trkpt lat="48.72889" lon="-3.2747">
        <ele>41.47</ele>
        <time>2013-11-24T13:54:50Z</time>
      </trkpt>
      <trkpt lat="48.72887" lon="-3.27471">
        <ele>41.95</ele>
        <time>2013-11-24T13:54:52Z</time>
      </trkpt>
      <trkpt lat="48.72885" lon="-3.27472">
        <ele>41.95</ele>
        <time>2013-11-24T13:54:54Z</time>
      </trkpt>
      <trkpt lat="48.72883" lon="-3.27474">
        <ele>41.47</ele>
        <time>2013-11-24T13:54:56Z</time>
      </trkpt>
      <trkpt lat="48.72881" lon="-3.27476">
        <ele>41.47</ele>
        <time>2013-11-24T13:54:58Z</time>
      </trkpt>
      <trkpt lat="48.7288" lon="-3.27476">
        <ele>41.47</ele>
        <time>2013-11-24T13:54:59Z</time>
      </trkpt>
      <trkpt lat="48.72879" lon="-3.27478">
        <ele>41.47</ele>
        <time>2013-11-24T13:55:01Z</time>
      </trkpt>
      <trkpt lat="48.72877" lon="-3.27481">
        <ele>41.47</ele>
        <time>2013-11-24T13:55:04Z</time>
      </trkpt>
      <trkpt lat="48.72876" lon="-3.27481">
        <ele>41.47</ele>
        <time>2013-11-24T13:55:05Z</time>
      </trkpt>
      <trkpt lat="48.72875" lon="-3.27482">
        <ele>41.47</ele>
        <time>2013-11-24T13:55:07Z</time>
      </trkpt>
      <trkpt lat="48.72873" lon="-3.27483">
        <ele>41.47</ele>
        <time>2013-11-24T13:55:09Z</time>
      </trkpt>
      <trkpt lat="48.72871" lon="-3.27484">
        <ele>41.47</ele>
        <time>2013-11-24T13:55:11Z</time>
      </trkpt>
      <trkpt lat="48.72867" lon="-3.27486">
        <ele>41.47</ele>
        <time>2013-11-24T13:55:13Z</time>
      </trkpt>
      <trkpt lat="48.72864" lon="-3.27488">
        <ele>41.47</ele>
        <time>2013-11-24T13:55:15Z</time>
      </trkpt>
      <trkpt lat="48.72861" lon="-3.2749">
        <ele>41.47</ele>
        <time>2013-11-24T13:55:17Z</time>
      </trkpt>
      <trkpt lat="48.72857" lon="-3.27492">
        <ele>41.47</ele>
        <time>2013-11-24T13:55:19Z</time>
      </trkpt>
      <trkpt lat="48.72854" lon="-3.27493">
        <ele>41.47</ele>
        <time>2013-11-24T13:55:21Z</time>
      </trkpt>
      <trkpt lat="48.72852" lon="-3.27494">
        <ele>41.95</ele>
        <time>2013-11-24T13:55:23Z</time>
      </trkpt>
      <trkpt lat="48.72849" lon="-3.27496">
        <ele>41.47</ele>
        <time>2013-11-24T13:55:25Z</time>
      </trkpt>
      <trkpt lat="48.72847" lon="-3.27495">
        <ele>41.47</ele>
        <time>2013-11-24T13:55:27Z</time>
      </trkpt>
      <trkpt lat="48.72845" lon="-3.27496">
        <ele>41.47</ele>
        <time>2013-11-24T13:55:29Z</time>
      </trkpt>
      <trkpt lat="48.72843" lon="-3.27497">
        <ele>41.47</ele>
        <time>2013-11-24T13:55:31Z</time>
      </trkpt>
      <trkpt lat="48.72842" lon="-3.27496">
        <ele>41.47</ele>
        <time>2013-11-24T13:55:33Z</time>
      </trkpt>
      <trkpt lat="48.72841" lon="-3.27497">
        <ele>41.47</ele>
        <time>2013-11-24T13:55:35Z</time>
      </trkpt>
      <trkpt lat="48.72841" lon="-3.27498">
        <ele>41.47</ele>
        <time>2013-11-24T13:55:37Z</time>
      </trkpt>
      <trkpt lat="48.7284" lon="-3.27498">
        <ele>41.47</ele>
        <time>2013-11-24T13:55:39Z</time>
      </trkpt>
      <trkpt lat="48.72838" lon="-3.27497">
        <ele>41.47</ele>
        <time>2013-11-24T13:55:41Z</time>
      </trkpt>
      <trkpt lat="48.72836" lon="-3.27497">
        <ele>41.47</ele>
        <time>2013-11-24T13:55:43Z</time>
      </trkpt>
      <trkpt lat="48.72834" lon="-3.27497">
        <ele>41.47</ele>
        <time>2013-11-24T13:55:45Z</time>
      </trkpt>
      <trkpt lat="48.72833" lon="-3.27496">
        <ele>41.47</ele>
        <time>2013-11-24T13:55:47Z</time>
      </trkpt>
      <trkpt lat="48.72832" lon="-3.27496">
        <ele>41.47</ele>
        <time>2013-11-24T13:55:49Z</time>
      </trkpt>
      <trkpt lat="48.72831" lon="-3.27495">
        <ele>41.95</ele>
        <time>2013-11-24T13:55:51Z</time>
      </trkpt>
      <trkpt lat="48.72829" lon="-3.27495">
        <ele>41.95</ele>
        <time>2013-11-24T13:55:53Z</time>
      </trkpt>
      <trkpt lat="48.72828" lon="-3.27495">
        <ele>41.47</ele>
        <time>2013-11-24T13:55:55Z</time>
      </trkpt>
      <trkpt lat="48.72828" lon="-3.27494">
        <ele>41.47</ele>
        <time>2013-11-24T13:55:57Z</time>
      </trkpt>
      <trkpt lat="48.72826" lon="-3.27495">
        <ele>41.47</ele>
        <time>2013-11-24T13:55:59Z</time>
      </trkpt>
      <trkpt lat="48.72825" lon="-3.27495">
        <ele>41.47</ele>
        <time>2013-11-24T13:56:01Z</time>
      </trkpt>
      <trkpt lat="48.72823" lon="-3.27496">
        <ele>41.47</ele>
        <time>2013-11-24T13:56:03Z</time>
      </trkpt>
      <trkpt lat="48.7282" lon="-3.27496">
        <ele>41.47</ele>
        <time>2013-11-24T13:56:05Z</time>
      </trkpt>
      <trkpt lat="48.72818" lon="-3.27497">
        <ele>41.95</ele>
        <time>2013-11-24T13:56:07Z</time>
      </trkpt>
      <trkpt lat="48.72816" lon="-3.27498">
        <ele>41.95</ele>
        <time>2013-11-24T13:56:09Z</time>
      </trkpt>
      <trkpt lat="48.72814" lon="-3.27498">
        <ele>41.47</ele>
        <time>2013-11-24T13:56:11Z</time>
      </trkpt>
      <trkpt lat="48.72811" lon="-3.27498">
        <ele>41.47</ele>
        <time>2013-11-24T13:56:13Z</time>
      </trkpt>
      <trkpt lat="48.72809" lon="-3.27498">
        <ele>41.47</ele>
        <time>2013-11-24T13:56:15Z</time>
      </trkpt>
      <trkpt lat="48.72807" lon="-3.27498">
        <ele>41.47</ele>
        <time>2013-11-24T13:56:17Z</time>
      </trkpt>
      <trkpt lat="48.72805" lon="-3.27497">
        <ele>41.47</ele>
        <time>2013-11-24T13:56:19Z</time>
      </trkpt>
      <trkpt lat="48.72804" lon="-3.27497">
        <ele>41.47</ele>
        <time>2013-11-24T13:56:21Z</time>
      </trkpt>
      <trkpt lat="48.72802" lon="-3.27497">
        <ele>41.47</ele>
        <time>2013-11-24T13:56:23Z</time>
      </trkpt>
      <trkpt lat="48.728" lon="-3.27497">
        <ele>41.47</ele>
        <time>2013-11-24T13:56:25Z</time>
      </trkpt>
      <trkpt lat="48.72799" lon="-3.27498">
        <ele>41.95</ele>
        <time>2013-11-24T13:56:27Z</time>
      </trkpt>
      <trkpt lat="48.72797" lon="-3.27499">
        <ele>41.47</ele>
        <time>2013-11-24T13:56:29Z</time>
      </trkpt>
      <trkpt lat="48.72794" lon="-3.27499">
        <ele>41.47</ele>
        <time>2013-11-24T13:56:31Z</time>
      </trkpt>
      <trkpt lat="48.72793" lon="-3.27498">
        <ele>41.47</ele>
        <time>2013-11-24T13:56:33Z</time>
      </trkpt>
      <trkpt lat="48.7279" lon="-3.27497">
        <ele>41.47</ele>
        <time>2013-11-24T13:56:35Z</time>
      </trkpt>
      <trkpt lat="48.72789" lon="-3.27496">
        <ele>41.95</ele>
        <time>2013-11-24T13:56:37Z</time>
      </trkpt>
      <trkpt lat="48.72787" lon="-3.27497">
        <ele>41.95</ele>
        <time>2013-11-24T13:56:39Z</time>
      </trkpt>
      <trkpt lat="48.72784" lon="-3.27496">
        <ele>41.95</ele>
        <time>2013-11-24T13:56:41Z</time>
      </trkpt>
      <trkpt lat="48.72782" lon="-3.27496">
        <ele>41.95</ele>
        <time>2013-11-24T13:56:43Z</time>
      </trkpt>
      <trkpt lat="48.7278" lon="-3.27495">
        <ele>41.47</ele>
        <time>2013-11-24T13:56:45Z</time>
      </trkpt>
      <trkpt lat="48.72778" lon="-3.27495">
        <ele>41.47</ele>
        <time>2013-11-24T13:56:47Z</time>
      </trkpt>
      <trkpt lat="48.72776" lon="-3.27495">
        <ele>41.47</ele>
        <time>2013-11-24T13:56:49Z</time>
      </trkpt>
      <trkpt lat="48.72774" lon="-3.27496">
        <ele>41.47</ele>
        <time>2013-11-24T13:56:51Z</time>
      </trkpt>
      <trkpt lat="48.72772" lon="-3.27498">
        <ele>41.95</ele>
        <time>2013-11-24T13:56:53Z</time>
      </trkpt>
      <trkpt lat="48.72771" lon="-3.275">
        <ele>41.95</ele>
        <time>2013-11-24T13:56:55Z</time>
      </trkpt>
      <trkpt lat="48.7277" lon="-3.27503">
        <ele>41.95</ele>
        <time>2013-11-24T13:56:57Z</time>
      </trkpt>
      <trkpt lat="48.72768" lon="-3.27505">
        <ele>41.95</ele>
        <time>2013-11-24T13:56:59Z</time>
      </trkpt>
      <trkpt lat="48.72767" lon="-3.27508">
        <ele>41.47</ele>
        <time>2013-11-24T13:57:01Z</time>
      </trkpt>
      <trkpt lat="48.72765" lon="-3.2751">
        <ele>41.47</ele>
        <time>2013-11-24T13:57:03Z</time>
      </trkpt>
      <trkpt lat="48.72764" lon="-3.27513">
        <ele>41.47</ele>
        <time>2013-11-24T13:57:05Z</time>
      </trkpt>
      <trkpt lat="48.72763" lon="-3.27516">
        <ele>41.47</ele>
        <time>2013-11-24T13:57:07Z</time>
      </trkpt>
      <trkpt lat="48.72762" lon="-3.2752">
        <ele>41.47</ele>
        <time>2013-11-24T13:57:09Z</time>
      </trkpt>
      <trkpt lat="48.7276" lon="-3.27523">
        <ele>41.47</ele>
        <time>2013-11-24T13:57:11Z</time>
      </trkpt>
      <trkpt lat="48.72759" lon="-3.27526">
        <ele>41.47</ele>
        <time>2013-11-24T13:57:13Z</time>
      </trkpt>
      <trkpt lat="48.72758" lon="-3.27529">
        <ele>41.47</ele>
        <time>2013-11-24T13:57:14Z</time>
      </trkpt>
      <trkpt lat="48.72756" lon="-3.27532">
        <ele>41.47</ele>
        <time>2013-11-24T13:57:16Z</time>
      </trkpt>
      <trkpt lat="48.72755" lon="-3.27536">
        <ele>41.47</ele>
        <time>2013-11-24T13:57:18Z</time>
      </trkpt>
      <trkpt lat="48.72753" lon="-3.27539">
        <ele>41.47</ele>
        <time>2013-11-24T13:57:20Z</time>
      </trkpt>
      <trkpt lat="48.72752" lon="-3.27542">
        <ele>41.47</ele>
        <time>2013-11-24T13:57:22Z</time>
      </trkpt>
      <trkpt lat="48.7275" lon="-3.27544">
        <ele>41.47</ele>
        <time>2013-11-24T13:57:24Z</time>
      </trkpt>
      <trkpt lat="48.72748" lon="-3.27545">
        <ele>41.47</ele>
        <time>2013-11-24T13:57:26Z</time>
      </trkpt>
      <trkpt lat="48.72745" lon="-3.27546">
        <ele>41.47</ele>
        <time>2013-11-24T13:57:28Z</time>
      </trkpt>
      <trkpt lat="48.72744" lon="-3.27547">
        <ele>41.47</ele>
        <time>2013-11-24T13:57:30Z</time>
      </trkpt>
      <trkpt lat="48.72742" lon="-3.27548">
        <ele>41.47</ele>
        <time>2013-11-24T13:57:32Z</time>
      </trkpt>
      <trkpt lat="48.7274" lon="-3.27547">
        <ele>41.95</ele>
        <time>2013-11-24T13:57:34Z</time>
      </trkpt>
      <trkpt lat="48.72738" lon="-3.27546">
        <ele>41.47</ele>
        <time>2013-11-24T13:57:36Z</time>
      </trkpt>
      <trkpt lat="48.72737" lon="-3.27546">
        <ele>41.47</ele>
        <time>2013-11-24T13:57:38Z</time>
      </trkpt>
      <trkpt lat="48.72735" lon="-3.27546">
        <ele>41.47</ele>
        <time>2013-11-24T13:57:40Z</time>
      </trkpt>
      <trkpt lat="48.72733" lon="-3.27545">
        <ele>41.47</ele>
        <time>2013-11-24T13:57:42Z</time>
      </trkpt>
      <trkpt lat="48.72731" lon="-3.27545">
        <ele>41.47</ele>
        <time>2013-11-24T13:57:44Z</time>
      </trkpt>
      <trkpt lat="48.7273" lon="-3.27544">
        <ele>41.47</ele>
        <time>2013-11-24T13:57:46Z</time>
      </trkpt>
      <trkpt lat="48.72729" lon="-3.27544">
        <ele>41.47</ele>
        <time>2013-11-24T13:57:48Z</time>
      </trkpt>
      <trkpt lat="48.72727" lon="-3.27544">
        <ele>41.95</ele>
        <time>2013-11-24T13:57:50Z</time>
      </trkpt>
      <trkpt lat="48.72726" lon="-3.27544">
        <ele>41.47</ele>
        <time>2013-11-24T13:57:52Z</time>
      </trkpt>
      <trkpt lat="48.72725" lon="-3.27545">
        <ele>41.47</ele>
        <time>2013-11-24T13:57:54Z</time>
      </trkpt>
      <trkpt lat="48.72724" lon="-3.27545">
        <ele>41.47</ele>
        <time>2013-11-24T13:57:56Z</time>
      </trkpt>
      <trkpt lat="48.72724" lon="-3.27546">
        <ele>41.47</ele>
        <time>2013-11-24T13:57:58Z</time>
      </trkpt>
      <trkpt lat="48.72724" lon="-3.27548">
        <ele>41.47</ele>
        <time>2013-11-24T13:58:00Z</time>
      </trkpt>
      <trkpt lat="48.72724" lon="-3.27549">
        <ele>41.47</ele>
        <time>2013-11-24T13:58:02Z</time>
      </trkpt>
      <trkpt lat="48.72724" lon="-3.27552">
        <ele>41.47</ele>
        <time>2013-11-24T13:58:04Z</time>
      </trkpt>
      <trkpt lat="48.72723" lon="-3.27555">
        <ele>41.47</ele>
        <time>2013-11-24T13:58:06Z</time>
      </trkpt>
      <trkpt lat="48.72722" lon="-3.27557">
        <ele>41.47</ele>
        <time>2013-11-24T13:58:08Z</time>
      </trkpt>
      <trkpt lat="48.72722" lon="-3.27557">
        <ele>41.47</ele>
        <time>2013-11-24T13:58:10Z</time>
      </trkpt>
      <trkpt lat="48.72721" lon="-3.27558">
        <ele>41.47</ele>
        <time>2013-11-24T13:58:12Z</time>
      </trkpt>
      <trkpt lat="48.72721" lon="-3.27558">
        <ele>41.47</ele>
        <time>2013-11-24T13:58:14Z</time>
      </trkpt>
      <trkpt lat="48.72721" lon="-3.27559">
        <ele>41.47</ele>
        <time>2013-11-24T13:58:16Z</time>
      </trkpt>
      <trkpt lat="48.72721" lon="-3.2756">
        <ele>41.47</ele>
        <time>2013-11-24T13:58:18Z</time>
      </trkpt>
      <trkpt lat="48.72721" lon="-3.2756">
        <ele>41.47</ele>
        <time>2013-11-24T13:58:20Z</time>
      </trkpt>
      <trkpt lat="48.7272" lon="-3.27561">
        <ele>41.47</ele>
        <time>2013-11-24T13:58:22Z</time>
      </trkpt>
      <trkpt lat="48.72719" lon="-3.27563">
        <ele>41.47</ele>
        <time>2013-11-24T13:58:24Z</time>
      </trkpt>
      <trkpt lat="48.72718" lon="-3.27564">
        <ele>41.47</ele>
        <time>2013-11-24T13:58:26Z</time>
      </trkpt>
      <trkpt lat="48.72718" lon="-3.27565">
        <ele>41.47</ele>
        <time>2013-11-24T13:58:28Z</time>
      </trkpt>
      <trkpt lat="48.72717" lon="-3.27567">
        <ele>41.47</ele>
        <time>2013-11-24T13:58:30Z</time>
      </trkpt>
      <trkpt lat="48.72715" lon="-3.27569">
        <ele>41.47</ele>
        <time>2013-11-24T13:58:32Z</time>
      </trkpt>
      <trkpt lat="48.72714" lon="-3.27571">
        <ele>41.47</ele>
        <time>2013-11-24T13:58:34Z</time>
      </trkpt>
      <trkpt lat="48.72712" lon="-3.27571">
        <ele>41.47</ele>
        <time>2013-11-24T13:58:36Z</time>
      </trkpt>
      <trkpt lat="48.7271" lon="-3.27574">
        <ele>41.47</ele>
        <time>2013-11-24T13:58:38Z</time>
      </trkpt>
      <trkpt lat="48.72709" lon="-3.27576">
        <ele>41.47</ele>
        <time>2013-11-24T13:58:40Z</time>
      </trkpt>
      <trkpt lat="48.72707" lon="-3.27578">
        <ele>41.47</ele>
        <time>2013-11-24T13:58:42Z</time>
      </trkpt>
      <trkpt lat="48.72705" lon="-3.2758">
        <ele>41.47</ele>
        <time>2013-11-24T13:58:44Z</time>
      </trkpt>
      <trkpt lat="48.72703" lon="-3.27582">
        <ele>41.47</ele>
        <time>2013-11-24T13:58:46Z</time>
      </trkpt>
      <trkpt lat="48.72702" lon="-3.27583">
        <ele>41.47</ele>
        <time>2013-11-24T13:58:48Z</time>
      </trkpt>
      <trkpt lat="48.72701" lon="-3.27584">
        <ele>41.47</ele>
        <time>2013-11-24T13:58:50Z</time>
      </trkpt>
      <trkpt lat="48.72699" lon="-3.27585">
        <ele>41.47</ele>
        <time>2013-11-24T13:58:52Z</time>
      </trkpt>
      <trkpt lat="48.72698" lon="-3.27584">
        <ele>41.47</ele>
        <time>2013-11-24T13:58:54Z</time>
      </trkpt>
      <trkpt lat="48.72697" lon="-3.27585">
        <ele>41.47</ele>
        <time>2013-11-24T13:58:56Z</time>
      </trkpt>
      <trkpt lat="48.72696" lon="-3.27587">
        <ele>41.47</ele>
        <time>2013-11-24T13:58:58Z</time>
      </trkpt>
      <trkpt lat="48.72695" lon="-3.27589">
        <ele>41.47</ele>
        <time>2013-11-24T13:59:00Z</time>
      </trkpt>
      <trkpt lat="48.72693" lon="-3.2759">
        <ele>41.47</ele>
        <time>2013-11-24T13:59:02Z</time>
      </trkpt>
      <trkpt lat="48.72691" lon="-3.27591">
        <ele>41.47</ele>
        <time>2013-11-24T13:59:04Z</time>
      </trkpt>
      <trkpt lat="48.72689" lon="-3.27592">
        <ele>41.47</ele>
        <time>2013-11-24T13:59:06Z</time>
      </trkpt>
      <trkpt lat="48.72687" lon="-3.27594">
        <ele>41.47</ele>
        <time>2013-11-24T13:59:08Z</time>
      </trkpt>
      <trkpt lat="48.72684" lon="-3.27595">
        <ele>41.47</ele>
        <time>2013-11-24T13:59:10Z</time>
      </trkpt>
      <trkpt lat="48.72682" lon="-3.27596">
        <ele>40.99</ele>
        <time>2013-11-24T13:59:12Z</time>
      </trkpt>
      <trkpt lat="48.7268" lon="-3.27597">
        <ele>41.47</ele>
        <time>2013-11-24T13:59:14Z</time>
      </trkpt>
      <trkpt lat="48.72678" lon="-3.27597">
        <ele>41.47</ele>
        <time>2013-11-24T13:59:16Z</time>
      </trkpt>
      <trkpt lat="48.72677" lon="-3.27597">
        <ele>41.47</ele>
        <time>2013-11-24T13:59:18Z</time>
      </trkpt>
      <trkpt lat="48.72675" lon="-3.27598">
        <ele>41.47</ele>
        <time>2013-11-24T13:59:20Z</time>
      </trkpt>
      <trkpt lat="48.72673" lon="-3.27597">
        <ele>41.47</ele>
        <time>2013-11-24T13:59:22Z</time>
      </trkpt>
      <trkpt lat="48.72672" lon="-3.27596">
        <ele>41.47</ele>
        <time>2013-11-24T13:59:24Z</time>
      </trkpt>
      <trkpt lat="48.7267" lon="-3.27596">
        <ele>41.47</ele>
        <time>2013-11-24T13:59:26Z</time>
      </trkpt>
      <trkpt lat="48.72668" lon="-3.27596">
        <ele>41.47</ele>
        <time>2013-11-24T13:59:28Z</time>
      </trkpt>
      <trkpt lat="48.72666" lon="-3.27597">
        <ele>40.99</ele>
        <time>2013-11-24T13:59:30Z</time>
      </trkpt>
      <trkpt lat="48.72665" lon="-3.27596">
        <ele>41.47</ele>
        <time>2013-11-24T13:59:32Z</time>
      </trkpt>
      <trkpt lat="48.72663" lon="-3.27597">
        <ele>41.47</ele>
        <time>2013-11-24T13:59:34Z</time>
      </trkpt>
      <trkpt lat="48.7266" lon="-3.27599">
        <ele>41.47</ele>
        <time>2013-11-24T13:59:36Z</time>
      </trkpt>
      <trkpt lat="48.72658" lon="-3.27601">
        <ele>41.47</ele>
        <time>2013-11-24T13:59:38Z</time>
      </trkpt>
      <trkpt lat="48.72655" lon="-3.27603">
        <ele>41.47</ele>
        <time>2013-11-24T13:59:40Z</time>
      </trkpt>
      <trkpt lat="48.72653" lon="-3.27603">
        <ele>41.47</ele>
        <time>2013-11-24T13:59:42Z</time>
      </trkpt>
      <trkpt lat="48.72649" lon="-3.27603">
        <ele>41.47</ele>
        <time>2013-11-24T13:59:44Z</time>
      </trkpt>
      <trkpt lat="48.72647" lon="-3.27602">
        <ele>40.99</ele>
        <time>2013-11-24T13:59:46Z</time>
      </trkpt>
      <trkpt lat="48.72647" lon="-3.27602">
        <ele>41.47</ele>
        <time>2013-11-24T13:59:48Z</time>
      </trkpt>
      <trkpt lat="48.72645" lon="-3.27603">
        <ele>41.47</ele>
        <time>2013-11-24T13:59:50Z</time>
      </trkpt>
      <trkpt lat="48.72644" lon="-3.27604">
        <ele>41.47</ele>
        <time>2013-11-24T13:59:52Z</time>
      </trkpt>
      <trkpt lat="48.7264" lon="-3.27606">
        <ele>41.47</ele>
        <time>2013-11-24T13:59:54Z</time>
      </trkpt>
      <trkpt lat="48.72638" lon="-3.27605">
        <ele>41.47</ele>
        <time>2013-11-24T13:59:56Z</time>
      </trkpt>
      <trkpt lat="48.72636" lon="-3.27606">
        <ele>41.47</ele>
        <time>2013-11-24T13:59:58Z</time>
      </trkpt>
      <trkpt lat="48.72634" lon="-3.27606">
        <ele>41.47</ele>
        <time>2013-11-24T14:00:00Z</time>
      </trkpt>
      <trkpt lat="48.72632" lon="-3.27607">
        <ele>40.99</ele>
        <time>2013-11-24T14:00:02Z</time>
      </trkpt>
      <trkpt lat="48.72628" lon="-3.27608">
        <ele>40.99</ele>
        <time>2013-11-24T14:00:04Z</time>
      </trkpt>
      <trkpt lat="48.72625" lon="-3.27609">
        <ele>40.99</ele>
        <time>2013-11-24T14:00:06Z</time>
      </trkpt>
      <trkpt lat="48.72622" lon="-3.27609">
        <ele>40.99</ele>
        <time>2013-11-24T14:00:08Z</time>
      </trkpt>
      <trkpt lat="48.7262" lon="-3.27609">
        <ele>40.99</ele>
        <time>2013-11-24T14:00:10Z</time>
      </trkpt>
      <trkpt lat="48.72618" lon="-3.2761">
        <ele>41.47</ele>
        <time>2013-11-24T14:00:12Z</time>
      </trkpt>
      <trkpt lat="48.72616" lon="-3.27611">
        <ele>40.99</ele>
        <time>2013-11-24T14:00:14Z</time>
      </trkpt>
      <trkpt lat="48.72614" lon="-3.27612">
        <ele>40.99</ele>
        <time>2013-11-24T14:00:16Z</time>
      </trkpt>
      <trkpt lat="48.72612" lon="-3.27612">
        <ele>40.99</ele>
        <time>2013-11-24T14:00:18Z</time>
      </trkpt>
      <trkpt lat="48.7261" lon="-3.27613">
        <ele>40.99</ele>
        <time>2013-11-24T14:00:20Z</time>
      </trkpt>
      <trkpt lat="48.72608" lon="-3.27615">
        <ele>40.99</ele>
        <time>2013-11-24T14:00:22Z</time>
      </trkpt>
      <trkpt lat="48.72607" lon="-3.27615">
        <ele>40.99</ele>
        <time>2013-11-24T14:00:24Z</time>
      </trkpt>
      <trkpt lat="48.72604" lon="-3.27614">
        <ele>40.99</ele>
        <time>2013-11-24T14:00:26Z</time>
      </trkpt>
      <trkpt lat="48.72602" lon="-3.27614">
        <ele>40.99</ele>
        <time>2013-11-24T14:00:28Z</time>
      </trkpt>
      <trkpt lat="48.726" lon="-3.27613">
        <ele>40.51</ele>
        <time>2013-11-24T14:00:30Z</time>
      </trkpt>
      <trkpt lat="48.72597" lon="-3.27611">
        <ele>40.99</ele>
        <time>2013-11-24T14:00:32Z</time>
      </trkpt>
      <trkpt lat="48.72595" lon="-3.27613">
        <ele>40.99</ele>
        <time>2013-11-24T14:00:34Z</time>
      </trkpt>
      <trkpt lat="48.72593" lon="-3.27613">
        <ele>40.99</ele>
        <time>2013-11-24T14:00:36Z</time>
      </trkpt>
      <trkpt lat="48.7259" lon="-3.27614">
        <ele>40.99</ele>
        <time>2013-11-24T14:00:38Z</time>
      </trkpt>
      <trkpt lat="48.72587" lon="-3.27611">
        <ele>40.99</ele>
        <time>2013-11-24T14:00:40Z</time>
      </trkpt>
      <trkpt lat="48.72584" lon="-3.27612">
        <ele>40.99</ele>
        <time>2013-11-24T14:00:42Z</time>
      </trkpt>
      <trkpt lat="48.72582" lon="-3.27614">
        <ele>40.99</ele>
        <time>2013-11-24T14:00:44Z</time>
      </trkpt>
      <trkpt lat="48.72581" lon="-3.27615">
        <ele>40.51</ele>
        <time>2013-11-24T14:00:46Z</time>
      </trkpt>
      <trkpt lat="48.72578" lon="-3.27615">
        <ele>40.51</ele>
        <time>2013-11-24T14:00:48Z</time>
      </trkpt>
      <trkpt lat="48.72575" lon="-3.27615">
        <ele>40.51</ele>
        <time>2013-11-24T14:00:50Z</time>
      </trkpt>
      <trkpt lat="48.72572" lon="-3.27614">
        <ele>40.51</ele>
        <time>2013-11-24T14:00:52Z</time>
      </trkpt>
      <trkpt lat="48.7257" lon="-3.27614">
        <ele>40.51</ele>
        <time>2013-11-24T14:00:54Z</time>
      </trkpt>
      <trkpt lat="48.72568" lon="-3.27614">
        <ele>40.99</ele>
        <time>2013-11-24T14:00:56Z</time>
      </trkpt>
      <trkpt lat="48.72566" lon="-3.27614">
        <ele>40.99</ele>
        <time>2013-11-24T14:00:58Z</time>
      </trkpt>
      <trkpt lat="48.72563" lon="-3.27614">
        <ele>40.99</ele>
        <time>2013-11-24T14:01:00Z</time>
      </trkpt>
      <trkpt lat="48.72561" lon="-3.27615">
        <ele>40.99</ele>
        <time>2013-11-24T14:01:02Z</time>
      </trkpt>
      <trkpt lat="48.72559" lon="-3.27615">
        <ele>40.51</ele>
        <time>2013-11-24T14:01:04Z</time>
      </trkpt>
      <trkpt lat="48.72557" lon="-3.27616">
        <ele>40.51</ele>
        <time>2013-11-24T14:01:06Z</time>
      </trkpt>
      <trkpt lat="48.72554" lon="-3.27615">
        <ele>40.51</ele>
        <time>2013-11-24T14:01:08Z</time>
      </trkpt>
      <trkpt lat="48.72553" lon="-3.27615">
        <ele>40.51</ele>
        <time>2013-11-24T14:01:10Z</time>
      </trkpt>
      <trkpt lat="48.72551" lon="-3.27617">
        <ele>40.51</ele>
        <time>2013-11-24T14:01:12Z</time>
      </trkpt>
      <trkpt lat="48.72549" lon="-3.27616">
        <ele>40.51</ele>
        <time>2013-11-24T14:01:14Z</time>
      </trkpt>
      <trkpt lat="48.72546" lon="-3.27617">
        <ele>40.51</ele>
        <time>2013-11-24T14:01:16Z</time>
      </trkpt>
      <trkpt lat="48.72544" lon="-3.27616">
        <ele>40.99</ele>
        <time>2013-11-24T14:01:18Z</time>
      </trkpt>
      <trkpt lat="48.72541" lon="-3.27617">
        <ele>40.99</ele>
        <time>2013-11-24T14:01:20Z</time>
      </trkpt>
      <trkpt lat="48.72539" lon="-3.27619">
        <ele>40.99</ele>
        <time>2013-11-24T14:01:22Z</time>
      </trkpt>
      <trkpt lat="48.72537" lon="-3.2762">
        <ele>40.99</ele>
        <time>2013-11-24T14:01:24Z</time>
      </trkpt>
      <trkpt lat="48.72534" lon="-3.27621">
        <ele>40.51</ele>
        <time>2013-11-24T14:01:26Z</time>
      </trkpt>
      <trkpt lat="48.72532" lon="-3.27622">
        <ele>40.51</ele>
        <time>2013-11-24T14:01:28Z</time>
      </trkpt>
      <trkpt lat="48.72531" lon="-3.27623">
        <ele>40.51</ele>
        <time>2013-11-24T14:01:30Z</time>
      </trkpt>
      <trkpt lat="48.7253" lon="-3.27624">
        <ele>40.51</ele>
        <time>2013-11-24T14:01:32Z</time>
      </trkpt>
      <trkpt lat="48.72527" lon="-3.27624">
        <ele>40.51</ele>
        <time>2013-11-24T14:01:34Z</time>
      </trkpt>
      <trkpt lat="48.72525" lon="-3.27625">
        <ele>40.99</ele>
        <time>2013-11-24T14:01:36Z</time>
      </trkpt>
      <trkpt lat="48.72522" lon="-3.27626">
        <ele>40.99</ele>
        <time>2013-11-24T14:01:38Z</time>
      </trkpt>
      <trkpt lat="48.72521" lon="-3.27627">
        <ele>40.99</ele>
        <time>2013-11-24T14:01:40Z</time>
      </trkpt>
      <trkpt lat="48.72517" lon="-3.27626">
        <ele>40.99</ele>
        <time>2013-11-24T14:01:42Z</time>
      </trkpt>
      <trkpt lat="48.72514" lon="-3.27627">
        <ele>40.51</ele>
        <time>2013-11-24T14:01:44Z</time>
      </trkpt>
      <trkpt lat="48.72512" lon="-3.27628">
        <ele>40.51</ele>
        <time>2013-11-24T14:01:46Z</time>
      </trkpt>
      <trkpt lat="48.72508" lon="-3.2763">
        <ele>40.51</ele>
        <time>2013-11-24T14:01:48Z</time>
      </trkpt>
      <trkpt lat="48.72505" lon="-3.27632">
        <ele>40.51</ele>
        <time>2013-11-24T14:01:50Z</time>
      </trkpt>
      <trkpt lat="48.72503" lon="-3.27634">
        <ele>40.51</ele>
        <time>2013-11-24T14:01:52Z</time>
      </trkpt>
      <trkpt lat="48.725" lon="-3.27636">
        <ele>40.51</ele>
        <time>2013-11-24T14:01:54Z</time>
      </trkpt>
      <trkpt lat="48.72497" lon="-3.27637">
        <ele>40.51</ele>
        <time>2013-11-24T14:01:56Z</time>
      </trkpt>
      <trkpt lat="48.72494" lon="-3.27637">
        <ele>40.51</ele>
        <time>2013-11-24T14:01:58Z</time>
      </trkpt>
      <trkpt lat="48.72492" lon="-3.27638">
        <ele>40.51</ele>
        <time>2013-11-24T14:02:00Z</time>
      </trkpt>
      <trkpt lat="48.7249" lon="-3.27638">
        <ele>40.51</ele>
        <time>2013-11-24T14:02:02Z</time>
      </trkpt>
      <trkpt lat="48.72488" lon="-3.27638">
        <ele>40.51</ele>
        <time>2013-11-24T14:02:04Z</time>
      </trkpt>
      <trkpt lat="48.72487" lon="-3.27637">
        <ele>40.03</ele>
        <time>2013-11-24T14:02:06Z</time>
      </trkpt>
      <trkpt lat="48.72484" lon="-3.27637">
        <ele>40.03</ele>
        <time>2013-11-24T14:02:08Z</time>
      </trkpt>
      <trkpt lat="48.72482" lon="-3.27639">
        <ele>40.03</ele>
        <time>2013-11-24T14:02:10Z</time>
      </trkpt>
      <trkpt lat="48.72479" lon="-3.27639">
        <ele>40.03</ele>
        <time>2013-11-24T14:02:12Z</time>
      </trkpt>
      <trkpt lat="48.72477" lon="-3.27639">
        <ele>40.03</ele>
        <time>2013-11-24T14:02:14Z</time>
      </trkpt>
      <trkpt lat="48.72474" lon="-3.27641">
        <ele>40.03</ele>
        <time>2013-11-24T14:02:16Z</time>
      </trkpt>
      <trkpt lat="48.72473" lon="-3.27642">
        <ele>40.03</ele>
        <time>2013-11-24T14:02:18Z</time>
      </trkpt>
      <trkpt lat="48.72472" lon="-3.27643">
        <ele>40.51</ele>
        <time>2013-11-24T14:02:20Z</time>
      </trkpt>
      <trkpt lat="48.72472" lon="-3.27642">
        <ele>40.03</ele>
        <time>2013-11-24T14:02:22Z</time>
      </trkpt>
      <trkpt lat="48.72471" lon="-3.27643">
        <ele>40.03</ele>
        <time>2013-11-24T14:02:24Z</time>
      </trkpt>
      <trkpt lat="48.7247" lon="-3.27645">
        <ele>40.03</ele>
        <time>2013-11-24T14:02:26Z</time>
      </trkpt>
      <trkpt lat="48.72469" lon="-3.27646">
        <ele>40.03</ele>
        <time>2013-11-24T14:02:28Z</time>
      </trkpt>
      <trkpt lat="48.72468" lon="-3.27647">
        <ele>40.03</ele>
        <time>2013-11-24T14:02:30Z</time>
      </trkpt>
      <trkpt lat="48.72466" lon="-3.27648">
        <ele>40.03</ele>
        <time>2013-11-24T14:02:32Z</time>
      </trkpt>
      <trkpt lat="48.72465" lon="-3.27649">
        <ele>40.03</ele>
        <time>2013-11-24T14:02:34Z</time>
      </trkpt>
      <trkpt lat="48.72465" lon="-3.27649">
        <ele>40.03</ele>
        <time>2013-11-24T14:02:36Z</time>
      </trkpt>
      <trkpt lat="48.72464" lon="-3.27649">
        <ele>40.03</ele>
        <time>2013-11-24T14:02:38Z</time>
      </trkpt>
      <trkpt lat="48.72463" lon="-3.27649">
        <ele>39.55</ele>
        <time>2013-11-24T14:02:40Z</time>
      </trkpt>
      <trkpt lat="48.72461" lon="-3.27649">
        <ele>40.03</ele>
        <time>2013-11-24T14:02:42Z</time>
      </trkpt>
      <trkpt lat="48.72459" lon="-3.2765">
        <ele>40.03</ele>
        <time>2013-11-24T14:02:44Z</time>
      </trkpt>
      <trkpt lat="48.72456" lon="-3.27649">
        <ele>40.03</ele>
        <time>2013-11-24T14:02:46Z</time>
      </trkpt>
      <trkpt lat="48.72454" lon="-3.27648">
        <ele>40.03</ele>
        <time>2013-11-24T14:02:48Z</time>
      </trkpt>
      <trkpt lat="48.72452" lon="-3.27647">
        <ele>40.03</ele>
        <time>2013-11-24T14:02:50Z</time>
      </trkpt>
      <trkpt lat="48.72451" lon="-3.27647">
        <ele>40.03</ele>
        <time>2013-11-24T14:02:52Z</time>
      </trkpt>
      <trkpt lat="48.7245" lon="-3.27649">
        <ele>40.03</ele>
        <time>2013-11-24T14:02:54Z</time>
      </trkpt>
      <trkpt lat="48.72447" lon="-3.27649">
        <ele>39.55</ele>
        <time>2013-11-24T14:02:56Z</time>
      </trkpt>
      <trkpt lat="48.72446" lon="-3.27648">
        <ele>39.55</ele>
        <time>2013-11-24T14:02:58Z</time>
      </trkpt>
      <trkpt lat="48.72444" lon="-3.27648">
        <ele>39.55</ele>
        <time>2013-11-24T14:03:00Z</time>
      </trkpt>
      <trkpt lat="48.72442" lon="-3.27647">
        <ele>40.03</ele>
        <time>2013-11-24T14:03:02Z</time>
      </trkpt>
      <trkpt lat="48.7244" lon="-3.27645">
        <ele>40.03</ele>
        <time>2013-11-24T14:03:04Z</time>
      </trkpt>
      <trkpt lat="48.72439" lon="-3.27644">
        <ele>40.03</ele>
        <time>2013-11-24T14:03:06Z</time>
      </trkpt>
      <trkpt lat="48.72438" lon="-3.27644">
        <ele>40.03</ele>
        <time>2013-11-24T14:03:08Z</time>
      </trkpt>
      <trkpt lat="48.72436" lon="-3.27643">
        <ele>40.03</ele>
        <time>2013-11-24T14:03:10Z</time>
      </trkpt>
      <trkpt lat="48.72434" lon="-3.27642">
        <ele>39.55</ele>
        <time>2013-11-24T14:03:12Z</time>
      </trkpt>
      <trkpt lat="48.72431" lon="-3.27643">
        <ele>39.55</ele>
        <time>2013-11-24T14:03:14Z</time>
      </trkpt>
      <trkpt lat="48.7243" lon="-3.27643">
        <ele>39.55</ele>
        <time>2013-11-24T14:03:16Z</time>
      </trkpt>
      <trkpt lat="48.72429" lon="-3.27642">
        <ele>39.55</ele>
        <time>2013-11-24T14:03:18Z</time>
      </trkpt>
      <trkpt lat="48.72428" lon="-3.27642">
        <ele>39.55</ele>
        <time>2013-11-24T14:03:20Z</time>
      </trkpt>
      <trkpt lat="48.72426" lon="-3.27645">
        <ele>39.55</ele>
        <time>2013-11-24T14:03:22Z</time>
      </trkpt>
      <trkpt lat="48.72425" lon="-3.27645">
        <ele>39.55</ele>
        <time>2013-11-24T14:03:24Z</time>
      </trkpt>
      <trkpt lat="48.72424" lon="-3.27644">
        <ele>39.55</ele>
        <time>2013-11-24T14:03:26Z</time>
      </trkpt>
      <trkpt lat="48.72422" lon="-3.27643">
        <ele>39.55</ele>
        <time>2013-11-24T14:03:28Z</time>
      </trkpt>
      <trkpt lat="48.7242" lon="-3.27641">
        <ele>39.55</ele>
        <time>2013-11-24T14:03:30Z</time>
      </trkpt>
      <trkpt lat="48.72419" lon="-3.2764">
        <ele>39.55</ele>
        <time>2013-11-24T14:03:32Z</time>
      </trkpt>
      <trkpt lat="48.72416" lon="-3.27638">
        <ele>39.55</ele>
        <time>2013-11-24T14:03:34Z</time>
      </trkpt>
      <trkpt lat="48.72415" lon="-3.27638">
        <ele>39.55</ele>
        <time>2013-11-24T14:03:36Z</time>
      </trkpt>
      <trkpt lat="48.72412" lon="-3.27637">
        <ele>39.07</ele>
        <time>2013-11-24T14:03:38Z</time>
      </trkpt>
      <trkpt lat="48.7241" lon="-3.27636">
        <ele>39.07</ele>
        <time>2013-11-24T14:03:40Z</time>
      </trkpt>
      <trkpt lat="48.72408" lon="-3.27635">
        <ele>39.07</ele>
        <time>2013-11-24T14:03:42Z</time>
      </trkpt>
      <trkpt lat="48.72407" lon="-3.27635">
        <ele>39.07</ele>
        <time>2013-11-24T14:03:44Z</time>
      </trkpt>
      <trkpt lat="48.72404" lon="-3.27634">
        <ele>39.55</ele>
        <time>2013-11-24T14:03:46Z</time>
      </trkpt>
      <trkpt lat="48.72402" lon="-3.27632">
        <ele>39.07</ele>
        <time>2013-11-24T14:03:48Z</time>
      </trkpt>
      <trkpt lat="48.724" lon="-3.2763">
        <ele>39.07</ele>
        <time>2013-11-24T14:03:50Z</time>
      </trkpt>
      <trkpt lat="48.72398" lon="-3.27627">
        <ele>39.07</ele>
        <time>2013-11-24T14:03:52Z</time>
      </trkpt>
      <trkpt lat="48.72396" lon="-3.27626">
        <ele>39.07</ele>
        <time>2013-11-24T14:03:54Z</time>
      </trkpt>
      <trkpt lat="48.72395" lon="-3.27624">
        <ele>39.07</ele>
        <time>2013-11-24T14:03:56Z</time>
      </trkpt>
      <trkpt lat="48.72393" lon="-3.27622">
        <ele>39.07</ele>
        <time>2013-11-24T14:03:58Z</time>
      </trkpt>
      <trkpt lat="48.7239" lon="-3.2762">
        <ele>39.07</ele>
        <time>2013-11-24T14:04:00Z</time>
      </trkpt>
      <trkpt lat="48.72388" lon="-3.27618">
        <ele>39.07</ele>
        <time>2013-11-24T14:04:02Z</time>
      </trkpt>
      <trkpt lat="48.72386" lon="-3.27616">
        <ele>39.07</ele>
        <time>2013-11-24T14:04:04Z</time>
      </trkpt>
      <trkpt lat="48.72383" lon="-3.27613">
        <ele>39.07</ele>
        <time>2013-11-24T14:04:06Z</time>
      </trkpt>
      <trkpt lat="48.72381" lon="-3.27612">
        <ele>39.07</ele>
        <time>2013-11-24T14:04:08Z</time>
      </trkpt>
      <trkpt lat="48.7238" lon="-3.27611">
        <ele>39.07</ele>
        <time>2013-11-24T14:04:10Z</time>
      </trkpt>
      <trkpt lat="48.72379" lon="-3.2761">
        <ele>39.07</ele>
        <time>2013-11-24T14:04:12Z</time>
      </trkpt>
      <trkpt lat="48.72377" lon="-3.27605">
        <ele>39.07</ele>
        <time>2013-11-24T14:04:14Z</time>
      </trkpt>
      <trkpt lat="48.72375" lon="-3.27603">
        <ele>38.59</ele>
        <time>2013-11-24T14:04:16Z</time>
      </trkpt>
      <trkpt lat="48.72373" lon="-3.27601">
        <ele>38.59</ele>
        <time>2013-11-24T14:04:18Z</time>
      </trkpt>
      <trkpt lat="48.72371" lon="-3.27599">
        <ele>38.59</ele>
        <time>2013-11-24T14:04:20Z</time>
      </trkpt>
      <trkpt lat="48.72371" lon="-3.27597">
        <ele>38.59</ele>
        <time>2013-11-24T14:04:22Z</time>
      </trkpt>
      <trkpt lat="48.72368" lon="-3.2759">
        <ele>39.07</ele>
        <time>2013-11-24T14:04:24Z</time>
      </trkpt>
      <trkpt lat="48.72367" lon="-3.27588">
        <ele>39.07</ele>
        <time>2013-11-24T14:04:26Z</time>
      </trkpt>
      <trkpt lat="48.72365" lon="-3.27586">
        <ele>39.07</ele>
        <time>2013-11-24T14:04:28Z</time>
      </trkpt>
      <trkpt lat="48.72361" lon="-3.27583">
        <ele>38.59</ele>
        <time>2013-11-24T14:04:30Z</time>
      </trkpt>
      <trkpt lat="48.72358" lon="-3.27582">
        <ele>38.59</ele>
        <time>2013-11-24T14:04:32Z</time>
      </trkpt>
      <trkpt lat="48.72356" lon="-3.27582">
        <ele>38.59</ele>
        <time>2013-11-24T14:04:34Z</time>
      </trkpt>
      <trkpt lat="48.72353" lon="-3.2758">
        <ele>38.59</ele>
        <time>2013-11-24T14:04:36Z</time>
      </trkpt>
      <trkpt lat="48.7235" lon="-3.27579">
        <ele>38.59</ele>
        <time>2013-11-24T14:04:38Z</time>
      </trkpt>
      <trkpt lat="48.72349" lon="-3.27577">
        <ele>38.59</ele>
        <time>2013-11-24T14:04:40Z</time>
      </trkpt>
      <trkpt lat="48.72347" lon="-3.27575">
        <ele>38.59</ele>
        <time>2013-11-24T14:04:42Z</time>
      </trkpt>
      <trkpt lat="48.72346" lon="-3.27576">
        <ele>38.59</ele>
        <time>2013-11-24T14:04:44Z</time>
      </trkpt>
      <trkpt lat="48.72344" lon="-3.27576">
        <ele>38.59</ele>
        <time>2013-11-24T14:04:46Z</time>
      </trkpt>
      <trkpt lat="48.72342" lon="-3.27576">
        <ele>38.59</ele>
        <time>2013-11-24T14:04:48Z</time>
      </trkpt>
      <trkpt lat="48.72341" lon="-3.27574">
        <ele>38.59</ele>
        <time>2013-11-24T14:04:50Z</time>
      </trkpt>
      <trkpt lat="48.7234" lon="-3.27574">
        <ele>38.59</ele>
        <time>2013-11-24T14:04:52Z</time>
      </trkpt>
      <trkpt lat="48.72339" lon="-3.27574">
        <ele>38.59</ele>
        <time>2013-11-24T14:04:54Z</time>
      </trkpt>
      <trkpt lat="48.72338" lon="-3.27573">
        <ele>38.59</ele>
        <time>2013-11-24T14:04:56Z</time>
      </trkpt>
      <trkpt lat="48.72336" lon="-3.27573">
        <ele>38.59</ele>
        <time>2013-11-24T14:04:58Z</time>
      </trkpt>
      <trkpt lat="48.72335" lon="-3.27573">
        <ele>38.59</ele>
        <time>2013-11-24T14:05:00Z</time>
      </trkpt>
      <trkpt lat="48.72333" lon="-3.27572">
        <ele>39.07</ele>
        <time>2013-11-24T14:05:02Z</time>
      </trkpt>
      <trkpt lat="48.72332" lon="-3.27571">
        <ele>38.59</ele>
        <time>2013-11-24T14:05:04Z</time>
      </trkpt>
      <trkpt lat="48.7233" lon="-3.27571">
        <ele>38.59</ele>
        <time>2013-11-24T14:05:06Z</time>
      </trkpt>
      <trkpt lat="48.72329" lon="-3.2757">
        <ele>38.59</ele>
        <time>2013-11-24T14:05:08Z</time>
      </trkpt>
      <trkpt lat="48.72327" lon="-3.27569">
        <ele>38.59</ele>
        <time>2013-11-24T14:05:10Z</time>
      </trkpt>
      <trkpt lat="48.72325" lon="-3.27567">
        <ele>38.59</ele>
        <time>2013-11-24T14:05:12Z</time>
      </trkpt>
      <trkpt lat="48.72323" lon="-3.27566">
        <ele>39.07</ele>
        <time>2013-11-24T14:05:14Z</time>
      </trkpt>
      <trkpt lat="48.72321" lon="-3.27567">
        <ele>39.07</ele>
        <time>2013-11-24T14:05:16Z</time>
      </trkpt>
      <trkpt lat="48.72319" lon="-3.27565">
        <ele>39.07</ele>
        <time>2013-11-24T14:05:18Z</time>
      </trkpt>
      <trkpt lat="48.72317" lon="-3.27565">
        <ele>38.59</ele>
        <time>2013-11-24T14:05:20Z</time>
      </trkpt>
      <trkpt lat="48.72315" lon="-3.27564">
        <ele>38.59</ele>
        <time>2013-11-24T14:05:22Z</time>
      </trkpt>
      <trkpt lat="48.72313" lon="-3.27563">
        <ele>38.59</ele>
        <time>2013-11-24T14:05:24Z</time>
      </trkpt>
      <trkpt lat="48.72311" lon="-3.27562">
        <ele>38.59</ele>
        <time>2013-11-24T14:05:26Z</time>
      </trkpt>
      <trkpt lat="48.7231" lon="-3.27562">
        <ele>38.59</ele>
        <time>2013-11-24T14:05:28Z</time>
      </trkpt>
      <trkpt lat="48.72309" lon="-3.27562">
        <ele>38.59</ele>
        <time>2013-11-24T14:05:30Z</time>
      </trkpt>
      <trkpt lat="48.72308" lon="-3.27561">
        <ele>38.59</ele>
        <time>2013-11-24T14:05:32Z</time>
      </trkpt>
      <trkpt lat="48.72306" lon="-3.27559">
        <ele>39.07</ele>
        <time>2013-11-24T14:05:34Z</time>
      </trkpt>
      <trkpt lat="48.72304" lon="-3.27557">
        <ele>39.07</ele>
        <time>2013-11-24T14:05:36Z</time>
      </trkpt>
      <trkpt lat="48.72303" lon="-3.27556">
        <ele>38.59</ele>
        <time>2013-11-24T14:05:38Z</time>
      </trkpt>
      <trkpt lat="48.72301" lon="-3.27554">
        <ele>38.59</ele>
        <time>2013-11-24T14:05:40Z</time>
      </trkpt>
      <trkpt lat="48.723" lon="-3.27552">
        <ele>38.59</ele>
        <time>2013-11-24T14:05:42Z</time>
      </trkpt>
      <trkpt lat="48.72298" lon="-3.2755">
        <ele>38.59</ele>
        <time>2013-11-24T14:05:44Z</time>
      </trkpt>
      <trkpt lat="48.72296" lon="-3.2755">
        <ele>38.59</ele>
        <time>2013-11-24T14:05:46Z</time>
      </trkpt>
      <trkpt lat="48.72295" lon="-3.27551">
        <ele>38.59</ele>
        <time>2013-11-24T14:05:48Z</time>
      </trkpt>
      <trkpt lat="48.72294" lon="-3.2755">
        <ele>38.59</ele>
        <time>2013-11-24T14:05:50Z</time>
      </trkpt>
      <trkpt lat="48.72292" lon="-3.2755">
        <ele>38.59</ele>
        <time>2013-11-24T14:05:52Z</time>
      </trkpt>
      <trkpt lat="48.7229" lon="-3.27549">
        <ele>38.59</ele>
        <time>2013-11-24T14:05:54Z</time>
      </trkpt>
      <trkpt lat="48.72289" lon="-3.27547">
        <ele>38.59</ele>
        <time>2013-11-24T14:05:56Z</time>
      </trkpt>
      <trkpt lat="48.72289" lon="-3.27545">
        <ele>38.59</ele>
        <time>2013-11-24T14:05:58Z</time>
      </trkpt>
      <trkpt lat="48.72288" lon="-3.27546">
        <ele>38.59</ele>
        <time>2013-11-24T14:06:00Z</time>
      </trkpt>
      <trkpt lat="48.72288" lon="-3.27545">
        <ele>38.59</ele>
        <time>2013-11-24T14:06:02Z</time>
      </trkpt>
      <trkpt lat="48.72288" lon="-3.27543">
        <ele>38.59</ele>
        <time>2013-11-24T14:06:04Z</time>
      </trkpt>
      <trkpt lat="48.72286" lon="-3.27538">
        <ele>38.59</ele>
        <time>2013-11-24T14:06:06Z</time>
      </trkpt>
      <trkpt lat="48.72285" lon="-3.27534">
        <ele>38.59</ele>
        <time>2013-11-24T14:06:08Z</time>
      </trkpt>
      <trkpt lat="48.72284" lon="-3.2753">
        <ele>38.59</ele>
        <time>2013-11-24T14:06:10Z</time>
      </trkpt>
      <trkpt lat="48.72283" lon="-3.27524">
        <ele>38.59</ele>
        <time>2013-11-24T14:06:12Z</time>
      </trkpt>
      <trkpt lat="48.72282" lon="-3.27521">
        <ele>38.59</ele>
        <time>2013-11-24T14:06:14Z</time>
      </trkpt>
      <trkpt lat="48.72281" lon="-3.27517">
        <ele>38.59</ele>
        <time>2013-11-24T14:06:16Z</time>
      </trkpt>
      <trkpt lat="48.7228" lon="-3.27512">
        <ele>38.59</ele>
        <time>2013-11-24T14:06:18Z</time>
      </trkpt>
      <trkpt lat="48.72278" lon="-3.27507">
        <ele>38.59</ele>
        <time>2013-11-24T14:06:20Z</time>
      </trkpt>
      <trkpt lat="48.72277" lon="-3.27502">
        <ele>38.59</ele>
        <time>2013-11-24T14:06:22Z</time>
      </trkpt>
      <trkpt lat="48.72276" lon="-3.27499">
        <ele>38.59</ele>
        <time>2013-11-24T14:06:24Z</time>
      </trkpt>
      <trkpt lat="48.72275" lon="-3.27496">
        <ele>38.59</ele>
        <time>2013-11-24T14:06:26Z</time>
      </trkpt>
      <trkpt lat="48.72274" lon="-3.27494">
        <ele>39.07</ele>
        <time>2013-11-24T14:06:28Z</time>
      </trkpt>
      <trkpt lat="48.72272" lon="-3.2749">
        <ele>39.07</ele>
        <time>2013-11-24T14:06:30Z</time>
      </trkpt>
      <trkpt lat="48.72272" lon="-3.27487">
        <ele>39.07</ele>
        <time>2013-11-24T14:06:32Z</time>
      </trkpt>
      <trkpt lat="48.7227" lon="-3.27479">
        <ele>38.59</ele>
        <time>2013-11-24T14:06:34Z</time>
      </trkpt>
      <trkpt lat="48.72267" lon="-3.27469">
        <ele>38.59</ele>
        <time>2013-11-24T14:06:36Z</time>
      </trkpt>
      <trkpt lat="48.72267" lon="-3.27467">
        <ele>38.59</ele>
        <time>2013-11-24T14:06:38Z</time>
      </trkpt>
      <trkpt lat="48.72266" lon="-3.27464">
        <ele>39.07</ele>
        <time>2013-11-24T14:06:40Z</time>
      </trkpt>
      <trkpt lat="48.72266" lon="-3.27462">
        <ele>39.07</ele>
        <time>2013-11-24T14:06:42Z</time>
      </trkpt>
      <trkpt lat="48.72265" lon="-3.2746">
        <ele>39.07</ele>
        <time>2013-11-24T14:06:44Z</time>
      </trkpt>
      <trkpt lat="48.72264" lon="-3.27458">
        <ele>39.07</ele>
        <time>2013-11-24T14:06:46Z</time>
      </trkpt>
      <trkpt lat="48.72264" lon="-3.27455">
        <ele>39.07</ele>
        <time>2013-11-24T14:06:48Z</time>
      </trkpt>
      <trkpt lat="48.72264" lon="-3.2745">
        <ele>39.07</ele>
        <time>2013-11-24T14:06:50Z</time>
      </trkpt>
      <trkpt lat="48.72263" lon="-3.27444">
        <ele>39.07</ele>
        <time>2013-11-24T14:06:52Z</time>
      </trkpt>
      <trkpt lat="48.72262" lon="-3.27439">
        <ele>39.07</ele>
        <time>2013-11-24T14:06:54Z</time>
      </trkpt>
      <trkpt lat="48.72262" lon="-3.27435">
        <ele>39.07</ele>
        <time>2013-11-24T14:06:56Z</time>
      </trkpt>
      <trkpt lat="48.72261" lon="-3.27429">
        <ele>38.59</ele>
        <time>2013-11-24T14:06:58Z</time>
      </trkpt>
      <trkpt lat="48.72261" lon="-3.27426">
        <ele>39.07</ele>
        <time>2013-11-24T14:07:00Z</time>
      </trkpt>
      <trkpt lat="48.72261" lon="-3.27424">
        <ele>39.07</ele>
        <time>2013-11-24T14:07:02Z</time>
      </trkpt>
      <trkpt lat="48.72261" lon="-3.27421">
        <ele>39.07</ele>
        <time>2013-11-24T14:07:04Z</time>
      </trkpt>
      <trkpt lat="48.72262" lon="-3.27418">
        <ele>39.07</ele>
        <time>2013-11-24T14:07:06Z</time>
      </trkpt>
      <trkpt lat="48.72262" lon="-3.27416">
        <ele>39.07</ele>
        <time>2013-11-24T14:07:08Z</time>
      </trkpt>
      <trkpt lat="48.72263" lon="-3.27413">
        <ele>39.07</ele>
        <time>2013-11-24T14:07:10Z</time>
      </trkpt>
      <trkpt lat="48.72263" lon="-3.27411">
        <ele>39.07</ele>
        <time>2013-11-24T14:07:12Z</time>
      </trkpt>
      <trkpt lat="48.72264" lon="-3.27409">
        <ele>39.07</ele>
        <time>2013-11-24T14:07:14Z</time>
      </trkpt>
      <trkpt lat="48.72264" lon="-3.27407">
        <ele>39.55</ele>
        <time>2013-11-24T14:07:16Z</time>
      </trkpt>
      <trkpt lat="48.72265" lon="-3.27405">
        <ele>39.55</ele>
        <time>2013-11-24T14:07:18Z</time>
      </trkpt>
      <trkpt lat="48.72267" lon="-3.27404">
        <ele>39.55</ele>
        <time>2013-11-24T14:07:20Z</time>
      </trkpt>
      <trkpt lat="48.72268" lon="-3.27404">
        <ele>39.55</ele>
        <time>2013-11-24T14:07:22Z</time>
      </trkpt>
      <trkpt lat="48.72269" lon="-3.27403">
        <ele>39.07</ele>
        <time>2013-11-24T14:07:24Z</time>
      </trkpt>
      <trkpt lat="48.7227" lon="-3.27401">
        <ele>39.07</ele>
        <time>2013-11-24T14:07:26Z</time>
      </trkpt>
      <trkpt lat="48.72271" lon="-3.27398">
        <ele>39.07</ele>
        <time>2013-11-24T14:07:28Z</time>
      </trkpt>
      <trkpt lat="48.72273" lon="-3.27397">
        <ele>39.55</ele>
        <time>2013-11-24T14:07:30Z</time>
      </trkpt>
      <trkpt lat="48.72273" lon="-3.27393">
        <ele>39.55</ele>
        <time>2013-11-24T14:07:32Z</time>
      </trkpt>
      <trkpt lat="48.72274" lon="-3.27389">
        <ele>39.55</ele>
        <time>2013-11-24T14:07:34Z</time>
      </trkpt>
      <trkpt lat="48.72274" lon="-3.27386">
        <ele>39.55</ele>
        <time>2013-11-24T14:07:36Z</time>
      </trkpt>
      <trkpt lat="48.72275" lon="-3.27382">
        <ele>39.55</ele>
        <time>2013-11-24T14:07:38Z</time>
      </trkpt>
      <trkpt lat="48.72275" lon="-3.27381">
        <ele>39.55</ele>
        <time>2013-11-24T14:07:40Z</time>
      </trkpt>
      <trkpt lat="48.72275" lon="-3.27378">
        <ele>39.55</ele>
        <time>2013-11-24T14:07:42Z</time>
      </trkpt>
      <trkpt lat="48.72275" lon="-3.27376">
        <ele>39.55</ele>
        <time>2013-11-24T14:07:44Z</time>
      </trkpt>
      <trkpt lat="48.72276" lon="-3.27373">
        <ele>39.55</ele>
        <time>2013-11-24T14:07:46Z</time>
      </trkpt>
      <trkpt lat="48.72277" lon="-3.2737">
        <ele>39.55</ele>
        <time>2013-11-24T14:07:48Z</time>
      </trkpt>
      <trkpt lat="48.72278" lon="-3.27367">
        <ele>39.55</ele>
        <time>2013-11-24T14:07:50Z</time>
      </trkpt>
      <trkpt lat="48.72278" lon="-3.27363">
        <ele>39.07</ele>
        <time>2013-11-24T14:07:52Z</time>
      </trkpt>
      <trkpt lat="48.72279" lon="-3.27358">
        <ele>39.55</ele>
        <time>2013-11-24T14:07:54Z</time>
      </trkpt>
      <trkpt lat="48.72279" lon="-3.27355">
        <ele>39.55</ele>
        <time>2013-11-24T14:07:56Z</time>
      </trkpt>
      <trkpt lat="48.7228" lon="-3.27352">
        <ele>39.55</ele>
        <time>2013-11-24T14:07:58Z</time>
      </trkpt>
      <trkpt lat="48.72281" lon="-3.27349">
        <ele>39.55</ele>
        <time>2013-11-24T14:08:00Z</time>
      </trkpt>
      <trkpt lat="48.72282" lon="-3.27346">
        <ele>39.55</ele>
        <time>2013-11-24T14:08:02Z</time>
      </trkpt>
      <trkpt lat="48.72283" lon="-3.27342">
        <ele>39.55</ele>
        <time>2013-11-24T14:08:04Z</time>
      </trkpt>
      <trkpt lat="48.72284" lon="-3.27338">
        <ele>39.55</ele>
        <time>2013-11-24T14:08:06Z</time>
      </trkpt>
      <trkpt lat="48.72284" lon="-3.27332">
        <ele>39.55</ele>
        <time>2013-11-24T14:08:08Z</time>
      </trkpt>
      <trkpt lat="48.72285" lon="-3.27328">
        <ele>39.55</ele>
        <time>2013-11-24T14:08:10Z</time>
      </trkpt>
      <trkpt lat="48.72285" lon="-3.27325">
        <ele>39.55</ele>
        <time>2013-11-24T14:08:12Z</time>
      </trkpt>
      <trkpt lat="48.72286" lon="-3.27321">
        <ele>39.55</ele>
        <time>2013-11-24T14:08:14Z</time>
      </trkpt>
      <trkpt lat="48.72287" lon="-3.27318">
        <ele>39.07</ele>
        <time>2013-11-24T14:08:16Z</time>
      </trkpt>
      <trkpt lat="48.72287" lon="-3.27316">
        <ele>39.07</ele>
        <time>2013-11-24T14:08:18Z</time>
      </trkpt>
      <trkpt lat="48.72288" lon="-3.27315">
        <ele>39.07</ele>
        <time>2013-11-24T14:08:20Z</time>
      </trkpt>
      <trkpt lat="48.7229" lon="-3.27312">
        <ele>39.07</ele>
        <time>2013-11-24T14:08:22Z</time>
      </trkpt>
      <trkpt lat="48.72294" lon="-3.2731">
        <ele>39.07</ele>
        <time>2013-11-24T14:08:24Z</time>
      </trkpt>
      <trkpt lat="48.72297" lon="-3.27308">
        <ele>39.07</ele>
        <time>2013-11-24T14:08:26Z</time>
      </trkpt>
      <trkpt lat="48.72301" lon="-3.27306">
        <ele>39.55</ele>
        <time>2013-11-24T14:08:28Z</time>
      </trkpt>
      <trkpt lat="48.72304" lon="-3.27304">
        <ele>39.55</ele>
        <time>2013-11-24T14:08:30Z</time>
      </trkpt>
      <trkpt lat="48.72306" lon="-3.27301">
        <ele>39.55</ele>
        <time>2013-11-24T14:08:32Z</time>
      </trkpt>
      <trkpt lat="48.7231" lon="-3.27299">
        <ele>39.55</ele>
        <time>2013-11-24T14:08:34Z</time>
      </trkpt>
      <trkpt lat="48.72312" lon="-3.27296">
        <ele>39.55</ele>
        <time>2013-11-24T14:08:36Z</time>
      </trkpt>
      <trkpt lat="48.72313" lon="-3.27295">
        <ele>39.07</ele>
        <time>2013-11-24T14:08:38Z</time>
      </trkpt>
      <trkpt lat="48.72314" lon="-3.27295">
        <ele>39.07</ele>
        <time>2013-11-24T14:08:40Z</time>
      </trkpt>
      <trkpt lat="48.72318" lon="-3.27295">
        <ele>39.07</ele>
        <time>2013-11-24T14:08:42Z</time>
      </trkpt>
      <trkpt lat="48.7232" lon="-3.27293">
        <ele>39.07</ele>
        <time>2013-11-24T14:08:44Z</time>
      </trkpt>
      <trkpt lat="48.72322" lon="-3.2729">
        <ele>39.07</ele>
        <time>2013-11-24T14:08:46Z</time>
      </trkpt>
      <trkpt lat="48.72324" lon="-3.27289">
        <ele>39.07</ele>
        <time>2013-11-24T14:08:48Z</time>
      </trkpt>
      <trkpt lat="48.72327" lon="-3.27288">
        <ele>39.07</ele>
        <time>2013-11-24T14:08:50Z</time>
      </trkpt>
      <trkpt lat="48.7233" lon="-3.27288">
        <ele>39.07</ele>
        <time>2013-11-24T14:08:52Z</time>
      </trkpt>
      <trkpt lat="48.72332" lon="-3.27284">
        <ele>39.07</ele>
        <time>2013-11-24T14:08:54Z</time>
      </trkpt>
      <trkpt lat="48.72334" lon="-3.27282">
        <ele>39.07</ele>
        <time>2013-11-24T14:08:56Z</time>
      </trkpt>
      <trkpt lat="48.72335" lon="-3.27281">
        <ele>39.07</ele>
        <time>2013-11-24T14:08:58Z</time>
      </trkpt>
      <trkpt lat="48.72337" lon="-3.2728">
        <ele>39.07</ele>
        <time>2013-11-24T14:09:00Z</time>
      </trkpt>
      <trkpt lat="48.72339" lon="-3.27279">
        <ele>38.59</ele>
        <time>2013-11-24T14:09:02Z</time>
      </trkpt>
      <trkpt lat="48.72341" lon="-3.27277">
        <ele>38.59</ele>
        <time>2013-11-24T14:09:04Z</time>
      </trkpt>
      <trkpt lat="48.72342" lon="-3.27276">
        <ele>38.59</ele>
        <time>2013-11-24T14:09:06Z</time>
      </trkpt>
      <trkpt lat="48.72343" lon="-3.27274">
        <ele>38.59</ele>
        <time>2013-11-24T14:09:08Z</time>
      </trkpt>
      <trkpt lat="48.72343" lon="-3.27274">
        <ele>38.59</ele>
        <time>2013-11-24T14:09:10Z</time>
      </trkpt>
      <trkpt lat="48.72343" lon="-3.27273">
        <ele>38.59</ele>
        <time>2013-11-24T14:09:12Z</time>
      </trkpt>
      <trkpt lat="48.72343" lon="-3.27273">
        <ele>38.59</ele>
        <time>2013-11-24T14:09:14Z</time>
      </trkpt>
      <trkpt lat="48.72343" lon="-3.27273">
        <ele>38.59</ele>
        <time>2013-11-24T14:09:16Z</time>
      </trkpt>
      <trkpt lat="48.72342" lon="-3.27273">
        <ele>38.59</ele>
        <time>2013-11-24T14:09:18Z</time>
      </trkpt>
      <trkpt lat="48.72342" lon="-3.27272">
        <ele>38.11</ele>
        <time>2013-11-24T14:09:20Z</time>
      </trkpt>
      <trkpt lat="48.72341" lon="-3.27271">
        <ele>38.59</ele>
        <time>2013-11-24T14:09:22Z</time>
      </trkpt>
      <trkpt lat="48.7234" lon="-3.27271">
        <ele>38.59</ele>
        <time>2013-11-24T14:09:24Z</time>
      </trkpt>
      <trkpt lat="48.72339" lon="-3.27271">
        <ele>38.59</ele>
        <time>2013-11-24T14:09:26Z</time>
      </trkpt>
      <trkpt lat="48.72339" lon="-3.27272">
        <ele>38.59</ele>
        <time>2013-11-24T14:09:28Z</time>
      </trkpt>
      <trkpt lat="48.72339" lon="-3.27274">
        <ele>38.59</ele>
        <time>2013-11-24T14:09:30Z</time>
      </trkpt>
      <trkpt lat="48.72338" lon="-3.27274">
        <ele>38.59</ele>
        <time>2013-11-24T14:09:32Z</time>
      </trkpt>
      <trkpt lat="48.72338" lon="-3.27275">
        <ele>38.59</ele>
        <time>2013-11-24T14:09:34Z</time>
      </trkpt>
      <trkpt lat="48.72337" lon="-3.27276">
        <ele>38.59</ele>
        <time>2013-11-24T14:09:36Z</time>
      </trkpt>
      <trkpt lat="48.72337" lon="-3.27276">
        <ele>38.59</ele>
        <time>2013-11-24T14:09:38Z</time>
      </trkpt>
      <trkpt lat="48.72337" lon="-3.27276">
        <ele>38.59</ele>
        <time>2013-11-24T14:09:40Z</time>
      </trkpt>
      <trkpt lat="48.72337" lon="-3.27276">
        <ele>38.11</ele>
        <time>2013-11-24T14:09:42Z</time>
      </trkpt>
      <trkpt lat="48.72338" lon="-3.27276">
        <ele>38.11</ele>
        <time>2013-11-24T14:09:44Z</time>
      </trkpt>
      <trkpt lat="48.72338" lon="-3.27276">
        <ele>38.11</ele>
        <time>2013-11-24T14:09:46Z</time>
      </trkpt>
      <trkpt lat="48.72338" lon="-3.27276">
        <ele>38.11</ele>
        <time>2013-11-24T14:09:48Z</time>
      </trkpt>
      <trkpt lat="48.72338" lon="-3.27275">
        <ele>38.11</ele>
        <time>2013-11-24T14:09:50Z</time>
      </trkpt>
      <trkpt lat="48.72338" lon="-3.27274">
        <ele>38.11</ele>
        <time>2013-11-24T14:09:52Z</time>
      </trkpt>
      <trkpt lat="48.72338" lon="-3.27273">
        <ele>38.11</ele>
        <time>2013-11-24T14:09:54Z</time>
      </trkpt>
      <trkpt lat="48.72338" lon="-3.27273">
        <ele>38.11</ele>
        <time>2013-11-24T14:09:56Z</time>
      </trkpt>
      <trkpt lat="48.72337" lon="-3.27273">
        <ele>38.11</ele>
        <time>2013-11-24T14:09:58Z</time>
      </trkpt>
      <trkpt lat="48.72337" lon="-3.27272">
        <ele>38.11</ele>
        <time>2013-11-24T14:10:00Z</time>
      </trkpt>
      <trkpt lat="48.72338" lon="-3.27271">
        <ele>38.11</ele>
        <time>2013-11-24T14:10:02Z</time>
      </trkpt>
      <trkpt lat="48.72338" lon="-3.27271">
        <ele>38.11</ele>
        <time>2013-11-24T14:10:04Z</time>
      </trkpt>
      <trkpt lat="48.72338" lon="-3.2727">
        <ele>38.11</ele>
        <time>2013-11-24T14:10:06Z</time>
      </trkpt>
      <trkpt lat="48.72338" lon="-3.27269">
        <ele>37.63</ele>
        <time>2013-11-24T14:10:08Z</time>
      </trkpt>
      <trkpt lat="48.72337" lon="-3.27269">
        <ele>37.63</ele>
        <time>2013-11-24T14:10:10Z</time>
      </trkpt>
      <trkpt lat="48.72337" lon="-3.2727">
        <ele>37.63</ele>
        <time>2013-11-24T14:10:12Z</time>
      </trkpt>
      <trkpt lat="48.72336" lon="-3.2727">
        <ele>37.63</ele>
        <time>2013-11-24T14:10:14Z</time>
      </trkpt>
      <trkpt lat="48.72336" lon="-3.27272">
        <ele>37.63</ele>
        <time>2013-11-24T14:10:16Z</time>
      </trkpt>
      <trkpt lat="48.72336" lon="-3.27273">
        <ele>37.63</ele>
        <time>2013-11-24T14:10:18Z</time>
      </trkpt>
      <trkpt lat="48.72336" lon="-3.27273">
        <ele>37.63</ele>
        <time>2013-11-24T14:10:20Z</time>
      </trkpt>
      <trkpt lat="48.72335" lon="-3.27274">
        <ele>37.63</ele>
        <time>2013-11-24T14:10:22Z</time>
      </trkpt>
      <trkpt lat="48.72335" lon="-3.27274">
        <ele>37.63</ele>
        <time>2013-11-24T14:10:24Z</time>
      </trkpt>
      <trkpt lat="48.72336" lon="-3.27275">
        <ele>37.63</ele>
        <time>2013-11-24T14:10:26Z</time>
      </trkpt>
      <trkpt lat="48.72335" lon="-3.27275">
        <ele>37.63</ele>
        <time>2013-11-24T14:10:28Z</time>
      </trkpt>
      <trkpt lat="48.72335" lon="-3.27276">
        <ele>37.63</ele>
        <time>2013-11-24T14:10:30Z</time>
      </trkpt>
      <trkpt lat="48.72335" lon="-3.27276">
        <ele>37.63</ele>
        <time>2013-11-24T14:10:32Z</time>
      </trkpt>
      <trkpt lat="48.72335" lon="-3.27276">
        <ele>37.63</ele>
        <time>2013-11-24T14:10:34Z</time>
      </trkpt>
      <trkpt lat="48.72334" lon="-3.27276">
        <ele>37.63</ele>
        <time>2013-11-24T14:10:36Z</time>
      </trkpt>
      <trkpt lat="48.72334" lon="-3.27275">
        <ele>37.15</ele>
        <time>2013-11-24T14:10:38Z</time>
      </trkpt>
      <trkpt lat="48.72333" lon="-3.27274">
        <ele>37.15</ele>
        <time>2013-11-24T14:10:40Z</time>
      </trkpt>
      <trkpt lat="48.72333" lon="-3.27273">
        <ele>37.15</ele>
        <time>2013-11-24T14:10:42Z</time>
      </trkpt>
      <trkpt lat="48.72333" lon="-3.27273">
        <ele>37.15</ele>
        <time>2013-11-24T14:10:44Z</time>
      </trkpt>
      <trkpt lat="48.72334" lon="-3.27273">
        <ele>37.15</ele>
        <time>2013-11-24T14:10:46Z</time>
      </trkpt>
      <trkpt lat="48.72334" lon="-3.27272">
        <ele>37.15</ele>
        <time>2013-11-24T14:10:48Z</time>
      </trkpt>
      <trkpt lat="48.72335" lon="-3.27272">
        <ele>37.15</ele>
        <time>2013-11-24T14:10:50Z</time>
      </trkpt>
      <trkpt lat="48.72335" lon="-3.27272">
        <ele>37.15</ele>
        <time>2013-11-24T14:10:52Z</time>
      </trkpt>
      <trkpt lat="48.72335" lon="-3.27272">
        <ele>37.15</ele>
        <time>2013-11-24T14:10:54Z</time>
      </trkpt>
      <trkpt lat="48.72335" lon="-3.27273">
        <ele>37.15</ele>
        <time>2013-11-24T14:10:56Z</time>
      </trkpt>
      <trkpt lat="48.72335" lon="-3.27274">
        <ele>37.15</ele>
        <time>2013-11-24T14:10:58Z</time>
      </trkpt>
      <trkpt lat="48.72336" lon="-3.27275">
        <ele>37.15</ele>
        <time>2013-11-24T14:11:00Z</time>
      </trkpt>
      <trkpt lat="48.72336" lon="-3.27276">
        <ele>37.15</ele>
        <time>2013-11-24T14:11:02Z</time>
      </trkpt>
      <trkpt lat="48.72336" lon="-3.27278">
        <ele>37.15</ele>
        <time>2013-11-24T14:11:04Z</time>
      </trkpt>
      <trkpt lat="48.72336" lon="-3.27278">
        <ele>37.15</ele>
        <time>2013-11-24T14:11:06Z</time>
      </trkpt>
      <trkpt lat="48.72336" lon="-3.27278">
        <ele>37.15</ele>
        <time>2013-11-24T14:11:08Z</time>
      </trkpt>
      <trkpt lat="48.72335" lon="-3.2728">
        <ele>37.15</ele>
        <time>2013-11-24T14:11:10Z</time>
      </trkpt>
      <trkpt lat="48.72336" lon="-3.27282">
        <ele>36.67</ele>
        <time>2013-11-24T14:11:12Z</time>
      </trkpt>
      <trkpt lat="48.72336" lon="-3.27282">
        <ele>36.67</ele>
        <time>2013-11-24T14:11:14Z</time>
      </trkpt>
      <trkpt lat="48.72335" lon="-3.27283">
        <ele>36.67</ele>
        <time>2013-11-24T14:11:16Z</time>
      </trkpt>
      <trkpt lat="48.72335" lon="-3.27283">
        <ele>36.67</ele>
        <time>2013-11-24T14:11:18Z</time>
      </trkpt>
      <trkpt lat="48.72335" lon="-3.27283">
        <ele>36.67</ele>
        <time>2013-11-24T14:11:20Z</time>
      </trkpt>
      <trkpt lat="48.72335" lon="-3.27284">
        <ele>36.67</ele>
        <time>2013-11-24T14:11:22Z</time>
      </trkpt>
      <trkpt lat="48.72335" lon="-3.27283">
        <ele>35.71</ele>
        <time>2013-11-24T14:11:24Z</time>
      </trkpt>
      <trkpt lat="48.72334" lon="-3.27283">
        <ele>35.71</ele>
        <time>2013-11-24T14:11:26Z</time>
      </trkpt>
      <trkpt lat="48.72334" lon="-3.27282">
        <ele>35.71</ele>
        <time>2013-11-24T14:11:28Z</time>
      </trkpt>
      <trkpt lat="48.72334" lon="-3.27281">
        <ele>35.71</ele>
        <time>2013-11-24T14:11:30Z</time>
      </trkpt>
      <trkpt lat="48.72334" lon="-3.2728">
        <ele>35.71</ele>
        <time>2013-11-24T14:11:32Z</time>
      </trkpt>
      <trkpt lat="48.72333" lon="-3.27278">
        <ele>35.71</ele>
        <time>2013-11-24T14:11:34Z</time>
      </trkpt>
      <trkpt lat="48.72333" lon="-3.27276">
        <ele>35.71</ele>
        <time>2013-11-24T14:11:36Z</time>
      </trkpt>
      <trkpt lat="48.72333" lon="-3.27278">
        <ele>35.23</ele>
        <time>2013-11-24T14:11:38Z</time>
      </trkpt>
      <trkpt lat="48.72333" lon="-3.27278">
        <ele>35.23</ele>
        <time>2013-11-24T14:11:40Z</time>
      </trkpt>
      <trkpt lat="48.72333" lon="-3.27279">
        <ele>34.74</ele>
        <time>2013-11-24T14:11:42Z</time>
      </trkpt>
      <trkpt lat="48.72332" lon="-3.2728">
        <ele>34.74</ele>
        <time>2013-11-24T14:11:44Z</time>
      </trkpt>
      <trkpt lat="48.72332" lon="-3.27279">
        <ele>34.74</ele>
        <time>2013-11-24T14:11:46Z</time>
      </trkpt>
      <trkpt lat="48.72331" lon="-3.27279">
        <ele>34.74</ele>
        <time>2013-11-24T14:11:48Z</time>
      </trkpt>
      <trkpt lat="48.72331" lon="-3.27278">
        <ele>34.26</ele>
        <time>2013-11-24T14:11:50Z</time>
      </trkpt>
      <trkpt lat="48.72331" lon="-3.27279">
        <ele>34.26</ele>
        <time>2013-11-24T14:11:52Z</time>
      </trkpt>
      <trkpt lat="48.72331" lon="-3.27279">
        <ele>34.26</ele>
        <time>2013-11-24T14:11:54Z</time>
      </trkpt>
      <trkpt lat="48.7233" lon="-3.27279">
        <ele>34.26</ele>
        <time>2013-11-24T14:11:56Z</time>
      </trkpt>
      <trkpt lat="48.7233" lon="-3.27279">
        <ele>34.26</ele>
        <time>2013-11-24T14:11:58Z</time>
      </trkpt>
      <trkpt lat="48.7233" lon="-3.27279">
        <ele>34.26</ele>
        <time>2013-11-24T14:12:00Z</time>
      </trkpt>
      <trkpt lat="48.7233" lon="-3.27279">
        <ele>33.78</ele>
        <time>2013-11-24T14:12:02Z</time>
      </trkpt>
      <trkpt lat="48.72331" lon="-3.27279">
        <ele>33.3</ele>
        <time>2013-11-24T14:12:04Z</time>
      </trkpt>
      <trkpt lat="48.72332" lon="-3.27277">
        <ele>33.3</ele>
        <time>2013-11-24T14:12:06Z</time>
      </trkpt>
      <trkpt lat="48.72332" lon="-3.27276">
        <ele>33.3</ele>
        <time>2013-11-24T14:12:08Z</time>
      </trkpt>
      <trkpt lat="48.72333" lon="-3.27276">
        <ele>33.3</ele>
        <time>2013-11-24T14:12:10Z</time>
      </trkpt>
      <trkpt lat="48.72333" lon="-3.27275">
        <ele>33.3</ele>
        <time>2013-11-24T14:12:12Z</time>
      </trkpt>
      <trkpt lat="48.72333" lon="-3.27275">
        <ele>33.3</ele>
        <time>2013-11-24T14:12:14Z</time>
      </trkpt>
      <trkpt lat="48.72333" lon="-3.27274">
        <ele>33.3</ele>
        <time>2013-11-24T14:12:16Z</time>
      </trkpt>
      <trkpt lat="48.72333" lon="-3.27273">
        <ele>33.3</ele>
        <time>2013-11-24T14:12:18Z</time>
      </trkpt>
      <trkpt lat="48.72333" lon="-3.27272">
        <ele>32.82</ele>
        <time>2013-11-24T14:12:20Z</time>
      </trkpt>
      <trkpt lat="48.72333" lon="-3.2727">
        <ele>32.82</ele>
        <time>2013-11-24T14:12:22Z</time>
      </trkpt>
      <trkpt lat="48.72334" lon="-3.2727">
        <ele>32.82</ele>
        <time>2013-11-24T14:12:24Z</time>
      </trkpt>
      <trkpt lat="48.72334" lon="-3.2727">
        <ele>32.82</ele>
        <time>2013-11-24T14:12:26Z</time>
      </trkpt>
      <trkpt lat="48.72334" lon="-3.27271">
        <ele>32.82</ele>
        <time>2013-11-24T14:12:28Z</time>
      </trkpt>
      <trkpt lat="48.72334" lon="-3.2727">
        <ele>32.34</ele>
        <time>2013-11-24T14:12:30Z</time>
      </trkpt>
      <trkpt lat="48.72334" lon="-3.27269">
        <ele>32.34</ele>
        <time>2013-11-24T14:12:32Z</time>
      </trkpt>
      <trkpt lat="48.72335" lon="-3.27268">
        <ele>32.34</ele>
        <time>2013-11-24T14:12:34Z</time>
      </trkpt>
      <trkpt lat="48.72335" lon="-3.27269">
        <ele>32.34</ele>
        <time>2013-11-24T14:12:36Z</time>
      </trkpt>
      <trkpt lat="48.72337" lon="-3.27268">
        <ele>32.34</ele>
        <time>2013-11-24T14:12:38Z</time>
      </trkpt>
      <trkpt lat="48.72338" lon="-3.27269">
        <ele>31.86</ele>
        <time>2013-11-24T14:12:40Z</time>
      </trkpt>
      <trkpt lat="48.72338" lon="-3.2727">
        <ele>31.86</ele>
        <time>2013-11-24T14:12:42Z</time>
      </trkpt>
      <trkpt lat="48.72339" lon="-3.27272">
        <ele>31.86</ele>
        <time>2013-11-24T14:12:44Z</time>
      </trkpt>
      <trkpt lat="48.7234" lon="-3.27272">
        <ele>31.86</ele>
        <time>2013-11-24T14:12:46Z</time>
      </trkpt>
      <trkpt lat="48.72342" lon="-3.27273">
        <ele>31.86</ele>
        <time>2013-11-24T14:12:48Z</time>
      </trkpt>
      <trkpt lat="48.72345" lon="-3.27275">
        <ele>31.86</ele>
        <time>2013-11-24T14:12:50Z</time>
      </trkpt>
      <trkpt lat="48.72346" lon="-3.27278">
        <ele>31.38</ele>
        <time>2013-11-24T14:12:52Z</time>
      </trkpt>
      <trkpt lat="48.72353" lon="-3.27278">
        <ele>31.38</ele>
        <time>2013-11-24T14:12:54Z</time>
      </trkpt>
      <trkpt lat="48.72356" lon="-3.2728">
        <ele>31.38</ele>
        <time>2013-11-24T14:12:56Z</time>
      </trkpt>
      <trkpt lat="48.72358" lon="-3.2728">
        <ele>31.38</ele>
        <time>2013-11-24T14:12:58Z</time>
      </trkpt>
      <trkpt lat="48.7236" lon="-3.27281">
        <ele>31.38</ele>
        <time>2013-11-24T14:13:00Z</time>
      </trkpt>
      <trkpt lat="48.72363" lon="-3.2728">
        <ele>31.38</ele>
        <time>2013-11-24T14:13:02Z</time>
      </trkpt>
      <trkpt lat="48.72365" lon="-3.27281">
        <ele>30.42</ele>
        <time>2013-11-24T14:13:04Z</time>
      </trkpt>
      <trkpt lat="48.72367" lon="-3.2728">
        <ele>30.42</ele>
        <time>2013-11-24T14:13:06Z</time>
      </trkpt>
      <trkpt lat="48.72369" lon="-3.2728">
        <ele>30.42</ele>
        <time>2013-11-24T14:13:08Z</time>
      </trkpt>
      <trkpt lat="48.7237" lon="-3.2728">
        <ele>30.42</ele>
        <time>2013-11-24T14:13:10Z</time>
      </trkpt>
      <trkpt lat="48.72371" lon="-3.27279">
        <ele>30.42</ele>
        <time>2013-11-24T14:13:12Z</time>
      </trkpt>
      <trkpt lat="48.72373" lon="-3.27278">
        <ele>29.94</ele>
        <time>2013-11-24T14:13:14Z</time>
      </trkpt>
      <trkpt lat="48.72375" lon="-3.27277">
        <ele>29.94</ele>
        <time>2013-11-24T14:13:16Z</time>
      </trkpt>
      <trkpt lat="48.72378" lon="-3.27276">
        <ele>29.94</ele>
        <time>2013-11-24T14:13:18Z</time>
      </trkpt>
      <trkpt lat="48.72379" lon="-3.27276">
        <ele>29.94</ele>
        <time>2013-11-24T14:13:20Z</time>
      </trkpt>
      <trkpt lat="48.72381" lon="-3.27275">
        <ele>29.94</ele>
        <time>2013-11-24T14:13:22Z</time>
      </trkpt>
      <trkpt lat="48.72383" lon="-3.27273">
        <ele>29.46</ele>
        <time>2013-11-24T14:13:24Z</time>
      </trkpt>
      <trkpt lat="48.72384" lon="-3.27272">
        <ele>29.46</ele>
        <time>2013-11-24T14:13:26Z</time>
      </trkpt>
      <trkpt lat="48.72387" lon="-3.27271">
        <ele>29.46</ele>
        <time>2013-11-24T14:13:28Z</time>
      </trkpt>
      <trkpt lat="48.72389" lon="-3.2727">
        <ele>29.46</ele>
        <time>2013-11-24T14:13:30Z</time>
      </trkpt>
      <trkpt lat="48.7239" lon="-3.2727">
        <ele>29.46</ele>
        <time>2013-11-24T14:13:32Z</time>
      </trkpt>
      <trkpt lat="48.72393" lon="-3.27269">
        <ele>29.46</ele>
        <time>2013-11-24T14:13:34Z</time>
      </trkpt>
      <trkpt lat="48.72395" lon="-3.27268">
        <ele>28.98</ele>
        <time>2013-11-24T14:13:36Z</time>
      </trkpt>
      <trkpt lat="48.72398" lon="-3.27267">
        <ele>28.98</ele>
        <time>2013-11-24T14:13:38Z</time>
      </trkpt>
      <trkpt lat="48.72399" lon="-3.27266">
        <ele>28.98</ele>
        <time>2013-11-24T14:13:40Z</time>
      </trkpt>
      <trkpt lat="48.724" lon="-3.27265">
        <ele>28.98</ele>
        <time>2013-11-24T14:13:42Z</time>
      </trkpt>
      <trkpt lat="48.72402" lon="-3.27264">
        <ele>28.98</ele>
        <time>2013-11-24T14:13:44Z</time>
      </trkpt>
      <trkpt lat="48.72404" lon="-3.27264">
        <ele>28.5</ele>
        <time>2013-11-24T14:13:46Z</time>
      </trkpt>
      <trkpt lat="48.72404" lon="-3.27262">
        <ele>28.5</ele>
        <time>2013-11-24T14:13:48Z</time>
      </trkpt>
      <trkpt lat="48.72406" lon="-3.27262">
        <ele>28.5</ele>
        <time>2013-11-24T14:13:50Z</time>
      </trkpt>
      <trkpt lat="48.72407" lon="-3.27261">
        <ele>28.5</ele>
        <time>2013-11-24T14:13:52Z</time>
      </trkpt>
      <trkpt lat="48.72408" lon="-3.2726">
        <ele>28.5</ele>
        <time>2013-11-24T14:13:54Z</time>
      </trkpt>
      <trkpt lat="48.72408" lon="-3.2726">
        <ele>28.5</ele>
        <time>2013-11-24T14:13:56Z</time>
      </trkpt>
      <trkpt lat="48.72409" lon="-3.27258">
        <ele>28.5</ele>
        <time>2013-11-24T14:13:58Z</time>
      </trkpt>
      <trkpt lat="48.72409" lon="-3.27256">
        <ele>28.5</ele>
        <time>2013-11-24T14:14:00Z</time>
      </trkpt>
      <trkpt lat="48.7241" lon="-3.27255">
        <ele>28.02</ele>
        <time>2013-11-24T14:14:02Z</time>
      </trkpt>
      <trkpt lat="48.72412" lon="-3.27254">
        <ele>27.53</ele>
        <time>2013-11-24T14:14:04Z</time>
      </trkpt>
      <trkpt lat="48.72413" lon="-3.27252">
        <ele>27.53</ele>
        <time>2013-11-24T14:14:06Z</time>
      </trkpt>
      <trkpt lat="48.72414" lon="-3.27252">
        <ele>27.53</ele>
        <time>2013-11-24T14:14:08Z</time>
      </trkpt>
      <trkpt lat="48.72416" lon="-3.27251">
        <ele>27.53</ele>
        <time>2013-11-24T14:14:10Z</time>
      </trkpt>
      <trkpt lat="48.72422" lon="-3.2725">
        <ele>27.53</ele>
        <time>2013-11-24T14:14:12Z</time>
      </trkpt>
      <trkpt lat="48.72426" lon="-3.2725">
        <ele>27.53</ele>
        <time>2013-11-24T14:14:14Z</time>
      </trkpt>
      <trkpt lat="48.72429" lon="-3.27248">
        <ele>27.53</ele>
        <time>2013-11-24T14:14:16Z</time>
      </trkpt>
      <trkpt lat="48.7243" lon="-3.27247">
        <ele>27.53</ele>
        <time>2013-11-24T14:14:18Z</time>
      </trkpt>
      <trkpt lat="48.72431" lon="-3.27246">
        <ele>27.53</ele>
        <time>2013-11-24T14:14:20Z</time>
      </trkpt>
      <trkpt lat="48.72432" lon="-3.27246">
        <ele>27.53</ele>
        <time>2013-11-24T14:14:22Z</time>
      </trkpt>
      <trkpt lat="48.72434" lon="-3.27245">
        <ele>27.53</ele>
        <time>2013-11-24T14:14:24Z</time>
      </trkpt>
      <trkpt lat="48.72435" lon="-3.27243">
        <ele>27.53</ele>
        <time>2013-11-24T14:14:26Z</time>
      </trkpt>
      <trkpt lat="48.72437" lon="-3.27242">
        <ele>27.53</ele>
        <time>2013-11-24T14:14:28Z</time>
      </trkpt>
      <trkpt lat="48.7244" lon="-3.27239">
        <ele>27.53</ele>
        <time>2013-11-24T14:14:30Z</time>
      </trkpt>
      <trkpt lat="48.72447" lon="-3.27239">
        <ele>27.53</ele>
        <time>2013-11-24T14:14:32Z</time>
      </trkpt>
      <trkpt lat="48.72451" lon="-3.2724">
        <ele>27.53</ele>
        <time>2013-11-24T14:14:34Z</time>
      </trkpt>
      <trkpt lat="48.72453" lon="-3.27239">
        <ele>27.53</ele>
        <time>2013-11-24T14:14:36Z</time>
      </trkpt>
      <trkpt lat="48.72455" lon="-3.27238">
        <ele>27.53</ele>
        <time>2013-11-24T14:14:38Z</time>
      </trkpt>
      <trkpt lat="48.72457" lon="-3.27236">
        <ele>27.05</ele>
        <time>2013-11-24T14:14:40Z</time>
      </trkpt>
      <trkpt lat="48.72458" lon="-3.27234">
        <ele>27.05</ele>
        <time>2013-11-24T14:14:42Z</time>
      </trkpt>
      <trkpt lat="48.72459" lon="-3.27232">
        <ele>26.57</ele>
        <time>2013-11-24T14:14:44Z</time>
      </trkpt>
      <trkpt lat="48.72461" lon="-3.27231">
        <ele>26.57</ele>
        <time>2013-11-24T14:14:46Z</time>
      </trkpt>
      <trkpt lat="48.72464" lon="-3.27229">
        <ele>26.57</ele>
        <time>2013-11-24T14:14:48Z</time>
      </trkpt>
      <trkpt lat="48.72467" lon="-3.27227">
        <ele>26.57</ele>
        <time>2013-11-24T14:14:50Z</time>
      </trkpt>
      <trkpt lat="48.72471" lon="-3.27225">
        <ele>26.57</ele>
        <time>2013-11-24T14:14:52Z</time>
      </trkpt>
      <trkpt lat="48.72473" lon="-3.27224">
        <ele>26.57</ele>
        <time>2013-11-24T14:14:54Z</time>
      </trkpt>
      <trkpt lat="48.72475" lon="-3.27222">
        <ele>26.57</ele>
        <time>2013-11-24T14:14:56Z</time>
      </trkpt>
      <trkpt lat="48.72476" lon="-3.2722">
        <ele>26.57</ele>
        <time>2013-11-24T14:14:58Z</time>
      </trkpt>
      <trkpt lat="48.72478" lon="-3.27219">
        <ele>26.57</ele>
        <time>2013-11-24T14:15:00Z</time>
      </trkpt>
      <trkpt lat="48.72479" lon="-3.27218">
        <ele>26.57</ele>
        <time>2013-11-24T14:15:02Z</time>
      </trkpt>
      <trkpt lat="48.7248" lon="-3.27217">
        <ele>26.57</ele>
        <time>2013-11-24T14:15:04Z</time>
      </trkpt>
      <trkpt lat="48.72482" lon="-3.27217">
        <ele>26.57</ele>
        <time>2013-11-24T14:15:06Z</time>
      </trkpt>
      <trkpt lat="48.72483" lon="-3.27216">
        <ele>26.57</ele>
        <time>2013-11-24T14:15:08Z</time>
      </trkpt>
      <trkpt lat="48.72485" lon="-3.27216">
        <ele>26.57</ele>
        <time>2013-11-24T14:15:10Z</time>
      </trkpt>
      <trkpt lat="48.72487" lon="-3.27215">
        <ele>26.57</ele>
        <time>2013-11-24T14:15:12Z</time>
      </trkpt>
      <trkpt lat="48.72488" lon="-3.27214">
        <ele>26.57</ele>
        <time>2013-11-24T14:15:14Z</time>
      </trkpt>
      <trkpt lat="48.7249" lon="-3.27213">
        <ele>26.57</ele>
        <time>2013-11-24T14:15:16Z</time>
      </trkpt>
      <trkpt lat="48.7249" lon="-3.27212">
        <ele>26.57</ele>
        <time>2013-11-24T14:15:18Z</time>
      </trkpt>
      <trkpt lat="48.72492" lon="-3.27211">
        <ele>26.57</ele>
        <time>2013-11-24T14:15:20Z</time>
      </trkpt>
      <trkpt lat="48.72494" lon="-3.27209">
        <ele>26.57</ele>
        <time>2013-11-24T14:15:22Z</time>
      </trkpt>
      <trkpt lat="48.72497" lon="-3.27208">
        <ele>26.57</ele>
        <time>2013-11-24T14:15:24Z</time>
      </trkpt>
      <trkpt lat="48.725" lon="-3.27208">
        <ele>26.57</ele>
        <time>2013-11-24T14:15:26Z</time>
      </trkpt>
      <trkpt lat="48.72502" lon="-3.27207">
        <ele>26.09</ele>
        <time>2013-11-24T14:15:28Z</time>
      </trkpt>
      <trkpt lat="48.72503" lon="-3.27206">
        <ele>26.09</ele>
        <time>2013-11-24T14:15:30Z</time>
      </trkpt>
      <trkpt lat="48.72506" lon="-3.27205">
        <ele>26.09</ele>
        <time>2013-11-24T14:15:32Z</time>
      </trkpt>
      <trkpt lat="48.72508" lon="-3.27203">
        <ele>26.09</ele>
        <time>2013-11-24T14:15:34Z</time>
      </trkpt>
      <trkpt lat="48.72509" lon="-3.27201">
        <ele>26.09</ele>
        <time>2013-11-24T14:15:36Z</time>
      </trkpt>
      <trkpt lat="48.72514" lon="-3.27198">
        <ele>26.09</ele>
        <time>2013-11-24T14:15:38Z</time>
      </trkpt>
      <trkpt lat="48.72517" lon="-3.27196">
        <ele>26.09</ele>
        <time>2013-11-24T14:15:40Z</time>
      </trkpt>
      <trkpt lat="48.7252" lon="-3.27194">
        <ele>26.09</ele>
        <time>2013-11-24T14:15:42Z</time>
      </trkpt>
      <trkpt lat="48.72524" lon="-3.27193">
        <ele>26.09</ele>
        <time>2013-11-24T14:15:44Z</time>
      </trkpt>
      <trkpt lat="48.72528" lon="-3.27192">
        <ele>26.09</ele>
        <time>2013-11-24T14:15:46Z</time>
      </trkpt>
      <trkpt lat="48.7253" lon="-3.27191">
        <ele>26.09</ele>
        <time>2013-11-24T14:15:48Z</time>
      </trkpt>
      <trkpt lat="48.72532" lon="-3.2719">
        <ele>26.09</ele>
        <time>2013-11-24T14:15:50Z</time>
      </trkpt>
      <trkpt lat="48.72534" lon="-3.27189">
        <ele>26.09</ele>
        <time>2013-11-24T14:15:52Z</time>
      </trkpt>
      <trkpt lat="48.72536" lon="-3.27188">
        <ele>26.09</ele>
        <time>2013-11-24T14:15:54Z</time>
      </trkpt>
      <trkpt lat="48.72537" lon="-3.27187">
        <ele>26.09</ele>
        <time>2013-11-24T14:15:56Z</time>
      </trkpt>
      <trkpt lat="48.72539" lon="-3.27185">
        <ele>26.09</ele>
        <time>2013-11-24T14:15:58Z</time>
      </trkpt>
      <trkpt lat="48.72541" lon="-3.27184">
        <ele>26.09</ele>
        <time>2013-11-24T14:16:00Z</time>
      </trkpt>
      <trkpt lat="48.72543" lon="-3.27184">
        <ele>26.09</ele>
        <time>2013-11-24T14:16:02Z</time>
      </trkpt>
      <trkpt lat="48.72545" lon="-3.27183">
        <ele>25.61</ele>
        <time>2013-11-24T14:16:04Z</time>
      </trkpt>
      <trkpt lat="48.72547" lon="-3.27183">
        <ele>25.61</ele>
        <time>2013-11-24T14:16:06Z</time>
      </trkpt>
      <trkpt lat="48.72549" lon="-3.27178">
        <ele>25.61</ele>
        <time>2013-11-24T14:16:08Z</time>
      </trkpt>
      <trkpt lat="48.72549" lon="-3.27176">
        <ele>25.61</ele>
        <time>2013-11-24T14:16:10Z</time>
      </trkpt>
      <trkpt lat="48.72551" lon="-3.27173">
        <ele>25.61</ele>
        <time>2013-11-24T14:16:12Z</time>
      </trkpt>
      <trkpt lat="48.72553" lon="-3.27172">
        <ele>25.61</ele>
        <time>2013-11-24T14:16:14Z</time>
      </trkpt>
      <trkpt lat="48.72555" lon="-3.27171">
        <ele>25.61</ele>
        <time>2013-11-24T14:16:16Z</time>
      </trkpt>
      <trkpt lat="48.72556" lon="-3.2717">
        <ele>25.61</ele>
        <time>2013-11-24T14:16:18Z</time>
      </trkpt>
      <trkpt lat="48.72558" lon="-3.27168">
        <ele>25.61</ele>
        <time>2013-11-24T14:16:20Z</time>
      </trkpt>
      <trkpt lat="48.72558" lon="-3.27167">
        <ele>25.61</ele>
        <time>2013-11-24T14:16:22Z</time>
      </trkpt>
      <trkpt lat="48.72559" lon="-3.27167">
        <ele>25.61</ele>
        <time>2013-11-24T14:16:24Z</time>
      </trkpt>
      <trkpt lat="48.72562" lon="-3.27167">
        <ele>25.61</ele>
        <time>2013-11-24T14:16:26Z</time>
      </trkpt>
      <trkpt lat="48.72564" lon="-3.27167">
        <ele>25.61</ele>
        <time>2013-11-24T14:16:28Z</time>
      </trkpt>
      <trkpt lat="48.72567" lon="-3.27166">
        <ele>25.61</ele>
        <time>2013-11-24T14:16:30Z</time>
      </trkpt>
      <trkpt lat="48.72569" lon="-3.27165">
        <ele>25.61</ele>
        <time>2013-11-24T14:16:32Z</time>
      </trkpt>
      <trkpt lat="48.7257" lon="-3.27166">
        <ele>25.61</ele>
        <time>2013-11-24T14:16:34Z</time>
      </trkpt>
      <trkpt lat="48.72573" lon="-3.27166">
        <ele>25.61</ele>
        <time>2013-11-24T14:16:36Z</time>
      </trkpt>
      <trkpt lat="48.72575" lon="-3.27164">
        <ele>25.61</ele>
        <time>2013-11-24T14:16:38Z</time>
      </trkpt>
      <trkpt lat="48.72578" lon="-3.27162">
        <ele>25.61</ele>
        <time>2013-11-24T14:16:40Z</time>
      </trkpt>
      <trkpt lat="48.72581" lon="-3.27163">
        <ele>25.61</ele>
        <time>2013-11-24T14:16:42Z</time>
      </trkpt>
      <trkpt lat="48.72583" lon="-3.27163">
        <ele>25.61</ele>
        <time>2013-11-24T14:16:44Z</time>
      </trkpt>
      <trkpt lat="48.72584" lon="-3.27163">
        <ele>25.61</ele>
        <time>2013-11-24T14:16:46Z</time>
      </trkpt>
      <trkpt lat="48.72585" lon="-3.27162">
        <ele>25.13</ele>
        <time>2013-11-24T14:16:48Z</time>
      </trkpt>
      <trkpt lat="48.72586" lon="-3.27161">
        <ele>25.13</ele>
        <time>2013-11-24T14:16:50Z</time>
      </trkpt>
      <trkpt lat="48.72588" lon="-3.2716">
        <ele>25.13</ele>
        <time>2013-11-24T14:16:52Z</time>
      </trkpt>
      <trkpt lat="48.72589" lon="-3.27159">
        <ele>25.13</ele>
        <time>2013-11-24T14:16:54Z</time>
      </trkpt>
      <trkpt lat="48.72592" lon="-3.27159">
        <ele>26.57</ele>
        <time>2013-11-24T14:16:56Z</time>
      </trkpt>
      <trkpt lat="48.72593" lon="-3.27158">
        <ele>26.57</ele>
        <time>2013-11-24T14:16:58Z</time>
      </trkpt>
      <trkpt lat="48.72595" lon="-3.27157">
        <ele>26.57</ele>
        <time>2013-11-24T14:17:00Z</time>
      </trkpt>
      <trkpt lat="48.72596" lon="-3.27156">
        <ele>26.57</ele>
        <time>2013-11-24T14:17:02Z</time>
      </trkpt>
      <trkpt lat="48.72598" lon="-3.27156">
        <ele>26.57</ele>
        <time>2013-11-24T14:17:04Z</time>
      </trkpt>
      <trkpt lat="48.72601" lon="-3.27156">
        <ele>26.57</ele>
        <time>2013-11-24T14:17:06Z</time>
      </trkpt>
      <trkpt lat="48.72603" lon="-3.27156">
        <ele>26.57</ele>
        <time>2013-11-24T14:17:08Z</time>
      </trkpt>
      <trkpt lat="48.72605" lon="-3.27156">
        <ele>26.57</ele>
        <time>2013-11-24T14:17:10Z</time>
      </trkpt>
      <trkpt lat="48.72606" lon="-3.27155">
        <ele>27.05</ele>
        <time>2013-11-24T14:17:12Z</time>
      </trkpt>
      <trkpt lat="48.72607" lon="-3.27155">
        <ele>26.57</ele>
        <time>2013-11-24T14:17:14Z</time>
      </trkpt>
      <trkpt lat="48.72609" lon="-3.27155">
        <ele>26.57</ele>
        <time>2013-11-24T14:17:16Z</time>
      </trkpt>
      <trkpt lat="48.7261" lon="-3.27155">
        <ele>26.57</ele>
        <time>2013-11-24T14:17:18Z</time>
      </trkpt>
      <trkpt lat="48.72612" lon="-3.27155">
        <ele>26.57</ele>
        <time>2013-11-24T14:17:20Z</time>
      </trkpt>
      <trkpt lat="48.72613" lon="-3.27154">
        <ele>26.57</ele>
        <time>2013-11-24T14:17:22Z</time>
      </trkpt>
      <trkpt lat="48.72615" lon="-3.27153">
        <ele>26.57</ele>
        <time>2013-11-24T14:17:24Z</time>
      </trkpt>
      <trkpt lat="48.72617" lon="-3.27154">
        <ele>26.57</ele>
        <time>2013-11-24T14:17:26Z</time>
      </trkpt>
      <trkpt lat="48.72618" lon="-3.27154">
        <ele>26.57</ele>
        <time>2013-11-24T14:17:28Z</time>
      </trkpt>
      <trkpt lat="48.7262" lon="-3.27153">
        <ele>27.05</ele>
        <time>2013-11-24T14:17:30Z</time>
      </trkpt>
      <trkpt lat="48.72621" lon="-3.27152">
        <ele>27.05</ele>
        <time>2013-11-24T14:17:32Z</time>
      </trkpt>
      <trkpt lat="48.72623" lon="-3.2715">
        <ele>27.05</ele>
        <time>2013-11-24T14:17:34Z</time>
      </trkpt>
      <trkpt lat="48.72624" lon="-3.27149">
        <ele>27.05</ele>
        <time>2013-11-24T14:17:36Z</time>
      </trkpt>
      <trkpt lat="48.72626" lon="-3.27147">
        <ele>27.05</ele>
        <time>2013-11-24T14:17:38Z</time>
      </trkpt>
      <trkpt lat="48.72627" lon="-3.27147">
        <ele>27.05</ele>
        <time>2013-11-24T14:17:40Z</time>
      </trkpt>
      <trkpt lat="48.72628" lon="-3.27146">
        <ele>27.05</ele>
        <time>2013-11-24T14:17:42Z</time>
      </trkpt>
      <trkpt lat="48.72629" lon="-3.27144">
        <ele>27.05</ele>
        <time>2013-11-24T14:17:44Z</time>
      </trkpt>
      <trkpt lat="48.7263" lon="-3.27144">
        <ele>27.05</ele>
        <time>2013-11-24T14:17:46Z</time>
      </trkpt>
      <trkpt lat="48.7263" lon="-3.27143">
        <ele>27.53</ele>
        <time>2013-11-24T14:17:48Z</time>
      </trkpt>
      <trkpt lat="48.7263" lon="-3.27141">
        <ele>27.53</ele>
        <time>2013-11-24T14:17:50Z</time>
      </trkpt>
      <trkpt lat="48.72631" lon="-3.27139">
        <ele>27.53</ele>
        <time>2013-11-24T14:17:52Z</time>
      </trkpt>
      <trkpt lat="48.72632" lon="-3.27138">
        <ele>27.53</ele>
        <time>2013-11-24T14:17:54Z</time>
      </trkpt>
      <trkpt lat="48.72633" lon="-3.27137">
        <ele>27.53</ele>
        <time>2013-11-24T14:17:56Z</time>
      </trkpt>
      <trkpt lat="48.72635" lon="-3.27136">
        <ele>27.53</ele>
        <time>2013-11-24T14:17:58Z</time>
      </trkpt>
      <trkpt lat="48.72636" lon="-3.27136">
        <ele>27.53</ele>
        <time>2013-11-24T14:18:00Z</time>
      </trkpt>
      <trkpt lat="48.72639" lon="-3.27137">
        <ele>27.53</ele>
        <time>2013-11-24T14:18:02Z</time>
      </trkpt>
      <trkpt lat="48.72641" lon="-3.27137">
        <ele>27.53</ele>
        <time>2013-11-24T14:18:04Z</time>
      </trkpt>
      <trkpt lat="48.72643" lon="-3.27136">
        <ele>27.53</ele>
        <time>2013-11-24T14:18:06Z</time>
      </trkpt>
      <trkpt lat="48.72645" lon="-3.27136">
        <ele>27.53</ele>
        <time>2013-11-24T14:18:08Z</time>
      </trkpt>
      <trkpt lat="48.72646" lon="-3.27136">
        <ele>27.53</ele>
        <time>2013-11-24T14:18:10Z</time>
      </trkpt>
      <trkpt lat="48.72647" lon="-3.27136">
        <ele>28.02</ele>
        <time>2013-11-24T14:18:12Z</time>
      </trkpt>
      <trkpt lat="48.72649" lon="-3.27135">
        <ele>28.02</ele>
        <time>2013-11-24T14:18:14Z</time>
      </trkpt>
      <trkpt lat="48.7265" lon="-3.27133">
        <ele>28.02</ele>
        <time>2013-11-24T14:18:16Z</time>
      </trkpt>
      <trkpt lat="48.7265" lon="-3.27132">
        <ele>28.02</ele>
        <time>2013-11-24T14:18:18Z</time>
      </trkpt>
      <trkpt lat="48.72651" lon="-3.27132">
        <ele>28.02</ele>
        <time>2013-11-24T14:18:20Z</time>
      </trkpt>
      <trkpt lat="48.72652" lon="-3.27131">
        <ele>28.02</ele>
        <time>2013-11-24T14:18:22Z</time>
      </trkpt>
      <trkpt lat="48.72653" lon="-3.27131">
        <ele>28.02</ele>
        <time>2013-11-24T14:18:24Z</time>
      </trkpt>
      <trkpt lat="48.72654" lon="-3.2713">
        <ele>28.5</ele>
        <time>2013-11-24T14:18:26Z</time>
      </trkpt>
      <trkpt lat="48.72655" lon="-3.27129">
        <ele>28.5</ele>
        <time>2013-11-24T14:18:28Z</time>
      </trkpt>
      <trkpt lat="48.72657" lon="-3.27129">
        <ele>28.5</ele>
        <time>2013-11-24T14:18:30Z</time>
      </trkpt>
      <trkpt lat="48.72658" lon="-3.27128">
        <ele>28.5</ele>
        <time>2013-11-24T14:18:32Z</time>
      </trkpt>
      <trkpt lat="48.72661" lon="-3.27128">
        <ele>28.5</ele>
        <time>2013-11-24T14:18:34Z</time>
      </trkpt>
      <trkpt lat="48.72663" lon="-3.27129">
        <ele>28.5</ele>
        <time>2013-11-24T14:18:36Z</time>
      </trkpt>
      <trkpt lat="48.72665" lon="-3.2713">
        <ele>28.5</ele>
        <time>2013-11-24T14:18:38Z</time>
      </trkpt>
      <trkpt lat="48.72666" lon="-3.27131">
        <ele>28.5</ele>
        <time>2013-11-24T14:18:40Z</time>
      </trkpt>
      <trkpt lat="48.72669" lon="-3.27131">
        <ele>28.5</ele>
        <time>2013-11-24T14:18:42Z</time>
      </trkpt>
      <trkpt lat="48.7267" lon="-3.2713">
        <ele>28.5</ele>
        <time>2013-11-24T14:18:44Z</time>
      </trkpt>
      <trkpt lat="48.7267" lon="-3.2713">
        <ele>28.5</ele>
        <time>2013-11-24T14:18:46Z</time>
      </trkpt>
      <trkpt lat="48.72672" lon="-3.2713">
        <ele>28.5</ele>
        <time>2013-11-24T14:18:48Z</time>
      </trkpt>
      <trkpt lat="48.72675" lon="-3.27129">
        <ele>28.5</ele>
        <time>2013-11-24T14:18:50Z</time>
      </trkpt>
      <trkpt lat="48.72676" lon="-3.27128">
        <ele>28.5</ele>
        <time>2013-11-24T14:18:52Z</time>
      </trkpt>
      <trkpt lat="48.72678" lon="-3.27128">
        <ele>28.98</ele>
        <time>2013-11-24T14:18:54Z</time>
      </trkpt>
      <trkpt lat="48.72679" lon="-3.27128">
        <ele>28.98</ele>
        <time>2013-11-24T14:18:56Z</time>
      </trkpt>
      <trkpt lat="48.72681" lon="-3.27128">
        <ele>28.98</ele>
        <time>2013-11-24T14:18:58Z</time>
      </trkpt>
      <trkpt lat="48.72683" lon="-3.27127">
        <ele>28.98</ele>
        <time>2013-11-24T14:19:00Z</time>
      </trkpt>
      <trkpt lat="48.72684" lon="-3.27126">
        <ele>28.98</ele>
        <time>2013-11-24T14:19:02Z</time>
      </trkpt>
      <trkpt lat="48.72686" lon="-3.27125">
        <ele>28.98</ele>
        <time>2013-11-24T14:19:04Z</time>
      </trkpt>
      <trkpt lat="48.72687" lon="-3.27123">
        <ele>28.98</ele>
        <time>2013-11-24T14:19:06Z</time>
      </trkpt>
      <trkpt lat="48.72688" lon="-3.27122">
        <ele>28.98</ele>
        <time>2013-11-24T14:19:08Z</time>
      </trkpt>
      <trkpt lat="48.7269" lon="-3.27121">
        <ele>29.46</ele>
        <time>2013-11-24T14:19:10Z</time>
      </trkpt>
      <trkpt lat="48.72693" lon="-3.27121">
        <ele>29.46</ele>
        <time>2013-11-24T14:19:12Z</time>
      </trkpt>
      <trkpt lat="48.72695" lon="-3.27119">
        <ele>29.46</ele>
        <time>2013-11-24T14:19:14Z</time>
      </trkpt>
      <trkpt lat="48.72698" lon="-3.27119">
        <ele>29.46</ele>
        <time>2013-11-24T14:19:16Z</time>
      </trkpt>
      <trkpt lat="48.727" lon="-3.27118">
        <ele>29.46</ele>
        <time>2013-11-24T14:19:18Z</time>
      </trkpt>
      <trkpt lat="48.727" lon="-3.27119">
        <ele>29.46</ele>
        <time>2013-11-24T14:19:20Z</time>
      </trkpt>
      <trkpt lat="48.72699" lon="-3.27119">
        <ele>29.94</ele>
        <time>2013-11-24T14:19:22Z</time>
      </trkpt>
      <trkpt lat="48.72699" lon="-3.27119">
        <ele>29.94</ele>
        <time>2013-11-24T14:19:24Z</time>
      </trkpt>
      <trkpt lat="48.72699" lon="-3.27119">
        <ele>29.94</ele>
        <time>2013-11-24T14:19:26Z</time>
      </trkpt>
      <trkpt lat="48.727" lon="-3.27118">
        <ele>29.94</ele>
        <time>2013-11-24T14:19:28Z</time>
      </trkpt>
      <trkpt lat="48.72701" lon="-3.27117">
        <ele>29.94</ele>
        <time>2013-11-24T14:19:30Z</time>
      </trkpt>
      <trkpt lat="48.72701" lon="-3.27116">
        <ele>29.94</ele>
        <time>2013-11-24T14:19:32Z</time>
      </trkpt>
      <trkpt lat="48.72701" lon="-3.27115">
        <ele>29.94</ele>
        <time>2013-11-24T14:19:34Z</time>
      </trkpt>
      <trkpt lat="48.72702" lon="-3.27112">
        <ele>29.94</ele>
        <time>2013-11-24T14:19:36Z</time>
      </trkpt>
      <trkpt lat="48.72703" lon="-3.2711">
        <ele>29.94</ele>
        <time>2013-11-24T14:19:38Z</time>
      </trkpt>
      <trkpt lat="48.72704" lon="-3.27109">
        <ele>30.42</ele>
        <time>2013-11-24T14:19:40Z</time>
      </trkpt>
      <trkpt lat="48.72706" lon="-3.27108">
        <ele>30.42</ele>
        <time>2013-11-24T14:19:42Z</time>
      </trkpt>
      <trkpt lat="48.72707" lon="-3.27107">
        <ele>30.42</ele>
        <time>2013-11-24T14:19:44Z</time>
      </trkpt>
      <trkpt lat="48.72709" lon="-3.27107">
        <ele>30.42</ele>
        <time>2013-11-24T14:19:46Z</time>
      </trkpt>
      <trkpt lat="48.72711" lon="-3.27106">
        <ele>30.42</ele>
        <time>2013-11-24T14:19:48Z</time>
      </trkpt>
      <trkpt lat="48.72713" lon="-3.27105">
        <ele>30.42</ele>
        <time>2013-11-24T14:19:50Z</time>
      </trkpt>
      <trkpt lat="48.72717" lon="-3.27103">
        <ele>30.42</ele>
        <time>2013-11-24T14:19:52Z</time>
      </trkpt>
      <trkpt lat="48.72718" lon="-3.27101">
        <ele>30.42</ele>
        <time>2013-11-24T14:19:54Z</time>
      </trkpt>
      <trkpt lat="48.7272" lon="-3.27099">
        <ele>30.42</ele>
        <time>2013-11-24T14:19:56Z</time>
      </trkpt>
      <trkpt lat="48.72721" lon="-3.27098">
        <ele>30.42</ele>
        <time>2013-11-24T14:19:58Z</time>
      </trkpt>
      <trkpt lat="48.72723" lon="-3.27097">
        <ele>30.42</ele>
        <time>2013-11-24T14:20:00Z</time>
      </trkpt>
      <trkpt lat="48.72725" lon="-3.27095">
        <ele>30.42</ele>
        <time>2013-11-24T14:20:02Z</time>
      </trkpt>
      <trkpt lat="48.72728" lon="-3.27093">
        <ele>30.42</ele>
        <time>2013-11-24T14:20:04Z</time>
      </trkpt>
      <trkpt lat="48.7273" lon="-3.27091">
        <ele>30.42</ele>
        <time>2013-11-24T14:20:06Z</time>
      </trkpt>
      <trkpt lat="48.72732" lon="-3.27089">
        <ele>30.42</ele>
        <time>2013-11-24T14:20:08Z</time>
      </trkpt>
      <trkpt lat="48.72734" lon="-3.27088">
        <ele>31.38</ele>
        <time>2013-11-24T14:20:10Z</time>
      </trkpt>
      <trkpt lat="48.72736" lon="-3.27087">
        <ele>31.38</ele>
        <time>2013-11-24T14:20:12Z</time>
      </trkpt>
      <trkpt lat="48.72738" lon="-3.27086">
        <ele>31.38</ele>
        <time>2013-11-24T14:20:14Z</time>
      </trkpt>
      <trkpt lat="48.7274" lon="-3.27086">
        <ele>30.9</ele>
        <time>2013-11-24T14:20:16Z</time>
      </trkpt>
      <trkpt lat="48.72742" lon="-3.27085">
        <ele>31.38</ele>
        <time>2013-11-24T14:20:18Z</time>
      </trkpt>
      <trkpt lat="48.72744" lon="-3.27084">
        <ele>31.38</ele>
        <time>2013-11-24T14:20:20Z</time>
      </trkpt>
      <trkpt lat="48.72746" lon="-3.27084">
        <ele>30.9</ele>
        <time>2013-11-24T14:20:22Z</time>
      </trkpt>
      <trkpt lat="48.72748" lon="-3.27085">
        <ele>31.38</ele>
        <time>2013-11-24T14:20:24Z</time>
      </trkpt>
      <trkpt lat="48.72749" lon="-3.27086">
        <ele>31.38</ele>
        <time>2013-11-24T14:20:26Z</time>
      </trkpt>
      <trkpt lat="48.72751" lon="-3.27086">
        <ele>31.38</ele>
        <time>2013-11-24T14:20:28Z</time>
      </trkpt>
      <trkpt lat="48.72753" lon="-3.27087">
        <ele>31.38</ele>
        <time>2013-11-24T14:20:30Z</time>
      </trkpt>
      <trkpt lat="48.72755" lon="-3.27088">
        <ele>31.38</ele>
        <time>2013-11-24T14:20:32Z</time>
      </trkpt>
      <trkpt lat="48.72756" lon="-3.27088">
        <ele>31.86</ele>
        <time>2013-11-24T14:20:34Z</time>
      </trkpt>
      <trkpt lat="48.72759" lon="-3.27088">
        <ele>31.86</ele>
        <time>2013-11-24T14:20:36Z</time>
      </trkpt>
      <trkpt lat="48.7276" lon="-3.2709">
        <ele>31.86</ele>
        <time>2013-11-24T14:20:38Z</time>
      </trkpt>
      <trkpt lat="48.72763" lon="-3.27091">
        <ele>31.86</ele>
        <time>2013-11-24T14:20:40Z</time>
      </trkpt>
      <trkpt lat="48.72765" lon="-3.27092">
        <ele>31.86</ele>
        <time>2013-11-24T14:20:42Z</time>
      </trkpt>
      <trkpt lat="48.72768" lon="-3.27092">
        <ele>31.86</ele>
        <time>2013-11-24T14:20:44Z</time>
      </trkpt>
      <trkpt lat="48.72769" lon="-3.27093">
        <ele>31.86</ele>
        <time>2013-11-24T14:20:46Z</time>
      </trkpt>
      <trkpt lat="48.72771" lon="-3.27093">
        <ele>32.34</ele>
        <time>2013-11-24T14:20:48Z</time>
      </trkpt>
      <trkpt lat="48.72773" lon="-3.27093">
        <ele>32.34</ele>
        <time>2013-11-24T14:20:50Z</time>
      </trkpt>
      <trkpt lat="48.72775" lon="-3.27091">
        <ele>32.34</ele>
        <time>2013-11-24T14:20:52Z</time>
      </trkpt>
      <trkpt lat="48.72777" lon="-3.27089">
        <ele>32.34</ele>
        <time>2013-11-24T14:20:54Z</time>
      </trkpt>
      <trkpt lat="48.72779" lon="-3.27088">
        <ele>32.34</ele>
        <time>2013-11-24T14:20:56Z</time>
      </trkpt>
      <trkpt lat="48.7278" lon="-3.27085">
        <ele>32.34</ele>
        <time>2013-11-24T14:20:58Z</time>
      </trkpt>
      <trkpt lat="48.7278" lon="-3.27082">
        <ele>32.82</ele>
        <time>2013-11-24T14:21:00Z</time>
      </trkpt>
      <trkpt lat="48.7278" lon="-3.27079">
        <ele>32.82</ele>
        <time>2013-11-24T14:21:02Z</time>
      </trkpt>
      <trkpt lat="48.72781" lon="-3.27076">
        <ele>32.82</ele>
        <time>2013-11-24T14:21:04Z</time>
      </trkpt>
      <trkpt lat="48.72781" lon="-3.27073">
        <ele>32.82</ele>
        <time>2013-11-24T14:21:06Z</time>
      </trkpt>
      <trkpt lat="48.72782" lon="-3.27071">
        <ele>32.82</ele>
        <time>2013-11-24T14:21:08Z</time>
      </trkpt>
      <trkpt lat="48.72781" lon="-3.27069">
        <ele>32.82</ele>
        <time>2013-11-24T14:21:10Z</time>
      </trkpt>
      <trkpt lat="48.72782" lon="-3.27067">
        <ele>32.82</ele>
        <time>2013-11-24T14:21:12Z</time>
      </trkpt>
      <trkpt lat="48.72782" lon="-3.27065">
        <ele>32.82</ele>
        <time>2013-11-24T14:21:14Z</time>
      </trkpt>
      <trkpt lat="48.72782" lon="-3.27066">
        <ele>32.82</ele>
        <time>2013-11-24T14:21:16Z</time>
      </trkpt>
      <trkpt lat="48.72782" lon="-3.27065">
        <ele>33.3</ele>
        <time>2013-11-24T14:21:18Z</time>
      </trkpt>
      <trkpt lat="48.72782" lon="-3.27065">
        <ele>33.3</ele>
        <time>2013-11-24T14:21:20Z</time>
      </trkpt>
      <trkpt lat="48.72782" lon="-3.27065">
        <ele>33.3</ele>
        <time>2013-11-24T14:21:22Z</time>
      </trkpt>
      <trkpt lat="48.72782" lon="-3.27065">
        <ele>33.3</ele>
        <time>2013-11-24T14:21:24Z</time>
      </trkpt>
      <trkpt lat="48.72782" lon="-3.27065">
        <ele>33.3</ele>
        <time>2013-11-24T14:21:26Z</time>
      </trkpt>
      <trkpt lat="48.72782" lon="-3.27065">
        <ele>33.3</ele>
        <time>2013-11-24T14:21:28Z</time>
      </trkpt>
      <trkpt lat="48.72782" lon="-3.27065">
        <ele>33.3</ele>
        <time>2013-11-24T14:21:30Z</time>
      </trkpt>
      <trkpt lat="48.72782" lon="-3.27064">
        <ele>33.3</ele>
        <time>2013-11-24T14:21:32Z</time>
      </trkpt>
      <trkpt lat="48.72782" lon="-3.27064">
        <ele>33.78</ele>
        <time>2013-11-24T14:21:34Z</time>
      </trkpt>
      <trkpt lat="48.72782" lon="-3.27064">
        <ele>33.78</ele>
        <time>2013-11-24T14:21:36Z</time>
      </trkpt>
      <trkpt lat="48.72782" lon="-3.27064">
        <ele>33.78</ele>
        <time>2013-11-24T14:21:38Z</time>
      </trkpt>
      <trkpt lat="48.72782" lon="-3.27063">
        <ele>33.78</ele>
        <time>2013-11-24T14:21:40Z</time>
      </trkpt>
      <trkpt lat="48.72782" lon="-3.27063">
        <ele>33.78</ele>
        <time>2013-11-24T14:21:42Z</time>
      </trkpt>
      <trkpt lat="48.72782" lon="-3.27063">
        <ele>33.78</ele>
        <time>2013-11-24T14:21:44Z</time>
      </trkpt>
      <trkpt lat="48.72782" lon="-3.27063">
        <ele>33.78</ele>
        <time>2013-11-24T14:21:46Z</time>
      </trkpt>
      <trkpt lat="48.72782" lon="-3.27063">
        <ele>33.78</ele>
        <time>2013-11-24T14:21:48Z</time>
      </trkpt>
      <trkpt lat="48.72782" lon="-3.27063">
        <ele>33.78</ele>
        <time>2013-11-24T14:21:50Z</time>
      </trkpt>
      <trkpt lat="48.72783" lon="-3.27062">
        <ele>33.78</ele>
        <time>2013-11-24T14:21:52Z</time>
      </trkpt>
      <trkpt lat="48.72783" lon="-3.2706">
        <ele>33.78</ele>
        <time>2013-11-24T14:21:54Z</time>
      </trkpt>
      <trkpt lat="48.72783" lon="-3.27058">
        <ele>33.78</ele>
        <time>2013-11-24T14:21:56Z</time>
      </trkpt>
      <trkpt lat="48.72784" lon="-3.27055">
        <ele>33.78</ele>
        <time>2013-11-24T14:21:58Z</time>
      </trkpt>
      <trkpt lat="48.72784" lon="-3.27053">
        <ele>33.78</ele>
        <time>2013-11-24T14:22:00Z</time>
      </trkpt>
      <trkpt lat="48.72785" lon="-3.2705">
        <ele>33.78</ele>
        <time>2013-11-24T14:22:02Z</time>
      </trkpt>
      <trkpt lat="48.72785" lon="-3.27047">
        <ele>33.78</ele>
        <time>2013-11-24T14:22:04Z</time>
      </trkpt>
      <trkpt lat="48.72785" lon="-3.27046">
        <ele>33.78</ele>
        <time>2013-11-24T14:22:06Z</time>
      </trkpt>
      <trkpt lat="48.72785" lon="-3.27043">
        <ele>33.78</ele>
        <time>2013-11-24T14:22:08Z</time>
      </trkpt>
      <trkpt lat="48.72786" lon="-3.27041">
        <ele>34.26</ele>
        <time>2013-11-24T14:22:10Z</time>
      </trkpt>
      <trkpt lat="48.72786" lon="-3.27038">
        <ele>34.26</ele>
        <time>2013-11-24T14:22:12Z</time>
      </trkpt>
      <trkpt lat="48.72786" lon="-3.27036">
        <ele>34.26</ele>
        <time>2013-11-24T14:22:14Z</time>
      </trkpt>
      <trkpt lat="48.72787" lon="-3.27034">
        <ele>34.26</ele>
        <time>2013-11-24T14:22:16Z</time>
      </trkpt>
      <trkpt lat="48.72787" lon="-3.27031">
        <ele>34.26</ele>
        <time>2013-11-24T14:22:18Z</time>
      </trkpt>
      <trkpt lat="48.72788" lon="-3.27029">
        <ele>34.26</ele>
        <time>2013-11-24T14:22:20Z</time>
      </trkpt>
      <trkpt lat="48.72788" lon="-3.27026">
        <ele>34.26</ele>
        <time>2013-11-24T14:22:22Z</time>
      </trkpt>
      <trkpt lat="48.72789" lon="-3.27022">
        <ele>34.26</ele>
        <time>2013-11-24T14:22:24Z</time>
      </trkpt>
      <trkpt lat="48.72789" lon="-3.27019">
        <ele>34.74</ele>
        <time>2013-11-24T14:22:26Z</time>
      </trkpt>
      <trkpt lat="48.7279" lon="-3.27016">
        <ele>34.74</ele>
        <time>2013-11-24T14:22:28Z</time>
      </trkpt>
      <trkpt lat="48.7279" lon="-3.27013">
        <ele>34.74</ele>
        <time>2013-11-24T14:22:30Z</time>
      </trkpt>
      <trkpt lat="48.72791" lon="-3.2701">
        <ele>34.74</ele>
        <time>2013-11-24T14:22:32Z</time>
      </trkpt>
      <trkpt lat="48.72791" lon="-3.27008">
        <ele>34.74</ele>
        <time>2013-11-24T14:22:34Z</time>
      </trkpt>
      <trkpt lat="48.72792" lon="-3.27005">
        <ele>34.74</ele>
        <time>2013-11-24T14:22:36Z</time>
      </trkpt>
      <trkpt lat="48.72792" lon="-3.27003">
        <ele>34.74</ele>
        <time>2013-11-24T14:22:38Z</time>
      </trkpt>
      <trkpt lat="48.72793" lon="-3.27">
        <ele>35.23</ele>
        <time>2013-11-24T14:22:40Z</time>
      </trkpt>
      <trkpt lat="48.72793" lon="-3.26997">
        <ele>35.23</ele>
        <time>2013-11-24T14:22:42Z</time>
      </trkpt>
      <trkpt lat="48.72794" lon="-3.26995">
        <ele>35.23</ele>
        <time>2013-11-24T14:22:44Z</time>
      </trkpt>
      <trkpt lat="48.72794" lon="-3.26992">
        <ele>35.23</ele>
        <time>2013-11-24T14:22:46Z</time>
      </trkpt>
      <trkpt lat="48.72795" lon="-3.26989">
        <ele>35.23</ele>
        <time>2013-11-24T14:22:48Z</time>
      </trkpt>
      <trkpt lat="48.72795" lon="-3.26986">
        <ele>35.23</ele>
        <time>2013-11-24T14:22:50Z</time>
      </trkpt>
      <trkpt lat="48.72795" lon="-3.26982">
        <ele>35.23</ele>
        <time>2013-11-24T14:22:52Z</time>
      </trkpt>
      <trkpt lat="48.72796" lon="-3.2698">
        <ele>35.23</ele>
        <time>2013-11-24T14:22:54Z</time>
      </trkpt>
      <trkpt lat="48.72797" lon="-3.26976">
        <ele>35.23</ele>
        <time>2013-11-24T14:22:56Z</time>
      </trkpt>
      <trkpt lat="48.72797" lon="-3.26973">
        <ele>35.71</ele>
        <time>2013-11-24T14:22:58Z</time>
      </trkpt>
      <trkpt lat="48.72798" lon="-3.2697">
        <ele>35.71</ele>
        <time>2013-11-24T14:23:00Z</time>
      </trkpt>
      <trkpt lat="48.72798" lon="-3.26967">
        <ele>35.71</ele>
        <time>2013-11-24T14:23:02Z</time>
      </trkpt>
      <trkpt lat="48.72799" lon="-3.26963">
        <ele>35.71</ele>
        <time>2013-11-24T14:23:04Z</time>
      </trkpt>
      <trkpt lat="48.728" lon="-3.2696">
        <ele>35.71</ele>
        <time>2013-11-24T14:23:06Z</time>
      </trkpt>
      <trkpt lat="48.728" lon="-3.26956">
        <ele>35.71</ele>
        <time>2013-11-24T14:23:08Z</time>
      </trkpt>
      <trkpt lat="48.72801" lon="-3.26953">
        <ele>35.71</ele>
        <time>2013-11-24T14:23:10Z</time>
      </trkpt>
      <trkpt lat="48.72801" lon="-3.2695">
        <ele>35.71</ele>
        <time>2013-11-24T14:23:12Z</time>
      </trkpt>
      <trkpt lat="48.72802" lon="-3.26947">
        <ele>36.19</ele>
        <time>2013-11-24T14:23:14Z</time>
      </trkpt>
      <trkpt lat="48.72802" lon="-3.26944">
        <ele>36.19</ele>
        <time>2013-11-24T14:23:16Z</time>
      </trkpt>
      <trkpt lat="48.72802" lon="-3.2694">
        <ele>36.19</ele>
        <time>2013-11-24T14:23:18Z</time>
      </trkpt>
      <trkpt lat="48.72803" lon="-3.26937">
        <ele>36.19</ele>
        <time>2013-11-24T14:23:20Z</time>
      </trkpt>
      <trkpt lat="48.72803" lon="-3.26933">
        <ele>36.19</ele>
        <time>2013-11-24T14:23:22Z</time>
      </trkpt>
      <trkpt lat="48.72803" lon="-3.26929">
        <ele>36.19</ele>
        <time>2013-11-24T14:23:24Z</time>
      </trkpt>
      <trkpt lat="48.72804" lon="-3.26925">
        <ele>36.67</ele>
        <time>2013-11-24T14:23:26Z</time>
      </trkpt>
      <trkpt lat="48.72804" lon="-3.26922">
        <ele>36.67</ele>
        <time>2013-11-24T14:23:28Z</time>
      </trkpt>
      <trkpt lat="48.72804" lon="-3.26918">
        <ele>36.67</ele>
        <time>2013-11-24T14:23:30Z</time>
      </trkpt>
      <trkpt lat="48.72805" lon="-3.26914">
        <ele>36.67</ele>
        <time>2013-11-24T14:23:32Z</time>
      </trkpt>
      <trkpt lat="48.72805" lon="-3.26911">
        <ele>36.67</ele>
        <time>2013-11-24T14:23:34Z</time>
      </trkpt>
      <trkpt lat="48.72804" lon="-3.26909">
        <ele>36.67</ele>
        <time>2013-11-24T14:23:36Z</time>
      </trkpt>
      <trkpt lat="48.72804" lon="-3.26908">
        <ele>36.67</ele>
        <time>2013-11-24T14:23:38Z</time>
      </trkpt>
      <trkpt lat="48.72804" lon="-3.26907">
        <ele>36.67</ele>
        <time>2013-11-24T14:23:40Z</time>
      </trkpt>
      <trkpt lat="48.72804" lon="-3.26905">
        <ele>37.15</ele>
        <time>2013-11-24T14:23:42Z</time>
      </trkpt>
      <trkpt lat="48.72804" lon="-3.26902">
        <ele>37.15</ele>
        <time>2013-11-24T14:23:44Z</time>
      </trkpt>
      <trkpt lat="48.72805" lon="-3.269">
        <ele>36.67</ele>
        <time>2013-11-24T14:23:46Z</time>
      </trkpt>
      <trkpt lat="48.72805" lon="-3.26897">
        <ele>36.67</ele>
        <time>2013-11-24T14:23:48Z</time>
      </trkpt>
      <trkpt lat="48.72805" lon="-3.26894">
        <ele>36.67</ele>
        <time>2013-11-24T14:23:50Z</time>
      </trkpt>
      <trkpt lat="48.72806" lon="-3.2689">
        <ele>36.67</ele>
        <time>2013-11-24T14:23:52Z</time>
      </trkpt>
      <trkpt lat="48.72806" lon="-3.26887">
        <ele>36.67</ele>
        <time>2013-11-24T14:23:54Z</time>
      </trkpt>
      <trkpt lat="48.72806" lon="-3.26885">
        <ele>36.67</ele>
        <time>2013-11-24T14:23:56Z</time>
      </trkpt>
      <trkpt lat="48.72806" lon="-3.26884">
        <ele>36.67</ele>
        <time>2013-11-24T14:23:58Z</time>
      </trkpt>
      <trkpt lat="48.72806" lon="-3.26883">
        <ele>37.15</ele>
        <time>2013-11-24T14:24:00Z</time>
      </trkpt>
      <trkpt lat="48.72807" lon="-3.26881">
        <ele>37.15</ele>
        <time>2013-11-24T14:24:02Z</time>
      </trkpt>
      <trkpt lat="48.72807" lon="-3.26879">
        <ele>37.15</ele>
        <time>2013-11-24T14:24:04Z</time>
      </trkpt>
      <trkpt lat="48.72807" lon="-3.26876">
        <ele>37.15</ele>
        <time>2013-11-24T14:24:06Z</time>
      </trkpt>
      <trkpt lat="48.72807" lon="-3.26873">
        <ele>37.15</ele>
        <time>2013-11-24T14:24:08Z</time>
      </trkpt>
      <trkpt lat="48.72808" lon="-3.2687">
        <ele>37.15</ele>
        <time>2013-11-24T14:24:10Z</time>
      </trkpt>
      <trkpt lat="48.72808" lon="-3.26868">
        <ele>37.15</ele>
        <time>2013-11-24T14:24:12Z</time>
      </trkpt>
      <trkpt lat="48.72808" lon="-3.26865">
        <ele>37.15</ele>
        <time>2013-11-24T14:24:14Z</time>
      </trkpt>
      <trkpt lat="48.72809" lon="-3.26862">
        <ele>37.15</ele>
        <time>2013-11-24T14:24:16Z</time>
      </trkpt>
      <trkpt lat="48.72809" lon="-3.26858">
        <ele>37.15</ele>
        <time>2013-11-24T14:24:18Z</time>
      </trkpt>
      <trkpt lat="48.72809" lon="-3.26855">
        <ele>37.15</ele>
        <time>2013-11-24T14:24:20Z</time>
      </trkpt>
      <trkpt lat="48.7281" lon="-3.26852">
        <ele>37.15</ele>
        <time>2013-11-24T14:24:22Z</time>
      </trkpt>
      <trkpt lat="48.7281" lon="-3.26849">
        <ele>37.15</ele>
        <time>2013-11-24T14:24:24Z</time>
      </trkpt>
      <trkpt lat="48.72811" lon="-3.26846">
        <ele>37.63</ele>
        <time>2013-11-24T14:24:26Z</time>
      </trkpt>
      <trkpt lat="48.72811" lon="-3.26843">
        <ele>37.63</ele>
        <time>2013-11-24T14:24:28Z</time>
      </trkpt>
      <trkpt lat="48.72811" lon="-3.2684">
        <ele>37.63</ele>
        <time>2013-11-24T14:24:30Z</time>
      </trkpt>
      <trkpt lat="48.72811" lon="-3.26837">
        <ele>37.63</ele>
        <time>2013-11-24T14:24:32Z</time>
      </trkpt>
      <trkpt lat="48.72812" lon="-3.26834">
        <ele>37.63</ele>
        <time>2013-11-24T14:24:34Z</time>
      </trkpt>
      <trkpt lat="48.72812" lon="-3.2683">
        <ele>37.63</ele>
        <time>2013-11-24T14:24:36Z</time>
      </trkpt>
      <trkpt lat="48.72812" lon="-3.26827">
        <ele>38.11</ele>
        <time>2013-11-24T14:24:38Z</time>
      </trkpt>
      <trkpt lat="48.72813" lon="-3.26824">
        <ele>38.11</ele>
        <time>2013-11-24T14:24:40Z</time>
      </trkpt>
      <trkpt lat="48.72813" lon="-3.2682">
        <ele>38.11</ele>
        <time>2013-11-24T14:24:42Z</time>
      </trkpt>
      <trkpt lat="48.72813" lon="-3.26817">
        <ele>38.11</ele>
        <time>2013-11-24T14:24:44Z</time>
      </trkpt>
      <trkpt lat="48.72813" lon="-3.26814">
        <ele>38.11</ele>
        <time>2013-11-24T14:24:46Z</time>
      </trkpt>
      <trkpt lat="48.72814" lon="-3.26811">
        <ele>38.11</ele>
        <time>2013-11-24T14:24:48Z</time>
      </trkpt>
      <trkpt lat="48.72814" lon="-3.26808">
        <ele>38.11</ele>
        <time>2013-11-24T14:24:50Z</time>
      </trkpt>
      <trkpt lat="48.72815" lon="-3.26805">
        <ele>38.11</ele>
        <time>2013-11-24T14:24:52Z</time>
      </trkpt>
      <trkpt lat="48.72815" lon="-3.26802">
        <ele>38.11</ele>
        <time>2013-11-24T14:24:54Z</time>
      </trkpt>
      <trkpt lat="48.72815" lon="-3.26799">
        <ele>38.11</ele>
        <time>2013-11-24T14:24:56Z</time>
      </trkpt>
      <trkpt lat="48.72815" lon="-3.26795">
        <ele>38.11</ele>
        <time>2013-11-24T14:24:58Z</time>
      </trkpt>
      <trkpt lat="48.72815" lon="-3.26792">
        <ele>38.11</ele>
        <time>2013-11-24T14:25:00Z</time>
      </trkpt>
      <trkpt lat="48.72816" lon="-3.26789">
        <ele>38.11</ele>
        <time>2013-11-24T14:25:02Z</time>
      </trkpt>
      <trkpt lat="48.72816" lon="-3.26786">
        <ele>38.59</ele>
        <time>2013-11-24T14:25:04Z</time>
      </trkpt>
      <trkpt lat="48.72817" lon="-3.26782">
        <ele>38.59</ele>
        <time>2013-11-24T14:25:06Z</time>
      </trkpt>
      <trkpt lat="48.72817" lon="-3.26779">
        <ele>38.59</ele>
        <time>2013-11-24T14:25:08Z</time>
      </trkpt>
      <trkpt lat="48.72817" lon="-3.26775">
        <ele>38.59</ele>
        <time>2013-11-24T14:25:10Z</time>
      </trkpt>
      <trkpt lat="48.72818" lon="-3.26772">
        <ele>38.59</ele>
        <time>2013-11-24T14:25:12Z</time>
      </trkpt>
      <trkpt lat="48.72818" lon="-3.2677">
        <ele>38.59</ele>
        <time>2013-11-24T14:25:14Z</time>
      </trkpt>
      <trkpt lat="48.72818" lon="-3.26766">
        <ele>38.59</ele>
        <time>2013-11-24T14:25:16Z</time>
      </trkpt>
      <trkpt lat="48.72819" lon="-3.26763">
        <ele>38.59</ele>
        <time>2013-11-24T14:25:18Z</time>
      </trkpt>
      <trkpt lat="48.72819" lon="-3.2676">
        <ele>38.59</ele>
        <time>2013-11-24T14:25:20Z</time>
      </trkpt>
      <trkpt lat="48.7282" lon="-3.26756">
        <ele>39.07</ele>
        <time>2013-11-24T14:25:22Z</time>
      </trkpt>
      <trkpt lat="48.7282" lon="-3.26753">
        <ele>39.07</ele>
        <time>2013-11-24T14:25:24Z</time>
      </trkpt>
      <trkpt lat="48.7282" lon="-3.26749">
        <ele>39.07</ele>
        <time>2013-11-24T14:25:26Z</time>
      </trkpt>
      <trkpt lat="48.72821" lon="-3.26746">
        <ele>39.07</ele>
        <time>2013-11-24T14:25:28Z</time>
      </trkpt>
      <trkpt lat="48.72821" lon="-3.26743">
        <ele>39.07</ele>
        <time>2013-11-24T14:25:30Z</time>
      </trkpt>
      <trkpt lat="48.72822" lon="-3.26739">
        <ele>39.07</ele>
        <time>2013-11-24T14:25:32Z</time>
      </trkpt>
      <trkpt lat="48.72822" lon="-3.26736">
        <ele>39.07</ele>
        <time>2013-11-24T14:25:34Z</time>
      </trkpt>
      <trkpt lat="48.72822" lon="-3.26732">
        <ele>39.07</ele>
        <time>2013-11-24T14:25:36Z</time>
      </trkpt>
      <trkpt lat="48.72822" lon="-3.26729">
        <ele>39.07</ele>
        <time>2013-11-24T14:25:38Z</time>
      </trkpt>
      <trkpt lat="48.72822" lon="-3.26726">
        <ele>39.07</ele>
        <time>2013-11-24T14:25:40Z</time>
      </trkpt>
      <trkpt lat="48.72823" lon="-3.26722">
        <ele>39.07</ele>
        <time>2013-11-24T14:25:42Z</time>
      </trkpt>
      <trkpt lat="48.72823" lon="-3.26718">
        <ele>39.07</ele>
        <time>2013-11-24T14:25:44Z</time>
      </trkpt>
      <trkpt lat="48.72824" lon="-3.26715">
        <ele>39.07</ele>
        <time>2013-11-24T14:25:46Z</time>
      </trkpt>
      <trkpt lat="48.72824" lon="-3.26711">
        <ele>39.07</ele>
        <time>2013-11-24T14:25:48Z</time>
      </trkpt>
      <trkpt lat="48.72824" lon="-3.26708">
        <ele>39.07</ele>
        <time>2013-11-24T14:25:50Z</time>
      </trkpt>
      <trkpt lat="48.72824" lon="-3.26705">
        <ele>39.07</ele>
        <time>2013-11-24T14:25:52Z</time>
      </trkpt>
      <trkpt lat="48.72824" lon="-3.26702">
        <ele>39.07</ele>
        <time>2013-11-24T14:25:54Z</time>
      </trkpt>
      <trkpt lat="48.72825" lon="-3.267">
        <ele>39.07</ele>
        <time>2013-11-24T14:25:56Z</time>
      </trkpt>
      <trkpt lat="48.72825" lon="-3.26698">
        <ele>39.07</ele>
        <time>2013-11-24T14:25:58Z</time>
      </trkpt>
      <trkpt lat="48.72825" lon="-3.26695">
        <ele>39.07</ele>
        <time>2013-11-24T14:26:00Z</time>
      </trkpt>
      <trkpt lat="48.72825" lon="-3.26692">
        <ele>39.07</ele>
        <time>2013-11-24T14:26:02Z</time>
      </trkpt>
      <trkpt lat="48.72825" lon="-3.26688">
        <ele>39.07</ele>
        <time>2013-11-24T14:26:04Z</time>
      </trkpt>
      <trkpt lat="48.72825" lon="-3.26685">
        <ele>39.07</ele>
        <time>2013-11-24T14:26:06Z</time>
      </trkpt>
      <trkpt lat="48.72825" lon="-3.26682">
        <ele>39.07</ele>
        <time>2013-11-24T14:26:08Z</time>
      </trkpt>
      <trkpt lat="48.72825" lon="-3.26679">
        <ele>39.07</ele>
        <time>2013-11-24T14:26:10Z</time>
      </trkpt>
      <trkpt lat="48.72826" lon="-3.26676">
        <ele>39.07</ele>
        <time>2013-11-24T14:26:12Z</time>
      </trkpt>
      <trkpt lat="48.72826" lon="-3.26673">
        <ele>39.55</ele>
        <time>2013-11-24T14:26:14Z</time>
      </trkpt>
      <trkpt lat="48.72827" lon="-3.26669">
        <ele>39.55</ele>
        <time>2013-11-24T14:26:16Z</time>
      </trkpt>
      <trkpt lat="48.72827" lon="-3.26666">
        <ele>39.55</ele>
        <time>2013-11-24T14:26:18Z</time>
      </trkpt>
      <trkpt lat="48.72828" lon="-3.26662">
        <ele>39.55</ele>
        <time>2013-11-24T14:26:20Z</time>
      </trkpt>
      <trkpt lat="48.72828" lon="-3.26659">
        <ele>39.55</ele>
        <time>2013-11-24T14:26:22Z</time>
      </trkpt>
      <trkpt lat="48.72828" lon="-3.26656">
        <ele>39.55</ele>
        <time>2013-11-24T14:26:24Z</time>
      </trkpt>
      <trkpt lat="48.72829" lon="-3.26653">
        <ele>39.55</ele>
        <time>2013-11-24T14:26:26Z</time>
      </trkpt>
      <trkpt lat="48.72829" lon="-3.26651">
        <ele>39.55</ele>
        <time>2013-11-24T14:26:28Z</time>
      </trkpt>
      <trkpt lat="48.7283" lon="-3.26649">
        <ele>39.55</ele>
        <time>2013-11-24T14:26:30Z</time>
      </trkpt>
      <trkpt lat="48.7283" lon="-3.26647">
        <ele>39.55</ele>
        <time>2013-11-24T14:26:32Z</time>
      </trkpt>
      <trkpt lat="48.72831" lon="-3.26645">
        <ele>39.55</ele>
        <time>2013-11-24T14:26:34Z</time>
      </trkpt>
      <trkpt lat="48.72831" lon="-3.26641">
        <ele>40.03</ele>
        <time>2013-11-24T14:26:36Z</time>
      </trkpt>
      <trkpt lat="48.72832" lon="-3.26638">
        <ele>40.03</ele>
        <time>2013-11-24T14:26:38Z</time>
      </trkpt>
      <trkpt lat="48.72832" lon="-3.26634">
        <ele>40.03</ele>
        <time>2013-11-24T14:26:40Z</time>
      </trkpt>
      <trkpt lat="48.72833" lon="-3.26632">
        <ele>40.03</ele>
        <time>2013-11-24T14:26:42Z</time>
      </trkpt>
      <trkpt lat="48.72833" lon="-3.26628">
        <ele>40.03</ele>
        <time>2013-11-24T14:26:44Z</time>
      </trkpt>
      <trkpt lat="48.72834" lon="-3.26624">
        <ele>40.03</ele>
        <time>2013-11-24T14:26:46Z</time>
      </trkpt>
      <trkpt lat="48.72834" lon="-3.26621">
        <ele>40.03</ele>
        <time>2013-11-24T14:26:48Z</time>
      </trkpt>
      <trkpt lat="48.72834" lon="-3.26618">
        <ele>40.03</ele>
        <time>2013-11-24T14:26:50Z</time>
      </trkpt>
      <trkpt lat="48.72835" lon="-3.26615">
        <ele>40.03</ele>
        <time>2013-11-24T14:26:52Z</time>
      </trkpt>
      <trkpt lat="48.72835" lon="-3.26613">
        <ele>40.03</ele>
        <time>2013-11-24T14:26:54Z</time>
      </trkpt>
      <trkpt lat="48.72836" lon="-3.26611">
        <ele>40.03</ele>
        <time>2013-11-24T14:26:56Z</time>
      </trkpt>
      <trkpt lat="48.72837" lon="-3.26608">
        <ele>40.03</ele>
        <time>2013-11-24T14:26:58Z</time>
      </trkpt>
      <trkpt lat="48.72838" lon="-3.26606">
        <ele>40.03</ele>
        <time>2013-11-24T14:27:00Z</time>
      </trkpt>
      <trkpt lat="48.72838" lon="-3.26602">
        <ele>40.03</ele>
        <time>2013-11-24T14:27:02Z</time>
      </trkpt>
      <trkpt lat="48.72839" lon="-3.26599">
        <ele>40.03</ele>
        <time>2013-11-24T14:27:04Z</time>
      </trkpt>
      <trkpt lat="48.7284" lon="-3.26596">
        <ele>40.03</ele>
        <time>2013-11-24T14:27:06Z</time>
      </trkpt>
      <trkpt lat="48.72841" lon="-3.26593">
        <ele>40.03</ele>
        <time>2013-11-24T14:27:08Z</time>
      </trkpt>
      <trkpt lat="48.72842" lon="-3.2659">
        <ele>40.03</ele>
        <time>2013-11-24T14:27:10Z</time>
      </trkpt>
      <trkpt lat="48.72843" lon="-3.26587">
        <ele>40.03</ele>
        <time>2013-11-24T14:27:12Z</time>
      </trkpt>
      <trkpt lat="48.72844" lon="-3.26584">
        <ele>40.03</ele>
        <time>2013-11-24T14:27:14Z</time>
      </trkpt>
      <trkpt lat="48.72846" lon="-3.26581">
        <ele>40.03</ele>
        <time>2013-11-24T14:27:16Z</time>
      </trkpt>
      <trkpt lat="48.72847" lon="-3.26579">
        <ele>40.03</ele>
        <time>2013-11-24T14:27:18Z</time>
      </trkpt>
      <trkpt lat="48.72848" lon="-3.26576">
        <ele>40.03</ele>
        <time>2013-11-24T14:27:20Z</time>
      </trkpt>
      <trkpt lat="48.72849" lon="-3.26573">
        <ele>40.03</ele>
        <time>2013-11-24T14:27:22Z</time>
      </trkpt>
      <trkpt lat="48.72849" lon="-3.2657">
        <ele>40.03</ele>
        <time>2013-11-24T14:27:24Z</time>
      </trkpt>
      <trkpt lat="48.7285" lon="-3.26566">
        <ele>40.03</ele>
        <time>2013-11-24T14:27:26Z</time>
      </trkpt>
      <trkpt lat="48.7285" lon="-3.26563">
        <ele>40.03</ele>
        <time>2013-11-24T14:27:28Z</time>
      </trkpt>
      <trkpt lat="48.72851" lon="-3.2656">
        <ele>40.51</ele>
        <time>2013-11-24T14:27:30Z</time>
      </trkpt>
      <trkpt lat="48.72852" lon="-3.26556">
        <ele>40.51</ele>
        <time>2013-11-24T14:27:32Z</time>
      </trkpt>
      <trkpt lat="48.72853" lon="-3.26553">
        <ele>40.51</ele>
        <time>2013-11-24T14:27:34Z</time>
      </trkpt>
      <trkpt lat="48.72853" lon="-3.26549">
        <ele>40.51</ele>
        <time>2013-11-24T14:27:36Z</time>
      </trkpt>
      <trkpt lat="48.72855" lon="-3.26546">
        <ele>40.51</ele>
        <time>2013-11-24T14:27:38Z</time>
      </trkpt>
      <trkpt lat="48.72856" lon="-3.26543">
        <ele>40.51</ele>
        <time>2013-11-24T14:27:40Z</time>
      </trkpt>
      <trkpt lat="48.72858" lon="-3.26541">
        <ele>40.51</ele>
        <time>2013-11-24T14:27:42Z</time>
      </trkpt>
      <trkpt lat="48.72859" lon="-3.26541">
        <ele>40.51</ele>
        <time>2013-11-24T14:27:44Z</time>
      </trkpt>
      <trkpt lat="48.7286" lon="-3.2654">
        <ele>40.51</ele>
        <time>2013-11-24T14:27:46Z</time>
      </trkpt>
      <trkpt lat="48.72861" lon="-3.26537">
        <ele>40.51</ele>
        <time>2013-11-24T14:27:48Z</time>
      </trkpt>
      <trkpt lat="48.72861" lon="-3.26533">
        <ele>40.51</ele>
        <time>2013-11-24T14:27:50Z</time>
      </trkpt>
      <trkpt lat="48.72862" lon="-3.26529">
        <ele>40.99</ele>
        <time>2013-11-24T14:27:52Z</time>
      </trkpt>
      <trkpt lat="48.72862" lon="-3.26526">
        <ele>40.99</ele>
        <time>2013-11-24T14:27:54Z</time>
      </trkpt>
      <trkpt lat="48.72863" lon="-3.26522">
        <ele>40.99</ele>
        <time>2013-11-24T14:27:56Z</time>
      </trkpt>
      <trkpt lat="48.72864" lon="-3.26518">
        <ele>40.99</ele>
        <time>2013-11-24T14:27:58Z</time>
      </trkpt>
      <trkpt lat="48.72864" lon="-3.26514">
        <ele>40.99</ele>
        <time>2013-11-24T14:28:00Z</time>
      </trkpt>
      <trkpt lat="48.72865" lon="-3.26511">
        <ele>40.99</ele>
        <time>2013-11-24T14:28:02Z</time>
      </trkpt>
      <trkpt lat="48.72866" lon="-3.26507">
        <ele>40.99</ele>
        <time>2013-11-24T14:28:04Z</time>
      </trkpt>
      <trkpt lat="48.72866" lon="-3.26504">
        <ele>40.99</ele>
        <time>2013-11-24T14:28:06Z</time>
      </trkpt>
      <trkpt lat="48.72867" lon="-3.26501">
        <ele>40.99</ele>
        <time>2013-11-24T14:28:08Z</time>
      </trkpt>
      <trkpt lat="48.72867" lon="-3.26497">
        <ele>40.51</ele>
        <time>2013-11-24T14:28:10Z</time>
      </trkpt>
      <trkpt lat="48.72868" lon="-3.26493">
        <ele>40.99</ele>
        <time>2013-11-24T14:28:12Z</time>
      </trkpt>
      <trkpt lat="48.72868" lon="-3.2649">
        <ele>40.99</ele>
        <time>2013-11-24T14:28:14Z</time>
      </trkpt>
      <trkpt lat="48.72868" lon="-3.26487">
        <ele>40.99</ele>
        <time>2013-11-24T14:28:16Z</time>
      </trkpt>
      <trkpt lat="48.72867" lon="-3.26485">
        <ele>40.99</ele>
        <time>2013-11-24T14:28:18Z</time>
      </trkpt>
      <trkpt lat="48.72866" lon="-3.26483">
        <ele>40.99</ele>
        <time>2013-11-24T14:28:20Z</time>
      </trkpt>
      <trkpt lat="48.72864" lon="-3.26482">
        <ele>40.99</ele>
        <time>2013-11-24T14:28:22Z</time>
      </trkpt>
      <trkpt lat="48.72862" lon="-3.26481">
        <ele>40.99</ele>
        <time>2013-11-24T14:28:24Z</time>
      </trkpt>
      <trkpt lat="48.72861" lon="-3.2648">
        <ele>40.99</ele>
        <time>2013-11-24T14:28:26Z</time>
      </trkpt>
      <trkpt lat="48.72859" lon="-3.2648">
        <ele>41.47</ele>
        <time>2013-11-24T14:28:28Z</time>
      </trkpt>
      <trkpt lat="48.72857" lon="-3.26479">
        <ele>41.47</ele>
        <time>2013-11-24T14:28:30Z</time>
      </trkpt>
      <trkpt lat="48.72855" lon="-3.2648">
        <ele>41.47</ele>
        <time>2013-11-24T14:28:32Z</time>
      </trkpt>
      <trkpt lat="48.72853" lon="-3.2648">
        <ele>41.47</ele>
        <time>2013-11-24T14:28:34Z</time>
      </trkpt>
      <trkpt lat="48.72851" lon="-3.26479">
        <ele>41.47</ele>
        <time>2013-11-24T14:28:36Z</time>
      </trkpt>
      <trkpt lat="48.72849" lon="-3.26479">
        <ele>41.47</ele>
        <time>2013-11-24T14:28:38Z</time>
      </trkpt>
      <trkpt lat="48.72847" lon="-3.26478">
        <ele>41.47</ele>
        <time>2013-11-24T14:28:40Z</time>
      </trkpt>
      <trkpt lat="48.72845" lon="-3.26478">
        <ele>41.47</ele>
        <time>2013-11-24T14:28:42Z</time>
      </trkpt>
      <trkpt lat="48.72842" lon="-3.26478">
        <ele>41.47</ele>
        <time>2013-11-24T14:28:44Z</time>
      </trkpt>
      <trkpt lat="48.7284" lon="-3.26477">
        <ele>41.47</ele>
        <time>2013-11-24T14:28:46Z</time>
      </trkpt>
      <trkpt lat="48.72837" lon="-3.26477">
        <ele>41.47</ele>
        <time>2013-11-24T14:28:48Z</time>
      </trkpt>
      <trkpt lat="48.72835" lon="-3.26477">
        <ele>41.47</ele>
        <time>2013-11-24T14:28:50Z</time>
      </trkpt>
      <trkpt lat="48.72832" lon="-3.26477">
        <ele>41.47</ele>
        <time>2013-11-24T14:28:52Z</time>
      </trkpt>
      <trkpt lat="48.7283" lon="-3.26476">
        <ele>41.47</ele>
        <time>2013-11-24T14:28:54Z</time>
      </trkpt>
      <trkpt lat="48.72828" lon="-3.26475">
        <ele>41.47</ele>
        <time>2013-11-24T14:28:56Z</time>
      </trkpt>
      <trkpt lat="48.72828" lon="-3.26475">
        <ele>41.47</ele>
        <time>2013-11-24T14:28:58Z</time>
      </trkpt>
      <trkpt lat="48.72828" lon="-3.26476">
        <ele>41.47</ele>
        <time>2013-11-24T14:29:00Z</time>
      </trkpt>
      <trkpt lat="48.72827" lon="-3.26477">
        <ele>41.47</ele>
        <time>2013-11-24T14:29:02Z</time>
      </trkpt>
      <trkpt lat="48.72825" lon="-3.26478">
        <ele>41.47</ele>
        <time>2013-11-24T14:29:04Z</time>
      </trkpt>
      <trkpt lat="48.72825" lon="-3.26479">
        <ele>41.47</ele>
        <time>2013-11-24T14:29:06Z</time>
      </trkpt>
      <trkpt lat="48.72826" lon="-3.2648">
        <ele>41.47</ele>
        <time>2013-11-24T14:29:08Z</time>
      </trkpt>
      <trkpt lat="48.72827" lon="-3.26482">
        <ele>41.47</ele>
        <time>2013-11-24T14:29:10Z</time>
      </trkpt>
      <trkpt lat="48.72828" lon="-3.26483">
        <ele>41.47</ele>
        <time>2013-11-24T14:29:12Z</time>
      </trkpt>
      <trkpt lat="48.72828" lon="-3.26485">
        <ele>41.47</ele>
        <time>2013-11-24T14:29:14Z</time>
      </trkpt>
      <trkpt lat="48.72829" lon="-3.26488">
        <ele>41.47</ele>
        <time>2013-11-24T14:29:16Z</time>
      </trkpt>
      <trkpt lat="48.7283" lon="-3.2649">
        <ele>41.47</ele>
        <time>2013-11-24T14:29:18Z</time>
      </trkpt>
      <trkpt lat="48.72829" lon="-3.26492">
        <ele>41.47</ele>
        <time>2013-11-24T14:29:20Z</time>
      </trkpt>
      <trkpt lat="48.72829" lon="-3.26495">
        <ele>41.47</ele>
        <time>2013-11-24T14:29:22Z</time>
      </trkpt>
      <trkpt lat="48.72829" lon="-3.26498">
        <ele>41.47</ele>
        <time>2013-11-24T14:29:24Z</time>
      </trkpt>
      <trkpt lat="48.72829" lon="-3.26501">
        <ele>41.47</ele>
        <time>2013-11-24T14:29:26Z</time>
      </trkpt>
      <trkpt lat="48.72827" lon="-3.26504">
        <ele>41.47</ele>
        <time>2013-11-24T14:29:28Z</time>
      </trkpt>
      <trkpt lat="48.72827" lon="-3.26508">
        <ele>41.47</ele>
        <time>2013-11-24T14:29:30Z</time>
      </trkpt>
      <trkpt lat="48.72827" lon="-3.2651">
        <ele>41.47</ele>
        <time>2013-11-24T14:29:32Z</time>
      </trkpt>
      <trkpt lat="48.72828" lon="-3.26512">
        <ele>41.47</ele>
        <time>2013-11-24T14:29:34Z</time>
      </trkpt>
      <trkpt lat="48.72828" lon="-3.26515">
        <ele>41.47</ele>
        <time>2013-11-24T14:29:36Z</time>
      </trkpt>
      <trkpt lat="48.72828" lon="-3.26519">
        <ele>41.47</ele>
        <time>2013-11-24T14:29:38Z</time>
      </trkpt>
      <trkpt lat="48.72828" lon="-3.26522">
        <ele>41.47</ele>
        <time>2013-11-24T14:29:40Z</time>
      </trkpt>
      <trkpt lat="48.72828" lon="-3.26525">
        <ele>41.47</ele>
        <time>2013-11-24T14:29:42Z</time>
      </trkpt>
      <trkpt lat="48.72826" lon="-3.26529">
        <ele>41.47</ele>
        <time>2013-11-24T14:29:44Z</time>
      </trkpt>
      <trkpt lat="48.72825" lon="-3.26531">
        <ele>41.47</ele>
        <time>2013-11-24T14:29:46Z</time>
      </trkpt>
      <trkpt lat="48.72824" lon="-3.26534">
        <ele>41.47</ele>
        <time>2013-11-24T14:29:48Z</time>
      </trkpt>
      <trkpt lat="48.72824" lon="-3.26537">
        <ele>41.47</ele>
        <time>2013-11-24T14:29:50Z</time>
      </trkpt>
      <trkpt lat="48.72823" lon="-3.2654">
        <ele>41.47</ele>
        <time>2013-11-24T14:29:52Z</time>
      </trkpt>
      <trkpt lat="48.72823" lon="-3.26543">
        <ele>41.47</ele>
        <time>2013-11-24T14:29:54Z</time>
      </trkpt>
      <trkpt lat="48.72821" lon="-3.26545">
        <ele>41.47</ele>
        <time>2013-11-24T14:29:56Z</time>
      </trkpt>
      <trkpt lat="48.72819" lon="-3.26548">
        <ele>41.47</ele>
        <time>2013-11-24T14:29:58Z</time>
      </trkpt>
      <trkpt lat="48.72818" lon="-3.2655">
        <ele>41.47</ele>
        <time>2013-11-24T14:30:00Z</time>
      </trkpt>
      <trkpt lat="48.72816" lon="-3.26552">
        <ele>41.47</ele>
        <time>2013-11-24T14:30:02Z</time>
      </trkpt>
      <trkpt lat="48.72815" lon="-3.26553">
        <ele>41.47</ele>
        <time>2013-11-24T14:30:04Z</time>
      </trkpt>
      <trkpt lat="48.72813" lon="-3.26555">
        <ele>41.47</ele>
        <time>2013-11-24T14:30:06Z</time>
      </trkpt>
      <trkpt lat="48.72812" lon="-3.26557">
        <ele>41.47</ele>
        <time>2013-11-24T14:30:08Z</time>
      </trkpt>
      <trkpt lat="48.7281" lon="-3.2656">
        <ele>41.47</ele>
        <time>2013-11-24T14:30:10Z</time>
      </trkpt>
      <trkpt lat="48.72808" lon="-3.26562">
        <ele>41.47</ele>
        <time>2013-11-24T14:30:12Z</time>
      </trkpt>
      <trkpt lat="48.72806" lon="-3.26565">
        <ele>41.47</ele>
        <time>2013-11-24T14:30:14Z</time>
      </trkpt>
      <trkpt lat="48.72804" lon="-3.26567">
        <ele>41.95</ele>
        <time>2013-11-24T14:30:16Z</time>
      </trkpt>
      <trkpt lat="48.72803" lon="-3.26569">
        <ele>41.95</ele>
        <time>2013-11-24T14:30:18Z</time>
      </trkpt>
      <trkpt lat="48.728" lon="-3.26571">
        <ele>41.95</ele>
        <time>2013-11-24T14:30:20Z</time>
      </trkpt>
      <trkpt lat="48.72798" lon="-3.26574">
        <ele>41.95</ele>
        <time>2013-11-24T14:30:22Z</time>
      </trkpt>
      <trkpt lat="48.72797" lon="-3.26576">
        <ele>41.95</ele>
        <time>2013-11-24T14:30:24Z</time>
      </trkpt>
      <trkpt lat="48.72795" lon="-3.26578">
        <ele>41.95</ele>
        <time>2013-11-24T14:30:26Z</time>
      </trkpt>
      <trkpt lat="48.72793" lon="-3.2658">
        <ele>41.95</ele>
        <time>2013-11-24T14:30:28Z</time>
      </trkpt>
      <trkpt lat="48.7279" lon="-3.26582">
        <ele>41.95</ele>
        <time>2013-11-24T14:30:30Z</time>
      </trkpt>
      <trkpt lat="48.72788" lon="-3.26585">
        <ele>41.95</ele>
        <time>2013-11-24T14:30:32Z</time>
      </trkpt>
      <trkpt lat="48.72786" lon="-3.26587">
        <ele>41.95</ele>
        <time>2013-11-24T14:30:34Z</time>
      </trkpt>
      <trkpt lat="48.72785" lon="-3.26588">
        <ele>41.47</ele>
        <time>2013-11-24T14:30:36Z</time>
      </trkpt>
      <trkpt lat="48.72783" lon="-3.2659">
        <ele>41.47</ele>
        <time>2013-11-24T14:30:38Z</time>
      </trkpt>
      <trkpt lat="48.72781" lon="-3.26591">
        <ele>41.47</ele>
        <time>2013-11-24T14:30:40Z</time>
      </trkpt>
      <trkpt lat="48.72779" lon="-3.26593">
        <ele>41.47</ele>
        <time>2013-11-24T14:30:42Z</time>
      </trkpt>
      <trkpt lat="48.72777" lon="-3.26595">
        <ele>41.47</ele>
        <time>2013-11-24T14:30:44Z</time>
      </trkpt>
      <trkpt lat="48.72775" lon="-3.26597">
        <ele>41.47</ele>
        <time>2013-11-24T14:30:46Z</time>
      </trkpt>
      <trkpt lat="48.72773" lon="-3.26599">
        <ele>41.47</ele>
        <time>2013-11-24T14:30:48Z</time>
      </trkpt>
      <trkpt lat="48.72771" lon="-3.266">
        <ele>41.47</ele>
        <time>2013-11-24T14:30:50Z</time>
      </trkpt>
      <trkpt lat="48.72768" lon="-3.26602">
        <ele>41.47</ele>
        <time>2013-11-24T14:30:52Z</time>
      </trkpt>
      <trkpt lat="48.72767" lon="-3.26603">
        <ele>41.47</ele>
        <time>2013-11-24T14:30:54Z</time>
      </trkpt>
      <trkpt lat="48.72764" lon="-3.26605">
        <ele>41.47</ele>
        <time>2013-11-24T14:30:56Z</time>
      </trkpt>
      <trkpt lat="48.72762" lon="-3.26606">
        <ele>41.47</ele>
        <time>2013-11-24T14:30:58Z</time>
      </trkpt>
      <trkpt lat="48.7276" lon="-3.26608">
        <ele>41.47</ele>
        <time>2013-11-24T14:31:00Z</time>
      </trkpt>
      <trkpt lat="48.72758" lon="-3.2661">
        <ele>41.47</ele>
        <time>2013-11-24T14:31:02Z</time>
      </trkpt>
      <trkpt lat="48.72755" lon="-3.26612">
        <ele>41.47</ele>
        <time>2013-11-24T14:31:04Z</time>
      </trkpt>
      <trkpt lat="48.72753" lon="-3.26614">
        <ele>41.47</ele>
        <time>2013-11-24T14:31:06Z</time>
      </trkpt>
      <trkpt lat="48.72751" lon="-3.26615">
        <ele>41.47</ele>
        <time>2013-11-24T14:31:08Z</time>
      </trkpt>
      <trkpt lat="48.72751" lon="-3.26616">
        <ele>41.47</ele>
        <time>2013-11-24T14:31:10Z</time>
      </trkpt>
      <trkpt lat="48.72751" lon="-3.26616">
        <ele>41.47</ele>
        <time>2013-11-24T14:31:12Z</time>
      </trkpt>
      <trkpt lat="48.7275" lon="-3.26617">
        <ele>41.95</ele>
        <time>2013-11-24T14:31:14Z</time>
      </trkpt>
      <trkpt lat="48.7275" lon="-3.26618">
        <ele>41.95</ele>
        <time>2013-11-24T14:31:16Z</time>
      </trkpt>
      <trkpt lat="48.72748" lon="-3.26619">
        <ele>41.95</ele>
        <time>2013-11-24T14:31:18Z</time>
      </trkpt>
      <trkpt lat="48.72746" lon="-3.2662">
        <ele>41.95</ele>
        <time>2013-11-24T14:31:20Z</time>
      </trkpt>
      <trkpt lat="48.72744" lon="-3.26621">
        <ele>41.95</ele>
        <time>2013-11-24T14:31:22Z</time>
      </trkpt>
      <trkpt lat="48.72742" lon="-3.26623">
        <ele>41.95</ele>
        <time>2013-11-24T14:31:24Z</time>
      </trkpt>
      <trkpt lat="48.7274" lon="-3.26624">
        <ele>41.95</ele>
        <time>2013-11-24T14:31:26Z</time>
      </trkpt>
      <trkpt lat="48.72738" lon="-3.26626">
        <ele>41.95</ele>
        <time>2013-11-24T14:31:28Z</time>
      </trkpt>
      <trkpt lat="48.72736" lon="-3.26628">
        <ele>41.47</ele>
        <time>2013-11-24T14:31:30Z</time>
      </trkpt>
      <trkpt lat="48.72734" lon="-3.26629">
        <ele>41.47</ele>
        <time>2013-11-24T14:31:32Z</time>
      </trkpt>
      <trkpt lat="48.72732" lon="-3.26631">
        <ele>41.47</ele>
        <time>2013-11-24T14:31:34Z</time>
      </trkpt>
      <trkpt lat="48.72729" lon="-3.26632">
        <ele>41.47</ele>
        <time>2013-11-24T14:31:36Z</time>
      </trkpt>
      <trkpt lat="48.72727" lon="-3.26632">
        <ele>41.47</ele>
        <time>2013-11-24T14:31:38Z</time>
      </trkpt>
      <trkpt lat="48.72725" lon="-3.26632">
        <ele>41.47</ele>
        <time>2013-11-24T14:31:40Z</time>
      </trkpt>
      <trkpt lat="48.72722" lon="-3.26631">
        <ele>41.47</ele>
        <time>2013-11-24T14:31:42Z</time>
      </trkpt>
      <trkpt lat="48.7272" lon="-3.2663">
        <ele>41.47</ele>
        <time>2013-11-24T14:31:44Z</time>
      </trkpt>
      <trkpt lat="48.72718" lon="-3.26629">
        <ele>41.47</ele>
        <time>2013-11-24T14:31:46Z</time>
      </trkpt>
      <trkpt lat="48.72717" lon="-3.26628">
        <ele>41.47</ele>
        <time>2013-11-24T14:31:48Z</time>
      </trkpt>
      <trkpt lat="48.72716" lon="-3.26627">
        <ele>41.47</ele>
        <time>2013-11-24T14:31:50Z</time>
      </trkpt>
      <trkpt lat="48.72716" lon="-3.26627">
        <ele>41.47</ele>
        <time>2013-11-24T14:31:52Z</time>
      </trkpt>
      <trkpt lat="48.72716" lon="-3.26626">
        <ele>41.47</ele>
        <time>2013-11-24T14:31:54Z</time>
      </trkpt>
      <trkpt lat="48.72716" lon="-3.26626">
        <ele>41.47</ele>
        <time>2013-11-24T14:31:56Z</time>
      </trkpt>
      <trkpt lat="48.72716" lon="-3.26627">
        <ele>41.47</ele>
        <time>2013-11-24T14:31:58Z</time>
      </trkpt>
      <trkpt lat="48.72716" lon="-3.26628">
        <ele>41.47</ele>
        <time>2013-11-24T14:32:00Z</time>
      </trkpt>
      <trkpt lat="48.72717" lon="-3.26629">
        <ele>41.47</ele>
        <time>2013-11-24T14:32:02Z</time>
      </trkpt>
      <trkpt lat="48.72717" lon="-3.26629">
        <ele>41.47</ele>
        <time>2013-11-24T14:32:04Z</time>
      </trkpt>
      <trkpt lat="48.72717" lon="-3.2663">
        <ele>41.47</ele>
        <time>2013-11-24T14:32:06Z</time>
      </trkpt>
      <trkpt lat="48.72718" lon="-3.26631">
        <ele>41.47</ele>
        <time>2013-11-24T14:32:08Z</time>
      </trkpt>
      <trkpt lat="48.72717" lon="-3.26631">
        <ele>41.47</ele>
        <time>2013-11-24T14:32:10Z</time>
      </trkpt>
      <trkpt lat="48.72718" lon="-3.26632">
        <ele>41.95</ele>
        <time>2013-11-24T14:32:12Z</time>
      </trkpt>
      <trkpt lat="48.72718" lon="-3.26633">
        <ele>41.95</ele>
        <time>2013-11-24T14:32:14Z</time>
      </trkpt>
      <trkpt lat="48.72719" lon="-3.26633">
        <ele>41.95</ele>
        <time>2013-11-24T14:32:16Z</time>
      </trkpt>
      <trkpt lat="48.72719" lon="-3.26632">
        <ele>41.95</ele>
        <time>2013-11-24T14:32:18Z</time>
      </trkpt>
      <trkpt lat="48.7272" lon="-3.26632">
        <ele>41.95</ele>
        <time>2013-11-24T14:32:20Z</time>
      </trkpt>
      <trkpt lat="48.7272" lon="-3.26631">
        <ele>41.95</ele>
        <time>2013-11-24T14:32:22Z</time>
      </trkpt>
      <trkpt lat="48.7272" lon="-3.26631">
        <ele>41.95</ele>
        <time>2013-11-24T14:32:24Z</time>
      </trkpt>
      <trkpt lat="48.72719" lon="-3.26631">
        <ele>41.47</ele>
        <time>2013-11-24T14:32:26Z</time>
      </trkpt>
      <trkpt lat="48.72719" lon="-3.26629">
        <ele>41.47</ele>
        <time>2013-11-24T14:32:28Z</time>
      </trkpt>
      <trkpt lat="48.72718" lon="-3.26629">
        <ele>41.47</ele>
        <time>2013-11-24T14:32:30Z</time>
      </trkpt>
      <trkpt lat="48.72718" lon="-3.26629">
        <ele>41.47</ele>
        <time>2013-11-24T14:32:32Z</time>
      </trkpt>
      <trkpt lat="48.72718" lon="-3.26629">
        <ele>41.47</ele>
        <time>2013-11-24T14:32:34Z</time>
      </trkpt>
      <trkpt lat="48.72717" lon="-3.26628">
        <ele>41.47</ele>
        <time>2013-11-24T14:32:36Z</time>
      </trkpt>
      <trkpt lat="48.72717" lon="-3.26628">
        <ele>41.47</ele>
        <time>2013-11-24T14:32:38Z</time>
      </trkpt>
      <trkpt lat="48.72717" lon="-3.26628">
        <ele>41.47</ele>
        <time>2013-11-24T14:32:40Z</time>
      </trkpt>
      <trkpt lat="48.72717" lon="-3.26627">
        <ele>41.47</ele>
        <time>2013-11-24T14:32:42Z</time>
      </trkpt>
      <trkpt lat="48.72716" lon="-3.26627">
        <ele>41.47</ele>
        <time>2013-11-24T14:32:44Z</time>
      </trkpt>
      <trkpt lat="48.72716" lon="-3.26627">
        <ele>41.47</ele>
        <time>2013-11-24T14:32:46Z</time>
      </trkpt>
      <trkpt lat="48.72716" lon="-3.26627">
        <ele>41.47</ele>
        <time>2013-11-24T14:32:48Z</time>
      </trkpt>
      <trkpt lat="48.72717" lon="-3.26628">
        <ele>41.47</ele>
        <time>2013-11-24T14:32:50Z</time>
      </trkpt>
      <trkpt lat="48.72716" lon="-3.26628">
        <ele>41.47</ele>
        <time>2013-11-24T14:32:52Z</time>
      </trkpt>
      <trkpt lat="48.72716" lon="-3.26628">
        <ele>41.47</ele>
        <time>2013-11-24T14:32:54Z</time>
      </trkpt>
      <trkpt lat="48.72716" lon="-3.26629">
        <ele>41.47</ele>
        <time>2013-11-24T14:32:56Z</time>
      </trkpt>
      <trkpt lat="48.72716" lon="-3.26629">
        <ele>41.47</ele>
        <time>2013-11-24T14:32:58Z</time>
      </trkpt>
      <trkpt lat="48.72716" lon="-3.26628">
        <ele>41.47</ele>
        <time>2013-11-24T14:33:00Z</time>
      </trkpt>
      <trkpt lat="48.72717" lon="-3.26627">
        <ele>41.47</ele>
        <time>2013-11-24T14:33:02Z</time>
      </trkpt>
      <trkpt lat="48.72718" lon="-3.26624">
        <ele>41.47</ele>
        <time>2013-11-24T14:33:04Z</time>
      </trkpt>
      <trkpt lat="48.72719" lon="-3.26622">
        <ele>41.47</ele>
        <time>2013-11-24T14:33:06Z</time>
      </trkpt>
      <trkpt lat="48.72718" lon="-3.26622">
        <ele>41.47</ele>
        <time>2013-11-24T14:33:08Z</time>
      </trkpt>
      <trkpt lat="48.72719" lon="-3.26621">
        <ele>41.47</ele>
        <time>2013-11-24T14:33:10Z</time>
      </trkpt>
      <trkpt lat="48.7272" lon="-3.26621">
        <ele>41.47</ele>
        <time>2013-11-24T14:33:12Z</time>
      </trkpt>
      <trkpt lat="48.72721" lon="-3.2662">
        <ele>41.47</ele>
        <time>2013-11-24T14:33:14Z</time>
      </trkpt>
      <trkpt lat="48.72722" lon="-3.26619">
        <ele>41.47</ele>
        <time>2013-11-24T14:33:16Z</time>
      </trkpt>
      <trkpt lat="48.72722" lon="-3.2662">
        <ele>41.47</ele>
        <time>2013-11-24T14:33:18Z</time>
      </trkpt>
      <trkpt lat="48.72722" lon="-3.26621">
        <ele>41.47</ele>
        <time>2013-11-24T14:33:20Z</time>
      </trkpt>
      <trkpt lat="48.72722" lon="-3.26621">
        <ele>41.47</ele>
        <time>2013-11-24T14:33:22Z</time>
      </trkpt>
      <trkpt lat="48.72721" lon="-3.26622">
        <ele>41.47</ele>
        <time>2013-11-24T14:33:24Z</time>
      </trkpt>
      <trkpt lat="48.7272" lon="-3.26624">
        <ele>41.47</ele>
        <time>2013-11-24T14:33:26Z</time>
      </trkpt>
      <trkpt lat="48.72719" lon="-3.26627">
        <ele>41.47</ele>
        <time>2013-11-24T14:33:28Z</time>
      </trkpt>
      <trkpt lat="48.72718" lon="-3.2663">
        <ele>41.47</ele>
        <time>2013-11-24T14:33:30Z</time>
      </trkpt>
      <trkpt lat="48.72716" lon="-3.26633">
        <ele>41.47</ele>
        <time>2013-11-24T14:33:32Z</time>
      </trkpt>
      <trkpt lat="48.72715" lon="-3.26634">
        <ele>41.47</ele>
        <time>2013-11-24T14:33:34Z</time>
      </trkpt>
      <trkpt lat="48.72715" lon="-3.26633">
        <ele>41.47</ele>
        <time>2013-11-24T14:33:36Z</time>
      </trkpt>
      <trkpt lat="48.72714" lon="-3.26635">
        <ele>41.47</ele>
        <time>2013-11-24T14:33:38Z</time>
      </trkpt>
      <trkpt lat="48.72714" lon="-3.26637">
        <ele>41.47</ele>
        <time>2013-11-24T14:33:40Z</time>
      </trkpt>
      <trkpt lat="48.72714" lon="-3.2664">
        <ele>41.47</ele>
        <time>2013-11-24T14:33:42Z</time>
      </trkpt>
      <trkpt lat="48.72713" lon="-3.26642">
        <ele>41.47</ele>
        <time>2013-11-24T14:33:44Z</time>
      </trkpt>
      <trkpt lat="48.72711" lon="-3.26644">
        <ele>41.47</ele>
        <time>2013-11-24T14:33:46Z</time>
      </trkpt>
      <trkpt lat="48.7271" lon="-3.26647">
        <ele>41.47</ele>
        <time>2013-11-24T14:33:48Z</time>
      </trkpt>
      <trkpt lat="48.72709" lon="-3.26647">
        <ele>41.47</ele>
        <time>2013-11-24T14:33:50Z</time>
      </trkpt>
      <trkpt lat="48.7271" lon="-3.26647">
        <ele>41.47</ele>
        <time>2013-11-24T14:33:52Z</time>
      </trkpt>
      <trkpt lat="48.72709" lon="-3.26647">
        <ele>41.47</ele>
        <time>2013-11-24T14:33:54Z</time>
      </trkpt>
      <trkpt lat="48.7271" lon="-3.26647">
        <ele>41.47</ele>
        <time>2013-11-24T14:33:56Z</time>
      </trkpt>
      <trkpt lat="48.7271" lon="-3.26648">
        <ele>41.47</ele>
        <time>2013-11-24T14:33:58Z</time>
      </trkpt>
      <trkpt lat="48.7271" lon="-3.26648">
        <ele>41.47</ele>
        <time>2013-11-24T14:34:00Z</time>
      </trkpt>
      <trkpt lat="48.72709" lon="-3.26648">
        <ele>41.47</ele>
        <time>2013-11-24T14:34:02Z</time>
      </trkpt>
      <trkpt lat="48.72709" lon="-3.26648">
        <ele>41.47</ele>
        <time>2013-11-24T14:34:04Z</time>
      </trkpt>
      <trkpt lat="48.72709" lon="-3.26648">
        <ele>41.47</ele>
        <time>2013-11-24T14:34:06Z</time>
      </trkpt>
      <trkpt lat="48.72709" lon="-3.26647">
        <ele>41.47</ele>
        <time>2013-11-24T14:34:08Z</time>
      </trkpt>
      <trkpt lat="48.72709" lon="-3.26648">
        <ele>41.47</ele>
        <time>2013-11-24T14:34:10Z</time>
      </trkpt>
      <trkpt lat="48.7271" lon="-3.26649">
        <ele>41.47</ele>
        <time>2013-11-24T14:34:12Z</time>
      </trkpt>
      <trkpt lat="48.7271" lon="-3.26649">
        <ele>41.47</ele>
        <time>2013-11-24T14:34:14Z</time>
      </trkpt>
      <trkpt lat="48.72709" lon="-3.2665">
        <ele>40.99</ele>
        <time>2013-11-24T14:34:16Z</time>
      </trkpt>
      <trkpt lat="48.72709" lon="-3.2665">
        <ele>40.99</ele>
        <time>2013-11-24T14:34:18Z</time>
      </trkpt>
      <trkpt lat="48.72709" lon="-3.2665">
        <ele>40.99</ele>
        <time>2013-11-24T14:34:20Z</time>
      </trkpt>
      <trkpt lat="48.72709" lon="-3.2665">
        <ele>40.99</ele>
        <time>2013-11-24T14:34:22Z</time>
      </trkpt>
      <trkpt lat="48.72708" lon="-3.2665">
        <ele>40.99</ele>
        <time>2013-11-24T14:34:24Z</time>
      </trkpt>
      <trkpt lat="48.72708" lon="-3.2665">
        <ele>40.99</ele>
        <time>2013-11-24T14:34:26Z</time>
      </trkpt>
      <trkpt lat="48.72708" lon="-3.2665">
        <ele>40.99</ele>
        <time>2013-11-24T14:34:28Z</time>
      </trkpt>
      <trkpt lat="48.72708" lon="-3.2665">
        <ele>40.99</ele>
        <time>2013-11-24T14:34:30Z</time>
      </trkpt>
      <trkpt lat="48.72708" lon="-3.2665">
        <ele>40.99</ele>
        <time>2013-11-24T14:34:32Z</time>
      </trkpt>
      <trkpt lat="48.72708" lon="-3.2665">
        <ele>40.99</ele>
        <time>2013-11-24T14:34:34Z</time>
      </trkpt>
      <trkpt lat="48.72708" lon="-3.2665">
        <ele>40.99</ele>
        <time>2013-11-24T14:34:36Z</time>
      </trkpt>
      <trkpt lat="48.72708" lon="-3.2665">
        <ele>40.99</ele>
        <time>2013-11-24T14:34:38Z</time>
      </trkpt>
      <trkpt lat="48.72708" lon="-3.2665">
        <ele>40.99</ele>
        <time>2013-11-24T14:34:40Z</time>
      </trkpt>
      <trkpt lat="48.72708" lon="-3.2665">
        <ele>40.99</ele>
        <time>2013-11-24T14:34:42Z</time>
      </trkpt>
      <trkpt lat="48.72708" lon="-3.2665">
        <ele>40.99</ele>
        <time>2013-11-24T14:34:44Z</time>
      </trkpt>
      <trkpt lat="48.72708" lon="-3.2665">
        <ele>40.99</ele>
        <time>2013-11-24T14:34:46Z</time>
      </trkpt>
      <trkpt lat="48.72708" lon="-3.2665">
        <ele>40.99</ele>
        <time>2013-11-24T14:34:48Z</time>
      </trkpt>
      <trkpt lat="48.72709" lon="-3.2665">
        <ele>40.99</ele>
        <time>2013-11-24T14:34:50Z</time>
      </trkpt>
      <trkpt lat="48.72709" lon="-3.2665">
        <ele>40.99</ele>
        <time>2013-11-24T14:34:52Z</time>
      </trkpt>
      <trkpt lat="48.7271" lon="-3.2665">
        <ele>40.99</ele>
        <time>2013-11-24T14:34:54Z</time>
      </trkpt>
      <trkpt lat="48.7271" lon="-3.2665">
        <ele>40.99</ele>
        <time>2013-11-24T14:34:56Z</time>
      </trkpt>
      <trkpt lat="48.72711" lon="-3.2665">
        <ele>40.99</ele>
        <time>2013-11-24T14:34:58Z</time>
      </trkpt>
      <trkpt lat="48.72711" lon="-3.2665">
        <ele>40.99</ele>
        <time>2013-11-24T14:35:00Z</time>
      </trkpt>
      <trkpt lat="48.72711" lon="-3.2665">
        <ele>40.99</ele>
        <time>2013-11-24T14:35:02Z</time>
      </trkpt>
      <trkpt lat="48.72712" lon="-3.2665">
        <ele>40.99</ele>
        <time>2013-11-24T14:35:04Z</time>
      </trkpt>
      <trkpt lat="48.72712" lon="-3.26651">
        <ele>40.99</ele>
        <time>2013-11-24T14:35:06Z</time>
      </trkpt>
      <trkpt lat="48.72712" lon="-3.26651">
        <ele>40.03</ele>
        <time>2013-11-24T14:35:08Z</time>
      </trkpt>
      <trkpt lat="48.72711" lon="-3.26651">
        <ele>40.03</ele>
        <time>2013-11-24T14:35:10Z</time>
      </trkpt>
      <trkpt lat="48.72711" lon="-3.2665">
        <ele>39.55</ele>
        <time>2013-11-24T14:35:12Z</time>
      </trkpt>
      <trkpt lat="48.72711" lon="-3.26649">
        <ele>39.55</ele>
        <time>2013-11-24T14:35:14Z</time>
      </trkpt>
      <trkpt lat="48.72711" lon="-3.26648">
        <ele>39.55</ele>
        <time>2013-11-24T14:35:16Z</time>
      </trkpt>
      <trkpt lat="48.72709" lon="-3.26648">
        <ele>39.55</ele>
        <time>2013-11-24T14:35:18Z</time>
      </trkpt>
      <trkpt lat="48.72708" lon="-3.26647">
        <ele>39.07</ele>
        <time>2013-11-24T14:35:20Z</time>
      </trkpt>
      <trkpt lat="48.72707" lon="-3.26648">
        <ele>39.07</ele>
        <time>2013-11-24T14:35:22Z</time>
      </trkpt>
      <trkpt lat="48.72706" lon="-3.26647">
        <ele>39.07</ele>
        <time>2013-11-24T14:35:24Z</time>
      </trkpt>
      <trkpt lat="48.72706" lon="-3.26648">
        <ele>39.07</ele>
        <time>2013-11-24T14:35:26Z</time>
      </trkpt>
      <trkpt lat="48.72706" lon="-3.26649">
        <ele>38.59</ele>
        <time>2013-11-24T14:35:28Z</time>
      </trkpt>
      <trkpt lat="48.72705" lon="-3.26649">
        <ele>38.59</ele>
        <time>2013-11-24T14:35:30Z</time>
      </trkpt>
      <trkpt lat="48.72704" lon="-3.26651">
        <ele>38.59</ele>
        <time>2013-11-24T14:35:32Z</time>
      </trkpt>
      <trkpt lat="48.72704" lon="-3.26652">
        <ele>38.59</ele>
        <time>2013-11-24T14:35:34Z</time>
      </trkpt>
      <trkpt lat="48.72703" lon="-3.26653">
        <ele>38.11</ele>
        <time>2013-11-24T14:35:36Z</time>
      </trkpt>
      <trkpt lat="48.72703" lon="-3.26654">
        <ele>38.11</ele>
        <time>2013-11-24T14:35:38Z</time>
      </trkpt>
      <trkpt lat="48.72702" lon="-3.26655">
        <ele>38.11</ele>
        <time>2013-11-24T14:35:40Z</time>
      </trkpt>
      <trkpt lat="48.72702" lon="-3.26655">
        <ele>38.11</ele>
        <time>2013-11-24T14:35:42Z</time>
      </trkpt>
      <trkpt lat="48.72702" lon="-3.26654">
        <ele>38.11</ele>
        <time>2013-11-24T14:35:44Z</time>
      </trkpt>
      <trkpt lat="48.72702" lon="-3.26655">
        <ele>38.11</ele>
        <time>2013-11-24T14:35:46Z</time>
      </trkpt>
      <trkpt lat="48.72702" lon="-3.26655">
        <ele>38.11</ele>
        <time>2013-11-24T14:35:48Z</time>
      </trkpt>
      <trkpt lat="48.72702" lon="-3.26655">
        <ele>38.11</ele>
        <time>2013-11-24T14:35:50Z</time>
      </trkpt>
      <trkpt lat="48.72702" lon="-3.26656">
        <ele>38.11</ele>
        <time>2013-11-24T14:35:52Z</time>
      </trkpt>
      <trkpt lat="48.72701" lon="-3.26656">
        <ele>38.11</ele>
        <time>2013-11-24T14:35:54Z</time>
      </trkpt>
      <trkpt lat="48.72702" lon="-3.26657">
        <ele>38.11</ele>
        <time>2013-11-24T14:35:56Z</time>
      </trkpt>
      <trkpt lat="48.72702" lon="-3.26656">
        <ele>38.11</ele>
        <time>2013-11-24T14:35:58Z</time>
      </trkpt>
      <trkpt lat="48.72701" lon="-3.26656">
        <ele>38.11</ele>
        <time>2013-11-24T14:36:00Z</time>
      </trkpt>
      <trkpt lat="48.72701" lon="-3.26656">
        <ele>38.11</ele>
        <time>2013-11-24T14:36:02Z</time>
      </trkpt>
      <trkpt lat="48.72701" lon="-3.26657">
        <ele>38.11</ele>
        <time>2013-11-24T14:36:04Z</time>
      </trkpt>
      <trkpt lat="48.72701" lon="-3.26657">
        <ele>38.59</ele>
        <time>2013-11-24T14:36:06Z</time>
      </trkpt>
      <trkpt lat="48.72701" lon="-3.26657">
        <ele>38.59</ele>
        <time>2013-11-24T14:36:08Z</time>
      </trkpt>
      <trkpt lat="48.72701" lon="-3.26657">
        <ele>38.59</ele>
        <time>2013-11-24T14:36:10Z</time>
      </trkpt>
      <trkpt lat="48.72701" lon="-3.26657">
        <ele>38.59</ele>
        <time>2013-11-24T14:36:12Z</time>
      </trkpt>
      <trkpt lat="48.72701" lon="-3.26657">
        <ele>38.59</ele>
        <time>2013-11-24T14:36:14Z</time>
      </trkpt>
      <trkpt lat="48.72701" lon="-3.26657">
        <ele>38.59</ele>
        <time>2013-11-24T14:36:16Z</time>
      </trkpt>
      <trkpt lat="48.72702" lon="-3.26657">
        <ele>38.59</ele>
        <time>2013-11-24T14:36:18Z</time>
      </trkpt>
      <trkpt lat="48.72702" lon="-3.26656">
        <ele>38.59</ele>
        <time>2013-11-24T14:36:20Z</time>
      </trkpt>
      <trkpt lat="48.72703" lon="-3.26649">
        <ele>38.59</ele>
        <time>2013-11-24T14:36:22Z</time>
      </trkpt>
      <trkpt lat="48.72702" lon="-3.26648">
        <ele>38.59</ele>
        <time>2013-11-24T14:36:24Z</time>
      </trkpt>
      <trkpt lat="48.72701" lon="-3.26646">
        <ele>38.59</ele>
        <time>2013-11-24T14:36:26Z</time>
      </trkpt>
      <trkpt lat="48.727" lon="-3.26646">
        <ele>38.59</ele>
        <time>2013-11-24T14:36:28Z</time>
      </trkpt>
      <trkpt lat="48.72698" lon="-3.26645">
        <ele>38.59</ele>
        <time>2013-11-24T14:36:30Z</time>
      </trkpt>
      <trkpt lat="48.72696" lon="-3.26645">
        <ele>38.59</ele>
        <time>2013-11-24T14:36:32Z</time>
      </trkpt>
      <trkpt lat="48.72694" lon="-3.26644">
        <ele>38.59</ele>
        <time>2013-11-24T14:36:34Z</time>
      </trkpt>
      <trkpt lat="48.72692" lon="-3.26643">
        <ele>38.59</ele>
        <time>2013-11-24T14:36:36Z</time>
      </trkpt>
      <trkpt lat="48.72691" lon="-3.26644">
        <ele>38.59</ele>
        <time>2013-11-24T14:36:38Z</time>
      </trkpt>
      <trkpt lat="48.72689" lon="-3.26644">
        <ele>38.59</ele>
        <time>2013-11-24T14:36:40Z</time>
      </trkpt>
      <trkpt lat="48.72687" lon="-3.26643">
        <ele>38.59</ele>
        <time>2013-11-24T14:36:42Z</time>
      </trkpt>
      <trkpt lat="48.72686" lon="-3.26642">
        <ele>38.59</ele>
        <time>2013-11-24T14:36:44Z</time>
      </trkpt>
      <trkpt lat="48.72684" lon="-3.26642">
        <ele>38.59</ele>
        <time>2013-11-24T14:36:46Z</time>
      </trkpt>
      <trkpt lat="48.72683" lon="-3.26642">
        <ele>38.59</ele>
        <time>2013-11-24T14:36:48Z</time>
      </trkpt>
      <trkpt lat="48.72682" lon="-3.26643">
        <ele>38.59</ele>
        <time>2013-11-24T14:36:49Z</time>
      </trkpt>
      <trkpt lat="48.7268" lon="-3.26645">
        <ele>38.59</ele>
        <time>2013-11-24T14:36:52Z</time>
      </trkpt>
      <trkpt lat="48.72678" lon="-3.26645">
        <ele>38.59</ele>
        <time>2013-11-24T14:36:54Z</time>
      </trkpt>
      <trkpt lat="48.72675" lon="-3.26646">
        <ele>38.59</ele>
        <time>2013-11-24T14:36:56Z</time>
      </trkpt>
      <trkpt lat="48.72674" lon="-3.26647">
        <ele>38.59</ele>
        <time>2013-11-24T14:36:58Z</time>
      </trkpt>
      <trkpt lat="48.72673" lon="-3.26649">
        <ele>38.59</ele>
        <time>2013-11-24T14:37:00Z</time>
      </trkpt>
      <trkpt lat="48.72672" lon="-3.26652">
        <ele>38.59</ele>
        <time>2013-11-24T14:37:02Z</time>
      </trkpt>
      <trkpt lat="48.72672" lon="-3.26655">
        <ele>38.59</ele>
        <time>2013-11-24T14:37:04Z</time>
      </trkpt>
      <trkpt lat="48.72672" lon="-3.26658">
        <ele>38.59</ele>
        <time>2013-11-24T14:37:06Z</time>
      </trkpt>
      <trkpt lat="48.72672" lon="-3.26658">
        <ele>38.59</ele>
        <time>2013-11-24T14:37:07Z</time>
      </trkpt>
      <trkpt lat="48.72671" lon="-3.26662">
        <ele>38.59</ele>
        <time>2013-11-24T14:37:10Z</time>
      </trkpt>
      <trkpt lat="48.72671" lon="-3.26665">
        <ele>38.59</ele>
        <time>2013-11-24T14:37:12Z</time>
      </trkpt>
      <trkpt lat="48.72671" lon="-3.26666">
        <ele>38.11</ele>
        <time>2013-11-24T14:37:14Z</time>
      </trkpt>
      <trkpt lat="48.72671" lon="-3.26665">
        <ele>38.11</ele>
        <time>2013-11-24T14:37:16Z</time>
      </trkpt>
      <trkpt lat="48.72671" lon="-3.26665">
        <ele>38.11</ele>
        <time>2013-11-24T14:37:18Z</time>
      </trkpt>
      <trkpt lat="48.7267" lon="-3.26665">
        <ele>38.11</ele>
        <time>2013-11-24T14:37:20Z</time>
      </trkpt>
      <trkpt lat="48.7267" lon="-3.26665">
        <ele>38.11</ele>
        <time>2013-11-24T14:37:22Z</time>
      </trkpt>
      <trkpt lat="48.7267" lon="-3.26665">
        <ele>38.11</ele>
        <time>2013-11-24T14:37:24Z</time>
      </trkpt>
      <trkpt lat="48.7267" lon="-3.26666">
        <ele>38.11</ele>
        <time>2013-11-24T14:37:26Z</time>
      </trkpt>
      <trkpt lat="48.72671" lon="-3.26667">
        <ele>38.11</ele>
        <time>2013-11-24T14:37:28Z</time>
      </trkpt>
      <trkpt lat="48.72671" lon="-3.26669">
        <ele>38.11</ele>
        <time>2013-11-24T14:37:30Z</time>
      </trkpt>
      <trkpt lat="48.72671" lon="-3.2667">
        <ele>38.11</ele>
        <time>2013-11-24T14:37:32Z</time>
      </trkpt>
      <trkpt lat="48.72671" lon="-3.26671">
        <ele>38.11</ele>
        <time>2013-11-24T14:37:34Z</time>
      </trkpt>
      <trkpt lat="48.72671" lon="-3.26672">
        <ele>38.11</ele>
        <time>2013-11-24T14:37:36Z</time>
      </trkpt>
      <trkpt lat="48.72672" lon="-3.26672">
        <ele>38.11</ele>
        <time>2013-11-24T14:37:38Z</time>
      </trkpt>
      <trkpt lat="48.72672" lon="-3.26673">
        <ele>38.11</ele>
        <time>2013-11-24T14:37:40Z</time>
      </trkpt>
      <trkpt lat="48.72672" lon="-3.26672">
        <ele>38.11</ele>
        <time>2013-11-24T14:37:42Z</time>
      </trkpt>
      <trkpt lat="48.72672" lon="-3.26672">
        <ele>38.11</ele>
        <time>2013-11-24T14:37:44Z</time>
      </trkpt>
      <trkpt lat="48.72672" lon="-3.26672">
        <ele>38.11</ele>
        <time>2013-11-24T14:37:46Z</time>
      </trkpt>
      <trkpt lat="48.72672" lon="-3.26672">
        <ele>38.11</ele>
        <time>2013-11-24T14:37:48Z</time>
      </trkpt>
      <trkpt lat="48.72672" lon="-3.26672">
        <ele>38.11</ele>
        <time>2013-11-24T14:37:50Z</time>
      </trkpt>
      <trkpt lat="48.72672" lon="-3.26672">
        <ele>38.11</ele>
        <time>2013-11-24T14:37:52Z</time>
      </trkpt>
      <trkpt lat="48.72671" lon="-3.26671">
        <ele>38.11</ele>
        <time>2013-11-24T14:37:54Z</time>
      </trkpt>
      <trkpt lat="48.72671" lon="-3.26671">
        <ele>38.11</ele>
        <time>2013-11-24T14:37:56Z</time>
      </trkpt>
      <trkpt lat="48.72671" lon="-3.2667">
        <ele>38.11</ele>
        <time>2013-11-24T14:37:58Z</time>
      </trkpt>
      <trkpt lat="48.72671" lon="-3.2667">
        <ele>38.11</ele>
        <time>2013-11-24T14:38:00Z</time>
      </trkpt>
      <trkpt lat="48.72672" lon="-3.26669">
        <ele>38.11</ele>
        <time>2013-11-24T14:38:02Z</time>
      </trkpt>
      <trkpt lat="48.72675" lon="-3.26668">
        <ele>38.11</ele>
        <time>2013-11-24T14:38:04Z</time>
      </trkpt>
      <trkpt lat="48.72675" lon="-3.26668">
        <ele>38.11</ele>
        <time>2013-11-24T14:38:06Z</time>
      </trkpt>
      <trkpt lat="48.72675" lon="-3.26669">
        <ele>38.11</ele>
        <time>2013-11-24T14:38:08Z</time>
      </trkpt>
      <trkpt lat="48.72674" lon="-3.26669">
        <ele>38.11</ele>
        <time>2013-11-24T14:38:10Z</time>
      </trkpt>
      <trkpt lat="48.72676" lon="-3.26669">
        <ele>38.11</ele>
        <time>2013-11-24T14:38:12Z</time>
      </trkpt>
      <trkpt lat="48.72676" lon="-3.26668">
        <ele>38.11</ele>
        <time>2013-11-24T14:38:14Z</time>
      </trkpt>
      <trkpt lat="48.72675" lon="-3.26668">
        <ele>38.11</ele>
        <time>2013-11-24T14:38:16Z</time>
      </trkpt>
      <trkpt lat="48.72676" lon="-3.26666">
        <ele>38.11</ele>
        <time>2013-11-24T14:38:18Z</time>
      </trkpt>
      <trkpt lat="48.72676" lon="-3.26665">
        <ele>38.11</ele>
        <time>2013-11-24T14:38:20Z</time>
      </trkpt>
      <trkpt lat="48.72677" lon="-3.26662">
        <ele>38.11</ele>
        <time>2013-11-24T14:38:22Z</time>
      </trkpt>
      <trkpt lat="48.72677" lon="-3.2666">
        <ele>38.11</ele>
        <time>2013-11-24T14:38:24Z</time>
      </trkpt>
      <trkpt lat="48.72677" lon="-3.26658">
        <ele>38.11</ele>
        <time>2013-11-24T14:38:26Z</time>
      </trkpt>
      <trkpt lat="48.72678" lon="-3.26655">
        <ele>38.11</ele>
        <time>2013-11-24T14:38:28Z</time>
      </trkpt>
      <trkpt lat="48.72679" lon="-3.26653">
        <ele>38.11</ele>
        <time>2013-11-24T14:38:30Z</time>
      </trkpt>
      <trkpt lat="48.7268" lon="-3.26651">
        <ele>38.11</ele>
        <time>2013-11-24T14:38:32Z</time>
      </trkpt>
      <trkpt lat="48.72681" lon="-3.2665">
        <ele>38.11</ele>
        <time>2013-11-24T14:38:34Z</time>
      </trkpt>
      <trkpt lat="48.72682" lon="-3.26648">
        <ele>38.11</ele>
        <time>2013-11-24T14:38:36Z</time>
      </trkpt>
      <trkpt lat="48.72683" lon="-3.26647">
        <ele>38.11</ele>
        <time>2013-11-24T14:38:38Z</time>
      </trkpt>
      <trkpt lat="48.72684" lon="-3.26646">
        <ele>38.11</ele>
        <time>2013-11-24T14:38:40Z</time>
      </trkpt>
      <trkpt lat="48.72686" lon="-3.26646">
        <ele>38.11</ele>
        <time>2013-11-24T14:38:42Z</time>
      </trkpt>
      <trkpt lat="48.72687" lon="-3.26645">
        <ele>38.11</ele>
        <time>2013-11-24T14:38:44Z</time>
      </trkpt>
      <trkpt lat="48.72689" lon="-3.26645">
        <ele>38.11</ele>
        <time>2013-11-24T14:38:46Z</time>
      </trkpt>
      <trkpt lat="48.7269" lon="-3.26645">
        <ele>38.11</ele>
        <time>2013-11-24T14:38:48Z</time>
      </trkpt>
      <trkpt lat="48.72691" lon="-3.26645">
        <ele>38.11</ele>
        <time>2013-11-24T14:38:50Z</time>
      </trkpt>
      <trkpt lat="48.72691" lon="-3.26644">
        <ele>38.11</ele>
        <time>2013-11-24T14:38:52Z</time>
      </trkpt>
      <trkpt lat="48.72692" lon="-3.26644">
        <ele>38.11</ele>
        <time>2013-11-24T14:38:54Z</time>
      </trkpt>
      <trkpt lat="48.72695" lon="-3.26646">
        <ele>38.11</ele>
        <time>2013-11-24T14:38:56Z</time>
      </trkpt>
      <trkpt lat="48.72697" lon="-3.26646">
        <ele>38.11</ele>
        <time>2013-11-24T14:38:58Z</time>
      </trkpt>
      <trkpt lat="48.72698" lon="-3.26645">
        <ele>38.11</ele>
        <time>2013-11-24T14:39:00Z</time>
      </trkpt>
      <trkpt lat="48.72699" lon="-3.26644">
        <ele>38.11</ele>
        <time>2013-11-24T14:39:02Z</time>
      </trkpt>
      <trkpt lat="48.727" lon="-3.26644">
        <ele>38.11</ele>
        <time>2013-11-24T14:39:04Z</time>
      </trkpt>
      <trkpt lat="48.72702" lon="-3.26644">
        <ele>38.11</ele>
        <time>2013-11-24T14:39:06Z</time>
      </trkpt>
      <trkpt lat="48.72703" lon="-3.26643">
        <ele>38.11</ele>
        <time>2013-11-24T14:39:08Z</time>
      </trkpt>
      <trkpt lat="48.72706" lon="-3.26643">
        <ele>38.11</ele>
        <time>2013-11-24T14:39:10Z</time>
      </trkpt>
      <trkpt lat="48.72707" lon="-3.26644">
        <ele>38.11</ele>
        <time>2013-11-24T14:39:12Z</time>
      </trkpt>
      <trkpt lat="48.72709" lon="-3.26644">
        <ele>38.11</ele>
        <time>2013-11-24T14:39:14Z</time>
      </trkpt>
      <trkpt lat="48.72712" lon="-3.26644">
        <ele>38.11</ele>
        <time>2013-11-24T14:39:16Z</time>
      </trkpt>
      <trkpt lat="48.72714" lon="-3.26644">
        <ele>38.11</ele>
        <time>2013-11-24T14:39:18Z</time>
      </trkpt>
      <trkpt lat="48.72716" lon="-3.26642">
        <ele>38.11</ele>
        <time>2013-11-24T14:39:20Z</time>
      </trkpt>
      <trkpt lat="48.72718" lon="-3.26641">
        <ele>38.11</ele>
        <time>2013-11-24T14:39:22Z</time>
      </trkpt>
      <trkpt lat="48.72719" lon="-3.26639">
        <ele>38.11</ele>
        <time>2013-11-24T14:39:24Z</time>
      </trkpt>
      <trkpt lat="48.72719" lon="-3.26636">
        <ele>38.11</ele>
        <time>2013-11-24T14:39:26Z</time>
      </trkpt>
      <trkpt lat="48.72722" lon="-3.26633">
        <ele>38.11</ele>
        <time>2013-11-24T14:39:28Z</time>
      </trkpt>
      <trkpt lat="48.72723" lon="-3.26631">
        <ele>38.11</ele>
        <time>2013-11-24T14:39:30Z</time>
      </trkpt>
      <trkpt lat="48.72724" lon="-3.2663">
        <ele>38.11</ele>
        <time>2013-11-24T14:39:32Z</time>
      </trkpt>
      <trkpt lat="48.72726" lon="-3.26628">
        <ele>38.11</ele>
        <time>2013-11-24T14:39:34Z</time>
      </trkpt>
      <trkpt lat="48.72728" lon="-3.26626">
        <ele>38.11</ele>
        <time>2013-11-24T14:39:36Z</time>
      </trkpt>
      <trkpt lat="48.72729" lon="-3.26623">
        <ele>38.11</ele>
        <time>2013-11-24T14:39:38Z</time>
      </trkpt>
      <trkpt lat="48.7273" lon="-3.26621">
        <ele>38.11</ele>
        <time>2013-11-24T14:39:40Z</time>
      </trkpt>
      <trkpt lat="48.72732" lon="-3.26619">
        <ele>38.11</ele>
        <time>2013-11-24T14:39:42Z</time>
      </trkpt>
      <trkpt lat="48.72734" lon="-3.26617">
        <ele>38.11</ele>
        <time>2013-11-24T14:39:44Z</time>
      </trkpt>
      <trkpt lat="48.72735" lon="-3.26615">
        <ele>38.11</ele>
        <time>2013-11-24T14:39:46Z</time>
      </trkpt>
      <trkpt lat="48.72737" lon="-3.26613">
        <ele>38.11</ele>
        <time>2013-11-24T14:39:48Z</time>
      </trkpt>
      <trkpt lat="48.72739" lon="-3.26611">
        <ele>38.11</ele>
        <time>2013-11-24T14:39:50Z</time>
      </trkpt>
      <trkpt lat="48.72741" lon="-3.26608">
        <ele>38.11</ele>
        <time>2013-11-24T14:39:52Z</time>
      </trkpt>
      <trkpt lat="48.72742" lon="-3.26607">
        <ele>38.11</ele>
        <time>2013-11-24T14:39:54Z</time>
      </trkpt>
      <trkpt lat="48.72745" lon="-3.26605">
        <ele>38.11</ele>
        <time>2013-11-24T14:39:56Z</time>
      </trkpt>
      <trkpt lat="48.72747" lon="-3.26604">
        <ele>38.11</ele>
        <time>2013-11-24T14:39:58Z</time>
      </trkpt>
      <trkpt lat="48.72749" lon="-3.26602">
        <ele>38.11</ele>
        <time>2013-11-24T14:40:00Z</time>
      </trkpt>
      <trkpt lat="48.72751" lon="-3.266">
        <ele>38.11</ele>
        <time>2013-11-24T14:40:02Z</time>
      </trkpt>
      <trkpt lat="48.72753" lon="-3.26599">
        <ele>38.11</ele>
        <time>2013-11-24T14:40:04Z</time>
      </trkpt>
      <trkpt lat="48.72754" lon="-3.26599">
        <ele>38.11</ele>
        <time>2013-11-24T14:40:05Z</time>
      </trkpt>
      <trkpt lat="48.72755" lon="-3.26596">
        <ele>38.11</ele>
        <time>2013-11-24T14:40:08Z</time>
      </trkpt>
      <trkpt lat="48.72757" lon="-3.26594">
        <ele>38.11</ele>
        <time>2013-11-24T14:40:10Z</time>
      </trkpt>
      <trkpt lat="48.72759" lon="-3.26593">
        <ele>38.11</ele>
        <time>2013-11-24T14:40:12Z</time>
      </trkpt>
      <trkpt lat="48.72761" lon="-3.26591">
        <ele>38.11</ele>
        <time>2013-11-24T14:40:14Z</time>
      </trkpt>
      <trkpt lat="48.72763" lon="-3.2659">
        <ele>38.11</ele>
        <time>2013-11-24T14:40:16Z</time>
      </trkpt>
      <trkpt lat="48.72765" lon="-3.26588">
        <ele>38.11</ele>
        <time>2013-11-24T14:40:18Z</time>
      </trkpt>
      <trkpt lat="48.72767" lon="-3.26586">
        <ele>38.11</ele>
        <time>2013-11-24T14:40:20Z</time>
      </trkpt>
      <trkpt lat="48.72769" lon="-3.26585">
        <ele>38.11</ele>
        <time>2013-11-24T14:40:22Z</time>
      </trkpt>
      <trkpt lat="48.72771" lon="-3.26584">
        <ele>38.11</ele>
        <time>2013-11-24T14:40:24Z</time>
      </trkpt>
      <trkpt lat="48.72772" lon="-3.26582">
        <ele>38.11</ele>
        <time>2013-11-24T14:40:26Z</time>
      </trkpt>
      <trkpt lat="48.72773" lon="-3.26581">
        <ele>38.11</ele>
        <time>2013-11-24T14:40:28Z</time>
      </trkpt>
      <trkpt lat="48.72775" lon="-3.2658">
        <ele>38.11</ele>
        <time>2013-11-24T14:40:30Z</time>
      </trkpt>
      <trkpt lat="48.72777" lon="-3.26578">
        <ele>38.11</ele>
        <time>2013-11-24T14:40:32Z</time>
      </trkpt>
      <trkpt lat="48.72778" lon="-3.26577">
        <ele>38.11</ele>
        <time>2013-11-24T14:40:34Z</time>
      </trkpt>
      <trkpt lat="48.7278" lon="-3.26576">
        <ele>38.11</ele>
        <time>2013-11-24T14:40:36Z</time>
      </trkpt>
      <trkpt lat="48.72781" lon="-3.26575">
        <ele>38.11</ele>
        <time>2013-11-24T14:40:38Z</time>
      </trkpt>
      <trkpt lat="48.72783" lon="-3.26573">
        <ele>38.11</ele>
        <time>2013-11-24T14:40:40Z</time>
      </trkpt>
      <trkpt lat="48.72785" lon="-3.26572">
        <ele>38.11</ele>
        <time>2013-11-24T14:40:42Z</time>
      </trkpt>
      <trkpt lat="48.72787" lon="-3.26571">
        <ele>38.11</ele>
        <time>2013-11-24T14:40:44Z</time>
      </trkpt>
      <trkpt lat="48.72789" lon="-3.2657">
        <ele>38.11</ele>
        <time>2013-11-24T14:40:46Z</time>
      </trkpt>
      <trkpt lat="48.7279" lon="-3.26569">
        <ele>38.11</ele>
        <time>2013-11-24T14:40:48Z</time>
      </trkpt>
      <trkpt lat="48.72792" lon="-3.26569">
        <ele>38.11</ele>
        <time>2013-11-24T14:40:50Z</time>
      </trkpt>
      <trkpt lat="48.72794" lon="-3.26569">
        <ele>38.11</ele>
        <time>2013-11-24T14:40:52Z</time>
      </trkpt>
      <trkpt lat="48.72796" lon="-3.26568">
        <ele>38.11</ele>
        <time>2013-11-24T14:40:54Z</time>
      </trkpt>
      <trkpt lat="48.72799" lon="-3.26566">
        <ele>38.11</ele>
        <time>2013-11-24T14:40:56Z</time>
      </trkpt>
      <trkpt lat="48.72799" lon="-3.26565">
        <ele>38.11</ele>
        <time>2013-11-24T14:40:57Z</time>
      </trkpt>
      <trkpt lat="48.72801" lon="-3.26564">
        <ele>38.11</ele>
        <time>2013-11-24T14:40:59Z</time>
      </trkpt>
      <trkpt lat="48.72803" lon="-3.26564">
        <ele>38.11</ele>
        <time>2013-11-24T14:41:01Z</time>
      </trkpt>
      <trkpt lat="48.72803" lon="-3.26564">
        <ele>38.11</ele>
        <time>2013-11-24T14:41:03Z</time>
      </trkpt>
      <trkpt lat="48.72805" lon="-3.26563">
        <ele>38.11</ele>
        <time>2013-11-24T14:41:05Z</time>
      </trkpt>
      <trkpt lat="48.72812" lon="-3.26562">
        <ele>38.11</ele>
        <time>2013-11-24T14:41:07Z</time>
      </trkpt>
      <trkpt lat="48.72815" lon="-3.26561">
        <ele>38.11</ele>
        <time>2013-11-24T14:41:09Z</time>
      </trkpt>
      <trkpt lat="48.72817" lon="-3.26561">
        <ele>39.55</ele>
        <time>2013-11-24T14:41:11Z</time>
      </trkpt>
      <trkpt lat="48.7282" lon="-3.26561">
        <ele>39.55</ele>
        <time>2013-11-24T14:41:13Z</time>
      </trkpt>
      <trkpt lat="48.72822" lon="-3.2656">
        <ele>39.55</ele>
        <time>2013-11-24T14:41:15Z</time>
      </trkpt>
      <trkpt lat="48.72822" lon="-3.26559">
        <ele>39.55</ele>
        <time>2013-11-24T14:41:17Z</time>
      </trkpt>
      <trkpt lat="48.72822" lon="-3.26559">
        <ele>39.55</ele>
        <time>2013-11-24T14:41:19Z</time>
      </trkpt>
      <trkpt lat="48.72822" lon="-3.26555">
        <ele>39.55</ele>
        <time>2013-11-24T14:41:21Z</time>
      </trkpt>
      <trkpt lat="48.72823" lon="-3.26553">
        <ele>39.55</ele>
        <time>2013-11-24T14:41:23Z</time>
      </trkpt>
      <trkpt lat="48.72825" lon="-3.26549">
        <ele>39.55</ele>
        <time>2013-11-24T14:41:25Z</time>
      </trkpt>
      <trkpt lat="48.72823" lon="-3.26547">
        <ele>39.55</ele>
        <time>2013-11-24T14:41:27Z</time>
      </trkpt>
      <trkpt lat="48.72824" lon="-3.26545">
        <ele>39.55</ele>
        <time>2013-11-24T14:41:29Z</time>
      </trkpt>
      <trkpt lat="48.72824" lon="-3.26542">
        <ele>39.55</ele>
        <time>2013-11-24T14:41:31Z</time>
      </trkpt>
      <trkpt lat="48.72824" lon="-3.26541">
        <ele>39.55</ele>
        <time>2013-11-24T14:41:33Z</time>
      </trkpt>
      <trkpt lat="48.72825" lon="-3.26539">
        <ele>39.55</ele>
        <time>2013-11-24T14:41:35Z</time>
      </trkpt>
      <trkpt lat="48.72825" lon="-3.26537">
        <ele>39.55</ele>
        <time>2013-11-24T14:41:37Z</time>
      </trkpt>
      <trkpt lat="48.72826" lon="-3.26535">
        <ele>40.03</ele>
        <time>2013-11-24T14:41:39Z</time>
      </trkpt>
      <trkpt lat="48.72826" lon="-3.26534">
        <ele>40.03</ele>
        <time>2013-11-24T14:41:41Z</time>
      </trkpt>
      <trkpt lat="48.72827" lon="-3.26531">
        <ele>40.03</ele>
        <time>2013-11-24T14:41:43Z</time>
      </trkpt>
      <trkpt lat="48.72828" lon="-3.26528">
        <ele>40.03</ele>
        <time>2013-11-24T14:41:45Z</time>
      </trkpt>
      <trkpt lat="48.72829" lon="-3.26525">
        <ele>40.03</ele>
        <time>2013-11-24T14:41:47Z</time>
      </trkpt>
      <trkpt lat="48.7283" lon="-3.2652">
        <ele>40.03</ele>
        <time>2013-11-24T14:41:49Z</time>
      </trkpt>
      <trkpt lat="48.7283" lon="-3.26516">
        <ele>40.03</ele>
        <time>2013-11-24T14:41:51Z</time>
      </trkpt>
      <trkpt lat="48.7283" lon="-3.26512">
        <ele>40.03</ele>
        <time>2013-11-24T14:41:53Z</time>
      </trkpt>
      <trkpt lat="48.7283" lon="-3.2651">
        <ele>40.03</ele>
        <time>2013-11-24T14:41:55Z</time>
      </trkpt>
      <trkpt lat="48.7283" lon="-3.26507">
        <ele>40.03</ele>
        <time>2013-11-24T14:41:57Z</time>
      </trkpt>
      <trkpt lat="48.7283" lon="-3.26504">
        <ele>40.51</ele>
        <time>2013-11-24T14:41:59Z</time>
      </trkpt>
      <trkpt lat="48.72829" lon="-3.26499">
        <ele>40.51</ele>
        <time>2013-11-24T14:42:01Z</time>
      </trkpt>
      <trkpt lat="48.72829" lon="-3.26494">
        <ele>40.51</ele>
        <time>2013-11-24T14:42:03Z</time>
      </trkpt>
      <trkpt lat="48.72829" lon="-3.26491">
        <ele>40.51</ele>
        <time>2013-11-24T14:42:05Z</time>
      </trkpt>
      <trkpt lat="48.72828" lon="-3.26486">
        <ele>40.51</ele>
        <time>2013-11-24T14:42:07Z</time>
      </trkpt>
      <trkpt lat="48.72828" lon="-3.26481">
        <ele>40.51</ele>
        <time>2013-11-24T14:42:09Z</time>
      </trkpt>
      <trkpt lat="48.72827" lon="-3.26477">
        <ele>40.51</ele>
        <time>2013-11-24T14:42:11Z</time>
      </trkpt>
      <trkpt lat="48.72826" lon="-3.26474">
        <ele>40.51</ele>
        <time>2013-11-24T14:42:13Z</time>
      </trkpt>
      <trkpt lat="48.72825" lon="-3.2647">
        <ele>40.51</ele>
        <time>2013-11-24T14:42:15Z</time>
      </trkpt>
      <trkpt lat="48.72823" lon="-3.26467">
        <ele>40.51</ele>
        <time>2013-11-24T14:42:17Z</time>
      </trkpt>
      <trkpt lat="48.72821" lon="-3.26463">
        <ele>40.99</ele>
        <time>2013-11-24T14:42:19Z</time>
      </trkpt>
      <trkpt lat="48.72819" lon="-3.26459">
        <ele>40.99</ele>
        <time>2013-11-24T14:42:21Z</time>
      </trkpt>
      <trkpt lat="48.72817" lon="-3.26455">
        <ele>40.99</ele>
        <time>2013-11-24T14:42:23Z</time>
      </trkpt>
      <trkpt lat="48.72816" lon="-3.26453">
        <ele>40.99</ele>
        <time>2013-11-24T14:42:25Z</time>
      </trkpt>
      <trkpt lat="48.72814" lon="-3.26449">
        <ele>40.99</ele>
        <time>2013-11-24T14:42:27Z</time>
      </trkpt>
      <trkpt lat="48.72813" lon="-3.26446">
        <ele>40.99</ele>
        <time>2013-11-24T14:42:29Z</time>
      </trkpt>
      <trkpt lat="48.72812" lon="-3.26442">
        <ele>40.99</ele>
        <time>2013-11-24T14:42:31Z</time>
      </trkpt>
      <trkpt lat="48.72813" lon="-3.26444">
        <ele>41.47</ele>
        <time>2013-11-24T14:42:33Z</time>
      </trkpt>
      <trkpt lat="48.72813" lon="-3.26444">
        <ele>41.47</ele>
        <time>2013-11-24T14:42:35Z</time>
      </trkpt>
      <trkpt lat="48.72812" lon="-3.26444">
        <ele>41.47</ele>
        <time>2013-11-24T14:42:37Z</time>
      </trkpt>
      <trkpt lat="48.72811" lon="-3.26441">
        <ele>41.47</ele>
        <time>2013-11-24T14:42:39Z</time>
      </trkpt>
      <trkpt lat="48.72809" lon="-3.26437">
        <ele>41.47</ele>
        <time>2013-11-24T14:42:41Z</time>
      </trkpt>
      <trkpt lat="48.72808" lon="-3.26434">
        <ele>41.47</ele>
        <time>2013-11-24T14:42:43Z</time>
      </trkpt>
      <trkpt lat="48.72807" lon="-3.26432">
        <ele>41.47</ele>
        <time>2013-11-24T14:42:45Z</time>
      </trkpt>
      <trkpt lat="48.72805" lon="-3.26429">
        <ele>41.47</ele>
        <time>2013-11-24T14:42:47Z</time>
      </trkpt>
      <trkpt lat="48.72804" lon="-3.26427">
        <ele>41.95</ele>
        <time>2013-11-24T14:42:49Z</time>
      </trkpt>
      <trkpt lat="48.72802" lon="-3.26423">
        <ele>41.95</ele>
        <time>2013-11-24T14:42:51Z</time>
      </trkpt>
      <trkpt lat="48.728" lon="-3.26419">
        <ele>41.95</ele>
        <time>2013-11-24T14:42:53Z</time>
      </trkpt>
      <trkpt lat="48.72799" lon="-3.26415">
        <ele>41.95</ele>
        <time>2013-11-24T14:42:55Z</time>
      </trkpt>
      <trkpt lat="48.72797" lon="-3.26412">
        <ele>41.95</ele>
        <time>2013-11-24T14:42:57Z</time>
      </trkpt>
      <trkpt lat="48.72796" lon="-3.26409">
        <ele>41.95</ele>
        <time>2013-11-24T14:42:59Z</time>
      </trkpt>
      <trkpt lat="48.72795" lon="-3.26406">
        <ele>41.95</ele>
        <time>2013-11-24T14:43:01Z</time>
      </trkpt>
      <trkpt lat="48.72794" lon="-3.26403">
        <ele>41.95</ele>
        <time>2013-11-24T14:43:03Z</time>
      </trkpt>
      <trkpt lat="48.72793" lon="-3.26399">
        <ele>41.95</ele>
        <time>2013-11-24T14:43:05Z</time>
      </trkpt>
      <trkpt lat="48.72792" lon="-3.26395">
        <ele>41.95</ele>
        <time>2013-11-24T14:43:07Z</time>
      </trkpt>
      <trkpt lat="48.72792" lon="-3.26392">
        <ele>41.95</ele>
        <time>2013-11-24T14:43:09Z</time>
      </trkpt>
      <trkpt lat="48.72793" lon="-3.26389">
        <ele>42.44</ele>
        <time>2013-11-24T14:43:11Z</time>
      </trkpt>
      <trkpt lat="48.72793" lon="-3.26386">
        <ele>42.44</ele>
        <time>2013-11-24T14:43:13Z</time>
      </trkpt>
      <trkpt lat="48.72793" lon="-3.26383">
        <ele>42.44</ele>
        <time>2013-11-24T14:43:15Z</time>
      </trkpt>
      <trkpt lat="48.72793" lon="-3.26379">
        <ele>42.44</ele>
        <time>2013-11-24T14:43:17Z</time>
      </trkpt>
      <trkpt lat="48.72793" lon="-3.26376">
        <ele>42.44</ele>
        <time>2013-11-24T14:43:19Z</time>
      </trkpt>
      <trkpt lat="48.72793" lon="-3.26373">
        <ele>42.44</ele>
        <time>2013-11-24T14:43:21Z</time>
      </trkpt>
      <trkpt lat="48.72793" lon="-3.2637">
        <ele>42.44</ele>
        <time>2013-11-24T14:43:23Z</time>
      </trkpt>
      <trkpt lat="48.72793" lon="-3.26367">
        <ele>42.44</ele>
        <time>2013-11-24T14:43:25Z</time>
      </trkpt>
      <trkpt lat="48.72793" lon="-3.26365">
        <ele>42.44</ele>
        <time>2013-11-24T14:43:27Z</time>
      </trkpt>
      <trkpt lat="48.72793" lon="-3.26362">
        <ele>42.44</ele>
        <time>2013-11-24T14:43:29Z</time>
      </trkpt>
      <trkpt lat="48.72793" lon="-3.26359">
        <ele>42.44</ele>
        <time>2013-11-24T14:43:31Z</time>
      </trkpt>
      <trkpt lat="48.72793" lon="-3.26356">
        <ele>42.44</ele>
        <time>2013-11-24T14:43:33Z</time>
      </trkpt>
      <trkpt lat="48.72793" lon="-3.26352">
        <ele>42.44</ele>
        <time>2013-11-24T14:43:35Z</time>
      </trkpt>
      <trkpt lat="48.72792" lon="-3.26349">
        <ele>42.44</ele>
        <time>2013-11-24T14:43:37Z</time>
      </trkpt>
      <trkpt lat="48.72792" lon="-3.26346">
        <ele>42.92</ele>
        <time>2013-11-24T14:43:39Z</time>
      </trkpt>
      <trkpt lat="48.72792" lon="-3.26343">
        <ele>42.92</ele>
        <time>2013-11-24T14:43:41Z</time>
      </trkpt>
      <trkpt lat="48.72792" lon="-3.2634">
        <ele>42.92</ele>
        <time>2013-11-24T14:43:43Z</time>
      </trkpt>
      <trkpt lat="48.72792" lon="-3.26337">
        <ele>42.92</ele>
        <time>2013-11-24T14:43:45Z</time>
      </trkpt>
      <trkpt lat="48.72792" lon="-3.26333">
        <ele>42.92</ele>
        <time>2013-11-24T14:43:47Z</time>
      </trkpt>
      <trkpt lat="48.72792" lon="-3.2633">
        <ele>42.92</ele>
        <time>2013-11-24T14:43:49Z</time>
      </trkpt>
      <trkpt lat="48.72792" lon="-3.26327">
        <ele>42.92</ele>
        <time>2013-11-24T14:43:51Z</time>
      </trkpt>
      <trkpt lat="48.72792" lon="-3.26323">
        <ele>42.92</ele>
        <time>2013-11-24T14:43:53Z</time>
      </trkpt>
      <trkpt lat="48.72792" lon="-3.26319">
        <ele>42.92</ele>
        <time>2013-11-24T14:43:55Z</time>
      </trkpt>
      <trkpt lat="48.72792" lon="-3.26316">
        <ele>42.92</ele>
        <time>2013-11-24T14:43:57Z</time>
      </trkpt>
      <trkpt lat="48.72791" lon="-3.26312">
        <ele>42.92</ele>
        <time>2013-11-24T14:43:59Z</time>
      </trkpt>
      <trkpt lat="48.72791" lon="-3.26309">
        <ele>42.92</ele>
        <time>2013-11-24T14:44:01Z</time>
      </trkpt>
      <trkpt lat="48.72791" lon="-3.26306">
        <ele>43.4</ele>
        <time>2013-11-24T14:44:03Z</time>
      </trkpt>
      <trkpt lat="48.72792" lon="-3.26302">
        <ele>43.4</ele>
        <time>2013-11-24T14:44:05Z</time>
      </trkpt>
      <trkpt lat="48.72792" lon="-3.26298">
        <ele>43.4</ele>
        <time>2013-11-24T14:44:07Z</time>
      </trkpt>
      <trkpt lat="48.72792" lon="-3.26294">
        <ele>43.4</ele>
        <time>2013-11-24T14:44:09Z</time>
      </trkpt>
      <trkpt lat="48.72792" lon="-3.2629">
        <ele>43.4</ele>
        <time>2013-11-24T14:44:11Z</time>
      </trkpt>
      <trkpt lat="48.72792" lon="-3.26287">
        <ele>43.4</ele>
        <time>2013-11-24T14:44:13Z</time>
      </trkpt>
      <trkpt lat="48.72793" lon="-3.26283">
        <ele>43.4</ele>
        <time>2013-11-24T14:44:15Z</time>
      </trkpt>
      <trkpt lat="48.72792" lon="-3.2628">
        <ele>43.4</ele>
        <time>2013-11-24T14:44:17Z</time>
      </trkpt>
      <trkpt lat="48.72792" lon="-3.26277">
        <ele>43.4</ele>
        <time>2013-11-24T14:44:19Z</time>
      </trkpt>
      <trkpt lat="48.72792" lon="-3.26272">
        <ele>43.88</ele>
        <time>2013-11-24T14:44:21Z</time>
      </trkpt>
      <trkpt lat="48.72792" lon="-3.26268">
        <ele>43.88</ele>
        <time>2013-11-24T14:44:23Z</time>
      </trkpt>
      <trkpt lat="48.72793" lon="-3.26264">
        <ele>43.88</ele>
        <time>2013-11-24T14:44:25Z</time>
      </trkpt>
      <trkpt lat="48.72793" lon="-3.2626">
        <ele>43.88</ele>
        <time>2013-11-24T14:44:27Z</time>
      </trkpt>
      <trkpt lat="48.72792" lon="-3.26256">
        <ele>43.88</ele>
        <time>2013-11-24T14:44:29Z</time>
      </trkpt>
      <trkpt lat="48.72792" lon="-3.26253">
        <ele>43.88</ele>
        <time>2013-11-24T14:44:31Z</time>
      </trkpt>
      <trkpt lat="48.72791" lon="-3.26249">
        <ele>43.88</ele>
        <time>2013-11-24T14:44:33Z</time>
      </trkpt>
      <trkpt lat="48.72791" lon="-3.26246">
        <ele>43.88</ele>
        <time>2013-11-24T14:44:35Z</time>
      </trkpt>
      <trkpt lat="48.72791" lon="-3.26243">
        <ele>43.88</ele>
        <time>2013-11-24T14:44:37Z</time>
      </trkpt>
      <trkpt lat="48.72791" lon="-3.26239">
        <ele>43.88</ele>
        <time>2013-11-24T14:44:39Z</time>
      </trkpt>
      <trkpt lat="48.72791" lon="-3.26236">
        <ele>43.88</ele>
        <time>2013-11-24T14:44:41Z</time>
      </trkpt>
      <trkpt lat="48.72791" lon="-3.26232">
        <ele>44.36</ele>
        <time>2013-11-24T14:44:43Z</time>
      </trkpt>
      <trkpt lat="48.72791" lon="-3.26228">
        <ele>44.36</ele>
        <time>2013-11-24T14:44:45Z</time>
      </trkpt>
      <trkpt lat="48.72791" lon="-3.26224">
        <ele>44.36</ele>
        <time>2013-11-24T14:44:47Z</time>
      </trkpt>
      <trkpt lat="48.72791" lon="-3.26221">
        <ele>44.36</ele>
        <time>2013-11-24T14:44:49Z</time>
      </trkpt>
      <trkpt lat="48.72791" lon="-3.26218">
        <ele>44.36</ele>
        <time>2013-11-24T14:44:51Z</time>
      </trkpt>
      <trkpt lat="48.72791" lon="-3.26215">
        <ele>44.36</ele>
        <time>2013-11-24T14:44:53Z</time>
      </trkpt>
      <trkpt lat="48.72792" lon="-3.26211">
        <ele>44.36</ele>
        <time>2013-11-24T14:44:55Z</time>
      </trkpt>
      <trkpt lat="48.72792" lon="-3.26207">
        <ele>44.36</ele>
        <time>2013-11-24T14:44:57Z</time>
      </trkpt>
      <trkpt lat="48.72792" lon="-3.26203">
        <ele>44.36</ele>
        <time>2013-11-24T14:44:59Z</time>
      </trkpt>
      <trkpt lat="48.72792" lon="-3.26199">
        <ele>44.36</ele>
        <time>2013-11-24T14:45:01Z</time>
      </trkpt>
      <trkpt lat="48.72792" lon="-3.26196">
        <ele>44.36</ele>
        <time>2013-11-24T14:45:03Z</time>
      </trkpt>
      <trkpt lat="48.72793" lon="-3.26193">
        <ele>44.36</ele>
        <time>2013-11-24T14:45:05Z</time>
      </trkpt>
      <trkpt lat="48.72793" lon="-3.2619">
        <ele>44.36</ele>
        <time>2013-11-24T14:45:07Z</time>
      </trkpt>
      <trkpt lat="48.72794" lon="-3.26186">
        <ele>44.36</ele>
        <time>2013-11-24T14:45:09Z</time>
      </trkpt>
      <trkpt lat="48.72794" lon="-3.26183">
        <ele>44.36</ele>
        <time>2013-11-24T14:45:11Z</time>
      </trkpt>
      <trkpt lat="48.72794" lon="-3.26179">
        <ele>44.36</ele>
        <time>2013-11-24T14:45:13Z</time>
      </trkpt>
      <trkpt lat="48.72794" lon="-3.26175">
        <ele>44.36</ele>
        <time>2013-11-24T14:45:15Z</time>
      </trkpt>
      <trkpt lat="48.72794" lon="-3.26172">
        <ele>44.84</ele>
        <time>2013-11-24T14:45:17Z</time>
      </trkpt>
      <trkpt lat="48.72794" lon="-3.26169">
        <ele>44.84</ele>
        <time>2013-11-24T14:45:19Z</time>
      </trkpt>
      <trkpt lat="48.72794" lon="-3.26165">
        <ele>44.84</ele>
        <time>2013-11-24T14:45:21Z</time>
      </trkpt>
      <trkpt lat="48.72795" lon="-3.26161">
        <ele>44.84</ele>
        <time>2013-11-24T14:45:23Z</time>
      </trkpt>
      <trkpt lat="48.72795" lon="-3.26158">
        <ele>44.84</ele>
        <time>2013-11-24T14:45:25Z</time>
      </trkpt>
      <trkpt lat="48.72795" lon="-3.26153">
        <ele>44.84</ele>
        <time>2013-11-24T14:45:27Z</time>
      </trkpt>
      <trkpt lat="48.72796" lon="-3.2615">
        <ele>44.84</ele>
        <time>2013-11-24T14:45:29Z</time>
      </trkpt>
      <trkpt lat="48.72797" lon="-3.26147">
        <ele>44.84</ele>
        <time>2013-11-24T14:45:31Z</time>
      </trkpt>
      <trkpt lat="48.72797" lon="-3.26143">
        <ele>45.32</ele>
        <time>2013-11-24T14:45:33Z</time>
      </trkpt>
      <trkpt lat="48.72797" lon="-3.26139">
        <ele>45.32</ele>
        <time>2013-11-24T14:45:35Z</time>
      </trkpt>
      <trkpt lat="48.72798" lon="-3.26136">
        <ele>45.32</ele>
        <time>2013-11-24T14:45:37Z</time>
      </trkpt>
      <trkpt lat="48.72798" lon="-3.26132">
        <ele>45.32</ele>
        <time>2013-11-24T14:45:39Z</time>
      </trkpt>
      <trkpt lat="48.72799" lon="-3.26129">
        <ele>45.32</ele>
        <time>2013-11-24T14:45:41Z</time>
      </trkpt>
      <trkpt lat="48.728" lon="-3.26126">
        <ele>45.32</ele>
        <time>2013-11-24T14:45:43Z</time>
      </trkpt>
      <trkpt lat="48.728" lon="-3.26123">
        <ele>45.32</ele>
        <time>2013-11-24T14:45:45Z</time>
      </trkpt>
      <trkpt lat="48.72801" lon="-3.2612">
        <ele>45.32</ele>
        <time>2013-11-24T14:45:47Z</time>
      </trkpt>
      <trkpt lat="48.72802" lon="-3.26116">
        <ele>45.32</ele>
        <time>2013-11-24T14:45:49Z</time>
      </trkpt>
      <trkpt lat="48.72802" lon="-3.26113">
        <ele>45.32</ele>
        <time>2013-11-24T14:45:51Z</time>
      </trkpt>
      <trkpt lat="48.72802" lon="-3.26109">
        <ele>45.8</ele>
        <time>2013-11-24T14:45:53Z</time>
      </trkpt>
      <trkpt lat="48.72803" lon="-3.26106">
        <ele>45.8</ele>
        <time>2013-11-24T14:45:55Z</time>
      </trkpt>
      <trkpt lat="48.72804" lon="-3.26103">
        <ele>45.8</ele>
        <time>2013-11-24T14:45:57Z</time>
      </trkpt>
      <trkpt lat="48.72804" lon="-3.26099">
        <ele>45.8</ele>
        <time>2013-11-24T14:45:59Z</time>
      </trkpt>
      <trkpt lat="48.72806" lon="-3.26096">
        <ele>45.8</ele>
        <time>2013-11-24T14:46:01Z</time>
      </trkpt>
      <trkpt lat="48.72807" lon="-3.26092">
        <ele>45.8</ele>
        <time>2013-11-24T14:46:03Z</time>
      </trkpt>
      <trkpt lat="48.72808" lon="-3.26089">
        <ele>45.8</ele>
        <time>2013-11-24T14:46:05Z</time>
      </trkpt>
      <trkpt lat="48.72808" lon="-3.26085">
        <ele>45.8</ele>
        <time>2013-11-24T14:46:07Z</time>
      </trkpt>
      <trkpt lat="48.72809" lon="-3.26081">
        <ele>46.28</ele>
        <time>2013-11-24T14:46:09Z</time>
      </trkpt>
      <trkpt lat="48.7281" lon="-3.26078">
        <ele>46.28</ele>
        <time>2013-11-24T14:46:11Z</time>
      </trkpt>
      <trkpt lat="48.72811" lon="-3.26074">
        <ele>46.28</ele>
        <time>2013-11-24T14:46:13Z</time>
      </trkpt>
      <trkpt lat="48.72811" lon="-3.26071">
        <ele>46.28</ele>
        <time>2013-11-24T14:46:15Z</time>
      </trkpt>
      <trkpt lat="48.72812" lon="-3.26067">
        <ele>46.28</ele>
        <time>2013-11-24T14:46:17Z</time>
      </trkpt>
      <trkpt lat="48.72813" lon="-3.26064">
        <ele>46.28</ele>
        <time>2013-11-24T14:46:19Z</time>
      </trkpt>
      <trkpt lat="48.72813" lon="-3.26062">
        <ele>46.28</ele>
        <time>2013-11-24T14:46:21Z</time>
      </trkpt>
      <trkpt lat="48.72814" lon="-3.26058">
        <ele>46.28</ele>
        <time>2013-11-24T14:46:23Z</time>
      </trkpt>
      <trkpt lat="48.72816" lon="-3.26056">
        <ele>46.28</ele>
        <time>2013-11-24T14:46:25Z</time>
      </trkpt>
      <trkpt lat="48.72816" lon="-3.26053">
        <ele>46.28</ele>
        <time>2013-11-24T14:46:27Z</time>
      </trkpt>
      <trkpt lat="48.72817" lon="-3.26049">
        <ele>46.28</ele>
        <time>2013-11-24T14:46:29Z</time>
      </trkpt>
      <trkpt lat="48.72817" lon="-3.26046">
        <ele>46.76</ele>
        <time>2013-11-24T14:46:31Z</time>
      </trkpt>
      <trkpt lat="48.72818" lon="-3.26043">
        <ele>46.76</ele>
        <time>2013-11-24T14:46:33Z</time>
      </trkpt>
      <trkpt lat="48.72819" lon="-3.26039">
        <ele>46.76</ele>
        <time>2013-11-24T14:46:35Z</time>
      </trkpt>
      <trkpt lat="48.72819" lon="-3.26035">
        <ele>46.76</ele>
        <time>2013-11-24T14:46:37Z</time>
      </trkpt>
      <trkpt lat="48.7282" lon="-3.26031">
        <ele>46.76</ele>
        <time>2013-11-24T14:46:39Z</time>
      </trkpt>
      <trkpt lat="48.72821" lon="-3.26028">
        <ele>46.76</ele>
        <time>2013-11-24T14:46:41Z</time>
      </trkpt>
      <trkpt lat="48.72821" lon="-3.26025">
        <ele>46.76</ele>
        <time>2013-11-24T14:46:43Z</time>
      </trkpt>
      <trkpt lat="48.72822" lon="-3.26021">
        <ele>46.76</ele>
        <time>2013-11-24T14:46:45Z</time>
      </trkpt>
      <trkpt lat="48.72823" lon="-3.26018">
        <ele>46.76</ele>
        <time>2013-11-24T14:46:47Z</time>
      </trkpt>
      <trkpt lat="48.72824" lon="-3.26014">
        <ele>47.24</ele>
        <time>2013-11-24T14:46:49Z</time>
      </trkpt>
      <trkpt lat="48.72824" lon="-3.26011">
        <ele>47.24</ele>
        <time>2013-11-24T14:46:51Z</time>
      </trkpt>
      <trkpt lat="48.72825" lon="-3.26008">
        <ele>47.24</ele>
        <time>2013-11-24T14:46:53Z</time>
      </trkpt>
      <trkpt lat="48.72826" lon="-3.26004">
        <ele>47.24</ele>
        <time>2013-11-24T14:46:55Z</time>
      </trkpt>
      <trkpt lat="48.72827" lon="-3.26001">
        <ele>47.24</ele>
        <time>2013-11-24T14:46:57Z</time>
      </trkpt>
      <trkpt lat="48.72828" lon="-3.25998">
        <ele>47.72</ele>
        <time>2013-11-24T14:46:59Z</time>
      </trkpt>
      <trkpt lat="48.72828" lon="-3.25995">
        <ele>47.72</ele>
        <time>2013-11-24T14:47:01Z</time>
      </trkpt>
      <trkpt lat="48.72829" lon="-3.25992">
        <ele>47.72</ele>
        <time>2013-11-24T14:47:03Z</time>
      </trkpt>
      <trkpt lat="48.7283" lon="-3.25989">
        <ele>47.72</ele>
        <time>2013-11-24T14:47:05Z</time>
      </trkpt>
      <trkpt lat="48.72831" lon="-3.25986">
        <ele>47.72</ele>
        <time>2013-11-24T14:47:07Z</time>
      </trkpt>
      <trkpt lat="48.72832" lon="-3.25983">
        <ele>47.72</ele>
        <time>2013-11-24T14:47:09Z</time>
      </trkpt>
      <trkpt lat="48.72833" lon="-3.2598">
        <ele>47.72</ele>
        <time>2013-11-24T14:47:11Z</time>
      </trkpt>
      <trkpt lat="48.72833" lon="-3.25976">
        <ele>47.72</ele>
        <time>2013-11-24T14:47:13Z</time>
      </trkpt>
      <trkpt lat="48.72834" lon="-3.25973">
        <ele>47.72</ele>
        <time>2013-11-24T14:47:15Z</time>
      </trkpt>
      <trkpt lat="48.72835" lon="-3.25969">
        <ele>47.72</ele>
        <time>2013-11-24T14:47:17Z</time>
      </trkpt>
      <trkpt lat="48.72835" lon="-3.25966">
        <ele>48.2</ele>
        <time>2013-11-24T14:47:19Z</time>
      </trkpt>
      <trkpt lat="48.72836" lon="-3.25962">
        <ele>48.2</ele>
        <time>2013-11-24T14:47:21Z</time>
      </trkpt>
      <trkpt lat="48.72836" lon="-3.25958">
        <ele>48.2</ele>
        <time>2013-11-24T14:47:23Z</time>
      </trkpt>
      <trkpt lat="48.72836" lon="-3.25955">
        <ele>48.2</ele>
        <time>2013-11-24T14:47:25Z</time>
      </trkpt>
      <trkpt lat="48.72837" lon="-3.25951">
        <ele>48.2</ele>
        <time>2013-11-24T14:47:27Z</time>
      </trkpt>
      <trkpt lat="48.72837" lon="-3.25948">
        <ele>48.68</ele>
        <time>2013-11-24T14:47:29Z</time>
      </trkpt>
      <trkpt lat="48.72837" lon="-3.25944">
        <ele>48.68</ele>
        <time>2013-11-24T14:47:31Z</time>
      </trkpt>
      <trkpt lat="48.72838" lon="-3.25941">
        <ele>48.68</ele>
        <time>2013-11-24T14:47:33Z</time>
      </trkpt>
      <trkpt lat="48.72838" lon="-3.25937">
        <ele>48.68</ele>
        <time>2013-11-24T14:47:35Z</time>
      </trkpt>
      <trkpt lat="48.72839" lon="-3.25933">
        <ele>48.68</ele>
        <time>2013-11-24T14:47:37Z</time>
      </trkpt>
      <trkpt lat="48.72839" lon="-3.2593">
        <ele>48.68</ele>
        <time>2013-11-24T14:47:39Z</time>
      </trkpt>
      <trkpt lat="48.7284" lon="-3.25926">
        <ele>48.68</ele>
        <time>2013-11-24T14:47:41Z</time>
      </trkpt>
      <trkpt lat="48.7284" lon="-3.25922">
        <ele>48.68</ele>
        <time>2013-11-24T14:47:43Z</time>
      </trkpt>
      <trkpt lat="48.7284" lon="-3.25919">
        <ele>48.68</ele>
        <time>2013-11-24T14:47:45Z</time>
      </trkpt>
      <trkpt lat="48.7284" lon="-3.25915">
        <ele>48.68</ele>
        <time>2013-11-24T14:47:47Z</time>
      </trkpt>
      <trkpt lat="48.72841" lon="-3.25911">
        <ele>48.68</ele>
        <time>2013-11-24T14:47:49Z</time>
      </trkpt>
      <trkpt lat="48.72842" lon="-3.25908">
        <ele>48.68</ele>
        <time>2013-11-24T14:47:51Z</time>
      </trkpt>
      <trkpt lat="48.72842" lon="-3.25905">
        <ele>49.16</ele>
        <time>2013-11-24T14:47:53Z</time>
      </trkpt>
      <trkpt lat="48.72842" lon="-3.25901">
        <ele>49.16</ele>
        <time>2013-11-24T14:47:55Z</time>
      </trkpt>
      <trkpt lat="48.72843" lon="-3.25898">
        <ele>49.16</ele>
        <time>2013-11-24T14:47:57Z</time>
      </trkpt>
      <trkpt lat="48.72843" lon="-3.25895">
        <ele>49.16</ele>
        <time>2013-11-24T14:47:59Z</time>
      </trkpt>
      <trkpt lat="48.72844" lon="-3.25893">
        <ele>49.16</ele>
        <time>2013-11-24T14:48:01Z</time>
      </trkpt>
      <trkpt lat="48.72844" lon="-3.2589">
        <ele>49.16</ele>
        <time>2013-11-24T14:48:03Z</time>
      </trkpt>
      <trkpt lat="48.72845" lon="-3.25887">
        <ele>49.16</ele>
        <time>2013-11-24T14:48:05Z</time>
      </trkpt>
      <trkpt lat="48.72845" lon="-3.25883">
        <ele>49.16</ele>
        <time>2013-11-24T14:48:07Z</time>
      </trkpt>
      <trkpt lat="48.72846" lon="-3.2588">
        <ele>49.16</ele>
        <time>2013-11-24T14:48:09Z</time>
      </trkpt>
      <trkpt lat="48.72846" lon="-3.25876">
        <ele>49.16</ele>
        <time>2013-11-24T14:48:11Z</time>
      </trkpt>
      <trkpt lat="48.72847" lon="-3.25873">
        <ele>49.16</ele>
        <time>2013-11-24T14:48:13Z</time>
      </trkpt>
      <trkpt lat="48.72847" lon="-3.2587">
        <ele>49.16</ele>
        <time>2013-11-24T14:48:15Z</time>
      </trkpt>
      <trkpt lat="48.72848" lon="-3.25866">
        <ele>49.16</ele>
        <time>2013-11-24T14:48:17Z</time>
      </trkpt>
      <trkpt lat="48.72849" lon="-3.25864">
        <ele>49.16</ele>
        <time>2013-11-24T14:48:19Z</time>
      </trkpt>
      <trkpt lat="48.72849" lon="-3.2586">
        <ele>49.65</ele>
        <time>2013-11-24T14:48:21Z</time>
      </trkpt>
      <trkpt lat="48.7285" lon="-3.25856">
        <ele>49.65</ele>
        <time>2013-11-24T14:48:23Z</time>
      </trkpt>
      <trkpt lat="48.72851" lon="-3.25852">
        <ele>49.65</ele>
        <time>2013-11-24T14:48:25Z</time>
      </trkpt>
      <trkpt lat="48.72851" lon="-3.25848">
        <ele>49.65</ele>
        <time>2013-11-24T14:48:27Z</time>
      </trkpt>
      <trkpt lat="48.72852" lon="-3.25845">
        <ele>49.65</ele>
        <time>2013-11-24T14:48:29Z</time>
      </trkpt>
      <trkpt lat="48.72853" lon="-3.25843">
        <ele>50.13</ele>
        <time>2013-11-24T14:48:31Z</time>
      </trkpt>
      <trkpt lat="48.72854" lon="-3.25841">
        <ele>50.13</ele>
        <time>2013-11-24T14:48:33Z</time>
      </trkpt>
      <trkpt lat="48.72854" lon="-3.2584">
        <ele>50.13</ele>
        <time>2013-11-24T14:48:35Z</time>
      </trkpt>
      <trkpt lat="48.72854" lon="-3.2584">
        <ele>50.13</ele>
        <time>2013-11-24T14:48:37Z</time>
      </trkpt>
      <trkpt lat="48.72855" lon="-3.25838">
        <ele>50.13</ele>
        <time>2013-11-24T14:48:39Z</time>
      </trkpt>
      <trkpt lat="48.72855" lon="-3.25835">
        <ele>50.13</ele>
        <time>2013-11-24T14:48:41Z</time>
      </trkpt>
      <trkpt lat="48.72856" lon="-3.25832">
        <ele>50.13</ele>
        <time>2013-11-24T14:48:43Z</time>
      </trkpt>
      <trkpt lat="48.72856" lon="-3.25829">
        <ele>50.13</ele>
        <time>2013-11-24T14:48:45Z</time>
      </trkpt>
      <trkpt lat="48.72857" lon="-3.25825">
        <ele>50.13</ele>
        <time>2013-11-24T14:48:47Z</time>
      </trkpt>
      <trkpt lat="48.72858" lon="-3.25822">
        <ele>50.61</ele>
        <time>2013-11-24T14:48:49Z</time>
      </trkpt>
      <trkpt lat="48.72858" lon="-3.25819">
        <ele>50.61</ele>
        <time>2013-11-24T14:48:51Z</time>
      </trkpt>
      <trkpt lat="48.72859" lon="-3.25816">
        <ele>50.61</ele>
        <time>2013-11-24T14:48:53Z</time>
      </trkpt>
      <trkpt lat="48.7286" lon="-3.25812">
        <ele>50.61</ele>
        <time>2013-11-24T14:48:55Z</time>
      </trkpt>
      <trkpt lat="48.72861" lon="-3.25809">
        <ele>50.61</ele>
        <time>2013-11-24T14:48:57Z</time>
      </trkpt>
      <trkpt lat="48.72861" lon="-3.25805">
        <ele>50.61</ele>
        <time>2013-11-24T14:48:59Z</time>
      </trkpt>
      <trkpt lat="48.72862" lon="-3.25802">
        <ele>50.61</ele>
        <time>2013-11-24T14:49:01Z</time>
      </trkpt>
      <trkpt lat="48.72863" lon="-3.25798">
        <ele>50.61</ele>
        <time>2013-11-24T14:49:03Z</time>
      </trkpt>
      <trkpt lat="48.72864" lon="-3.25795">
        <ele>51.09</ele>
        <time>2013-11-24T14:49:05Z</time>
      </trkpt>
      <trkpt lat="48.72864" lon="-3.25792">
        <ele>51.09</ele>
        <time>2013-11-24T14:49:07Z</time>
      </trkpt>
      <trkpt lat="48.72865" lon="-3.25789">
        <ele>51.09</ele>
        <time>2013-11-24T14:49:09Z</time>
      </trkpt>
      <trkpt lat="48.72865" lon="-3.25786">
        <ele>51.09</ele>
        <time>2013-11-24T14:49:11Z</time>
      </trkpt>
      <trkpt lat="48.72866" lon="-3.25783">
        <ele>51.09</ele>
        <time>2013-11-24T14:49:13Z</time>
      </trkpt>
      <trkpt lat="48.72867" lon="-3.25779">
        <ele>51.09</ele>
        <time>2013-11-24T14:49:15Z</time>
      </trkpt>
      <trkpt lat="48.72868" lon="-3.25776">
        <ele>51.09</ele>
        <time>2013-11-24T14:49:17Z</time>
      </trkpt>
      <trkpt lat="48.72868" lon="-3.25773">
        <ele>51.57</ele>
        <time>2013-11-24T14:49:19Z</time>
      </trkpt>
      <trkpt lat="48.72869" lon="-3.2577">
        <ele>51.57</ele>
        <time>2013-11-24T14:49:21Z</time>
      </trkpt>
      <trkpt lat="48.7287" lon="-3.25766">
        <ele>51.57</ele>
        <time>2013-11-24T14:49:23Z</time>
      </trkpt>
      <trkpt lat="48.7287" lon="-3.25763">
        <ele>51.57</ele>
        <time>2013-11-24T14:49:25Z</time>
      </trkpt>
      <trkpt lat="48.72871" lon="-3.2576">
        <ele>51.57</ele>
        <time>2013-11-24T14:49:27Z</time>
      </trkpt>
      <trkpt lat="48.72872" lon="-3.25757">
        <ele>51.57</ele>
        <time>2013-11-24T14:49:29Z</time>
      </trkpt>
      <trkpt lat="48.72873" lon="-3.25754">
        <ele>52.05</ele>
        <time>2013-11-24T14:49:31Z</time>
      </trkpt>
      <trkpt lat="48.72874" lon="-3.25751">
        <ele>52.05</ele>
        <time>2013-11-24T14:49:33Z</time>
      </trkpt>
      <trkpt lat="48.72874" lon="-3.25748">
        <ele>52.05</ele>
        <time>2013-11-24T14:49:35Z</time>
      </trkpt>
      <trkpt lat="48.72875" lon="-3.25745">
        <ele>52.05</ele>
        <time>2013-11-24T14:49:37Z</time>
      </trkpt>
      <trkpt lat="48.72875" lon="-3.25741">
        <ele>52.05</ele>
        <time>2013-11-24T14:49:39Z</time>
      </trkpt>
      <trkpt lat="48.72876" lon="-3.25738">
        <ele>52.05</ele>
        <time>2013-11-24T14:49:41Z</time>
      </trkpt>
      <trkpt lat="48.72877" lon="-3.25735">
        <ele>52.53</ele>
        <time>2013-11-24T14:49:43Z</time>
      </trkpt>
      <trkpt lat="48.72878" lon="-3.25731">
        <ele>52.53</ele>
        <time>2013-11-24T14:49:45Z</time>
      </trkpt>
      <trkpt lat="48.72879" lon="-3.25728">
        <ele>52.53</ele>
        <time>2013-11-24T14:49:47Z</time>
      </trkpt>
      <trkpt lat="48.72879" lon="-3.25724">
        <ele>52.53</ele>
        <time>2013-11-24T14:49:49Z</time>
      </trkpt>
      <trkpt lat="48.7288" lon="-3.25721">
        <ele>52.53</ele>
        <time>2013-11-24T14:49:51Z</time>
      </trkpt>
      <trkpt lat="48.72881" lon="-3.25717">
        <ele>52.53</ele>
        <time>2013-11-24T14:49:53Z</time>
      </trkpt>
      <trkpt lat="48.72881" lon="-3.25714">
        <ele>52.53</ele>
        <time>2013-11-24T14:49:55Z</time>
      </trkpt>
      <trkpt lat="48.72881" lon="-3.25714">
        <ele>53.01</ele>
        <time>2013-11-24T14:49:57Z</time>
      </trkpt>
      <trkpt lat="48.7288" lon="-3.25712">
        <ele>53.01</ele>
        <time>2013-11-24T14:49:59Z</time>
      </trkpt>
      <trkpt lat="48.72881" lon="-3.25709">
        <ele>53.01</ele>
        <time>2013-11-24T14:50:01Z</time>
      </trkpt>
      <trkpt lat="48.72881" lon="-3.25706">
        <ele>53.01</ele>
        <time>2013-11-24T14:50:03Z</time>
      </trkpt>
      <trkpt lat="48.72882" lon="-3.25704">
        <ele>53.01</ele>
        <time>2013-11-24T14:50:05Z</time>
      </trkpt>
      <trkpt lat="48.72882" lon="-3.25701">
        <ele>53.01</ele>
        <time>2013-11-24T14:50:07Z</time>
      </trkpt>
      <trkpt lat="48.72883" lon="-3.25697">
        <ele>53.01</ele>
        <time>2013-11-24T14:50:09Z</time>
      </trkpt>
      <trkpt lat="48.72883" lon="-3.25694">
        <ele>53.49</ele>
        <time>2013-11-24T14:50:11Z</time>
      </trkpt>
      <trkpt lat="48.72883" lon="-3.25691">
        <ele>53.49</ele>
        <time>2013-11-24T14:50:13Z</time>
      </trkpt>
      <trkpt lat="48.72884" lon="-3.25688">
        <ele>53.49</ele>
        <time>2013-11-24T14:50:15Z</time>
      </trkpt>
      <trkpt lat="48.72884" lon="-3.25685">
        <ele>53.49</ele>
        <time>2013-11-24T14:50:17Z</time>
      </trkpt>
      <trkpt lat="48.72885" lon="-3.25682">
        <ele>53.49</ele>
        <time>2013-11-24T14:50:19Z</time>
      </trkpt>
      <trkpt lat="48.72885" lon="-3.25679">
        <ele>53.49</ele>
        <time>2013-11-24T14:50:21Z</time>
      </trkpt>
      <trkpt lat="48.72886" lon="-3.25675">
        <ele>53.97</ele>
        <time>2013-11-24T14:50:23Z</time>
      </trkpt>
      <trkpt lat="48.72886" lon="-3.25672">
        <ele>53.97</ele>
        <time>2013-11-24T14:50:25Z</time>
      </trkpt>
      <trkpt lat="48.72887" lon="-3.25669">
        <ele>53.97</ele>
        <time>2013-11-24T14:50:27Z</time>
      </trkpt>
      <trkpt lat="48.72887" lon="-3.25666">
        <ele>53.97</ele>
        <time>2013-11-24T14:50:29Z</time>
      </trkpt>
      <trkpt lat="48.72888" lon="-3.25662">
        <ele>53.97</ele>
        <time>2013-11-24T14:50:31Z</time>
      </trkpt>
      <trkpt lat="48.72888" lon="-3.25659">
        <ele>53.97</ele>
        <time>2013-11-24T14:50:33Z</time>
      </trkpt>
      <trkpt lat="48.72889" lon="-3.25656">
        <ele>53.97</ele>
        <time>2013-11-24T14:50:35Z</time>
      </trkpt>
      <trkpt lat="48.7289" lon="-3.25653">
        <ele>53.97</ele>
        <time>2013-11-24T14:50:37Z</time>
      </trkpt>
      <trkpt lat="48.7289" lon="-3.2565">
        <ele>54.45</ele>
        <time>2013-11-24T14:50:39Z</time>
      </trkpt>
      <trkpt lat="48.72891" lon="-3.25647">
        <ele>54.45</ele>
        <time>2013-11-24T14:50:41Z</time>
      </trkpt>
      <trkpt lat="48.72892" lon="-3.25643">
        <ele>54.45</ele>
        <time>2013-11-24T14:50:43Z</time>
      </trkpt>
      <trkpt lat="48.72892" lon="-3.2564">
        <ele>54.45</ele>
        <time>2013-11-24T14:50:45Z</time>
      </trkpt>
      <trkpt lat="48.72893" lon="-3.25637">
        <ele>54.45</ele>
        <time>2013-11-24T14:50:47Z</time>
      </trkpt>
      <trkpt lat="48.72893" lon="-3.25635">
        <ele>54.45</ele>
        <time>2013-11-24T14:50:49Z</time>
      </trkpt>
      <trkpt lat="48.72894" lon="-3.25633">
        <ele>54.93</ele>
        <time>2013-11-24T14:50:51Z</time>
      </trkpt>
      <trkpt lat="48.72894" lon="-3.25632">
        <ele>54.93</ele>
        <time>2013-11-24T14:50:53Z</time>
      </trkpt>
      <trkpt lat="48.72894" lon="-3.25632">
        <ele>54.93</ele>
        <time>2013-11-24T14:50:55Z</time>
      </trkpt>
      <trkpt lat="48.72895" lon="-3.2563">
        <ele>54.93</ele>
        <time>2013-11-24T14:50:57Z</time>
      </trkpt>
      <trkpt lat="48.72895" lon="-3.25627">
        <ele>54.93</ele>
        <time>2013-11-24T14:50:59Z</time>
      </trkpt>
      <trkpt lat="48.72896" lon="-3.25624">
        <ele>54.93</ele>
        <time>2013-11-24T14:51:01Z</time>
      </trkpt>
      <trkpt lat="48.72897" lon="-3.25621">
        <ele>54.93</ele>
        <time>2013-11-24T14:51:03Z</time>
      </trkpt>
      <trkpt lat="48.72898" lon="-3.25618">
        <ele>54.93</ele>
        <time>2013-11-24T14:51:05Z</time>
      </trkpt>
      <trkpt lat="48.72899" lon="-3.25615">
        <ele>54.93</ele>
        <time>2013-11-24T14:51:07Z</time>
      </trkpt>
      <trkpt lat="48.72899" lon="-3.25613">
        <ele>55.41</ele>
        <time>2013-11-24T14:51:09Z</time>
      </trkpt>
      <trkpt lat="48.72899" lon="-3.2561">
        <ele>55.41</ele>
        <time>2013-11-24T14:51:11Z</time>
      </trkpt>
      <trkpt lat="48.729" lon="-3.25607">
        <ele>55.41</ele>
        <time>2013-11-24T14:51:13Z</time>
      </trkpt>
      <trkpt lat="48.72901" lon="-3.25604">
        <ele>55.41</ele>
        <time>2013-11-24T14:51:15Z</time>
      </trkpt>
      <trkpt lat="48.72901" lon="-3.25601">
        <ele>55.41</ele>
        <time>2013-11-24T14:51:17Z</time>
      </trkpt>
      <trkpt lat="48.72902" lon="-3.25598">
        <ele>55.41</ele>
        <time>2013-11-24T14:51:19Z</time>
      </trkpt>
      <trkpt lat="48.72903" lon="-3.25595">
        <ele>55.41</ele>
        <time>2013-11-24T14:51:21Z</time>
      </trkpt>
      <trkpt lat="48.72903" lon="-3.25592">
        <ele>55.41</ele>
        <time>2013-11-24T14:51:23Z</time>
      </trkpt>
      <trkpt lat="48.72904" lon="-3.25589">
        <ele>55.89</ele>
        <time>2013-11-24T14:51:25Z</time>
      </trkpt>
      <trkpt lat="48.72904" lon="-3.25586">
        <ele>55.89</ele>
        <time>2013-11-24T14:51:27Z</time>
      </trkpt>
      <trkpt lat="48.72905" lon="-3.25583">
        <ele>55.89</ele>
        <time>2013-11-24T14:51:29Z</time>
      </trkpt>
      <trkpt lat="48.72906" lon="-3.2558">
        <ele>55.89</ele>
        <time>2013-11-24T14:51:31Z</time>
      </trkpt>
      <trkpt lat="48.72906" lon="-3.25577">
        <ele>55.89</ele>
        <time>2013-11-24T14:51:33Z</time>
      </trkpt>
      <trkpt lat="48.72907" lon="-3.25575">
        <ele>55.89</ele>
        <time>2013-11-24T14:51:35Z</time>
      </trkpt>
      <trkpt lat="48.72908" lon="-3.25571">
        <ele>55.89</ele>
        <time>2013-11-24T14:51:37Z</time>
      </trkpt>
      <trkpt lat="48.72909" lon="-3.25568">
        <ele>56.37</ele>
        <time>2013-11-24T14:51:39Z</time>
      </trkpt>
      <trkpt lat="48.72909" lon="-3.25565">
        <ele>56.37</ele>
        <time>2013-11-24T14:51:41Z</time>
      </trkpt>
      <trkpt lat="48.7291" lon="-3.25562">
        <ele>56.37</ele>
        <time>2013-11-24T14:51:43Z</time>
      </trkpt>
      <trkpt lat="48.72911" lon="-3.25558">
        <ele>56.37</ele>
        <time>2013-11-24T14:51:45Z</time>
      </trkpt>
      <trkpt lat="48.72912" lon="-3.25555">
        <ele>56.37</ele>
        <time>2013-11-24T14:51:47Z</time>
      </trkpt>
      <trkpt lat="48.72913" lon="-3.25551">
        <ele>56.37</ele>
        <time>2013-11-24T14:51:49Z</time>
      </trkpt>
      <trkpt lat="48.72913" lon="-3.25547">
        <ele>56.37</ele>
        <time>2013-11-24T14:51:51Z</time>
      </trkpt>
      <trkpt lat="48.72913" lon="-3.25544">
        <ele>56.37</ele>
        <time>2013-11-24T14:51:53Z</time>
      </trkpt>
      <trkpt lat="48.72914" lon="-3.2554">
        <ele>56.86</ele>
        <time>2013-11-24T14:51:55Z</time>
      </trkpt>
      <trkpt lat="48.72915" lon="-3.25537">
        <ele>56.86</ele>
        <time>2013-11-24T14:51:57Z</time>
      </trkpt>
      <trkpt lat="48.72915" lon="-3.25536">
        <ele>56.86</ele>
        <time>2013-11-24T14:51:59Z</time>
      </trkpt>
      <trkpt lat="48.72915" lon="-3.25536">
        <ele>56.86</ele>
        <time>2013-11-24T14:52:01Z</time>
      </trkpt>
      <trkpt lat="48.72915" lon="-3.25536">
        <ele>56.86</ele>
        <time>2013-11-24T14:52:03Z</time>
      </trkpt>
      <trkpt lat="48.72915" lon="-3.25535">
        <ele>56.86</ele>
        <time>2013-11-24T14:52:05Z</time>
      </trkpt>
      <trkpt lat="48.72914" lon="-3.25535">
        <ele>56.86</ele>
        <time>2013-11-24T14:52:07Z</time>
      </trkpt>
      <trkpt lat="48.72914" lon="-3.25534">
        <ele>56.86</ele>
        <time>2013-11-24T14:52:09Z</time>
      </trkpt>
      <trkpt lat="48.72914" lon="-3.25534">
        <ele>56.86</ele>
        <time>2013-11-24T14:52:11Z</time>
      </trkpt>
      <trkpt lat="48.72913" lon="-3.25534">
        <ele>57.34</ele>
        <time>2013-11-24T14:52:13Z</time>
      </trkpt>
      <trkpt lat="48.72914" lon="-3.25533">
        <ele>57.34</ele>
        <time>2013-11-24T14:52:15Z</time>
      </trkpt>
      <trkpt lat="48.72914" lon="-3.25534">
        <ele>57.34</ele>
        <time>2013-11-24T14:52:17Z</time>
      </trkpt>
      <trkpt lat="48.72914" lon="-3.25534">
        <ele>57.34</ele>
        <time>2013-11-24T14:52:19Z</time>
      </trkpt>
      <trkpt lat="48.72914" lon="-3.25534">
        <ele>57.34</ele>
        <time>2013-11-24T14:52:21Z</time>
      </trkpt>
      <trkpt lat="48.72914" lon="-3.25535">
        <ele>57.34</ele>
        <time>2013-11-24T14:52:23Z</time>
      </trkpt>
      <trkpt lat="48.72914" lon="-3.25535">
        <ele>57.34</ele>
        <time>2013-11-24T14:52:25Z</time>
      </trkpt>
      <trkpt lat="48.72914" lon="-3.25536">
        <ele>57.34</ele>
        <time>2013-11-24T14:52:27Z</time>
      </trkpt>
      <trkpt lat="48.72914" lon="-3.25535">
        <ele>57.82</ele>
        <time>2013-11-24T14:52:29Z</time>
      </trkpt>
      <trkpt lat="48.72914" lon="-3.25535">
        <ele>57.82</ele>
        <time>2013-11-24T14:52:31Z</time>
      </trkpt>
      <trkpt lat="48.72914" lon="-3.25535">
        <ele>57.82</ele>
        <time>2013-11-24T14:52:33Z</time>
      </trkpt>
      <trkpt lat="48.72915" lon="-3.25534">
        <ele>57.82</ele>
        <time>2013-11-24T14:52:35Z</time>
      </trkpt>
      <trkpt lat="48.72915" lon="-3.25534">
        <ele>57.82</ele>
        <time>2013-11-24T14:52:37Z</time>
      </trkpt>
      <trkpt lat="48.72915" lon="-3.25534">
        <ele>57.82</ele>
        <time>2013-11-24T14:52:39Z</time>
      </trkpt>
      <trkpt lat="48.72915" lon="-3.25534">
        <ele>57.82</ele>
        <time>2013-11-24T14:52:41Z</time>
      </trkpt>
      <trkpt lat="48.72915" lon="-3.25534">
        <ele>57.82</ele>
        <time>2013-11-24T14:52:43Z</time>
      </trkpt>
      <trkpt lat="48.72915" lon="-3.25534">
        <ele>58.3</ele>
        <time>2013-11-24T14:52:45Z</time>
      </trkpt>
      <trkpt lat="48.72915" lon="-3.25534">
        <ele>58.3</ele>
        <time>2013-11-24T14:52:47Z</time>
      </trkpt>
      <trkpt lat="48.72915" lon="-3.25533">
        <ele>58.3</ele>
        <time>2013-11-24T14:52:49Z</time>
      </trkpt>
      <trkpt lat="48.72915" lon="-3.25532">
        <ele>58.3</ele>
        <time>2013-11-24T14:52:51Z</time>
      </trkpt>
      <trkpt lat="48.72915" lon="-3.2553">
        <ele>58.3</ele>
        <time>2013-11-24T14:52:53Z</time>
      </trkpt>
      <trkpt lat="48.72915" lon="-3.25529">
        <ele>58.3</ele>
        <time>2013-11-24T14:52:55Z</time>
      </trkpt>
      <trkpt lat="48.72915" lon="-3.25527">
        <ele>58.3</ele>
        <time>2013-11-24T14:52:57Z</time>
      </trkpt>
      <trkpt lat="48.72915" lon="-3.25526">
        <ele>58.3</ele>
        <time>2013-11-24T14:52:59Z</time>
      </trkpt>
      <trkpt lat="48.72915" lon="-3.25526">
        <ele>58.3</ele>
        <time>2013-11-24T14:53:01Z</time>
      </trkpt>
      <trkpt lat="48.72915" lon="-3.25527">
        <ele>58.78</ele>
        <time>2013-11-24T14:53:03Z</time>
      </trkpt>
      <trkpt lat="48.72915" lon="-3.25526">
        <ele>58.78</ele>
        <time>2013-11-24T14:53:05Z</time>
      </trkpt>
      <trkpt lat="48.72916" lon="-3.25526">
        <ele>58.78</ele>
        <time>2013-11-24T14:53:07Z</time>
      </trkpt>
      <trkpt lat="48.72916" lon="-3.25526">
        <ele>58.78</ele>
        <time>2013-11-24T14:53:09Z</time>
      </trkpt>
      <trkpt lat="48.72916" lon="-3.25526">
        <ele>58.78</ele>
        <time>2013-11-24T14:53:11Z</time>
      </trkpt>
      <trkpt lat="48.72916" lon="-3.25524">
        <ele>59.26</ele>
        <time>2013-11-24T14:53:13Z</time>
      </trkpt>
      <trkpt lat="48.72917" lon="-3.25521">
        <ele>59.26</ele>
        <time>2013-11-24T14:53:15Z</time>
      </trkpt>
      <trkpt lat="48.72917" lon="-3.25518">
        <ele>59.26</ele>
        <time>2013-11-24T14:53:17Z</time>
      </trkpt>
      <trkpt lat="48.72918" lon="-3.25516">
        <ele>59.26</ele>
        <time>2013-11-24T14:53:19Z</time>
      </trkpt>
      <trkpt lat="48.72919" lon="-3.25513">
        <ele>59.26</ele>
        <time>2013-11-24T14:53:21Z</time>
      </trkpt>
      <trkpt lat="48.7292" lon="-3.2551">
        <ele>59.26</ele>
        <time>2013-11-24T14:53:23Z</time>
      </trkpt>
      <trkpt lat="48.7292" lon="-3.25507">
        <ele>59.26</ele>
        <time>2013-11-24T14:53:25Z</time>
      </trkpt>
      <trkpt lat="48.72921" lon="-3.25504">
        <ele>59.26</ele>
        <time>2013-11-24T14:53:27Z</time>
      </trkpt>
      <trkpt lat="48.72922" lon="-3.25501">
        <ele>59.26</ele>
        <time>2013-11-24T14:53:29Z</time>
      </trkpt>
      <trkpt lat="48.72922" lon="-3.25498">
        <ele>59.26</ele>
        <time>2013-11-24T14:53:31Z</time>
      </trkpt>
      <trkpt lat="48.72923" lon="-3.25494">
        <ele>59.26</ele>
        <time>2013-11-24T14:53:33Z</time>
      </trkpt>
      <trkpt lat="48.72924" lon="-3.25491">
        <ele>59.26</ele>
        <time>2013-11-24T14:53:35Z</time>
      </trkpt>
      <trkpt lat="48.72925" lon="-3.25488">
        <ele>59.74</ele>
        <time>2013-11-24T14:53:37Z</time>
      </trkpt>
      <trkpt lat="48.72925" lon="-3.25485">
        <ele>59.74</ele>
        <time>2013-11-24T14:53:39Z</time>
      </trkpt>
      <trkpt lat="48.72926" lon="-3.25482">
        <ele>59.74</ele>
        <time>2013-11-24T14:53:41Z</time>
      </trkpt>
      <trkpt lat="48.72927" lon="-3.25479">
        <ele>59.74</ele>
        <time>2013-11-24T14:53:43Z</time>
      </trkpt>
      <trkpt lat="48.72928" lon="-3.25476">
        <ele>59.74</ele>
        <time>2013-11-24T14:53:45Z</time>
      </trkpt>
      <trkpt lat="48.72929" lon="-3.25473">
        <ele>59.74</ele>
        <time>2013-11-24T14:53:47Z</time>
      </trkpt>
      <trkpt lat="48.7293" lon="-3.2547">
        <ele>59.74</ele>
        <time>2013-11-24T14:53:49Z</time>
      </trkpt>
      <trkpt lat="48.72931" lon="-3.25467">
        <ele>59.74</ele>
        <time>2013-11-24T14:53:51Z</time>
      </trkpt>
      <trkpt lat="48.72932" lon="-3.25463">
        <ele>59.74</ele>
        <time>2013-11-24T14:53:53Z</time>
      </trkpt>
      <trkpt lat="48.72933" lon="-3.2546">
        <ele>60.22</ele>
        <time>2013-11-24T14:53:55Z</time>
      </trkpt>
      <trkpt lat="48.72934" lon="-3.25457">
        <ele>60.22</ele>
        <time>2013-11-24T14:53:57Z</time>
      </trkpt>
      <trkpt lat="48.72934" lon="-3.25454">
        <ele>60.22</ele>
        <time>2013-11-24T14:53:59Z</time>
      </trkpt>
      <trkpt lat="48.72935" lon="-3.25451">
        <ele>60.22</ele>
        <time>2013-11-24T14:54:01Z</time>
      </trkpt>
      <trkpt lat="48.72936" lon="-3.25449">
        <ele>60.22</ele>
        <time>2013-11-24T14:54:03Z</time>
      </trkpt>
      <trkpt lat="48.72937" lon="-3.25446">
        <ele>60.22</ele>
        <time>2013-11-24T14:54:05Z</time>
      </trkpt>
      <trkpt lat="48.72938" lon="-3.25444">
        <ele>60.22</ele>
        <time>2013-11-24T14:54:07Z</time>
      </trkpt>
      <trkpt lat="48.72939" lon="-3.25441">
        <ele>60.22</ele>
        <time>2013-11-24T14:54:09Z</time>
      </trkpt>
      <trkpt lat="48.72941" lon="-3.25438">
        <ele>60.22</ele>
        <time>2013-11-24T14:54:11Z</time>
      </trkpt>
      <trkpt lat="48.72942" lon="-3.25435">
        <ele>60.22</ele>
        <time>2013-11-24T14:54:13Z</time>
      </trkpt>
      <trkpt lat="48.72942" lon="-3.25432">
        <ele>60.22</ele>
        <time>2013-11-24T14:54:15Z</time>
      </trkpt>
      <trkpt lat="48.72943" lon="-3.25429">
        <ele>60.22</ele>
        <time>2013-11-24T14:54:17Z</time>
      </trkpt>
      <trkpt lat="48.72944" lon="-3.25426">
        <ele>60.22</ele>
        <time>2013-11-24T14:54:19Z</time>
      </trkpt>
      <trkpt lat="48.72946" lon="-3.25424">
        <ele>60.7</ele>
        <time>2013-11-24T14:54:21Z</time>
      </trkpt>
      <trkpt lat="48.72947" lon="-3.25421">
        <ele>60.7</ele>
        <time>2013-11-24T14:54:23Z</time>
      </trkpt>
      <trkpt lat="48.72948" lon="-3.25419">
        <ele>60.7</ele>
        <time>2013-11-24T14:54:25Z</time>
      </trkpt>
      <trkpt lat="48.7295" lon="-3.25417">
        <ele>60.7</ele>
        <time>2013-11-24T14:54:27Z</time>
      </trkpt>
      <trkpt lat="48.72951" lon="-3.25414">
        <ele>60.7</ele>
        <time>2013-11-24T14:54:29Z</time>
      </trkpt>
      <trkpt lat="48.72953" lon="-3.25411">
        <ele>60.7</ele>
        <time>2013-11-24T14:54:31Z</time>
      </trkpt>
      <trkpt lat="48.72954" lon="-3.25409">
        <ele>60.7</ele>
        <time>2013-11-24T14:54:33Z</time>
      </trkpt>
      <trkpt lat="48.72956" lon="-3.25406">
        <ele>60.7</ele>
        <time>2013-11-24T14:54:35Z</time>
      </trkpt>
      <trkpt lat="48.72957" lon="-3.25403">
        <ele>61.18</ele>
        <time>2013-11-24T14:54:37Z</time>
      </trkpt>
      <trkpt lat="48.72958" lon="-3.254">
        <ele>61.18</ele>
        <time>2013-11-24T14:54:39Z</time>
      </trkpt>
      <trkpt lat="48.7296" lon="-3.25397">
        <ele>61.18</ele>
        <time>2013-11-24T14:54:41Z</time>
      </trkpt>
      <trkpt lat="48.72961" lon="-3.25394">
        <ele>61.18</ele>
        <time>2013-11-24T14:54:43Z</time>
      </trkpt>
      <trkpt lat="48.72962" lon="-3.25392">
        <ele>61.18</ele>
        <time>2013-11-24T14:54:45Z</time>
      </trkpt>
      <trkpt lat="48.72963" lon="-3.25389">
        <ele>61.18</ele>
        <time>2013-11-24T14:54:47Z</time>
      </trkpt>
      <trkpt lat="48.72964" lon="-3.25386">
        <ele>61.18</ele>
        <time>2013-11-24T14:54:49Z</time>
      </trkpt>
      <trkpt lat="48.72965" lon="-3.25383">
        <ele>61.18</ele>
        <time>2013-11-24T14:54:51Z</time>
      </trkpt>
      <trkpt lat="48.72966" lon="-3.2538">
        <ele>61.18</ele>
        <time>2013-11-24T14:54:53Z</time>
      </trkpt>
      <trkpt lat="48.72967" lon="-3.25377">
        <ele>61.18</ele>
        <time>2013-11-24T14:54:55Z</time>
      </trkpt>
      <trkpt lat="48.72968" lon="-3.25375">
        <ele>61.18</ele>
        <time>2013-11-24T14:54:57Z</time>
      </trkpt>
      <trkpt lat="48.72969" lon="-3.25372">
        <ele>61.18</ele>
        <time>2013-11-24T14:54:59Z</time>
      </trkpt>
      <trkpt lat="48.7297" lon="-3.25369">
        <ele>61.18</ele>
        <time>2013-11-24T14:55:01Z</time>
      </trkpt>
      <trkpt lat="48.72972" lon="-3.25366">
        <ele>61.66</ele>
        <time>2013-11-24T14:55:03Z</time>
      </trkpt>
      <trkpt lat="48.72973" lon="-3.25363">
        <ele>61.66</ele>
        <time>2013-11-24T14:55:05Z</time>
      </trkpt>
      <trkpt lat="48.72974" lon="-3.2536">
        <ele>61.66</ele>
        <time>2013-11-24T14:55:07Z</time>
      </trkpt>
      <trkpt lat="48.72975" lon="-3.25357">
        <ele>61.66</ele>
        <time>2013-11-24T14:55:09Z</time>
      </trkpt>
      <trkpt lat="48.72976" lon="-3.25354">
        <ele>61.66</ele>
        <time>2013-11-24T14:55:11Z</time>
      </trkpt>
      <trkpt lat="48.72977" lon="-3.25352">
        <ele>61.66</ele>
        <time>2013-11-24T14:55:13Z</time>
      </trkpt>
      <trkpt lat="48.72978" lon="-3.25349">
        <ele>61.66</ele>
        <time>2013-11-24T14:55:15Z</time>
      </trkpt>
      <trkpt lat="48.72979" lon="-3.25346">
        <ele>61.66</ele>
        <time>2013-11-24T14:55:17Z</time>
      </trkpt>
      <trkpt lat="48.7298" lon="-3.25343">
        <ele>61.66</ele>
        <time>2013-11-24T14:55:19Z</time>
      </trkpt>
      <trkpt lat="48.72981" lon="-3.2534">
        <ele>61.66</ele>
        <time>2013-11-24T14:55:21Z</time>
      </trkpt>
      <trkpt lat="48.72982" lon="-3.25337">
        <ele>61.66</ele>
        <time>2013-11-24T14:55:23Z</time>
      </trkpt>
      <trkpt lat="48.72983" lon="-3.25334">
        <ele>61.66</ele>
        <time>2013-11-24T14:55:25Z</time>
      </trkpt>
      <trkpt lat="48.72984" lon="-3.25331">
        <ele>61.66</ele>
        <time>2013-11-24T14:55:27Z</time>
      </trkpt>
      <trkpt lat="48.72985" lon="-3.25327">
        <ele>62.14</ele>
        <time>2013-11-24T14:55:29Z</time>
      </trkpt>
      <trkpt lat="48.72986" lon="-3.25324">
        <ele>62.14</ele>
        <time>2013-11-24T14:55:31Z</time>
      </trkpt>
      <trkpt lat="48.72987" lon="-3.25321">
        <ele>62.14</ele>
        <time>2013-11-24T14:55:33Z</time>
      </trkpt>
      <trkpt lat="48.72988" lon="-3.25318">
        <ele>62.14</ele>
        <time>2013-11-24T14:55:35Z</time>
      </trkpt>
      <trkpt lat="48.72988" lon="-3.25315">
        <ele>62.14</ele>
        <time>2013-11-24T14:55:37Z</time>
      </trkpt>
      <trkpt lat="48.72989" lon="-3.25312">
        <ele>62.14</ele>
        <time>2013-11-24T14:55:39Z</time>
      </trkpt>
      <trkpt lat="48.7299" lon="-3.25309">
        <ele>62.14</ele>
        <time>2013-11-24T14:55:41Z</time>
      </trkpt>
      <trkpt lat="48.72991" lon="-3.25305">
        <ele>62.62</ele>
        <time>2013-11-24T14:55:43Z</time>
      </trkpt>
      <trkpt lat="48.72992" lon="-3.25302">
        <ele>62.62</ele>
        <time>2013-11-24T14:55:45Z</time>
      </trkpt>
      <trkpt lat="48.72992" lon="-3.25299">
        <ele>62.62</ele>
        <time>2013-11-24T14:55:47Z</time>
      </trkpt>
      <trkpt lat="48.72993" lon="-3.25296">
        <ele>62.62</ele>
        <time>2013-11-24T14:55:49Z</time>
      </trkpt>
      <trkpt lat="48.72994" lon="-3.25293">
        <ele>62.62</ele>
        <time>2013-11-24T14:55:51Z</time>
      </trkpt>
      <trkpt lat="48.72995" lon="-3.2529">
        <ele>62.62</ele>
        <time>2013-11-24T14:55:53Z</time>
      </trkpt>
      <trkpt lat="48.72996" lon="-3.25286">
        <ele>62.62</ele>
        <time>2013-11-24T14:55:55Z</time>
      </trkpt>
      <trkpt lat="48.72997" lon="-3.25283">
        <ele>62.62</ele>
        <time>2013-11-24T14:55:57Z</time>
      </trkpt>
      <trkpt lat="48.72998" lon="-3.2528">
        <ele>62.62</ele>
        <time>2013-11-24T14:55:59Z</time>
      </trkpt>
      <trkpt lat="48.72999" lon="-3.25277">
        <ele>62.62</ele>
        <time>2013-11-24T14:56:01Z</time>
      </trkpt>
      <trkpt lat="48.73" lon="-3.25274">
        <ele>62.62</ele>
        <time>2013-11-24T14:56:03Z</time>
      </trkpt>
      <trkpt lat="48.73001" lon="-3.2527">
        <ele>63.1</ele>
        <time>2013-11-24T14:56:05Z</time>
      </trkpt>
      <trkpt lat="48.73002" lon="-3.25267">
        <ele>63.1</ele>
        <time>2013-11-24T14:56:07Z</time>
      </trkpt>
      <trkpt lat="48.73003" lon="-3.25264">
        <ele>63.1</ele>
        <time>2013-11-24T14:56:09Z</time>
      </trkpt>
      <trkpt lat="48.73004" lon="-3.25261">
        <ele>63.1</ele>
        <time>2013-11-24T14:56:11Z</time>
      </trkpt>
      <trkpt lat="48.73005" lon="-3.25258">
        <ele>63.1</ele>
        <time>2013-11-24T14:56:13Z</time>
      </trkpt>
      <trkpt lat="48.73006" lon="-3.25255">
        <ele>63.1</ele>
        <time>2013-11-24T14:56:15Z</time>
      </trkpt>
      <trkpt lat="48.73007" lon="-3.25252">
        <ele>63.1</ele>
        <time>2013-11-24T14:56:17Z</time>
      </trkpt>
      <trkpt lat="48.73008" lon="-3.25249">
        <ele>63.1</ele>
        <time>2013-11-24T14:56:19Z</time>
      </trkpt>
      <trkpt lat="48.73009" lon="-3.25246">
        <ele>63.1</ele>
        <time>2013-11-24T14:56:21Z</time>
      </trkpt>
      <trkpt lat="48.7301" lon="-3.25244">
        <ele>63.1</ele>
        <time>2013-11-24T14:56:23Z</time>
      </trkpt>
      <trkpt lat="48.73011" lon="-3.25241">
        <ele>63.1</ele>
        <time>2013-11-24T14:56:25Z</time>
      </trkpt>
      <trkpt lat="48.73012" lon="-3.25238">
        <ele>63.1</ele>
        <time>2013-11-24T14:56:27Z</time>
      </trkpt>
      <trkpt lat="48.73013" lon="-3.25235">
        <ele>63.1</ele>
        <time>2013-11-24T14:56:29Z</time>
      </trkpt>
      <trkpt lat="48.73014" lon="-3.25232">
        <ele>63.1</ele>
        <time>2013-11-24T14:56:31Z</time>
      </trkpt>
      <trkpt lat="48.73015" lon="-3.25229">
        <ele>63.1</ele>
        <time>2013-11-24T14:56:33Z</time>
      </trkpt>
      <trkpt lat="48.73016" lon="-3.25226">
        <ele>63.58</ele>
        <time>2013-11-24T14:56:35Z</time>
      </trkpt>
      <trkpt lat="48.73017" lon="-3.25223">
        <ele>63.58</ele>
        <time>2013-11-24T14:56:37Z</time>
      </trkpt>
      <trkpt lat="48.73018" lon="-3.2522">
        <ele>63.58</ele>
        <time>2013-11-24T14:56:39Z</time>
      </trkpt>
      <trkpt lat="48.73019" lon="-3.25217">
        <ele>63.58</ele>
        <time>2013-11-24T14:56:41Z</time>
      </trkpt>
      <trkpt lat="48.7302" lon="-3.25214">
        <ele>63.58</ele>
        <time>2013-11-24T14:56:43Z</time>
      </trkpt>
      <trkpt lat="48.73021" lon="-3.25211">
        <ele>63.58</ele>
        <time>2013-11-24T14:56:45Z</time>
      </trkpt>
      <trkpt lat="48.73022" lon="-3.25208">
        <ele>63.58</ele>
        <time>2013-11-24T14:56:47Z</time>
      </trkpt>
      <trkpt lat="48.73023" lon="-3.25205">
        <ele>63.58</ele>
        <time>2013-11-24T14:56:49Z</time>
      </trkpt>
      <trkpt lat="48.73024" lon="-3.25202">
        <ele>63.58</ele>
        <time>2013-11-24T14:56:51Z</time>
      </trkpt>
      <trkpt lat="48.73026" lon="-3.25199">
        <ele>63.58</ele>
        <time>2013-11-24T14:56:53Z</time>
      </trkpt>
      <trkpt lat="48.73026" lon="-3.25195">
        <ele>63.58</ele>
        <time>2013-11-24T14:56:55Z</time>
      </trkpt>
      <trkpt lat="48.73028" lon="-3.25193">
        <ele>63.58</ele>
        <time>2013-11-24T14:56:57Z</time>
      </trkpt>
      <trkpt lat="48.73029" lon="-3.25189">
        <ele>63.58</ele>
        <time>2013-11-24T14:56:59Z</time>
      </trkpt>
      <trkpt lat="48.7303" lon="-3.25186">
        <ele>63.58</ele>
        <time>2013-11-24T14:57:01Z</time>
      </trkpt>
      <trkpt lat="48.73031" lon="-3.25184">
        <ele>63.58</ele>
        <time>2013-11-24T14:57:03Z</time>
      </trkpt>
      <trkpt lat="48.73032" lon="-3.25181">
        <ele>63.58</ele>
        <time>2013-11-24T14:57:05Z</time>
      </trkpt>
      <trkpt lat="48.73032" lon="-3.25178">
        <ele>63.58</ele>
        <time>2013-11-24T14:57:07Z</time>
      </trkpt>
      <trkpt lat="48.73033" lon="-3.25175">
        <ele>63.58</ele>
        <time>2013-11-24T14:57:09Z</time>
      </trkpt>
      <trkpt lat="48.73034" lon="-3.25172">
        <ele>63.58</ele>
        <time>2013-11-24T14:57:11Z</time>
      </trkpt>
      <trkpt lat="48.73035" lon="-3.25168">
        <ele>63.58</ele>
        <time>2013-11-24T14:57:13Z</time>
      </trkpt>
      <trkpt lat="48.73036" lon="-3.25165">
        <ele>63.58</ele>
        <time>2013-11-24T14:57:15Z</time>
      </trkpt>
      <trkpt lat="48.73037" lon="-3.25162">
        <ele>63.58</ele>
        <time>2013-11-24T14:57:17Z</time>
      </trkpt>
      <trkpt lat="48.73038" lon="-3.25159">
        <ele>63.58</ele>
        <time>2013-11-24T14:57:19Z</time>
      </trkpt>
      <trkpt lat="48.73039" lon="-3.25156">
        <ele>63.58</ele>
        <time>2013-11-24T14:57:21Z</time>
      </trkpt>
      <trkpt lat="48.73041" lon="-3.25153">
        <ele>63.58</ele>
        <time>2013-11-24T14:57:23Z</time>
      </trkpt>
      <trkpt lat="48.73042" lon="-3.2515">
        <ele>63.58</ele>
        <time>2013-11-24T14:57:25Z</time>
      </trkpt>
      <trkpt lat="48.73043" lon="-3.25147">
        <ele>64.07</ele>
        <time>2013-11-24T14:57:27Z</time>
      </trkpt>
      <trkpt lat="48.73044" lon="-3.25143">
        <ele>64.07</ele>
        <time>2013-11-24T14:57:29Z</time>
      </trkpt>
      <trkpt lat="48.73045" lon="-3.25141">
        <ele>64.07</ele>
        <time>2013-11-24T14:57:31Z</time>
      </trkpt>
      <trkpt lat="48.73046" lon="-3.25139">
        <ele>64.07</ele>
        <time>2013-11-24T14:57:33Z</time>
      </trkpt>
      <trkpt lat="48.73046" lon="-3.25136">
        <ele>64.07</ele>
        <time>2013-11-24T14:57:35Z</time>
      </trkpt>
      <trkpt lat="48.73047" lon="-3.25134">
        <ele>64.07</ele>
        <time>2013-11-24T14:57:37Z</time>
      </trkpt>
      <trkpt lat="48.73047" lon="-3.25132">
        <ele>64.07</ele>
        <time>2013-11-24T14:57:39Z</time>
      </trkpt>
      <trkpt lat="48.73047" lon="-3.25132">
        <ele>64.07</ele>
        <time>2013-11-24T14:57:41Z</time>
      </trkpt>
      <trkpt lat="48.73048" lon="-3.2513">
        <ele>64.07</ele>
        <time>2013-11-24T14:57:43Z</time>
      </trkpt>
      <trkpt lat="48.73048" lon="-3.25128">
        <ele>64.07</ele>
        <time>2013-11-24T14:57:45Z</time>
      </trkpt>
      <trkpt lat="48.73048" lon="-3.25127">
        <ele>64.07</ele>
        <time>2013-11-24T14:57:47Z</time>
      </trkpt>
      <trkpt lat="48.73048" lon="-3.25126">
        <ele>64.07</ele>
        <time>2013-11-24T14:57:49Z</time>
      </trkpt>
      <trkpt lat="48.73049" lon="-3.25125">
        <ele>64.07</ele>
        <time>2013-11-24T14:57:51Z</time>
      </trkpt>
      <trkpt lat="48.73049" lon="-3.25124">
        <ele>64.07</ele>
        <time>2013-11-24T14:57:53Z</time>
      </trkpt>
      <trkpt lat="48.7305" lon="-3.25124">
        <ele>64.07</ele>
        <time>2013-11-24T14:57:55Z</time>
      </trkpt>
      <trkpt lat="48.73049" lon="-3.25124">
        <ele>64.07</ele>
        <time>2013-11-24T14:57:57Z</time>
      </trkpt>
      <trkpt lat="48.73049" lon="-3.25124">
        <ele>64.07</ele>
        <time>2013-11-24T14:57:59Z</time>
      </trkpt>
      <trkpt lat="48.73049" lon="-3.25125">
        <ele>64.07</ele>
        <time>2013-11-24T14:58:01Z</time>
      </trkpt>
      <trkpt lat="48.73049" lon="-3.25125">
        <ele>64.07</ele>
        <time>2013-11-24T14:58:03Z</time>
      </trkpt>
      <trkpt lat="48.73049" lon="-3.25125">
        <ele>64.07</ele>
        <time>2013-11-24T14:58:05Z</time>
      </trkpt>
      <trkpt lat="48.73049" lon="-3.25126">
        <ele>64.07</ele>
        <time>2013-11-24T14:58:07Z</time>
      </trkpt>
      <trkpt lat="48.73049" lon="-3.25126">
        <ele>64.07</ele>
        <time>2013-11-24T14:58:09Z</time>
      </trkpt>
      <trkpt lat="48.73049" lon="-3.25126">
        <ele>64.07</ele>
        <time>2013-11-24T14:58:11Z</time>
      </trkpt>
      <trkpt lat="48.73049" lon="-3.25125">
        <ele>64.07</ele>
        <time>2013-11-24T14:58:13Z</time>
      </trkpt>
      <trkpt lat="48.73049" lon="-3.25124">
        <ele>64.07</ele>
        <time>2013-11-24T14:58:15Z</time>
      </trkpt>
      <trkpt lat="48.73049" lon="-3.25123">
        <ele>64.07</ele>
        <time>2013-11-24T14:58:17Z</time>
      </trkpt>
      <trkpt lat="48.73048" lon="-3.25123">
        <ele>64.07</ele>
        <time>2013-11-24T14:58:19Z</time>
      </trkpt>
      <trkpt lat="48.73048" lon="-3.25122">
        <ele>64.07</ele>
        <time>2013-11-24T14:58:21Z</time>
      </trkpt>
      <trkpt lat="48.73048" lon="-3.25122">
        <ele>64.07</ele>
        <time>2013-11-24T14:58:23Z</time>
      </trkpt>
      <trkpt lat="48.73048" lon="-3.25121">
        <ele>64.07</ele>
        <time>2013-11-24T14:58:25Z</time>
      </trkpt>
      <trkpt lat="48.73048" lon="-3.25121">
        <ele>64.07</ele>
        <time>2013-11-24T14:58:27Z</time>
      </trkpt>
      <trkpt lat="48.73048" lon="-3.25121">
        <ele>64.07</ele>
        <time>2013-11-24T14:58:29Z</time>
      </trkpt>
      <trkpt lat="48.73048" lon="-3.2512">
        <ele>64.55</ele>
        <time>2013-11-24T14:58:31Z</time>
      </trkpt>
      <trkpt lat="48.7305" lon="-3.25118">
        <ele>64.55</ele>
        <time>2013-11-24T14:58:33Z</time>
      </trkpt>
      <trkpt lat="48.73051" lon="-3.25117">
        <ele>64.55</ele>
        <time>2013-11-24T14:58:35Z</time>
      </trkpt>
      <trkpt lat="48.73051" lon="-3.25117">
        <ele>64.55</ele>
        <time>2013-11-24T14:58:37Z</time>
      </trkpt>
      <trkpt lat="48.73052" lon="-3.25118">
        <ele>64.55</ele>
        <time>2013-11-24T14:58:39Z</time>
      </trkpt>
      <trkpt lat="48.73053" lon="-3.25115">
        <ele>64.55</ele>
        <time>2013-11-24T14:58:41Z</time>
      </trkpt>
      <trkpt lat="48.73054" lon="-3.25113">
        <ele>64.55</ele>
        <time>2013-11-24T14:58:43Z</time>
      </trkpt>
      <trkpt lat="48.73055" lon="-3.2511">
        <ele>64.55</ele>
        <time>2013-11-24T14:58:45Z</time>
      </trkpt>
      <trkpt lat="48.73056" lon="-3.25107">
        <ele>64.55</ele>
        <time>2013-11-24T14:58:47Z</time>
      </trkpt>
      <trkpt lat="48.73057" lon="-3.25104">
        <ele>64.55</ele>
        <time>2013-11-24T14:58:49Z</time>
      </trkpt>
      <trkpt lat="48.73057" lon="-3.25101">
        <ele>64.55</ele>
        <time>2013-11-24T14:58:51Z</time>
      </trkpt>
      <trkpt lat="48.73058" lon="-3.25098">
        <ele>64.55</ele>
        <time>2013-11-24T14:58:53Z</time>
      </trkpt>
      <trkpt lat="48.7306" lon="-3.25095">
        <ele>64.55</ele>
        <time>2013-11-24T14:58:55Z</time>
      </trkpt>
      <trkpt lat="48.73061" lon="-3.25092">
        <ele>64.55</ele>
        <time>2013-11-24T14:58:57Z</time>
      </trkpt>
      <trkpt lat="48.73062" lon="-3.25089">
        <ele>64.55</ele>
        <time>2013-11-24T14:58:59Z</time>
      </trkpt>
      <trkpt lat="48.73064" lon="-3.25085">
        <ele>64.55</ele>
        <time>2013-11-24T14:59:01Z</time>
      </trkpt>
      <trkpt lat="48.73065" lon="-3.25082">
        <ele>64.55</ele>
        <time>2013-11-24T14:59:03Z</time>
      </trkpt>
      <trkpt lat="48.73066" lon="-3.2508">
        <ele>64.55</ele>
        <time>2013-11-24T14:59:05Z</time>
      </trkpt>
      <trkpt lat="48.73067" lon="-3.25077">
        <ele>64.55</ele>
        <time>2013-11-24T14:59:07Z</time>
      </trkpt>
      <trkpt lat="48.73068" lon="-3.25074">
        <ele>64.55</ele>
        <time>2013-11-24T14:59:09Z</time>
      </trkpt>
      <trkpt lat="48.73069" lon="-3.25071">
        <ele>64.55</ele>
        <time>2013-11-24T14:59:11Z</time>
      </trkpt>
      <trkpt lat="48.7307" lon="-3.25068">
        <ele>64.55</ele>
        <time>2013-11-24T14:59:13Z</time>
      </trkpt>
      <trkpt lat="48.73071" lon="-3.25065">
        <ele>64.55</ele>
        <time>2013-11-24T14:59:15Z</time>
      </trkpt>
      <trkpt lat="48.73072" lon="-3.25062">
        <ele>64.55</ele>
        <time>2013-11-24T14:59:17Z</time>
      </trkpt>
      <trkpt lat="48.73074" lon="-3.25059">
        <ele>64.55</ele>
        <time>2013-11-24T14:59:19Z</time>
      </trkpt>
      <trkpt lat="48.73075" lon="-3.25056">
        <ele>64.55</ele>
        <time>2013-11-24T14:59:21Z</time>
      </trkpt>
      <trkpt lat="48.73076" lon="-3.25053">
        <ele>64.55</ele>
        <time>2013-11-24T14:59:23Z</time>
      </trkpt>
      <trkpt lat="48.73076" lon="-3.25051">
        <ele>64.55</ele>
        <time>2013-11-24T14:59:25Z</time>
      </trkpt>
      <trkpt lat="48.73077" lon="-3.25048">
        <ele>64.55</ele>
        <time>2013-11-24T14:59:27Z</time>
      </trkpt>
      <trkpt lat="48.73078" lon="-3.25045">
        <ele>64.55</ele>
        <time>2013-11-24T14:59:29Z</time>
      </trkpt>
      <trkpt lat="48.73079" lon="-3.25042">
        <ele>64.55</ele>
        <time>2013-11-24T14:59:31Z</time>
      </trkpt>
      <trkpt lat="48.7308" lon="-3.25039">
        <ele>64.55</ele>
        <time>2013-11-24T14:59:33Z</time>
      </trkpt>
      <trkpt lat="48.73082" lon="-3.25035">
        <ele>64.55</ele>
        <time>2013-11-24T14:59:35Z</time>
      </trkpt>
      <trkpt lat="48.73083" lon="-3.25032">
        <ele>64.55</ele>
        <time>2013-11-24T14:59:37Z</time>
      </trkpt>
      <trkpt lat="48.73084" lon="-3.25029">
        <ele>64.55</ele>
        <time>2013-11-24T14:59:39Z</time>
      </trkpt>
      <trkpt lat="48.73085" lon="-3.25026">
        <ele>64.55</ele>
        <time>2013-11-24T14:59:41Z</time>
      </trkpt>
      <trkpt lat="48.73087" lon="-3.25023">
        <ele>64.55</ele>
        <time>2013-11-24T14:59:43Z</time>
      </trkpt>
      <trkpt lat="48.73088" lon="-3.2502">
        <ele>64.55</ele>
        <time>2013-11-24T14:59:45Z</time>
      </trkpt>
      <trkpt lat="48.73089" lon="-3.25017">
        <ele>64.55</ele>
        <time>2013-11-24T14:59:47Z</time>
      </trkpt>
      <trkpt lat="48.73091" lon="-3.25014">
        <ele>64.55</ele>
        <time>2013-11-24T14:59:49Z</time>
      </trkpt>
      <trkpt lat="48.73092" lon="-3.25011">
        <ele>64.55</ele>
        <time>2013-11-24T14:59:51Z</time>
      </trkpt>
      <trkpt lat="48.73094" lon="-3.25008">
        <ele>64.55</ele>
        <time>2013-11-24T14:59:53Z</time>
      </trkpt>
      <trkpt lat="48.73095" lon="-3.25005">
        <ele>64.55</ele>
        <time>2013-11-24T14:59:55Z</time>
      </trkpt>
      <trkpt lat="48.73095" lon="-3.25002">
        <ele>64.55</ele>
        <time>2013-11-24T14:59:57Z</time>
      </trkpt>
      <trkpt lat="48.73097" lon="-3.24999">
        <ele>64.55</ele>
        <time>2013-11-24T14:59:59Z</time>
      </trkpt>
      <trkpt lat="48.73097" lon="-3.24995">
        <ele>64.55</ele>
        <time>2013-11-24T15:00:01Z</time>
      </trkpt>
      <trkpt lat="48.73098" lon="-3.24992">
        <ele>64.55</ele>
        <time>2013-11-24T15:00:03Z</time>
      </trkpt>
      <trkpt lat="48.73099" lon="-3.24989">
        <ele>64.55</ele>
        <time>2013-11-24T15:00:05Z</time>
      </trkpt>
      <trkpt lat="48.731" lon="-3.24986">
        <ele>64.55</ele>
        <time>2013-11-24T15:00:07Z</time>
      </trkpt>
      <trkpt lat="48.73101" lon="-3.24982">
        <ele>64.55</ele>
        <time>2013-11-24T15:00:09Z</time>
      </trkpt>
      <trkpt lat="48.73101" lon="-3.24979">
        <ele>64.55</ele>
        <time>2013-11-24T15:00:11Z</time>
      </trkpt>
      <trkpt lat="48.73102" lon="-3.24976">
        <ele>64.55</ele>
        <time>2013-11-24T15:00:13Z</time>
      </trkpt>
      <trkpt lat="48.73102" lon="-3.24972">
        <ele>64.55</ele>
        <time>2013-11-24T15:00:15Z</time>
      </trkpt>
      <trkpt lat="48.73103" lon="-3.24968">
        <ele>64.55</ele>
        <time>2013-11-24T15:00:17Z</time>
      </trkpt>
      <trkpt lat="48.73104" lon="-3.24964">
        <ele>64.55</ele>
        <time>2013-11-24T15:00:19Z</time>
      </trkpt>
      <trkpt lat="48.73104" lon="-3.24961">
        <ele>64.55</ele>
        <time>2013-11-24T15:00:21Z</time>
      </trkpt>
      <trkpt lat="48.73105" lon="-3.24958">
        <ele>64.55</ele>
        <time>2013-11-24T15:00:23Z</time>
      </trkpt>
      <trkpt lat="48.73106" lon="-3.24955">
        <ele>64.55</ele>
        <time>2013-11-24T15:00:25Z</time>
      </trkpt>
      <trkpt lat="48.73107" lon="-3.24952">
        <ele>64.55</ele>
        <time>2013-11-24T15:00:27Z</time>
      </trkpt>
      <trkpt lat="48.73107" lon="-3.24948">
        <ele>64.55</ele>
        <time>2013-11-24T15:00:29Z</time>
      </trkpt>
      <trkpt lat="48.73108" lon="-3.24945">
        <ele>64.55</ele>
        <time>2013-11-24T15:00:31Z</time>
      </trkpt>
      <trkpt lat="48.73109" lon="-3.24941">
        <ele>64.55</ele>
        <time>2013-11-24T15:00:33Z</time>
      </trkpt>
      <trkpt lat="48.73109" lon="-3.24938">
        <ele>64.55</ele>
        <time>2013-11-24T15:00:35Z</time>
      </trkpt>
      <trkpt lat="48.7311" lon="-3.24934">
        <ele>64.55</ele>
        <time>2013-11-24T15:00:37Z</time>
      </trkpt>
      <trkpt lat="48.7311" lon="-3.24931">
        <ele>64.55</ele>
        <time>2013-11-24T15:00:39Z</time>
      </trkpt>
      <trkpt lat="48.73111" lon="-3.24927">
        <ele>64.55</ele>
        <time>2013-11-24T15:00:41Z</time>
      </trkpt>
      <trkpt lat="48.73111" lon="-3.24923">
        <ele>64.55</ele>
        <time>2013-11-24T15:00:43Z</time>
      </trkpt>
      <trkpt lat="48.73112" lon="-3.2492">
        <ele>64.55</ele>
        <time>2013-11-24T15:00:45Z</time>
      </trkpt>
      <trkpt lat="48.73112" lon="-3.24916">
        <ele>64.55</ele>
        <time>2013-11-24T15:00:47Z</time>
      </trkpt>
      <trkpt lat="48.73112" lon="-3.24913">
        <ele>64.55</ele>
        <time>2013-11-24T15:00:49Z</time>
      </trkpt>
      <trkpt lat="48.73113" lon="-3.2491">
        <ele>64.55</ele>
        <time>2013-11-24T15:00:51Z</time>
      </trkpt>
      <trkpt lat="48.73113" lon="-3.24906">
        <ele>64.55</ele>
        <time>2013-11-24T15:00:53Z</time>
      </trkpt>
      <trkpt lat="48.73114" lon="-3.24903">
        <ele>64.55</ele>
        <time>2013-11-24T15:00:55Z</time>
      </trkpt>
      <trkpt lat="48.73114" lon="-3.24899">
        <ele>64.55</ele>
        <time>2013-11-24T15:00:57Z</time>
      </trkpt>
      <trkpt lat="48.73114" lon="-3.24896">
        <ele>64.55</ele>
        <time>2013-11-24T15:00:59Z</time>
      </trkpt>
      <trkpt lat="48.73114" lon="-3.24892">
        <ele>64.55</ele>
        <time>2013-11-24T15:01:01Z</time>
      </trkpt>
      <trkpt lat="48.73115" lon="-3.24887">
        <ele>64.55</ele>
        <time>2013-11-24T15:01:03Z</time>
      </trkpt>
      <trkpt lat="48.73115" lon="-3.24883">
        <ele>64.55</ele>
        <time>2013-11-24T15:01:05Z</time>
      </trkpt>
      <trkpt lat="48.73115" lon="-3.24879">
        <ele>64.55</ele>
        <time>2013-11-24T15:01:07Z</time>
      </trkpt>
      <trkpt lat="48.73116" lon="-3.24875">
        <ele>64.55</ele>
        <time>2013-11-24T15:01:09Z</time>
      </trkpt>
      <trkpt lat="48.73116" lon="-3.24871">
        <ele>64.55</ele>
        <time>2013-11-24T15:01:11Z</time>
      </trkpt>
      <trkpt lat="48.73116" lon="-3.24868">
        <ele>64.55</ele>
        <time>2013-11-24T15:01:13Z</time>
      </trkpt>
      <trkpt lat="48.73117" lon="-3.24865">
        <ele>64.55</ele>
        <time>2013-11-24T15:01:15Z</time>
      </trkpt>
      <trkpt lat="48.73117" lon="-3.24862">
        <ele>64.55</ele>
        <time>2013-11-24T15:01:17Z</time>
      </trkpt>
      <trkpt lat="48.73117" lon="-3.24858">
        <ele>64.55</ele>
        <time>2013-11-24T15:01:19Z</time>
      </trkpt>
      <trkpt lat="48.73117" lon="-3.24855">
        <ele>64.55</ele>
        <time>2013-11-24T15:01:21Z</time>
      </trkpt>
      <trkpt lat="48.73117" lon="-3.24851">
        <ele>64.55</ele>
        <time>2013-11-24T15:01:23Z</time>
      </trkpt>
      <trkpt lat="48.73118" lon="-3.24848">
        <ele>64.55</ele>
        <time>2013-11-24T15:01:25Z</time>
      </trkpt>
      <trkpt lat="48.73119" lon="-3.24845">
        <ele>64.55</ele>
        <time>2013-11-24T15:01:27Z</time>
      </trkpt>
      <trkpt lat="48.73119" lon="-3.24841">
        <ele>64.55</ele>
        <time>2013-11-24T15:01:29Z</time>
      </trkpt>
      <trkpt lat="48.73119" lon="-3.24838">
        <ele>64.55</ele>
        <time>2013-11-24T15:01:31Z</time>
      </trkpt>
      <trkpt lat="48.7312" lon="-3.24834">
        <ele>64.55</ele>
        <time>2013-11-24T15:01:33Z</time>
      </trkpt>
      <trkpt lat="48.7312" lon="-3.24831">
        <ele>64.55</ele>
        <time>2013-11-24T15:01:35Z</time>
      </trkpt>
      <trkpt lat="48.73121" lon="-3.24828">
        <ele>64.55</ele>
        <time>2013-11-24T15:01:37Z</time>
      </trkpt>
      <trkpt lat="48.73121" lon="-3.24825">
        <ele>64.55</ele>
        <time>2013-11-24T15:01:39Z</time>
      </trkpt>
      <trkpt lat="48.73121" lon="-3.24821">
        <ele>64.55</ele>
        <time>2013-11-24T15:01:41Z</time>
      </trkpt>
      <trkpt lat="48.73122" lon="-3.24818">
        <ele>64.55</ele>
        <time>2013-11-24T15:01:43Z</time>
      </trkpt>
      <trkpt lat="48.73122" lon="-3.24814">
        <ele>64.55</ele>
        <time>2013-11-24T15:01:45Z</time>
      </trkpt>
      <trkpt lat="48.73123" lon="-3.24811">
        <ele>64.55</ele>
        <time>2013-11-24T15:01:47Z</time>
      </trkpt>
      <trkpt lat="48.73123" lon="-3.24808">
        <ele>64.55</ele>
        <time>2013-11-24T15:01:49Z</time>
      </trkpt>
      <trkpt lat="48.73124" lon="-3.24804">
        <ele>64.55</ele>
        <time>2013-11-24T15:01:51Z</time>
      </trkpt>
      <trkpt lat="48.73124" lon="-3.24802">
        <ele>64.55</ele>
        <time>2013-11-24T15:01:53Z</time>
      </trkpt>
      <trkpt lat="48.73125" lon="-3.24799">
        <ele>64.55</ele>
        <time>2013-11-24T15:01:55Z</time>
      </trkpt>
      <trkpt lat="48.73126" lon="-3.24797">
        <ele>64.55</ele>
        <time>2013-11-24T15:01:57Z</time>
      </trkpt>
      <trkpt lat="48.73127" lon="-3.24797">
        <ele>64.55</ele>
        <time>2013-11-24T15:01:59Z</time>
      </trkpt>
      <trkpt lat="48.73128" lon="-3.24796">
        <ele>64.55</ele>
        <time>2013-11-24T15:02:01Z</time>
      </trkpt>
      <trkpt lat="48.73129" lon="-3.24796">
        <ele>64.55</ele>
        <time>2013-11-24T15:02:03Z</time>
      </trkpt>
      <trkpt lat="48.73129" lon="-3.24795">
        <ele>64.55</ele>
        <time>2013-11-24T15:02:05Z</time>
      </trkpt>
      <trkpt lat="48.73129" lon="-3.24795">
        <ele>64.55</ele>
        <time>2013-11-24T15:02:07Z</time>
      </trkpt>
      <trkpt lat="48.7313" lon="-3.24795">
        <ele>64.55</ele>
        <time>2013-11-24T15:02:09Z</time>
      </trkpt>
      <trkpt lat="48.73131" lon="-3.24796">
        <ele>64.55</ele>
        <time>2013-11-24T15:02:11Z</time>
      </trkpt>
      <trkpt lat="48.73132" lon="-3.24797">
        <ele>64.55</ele>
        <time>2013-11-24T15:02:13Z</time>
      </trkpt>
      <trkpt lat="48.73134" lon="-3.24798">
        <ele>64.55</ele>
        <time>2013-11-24T15:02:15Z</time>
      </trkpt>
      <trkpt lat="48.73135" lon="-3.24799">
        <ele>64.55</ele>
        <time>2013-11-24T15:02:17Z</time>
      </trkpt>
      <trkpt lat="48.73137" lon="-3.24801">
        <ele>64.55</ele>
        <time>2013-11-24T15:02:19Z</time>
      </trkpt>
      <trkpt lat="48.73139" lon="-3.24801">
        <ele>64.55</ele>
        <time>2013-11-24T15:02:21Z</time>
      </trkpt>
      <trkpt lat="48.7314" lon="-3.24802">
        <ele>64.55</ele>
        <time>2013-11-24T15:02:23Z</time>
      </trkpt>
      <trkpt lat="48.73142" lon="-3.24803">
        <ele>64.55</ele>
        <time>2013-11-24T15:02:25Z</time>
      </trkpt>
      <trkpt lat="48.73144" lon="-3.24804">
        <ele>64.55</ele>
        <time>2013-11-24T15:02:27Z</time>
      </trkpt>
      <trkpt lat="48.73146" lon="-3.24805">
        <ele>64.55</ele>
        <time>2013-11-24T15:02:29Z</time>
      </trkpt>
      <trkpt lat="48.73148" lon="-3.24806">
        <ele>64.55</ele>
        <time>2013-11-24T15:02:31Z</time>
      </trkpt>
      <trkpt lat="48.7315" lon="-3.24808">
        <ele>64.55</ele>
        <time>2013-11-24T15:02:33Z</time>
      </trkpt>
      <trkpt lat="48.73152" lon="-3.24808">
        <ele>64.55</ele>
        <time>2013-11-24T15:02:35Z</time>
      </trkpt>
      <trkpt lat="48.73155" lon="-3.2481">
        <ele>64.55</ele>
        <time>2013-11-24T15:02:37Z</time>
      </trkpt>
      <trkpt lat="48.73157" lon="-3.2481">
        <ele>64.55</ele>
        <time>2013-11-24T15:02:39Z</time>
      </trkpt>
      <trkpt lat="48.73159" lon="-3.24812">
        <ele>64.55</ele>
        <time>2013-11-24T15:02:41Z</time>
      </trkpt>
      <trkpt lat="48.7316" lon="-3.24813">
        <ele>64.55</ele>
        <time>2013-11-24T15:02:43Z</time>
      </trkpt>
      <trkpt lat="48.73162" lon="-3.24814">
        <ele>64.55</ele>
        <time>2013-11-24T15:02:45Z</time>
      </trkpt>
      <trkpt lat="48.73164" lon="-3.24816">
        <ele>64.55</ele>
        <time>2013-11-24T15:02:47Z</time>
      </trkpt>
      <trkpt lat="48.73166" lon="-3.24818">
        <ele>64.55</ele>
        <time>2013-11-24T15:02:49Z</time>
      </trkpt>
      <trkpt lat="48.73168" lon="-3.24819">
        <ele>64.55</ele>
        <time>2013-11-24T15:02:51Z</time>
      </trkpt>
      <trkpt lat="48.7317" lon="-3.2482">
        <ele>64.55</ele>
        <time>2013-11-24T15:02:53Z</time>
      </trkpt>
      <trkpt lat="48.73172" lon="-3.24821">
        <ele>64.55</ele>
        <time>2013-11-24T15:02:55Z</time>
      </trkpt>
      <trkpt lat="48.73174" lon="-3.24822">
        <ele>64.55</ele>
        <time>2013-11-24T15:02:57Z</time>
      </trkpt>
      <trkpt lat="48.73176" lon="-3.24823">
        <ele>65.03</ele>
        <time>2013-11-24T15:02:59Z</time>
      </trkpt>
      <trkpt lat="48.73178" lon="-3.24824">
        <ele>64.55</ele>
        <time>2013-11-24T15:03:01Z</time>
      </trkpt>
      <trkpt lat="48.7318" lon="-3.24825">
        <ele>64.55</ele>
        <time>2013-11-24T15:03:03Z</time>
      </trkpt>
      <trkpt lat="48.73182" lon="-3.24827">
        <ele>64.55</ele>
        <time>2013-11-24T15:03:05Z</time>
      </trkpt>
      <trkpt lat="48.73184" lon="-3.24828">
        <ele>64.55</ele>
        <time>2013-11-24T15:03:07Z</time>
      </trkpt>
      <trkpt lat="48.73186" lon="-3.24829">
        <ele>65.03</ele>
        <time>2013-11-24T15:03:09Z</time>
      </trkpt>
      <trkpt lat="48.73188" lon="-3.2483">
        <ele>65.03</ele>
        <time>2013-11-24T15:03:11Z</time>
      </trkpt>
      <trkpt lat="48.7319" lon="-3.24831">
        <ele>65.03</ele>
        <time>2013-11-24T15:03:13Z</time>
      </trkpt>
      <trkpt lat="48.73192" lon="-3.24832">
        <ele>65.03</ele>
        <time>2013-11-24T15:03:15Z</time>
      </trkpt>
      <trkpt lat="48.73194" lon="-3.24834">
        <ele>65.03</ele>
        <time>2013-11-24T15:03:17Z</time>
      </trkpt>
      <trkpt lat="48.73197" lon="-3.24835">
        <ele>65.03</ele>
        <time>2013-11-24T15:03:19Z</time>
      </trkpt>
      <trkpt lat="48.73199" lon="-3.24836">
        <ele>65.03</ele>
        <time>2013-11-24T15:03:21Z</time>
      </trkpt>
      <trkpt lat="48.73201" lon="-3.24837">
        <ele>65.03</ele>
        <time>2013-11-24T15:03:23Z</time>
      </trkpt>
      <trkpt lat="48.73202" lon="-3.24838">
        <ele>65.03</ele>
        <time>2013-11-24T15:03:25Z</time>
      </trkpt>
      <trkpt lat="48.73205" lon="-3.24839">
        <ele>65.03</ele>
        <time>2013-11-24T15:03:27Z</time>
      </trkpt>
      <trkpt lat="48.73207" lon="-3.24839">
        <ele>65.03</ele>
        <time>2013-11-24T15:03:29Z</time>
      </trkpt>
      <trkpt lat="48.73209" lon="-3.2484">
        <ele>65.03</ele>
        <time>2013-11-24T15:03:31Z</time>
      </trkpt>
      <trkpt lat="48.7321" lon="-3.24841">
        <ele>65.03</ele>
        <time>2013-11-24T15:03:33Z</time>
      </trkpt>
      <trkpt lat="48.73212" lon="-3.24842">
        <ele>65.03</ele>
        <time>2013-11-24T15:03:35Z</time>
      </trkpt>
      <trkpt lat="48.73214" lon="-3.24844">
        <ele>65.03</ele>
        <time>2013-11-24T15:03:37Z</time>
      </trkpt>
      <trkpt lat="48.73216" lon="-3.24845">
        <ele>65.03</ele>
        <time>2013-11-24T15:03:39Z</time>
      </trkpt>
      <trkpt lat="48.73218" lon="-3.24846">
        <ele>65.03</ele>
        <time>2013-11-24T15:03:41Z</time>
      </trkpt>
      <trkpt lat="48.73219" lon="-3.24846">
        <ele>65.03</ele>
        <time>2013-11-24T15:03:43Z</time>
      </trkpt>
      <trkpt lat="48.73221" lon="-3.24847">
        <ele>65.03</ele>
        <time>2013-11-24T15:03:45Z</time>
      </trkpt>
      <trkpt lat="48.73223" lon="-3.24848">
        <ele>65.03</ele>
        <time>2013-11-24T15:03:47Z</time>
      </trkpt>
      <trkpt lat="48.73225" lon="-3.2485">
        <ele>65.03</ele>
        <time>2013-11-24T15:03:49Z</time>
      </trkpt>
      <trkpt lat="48.73227" lon="-3.24851">
        <ele>65.03</ele>
        <time>2013-11-24T15:03:51Z</time>
      </trkpt>
      <trkpt lat="48.7323" lon="-3.24852">
        <ele>65.03</ele>
        <time>2013-11-24T15:03:53Z</time>
      </trkpt>
      <trkpt lat="48.73232" lon="-3.24852">
        <ele>65.03</ele>
        <time>2013-11-24T15:03:55Z</time>
      </trkpt>
      <trkpt lat="48.73234" lon="-3.24853">
        <ele>65.03</ele>
        <time>2013-11-24T15:03:57Z</time>
      </trkpt>
      <trkpt lat="48.73236" lon="-3.24854">
        <ele>65.03</ele>
        <time>2013-11-24T15:03:59Z</time>
      </trkpt>
      <trkpt lat="48.73238" lon="-3.24855">
        <ele>65.03</ele>
        <time>2013-11-24T15:04:01Z</time>
      </trkpt>
      <trkpt lat="48.7324" lon="-3.24856">
        <ele>65.03</ele>
        <time>2013-11-24T15:04:03Z</time>
      </trkpt>
      <trkpt lat="48.73242" lon="-3.24856">
        <ele>65.03</ele>
        <time>2013-11-24T15:04:05Z</time>
      </trkpt>
      <trkpt lat="48.73244" lon="-3.24857">
        <ele>65.03</ele>
        <time>2013-11-24T15:04:07Z</time>
      </trkpt>
      <trkpt lat="48.73246" lon="-3.24858">
        <ele>65.03</ele>
        <time>2013-11-24T15:04:09Z</time>
      </trkpt>
      <trkpt lat="48.73248" lon="-3.24858">
        <ele>65.03</ele>
        <time>2013-11-24T15:04:11Z</time>
      </trkpt>
      <trkpt lat="48.73251" lon="-3.24859">
        <ele>65.03</ele>
        <time>2013-11-24T15:04:13Z</time>
      </trkpt>
      <trkpt lat="48.73253" lon="-3.2486">
        <ele>65.03</ele>
        <time>2013-11-24T15:04:15Z</time>
      </trkpt>
      <trkpt lat="48.73255" lon="-3.24861">
        <ele>65.03</ele>
        <time>2013-11-24T15:04:17Z</time>
      </trkpt>
      <trkpt lat="48.73257" lon="-3.24861">
        <ele>65.03</ele>
        <time>2013-11-24T15:04:19Z</time>
      </trkpt>
      <trkpt lat="48.73259" lon="-3.24861">
        <ele>65.03</ele>
        <time>2013-11-24T15:04:21Z</time>
      </trkpt>
      <trkpt lat="48.73261" lon="-3.24862">
        <ele>65.03</ele>
        <time>2013-11-24T15:04:23Z</time>
      </trkpt>
      <trkpt lat="48.73263" lon="-3.24863">
        <ele>65.03</ele>
        <time>2013-11-24T15:04:25Z</time>
      </trkpt>
      <trkpt lat="48.73266" lon="-3.24864">
        <ele>65.03</ele>
        <time>2013-11-24T15:04:27Z</time>
      </trkpt>
      <trkpt lat="48.73268" lon="-3.24865">
        <ele>65.51</ele>
        <time>2013-11-24T15:04:29Z</time>
      </trkpt>
      <trkpt lat="48.7327" lon="-3.24866">
        <ele>65.51</ele>
        <time>2013-11-24T15:04:31Z</time>
      </trkpt>
      <trkpt lat="48.73272" lon="-3.24866">
        <ele>65.51</ele>
        <time>2013-11-24T15:04:33Z</time>
      </trkpt>
      <trkpt lat="48.73275" lon="-3.24867">
        <ele>65.51</ele>
        <time>2013-11-24T15:04:35Z</time>
      </trkpt>
      <trkpt lat="48.73277" lon="-3.24867">
        <ele>65.51</ele>
        <time>2013-11-24T15:04:37Z</time>
      </trkpt>
      <trkpt lat="48.73279" lon="-3.24868">
        <ele>65.51</ele>
        <time>2013-11-24T15:04:39Z</time>
      </trkpt>
      <trkpt lat="48.73281" lon="-3.24869">
        <ele>65.51</ele>
        <time>2013-11-24T15:04:41Z</time>
      </trkpt>
      <trkpt lat="48.73283" lon="-3.2487">
        <ele>65.51</ele>
        <time>2013-11-24T15:04:43Z</time>
      </trkpt>
      <trkpt lat="48.73285" lon="-3.24872">
        <ele>65.51</ele>
        <time>2013-11-24T15:04:45Z</time>
      </trkpt>
      <trkpt lat="48.73287" lon="-3.24873">
        <ele>65.51</ele>
        <time>2013-11-24T15:04:47Z</time>
      </trkpt>
      <trkpt lat="48.73288" lon="-3.24876">
        <ele>65.51</ele>
        <time>2013-11-24T15:04:49Z</time>
      </trkpt>
      <trkpt lat="48.73288" lon="-3.24879">
        <ele>65.51</ele>
        <time>2013-11-24T15:04:51Z</time>
      </trkpt>
      <trkpt lat="48.73288" lon="-3.24882">
        <ele>65.51</ele>
        <time>2013-11-24T15:04:53Z</time>
      </trkpt>
      <trkpt lat="48.73289" lon="-3.24885">
        <ele>65.51</ele>
        <time>2013-11-24T15:04:55Z</time>
      </trkpt>
      <trkpt lat="48.7329" lon="-3.24889">
        <ele>65.51</ele>
        <time>2013-11-24T15:04:57Z</time>
      </trkpt>
      <trkpt lat="48.7329" lon="-3.24892">
        <ele>65.51</ele>
        <time>2013-11-24T15:04:59Z</time>
      </trkpt>
      <trkpt lat="48.7329" lon="-3.24896">
        <ele>65.51</ele>
        <time>2013-11-24T15:05:01Z</time>
      </trkpt>
      <trkpt lat="48.73289" lon="-3.24899">
        <ele>65.99</ele>
        <time>2013-11-24T15:05:03Z</time>
      </trkpt>
      <trkpt lat="48.7329" lon="-3.24903">
        <ele>65.99</ele>
        <time>2013-11-24T15:05:05Z</time>
      </trkpt>
      <trkpt lat="48.7329" lon="-3.24906">
        <ele>65.99</ele>
        <time>2013-11-24T15:05:07Z</time>
      </trkpt>
      <trkpt lat="48.7329" lon="-3.2491">
        <ele>65.99</ele>
        <time>2013-11-24T15:05:09Z</time>
      </trkpt>
      <trkpt lat="48.7329" lon="-3.24912">
        <ele>65.99</ele>
        <time>2013-11-24T15:05:11Z</time>
      </trkpt>
      <trkpt lat="48.7329" lon="-3.24915">
        <ele>65.99</ele>
        <time>2013-11-24T15:05:13Z</time>
      </trkpt>
      <trkpt lat="48.73291" lon="-3.24918">
        <ele>65.99</ele>
        <time>2013-11-24T15:05:15Z</time>
      </trkpt>
      <trkpt lat="48.73291" lon="-3.24922">
        <ele>65.99</ele>
        <time>2013-11-24T15:05:17Z</time>
      </trkpt>
      <trkpt lat="48.73292" lon="-3.24925">
        <ele>65.99</ele>
        <time>2013-11-24T15:05:19Z</time>
      </trkpt>
      <trkpt lat="48.73292" lon="-3.24929">
        <ele>65.99</ele>
        <time>2013-11-24T15:05:21Z</time>
      </trkpt>
      <trkpt lat="48.73293" lon="-3.24933">
        <ele>65.99</ele>
        <time>2013-11-24T15:05:23Z</time>
      </trkpt>
      <trkpt lat="48.73294" lon="-3.24936">
        <ele>65.99</ele>
        <time>2013-11-24T15:05:25Z</time>
      </trkpt>
      <trkpt lat="48.73294" lon="-3.2494">
        <ele>65.99</ele>
        <time>2013-11-24T15:05:27Z</time>
      </trkpt>
      <trkpt lat="48.73294" lon="-3.24944">
        <ele>65.99</ele>
        <time>2013-11-24T15:05:29Z</time>
      </trkpt>
      <trkpt lat="48.73295" lon="-3.24947">
        <ele>65.99</ele>
        <time>2013-11-24T15:05:31Z</time>
      </trkpt>
      <trkpt lat="48.73295" lon="-3.24951">
        <ele>65.99</ele>
        <time>2013-11-24T15:05:33Z</time>
      </trkpt>
      <trkpt lat="48.73295" lon="-3.24954">
        <ele>66.47</ele>
        <time>2013-11-24T15:05:35Z</time>
      </trkpt>
      <trkpt lat="48.73296" lon="-3.24958">
        <ele>66.47</ele>
        <time>2013-11-24T15:05:37Z</time>
      </trkpt>
      <trkpt lat="48.73296" lon="-3.2496">
        <ele>66.47</ele>
        <time>2013-11-24T15:05:39Z</time>
      </trkpt>
      <trkpt lat="48.73296" lon="-3.24963">
        <ele>66.47</ele>
        <time>2013-11-24T15:05:41Z</time>
      </trkpt>
      <trkpt lat="48.73296" lon="-3.24966">
        <ele>66.47</ele>
        <time>2013-11-24T15:05:43Z</time>
      </trkpt>
      <trkpt lat="48.73296" lon="-3.2497">
        <ele>66.47</ele>
        <time>2013-11-24T15:05:45Z</time>
      </trkpt>
      <trkpt lat="48.73296" lon="-3.24974">
        <ele>66.47</ele>
        <time>2013-11-24T15:05:47Z</time>
      </trkpt>
      <trkpt lat="48.73297" lon="-3.24977">
        <ele>66.47</ele>
        <time>2013-11-24T15:05:49Z</time>
      </trkpt>
      <trkpt lat="48.73297" lon="-3.2498">
        <ele>66.47</ele>
        <time>2013-11-24T15:05:51Z</time>
      </trkpt>
      <trkpt lat="48.73298" lon="-3.24983">
        <ele>66.47</ele>
        <time>2013-11-24T15:05:53Z</time>
      </trkpt>
      <trkpt lat="48.73298" lon="-3.24987">
        <ele>66.47</ele>
        <time>2013-11-24T15:05:55Z</time>
      </trkpt>
      <trkpt lat="48.73299" lon="-3.24991">
        <ele>66.47</ele>
        <time>2013-11-24T15:05:57Z</time>
      </trkpt>
      <trkpt lat="48.73299" lon="-3.24995">
        <ele>66.47</ele>
        <time>2013-11-24T15:05:59Z</time>
      </trkpt>
      <trkpt lat="48.733" lon="-3.24998">
        <ele>66.47</ele>
        <time>2013-11-24T15:06:01Z</time>
      </trkpt>
      <trkpt lat="48.733" lon="-3.25002">
        <ele>66.47</ele>
        <time>2013-11-24T15:06:03Z</time>
      </trkpt>
      <trkpt lat="48.733" lon="-3.25006">
        <ele>66.47</ele>
        <time>2013-11-24T15:06:05Z</time>
      </trkpt>
      <trkpt lat="48.733" lon="-3.25009">
        <ele>66.95</ele>
        <time>2013-11-24T15:06:07Z</time>
      </trkpt>
      <trkpt lat="48.733" lon="-3.25013">
        <ele>66.95</ele>
        <time>2013-11-24T15:06:09Z</time>
      </trkpt>
      <trkpt lat="48.733" lon="-3.25017">
        <ele>66.95</ele>
        <time>2013-11-24T15:06:11Z</time>
      </trkpt>
      <trkpt lat="48.733" lon="-3.2502">
        <ele>66.95</ele>
        <time>2013-11-24T15:06:13Z</time>
      </trkpt>
      <trkpt lat="48.73301" lon="-3.25024">
        <ele>66.95</ele>
        <time>2013-11-24T15:06:15Z</time>
      </trkpt>
      <trkpt lat="48.73301" lon="-3.25027">
        <ele>66.95</ele>
        <time>2013-11-24T15:06:17Z</time>
      </trkpt>
      <trkpt lat="48.73302" lon="-3.25031">
        <ele>66.95</ele>
        <time>2013-11-24T15:06:19Z</time>
      </trkpt>
      <trkpt lat="48.73302" lon="-3.25035">
        <ele>66.95</ele>
        <time>2013-11-24T15:06:21Z</time>
      </trkpt>
      <trkpt lat="48.73303" lon="-3.25038">
        <ele>66.95</ele>
        <time>2013-11-24T15:06:23Z</time>
      </trkpt>
      <trkpt lat="48.73303" lon="-3.25043">
        <ele>66.95</ele>
        <time>2013-11-24T15:06:25Z</time>
      </trkpt>
      <trkpt lat="48.73304" lon="-3.25047">
        <ele>66.95</ele>
        <time>2013-11-24T15:06:27Z</time>
      </trkpt>
      <trkpt lat="48.73304" lon="-3.25051">
        <ele>66.95</ele>
        <time>2013-11-24T15:06:29Z</time>
      </trkpt>
      <trkpt lat="48.73305" lon="-3.25054">
        <ele>66.95</ele>
        <time>2013-11-24T15:06:31Z</time>
      </trkpt>
      <trkpt lat="48.73305" lon="-3.25059">
        <ele>66.95</ele>
        <time>2013-11-24T15:06:33Z</time>
      </trkpt>
      <trkpt lat="48.73305" lon="-3.25063">
        <ele>66.95</ele>
        <time>2013-11-24T15:06:35Z</time>
      </trkpt>
      <trkpt lat="48.73305" lon="-3.25067">
        <ele>66.95</ele>
        <time>2013-11-24T15:06:37Z</time>
      </trkpt>
      <trkpt lat="48.73306" lon="-3.2507">
        <ele>66.95</ele>
        <time>2013-11-24T15:06:39Z</time>
      </trkpt>
      <trkpt lat="48.73306" lon="-3.25075">
        <ele>66.95</ele>
        <time>2013-11-24T15:06:41Z</time>
      </trkpt>
      <trkpt lat="48.73307" lon="-3.25078">
        <ele>66.95</ele>
        <time>2013-11-24T15:06:43Z</time>
      </trkpt>
      <trkpt lat="48.73308" lon="-3.25082">
        <ele>66.95</ele>
        <time>2013-11-24T15:06:45Z</time>
      </trkpt>
      <trkpt lat="48.73308" lon="-3.25085">
        <ele>66.95</ele>
        <time>2013-11-24T15:06:47Z</time>
      </trkpt>
      <trkpt lat="48.73308" lon="-3.25089">
        <ele>66.95</ele>
        <time>2013-11-24T15:06:49Z</time>
      </trkpt>
      <trkpt lat="48.73309" lon="-3.25092">
        <ele>67.43</ele>
        <time>2013-11-24T15:06:51Z</time>
      </trkpt>
      <trkpt lat="48.73309" lon="-3.25096">
        <ele>67.43</ele>
        <time>2013-11-24T15:06:53Z</time>
      </trkpt>
      <trkpt lat="48.7331" lon="-3.25101">
        <ele>67.43</ele>
        <time>2013-11-24T15:06:55Z</time>
      </trkpt>
      <trkpt lat="48.7331" lon="-3.25105">
        <ele>67.43</ele>
        <time>2013-11-24T15:06:57Z</time>
      </trkpt>
      <trkpt lat="48.73311" lon="-3.25108">
        <ele>67.43</ele>
        <time>2013-11-24T15:06:59Z</time>
      </trkpt>
      <trkpt lat="48.73311" lon="-3.25112">
        <ele>67.43</ele>
        <time>2013-11-24T15:07:01Z</time>
      </trkpt>
      <trkpt lat="48.73311" lon="-3.25115">
        <ele>67.43</ele>
        <time>2013-11-24T15:07:03Z</time>
      </trkpt>
      <trkpt lat="48.73312" lon="-3.25119">
        <ele>67.43</ele>
        <time>2013-11-24T15:07:05Z</time>
      </trkpt>
      <trkpt lat="48.73312" lon="-3.25123">
        <ele>67.43</ele>
        <time>2013-11-24T15:07:07Z</time>
      </trkpt>
      <trkpt lat="48.73312" lon="-3.25126">
        <ele>67.43</ele>
        <time>2013-11-24T15:07:09Z</time>
      </trkpt>
      <trkpt lat="48.73313" lon="-3.2513">
        <ele>67.43</ele>
        <time>2013-11-24T15:07:11Z</time>
      </trkpt>
      <trkpt lat="48.73313" lon="-3.25134">
        <ele>67.43</ele>
        <time>2013-11-24T15:07:13Z</time>
      </trkpt>
      <trkpt lat="48.73314" lon="-3.25137">
        <ele>67.43</ele>
        <time>2013-11-24T15:07:15Z</time>
      </trkpt>
      <trkpt lat="48.73314" lon="-3.25141">
        <ele>67.43</ele>
        <time>2013-11-24T15:07:17Z</time>
      </trkpt>
      <trkpt lat="48.73315" lon="-3.25144">
        <ele>67.43</ele>
        <time>2013-11-24T15:07:19Z</time>
      </trkpt>
      <trkpt lat="48.73315" lon="-3.25148">
        <ele>67.43</ele>
        <time>2013-11-24T15:07:21Z</time>
      </trkpt>
      <trkpt lat="48.73316" lon="-3.25151">
        <ele>67.43</ele>
        <time>2013-11-24T15:07:23Z</time>
      </trkpt>
      <trkpt lat="48.73316" lon="-3.25154">
        <ele>67.91</ele>
        <time>2013-11-24T15:07:25Z</time>
      </trkpt>
      <trkpt lat="48.73316" lon="-3.25157">
        <ele>67.91</ele>
        <time>2013-11-24T15:07:27Z</time>
      </trkpt>
      <trkpt lat="48.73316" lon="-3.25161">
        <ele>67.91</ele>
        <time>2013-11-24T15:07:29Z</time>
      </trkpt>
      <trkpt lat="48.73316" lon="-3.25164">
        <ele>67.91</ele>
        <time>2013-11-24T15:07:31Z</time>
      </trkpt>
      <trkpt lat="48.73317" lon="-3.25167">
        <ele>67.91</ele>
        <time>2013-11-24T15:07:33Z</time>
      </trkpt>
      <trkpt lat="48.73317" lon="-3.25171">
        <ele>67.91</ele>
        <time>2013-11-24T15:07:35Z</time>
      </trkpt>
      <trkpt lat="48.73317" lon="-3.25174">
        <ele>67.91</ele>
        <time>2013-11-24T15:07:37Z</time>
      </trkpt>
      <trkpt lat="48.73317" lon="-3.25178">
        <ele>67.91</ele>
        <time>2013-11-24T15:07:39Z</time>
      </trkpt>
      <trkpt lat="48.73317" lon="-3.25182">
        <ele>67.91</ele>
        <time>2013-11-24T15:07:41Z</time>
      </trkpt>
      <trkpt lat="48.73317" lon="-3.25186">
        <ele>67.91</ele>
        <time>2013-11-24T15:07:43Z</time>
      </trkpt>
      <trkpt lat="48.73318" lon="-3.2519">
        <ele>67.91</ele>
        <time>2013-11-24T15:07:45Z</time>
      </trkpt>
      <trkpt lat="48.73318" lon="-3.25194">
        <ele>67.91</ele>
        <time>2013-11-24T15:07:47Z</time>
      </trkpt>
      <trkpt lat="48.73318" lon="-3.25198">
        <ele>67.91</ele>
        <time>2013-11-24T15:07:49Z</time>
      </trkpt>
      <trkpt lat="48.73318" lon="-3.25202">
        <ele>67.91</ele>
        <time>2013-11-24T15:07:51Z</time>
      </trkpt>
      <trkpt lat="48.73318" lon="-3.25205">
        <ele>67.91</ele>
        <time>2013-11-24T15:07:53Z</time>
      </trkpt>
      <trkpt lat="48.73318" lon="-3.25209">
        <ele>67.91</ele>
        <time>2013-11-24T15:07:55Z</time>
      </trkpt>
      <trkpt lat="48.73317" lon="-3.25213">
        <ele>67.91</ele>
        <time>2013-11-24T15:07:57Z</time>
      </trkpt>
      <trkpt lat="48.73317" lon="-3.25216">
        <ele>67.91</ele>
        <time>2013-11-24T15:07:59Z</time>
      </trkpt>
      <trkpt lat="48.73317" lon="-3.2522">
        <ele>67.91</ele>
        <time>2013-11-24T15:08:01Z</time>
      </trkpt>
      <trkpt lat="48.73317" lon="-3.25224">
        <ele>67.91</ele>
        <time>2013-11-24T15:08:03Z</time>
      </trkpt>
      <trkpt lat="48.73317" lon="-3.25228">
        <ele>68.39</ele>
        <time>2013-11-24T15:08:05Z</time>
      </trkpt>
      <trkpt lat="48.73317" lon="-3.25231">
        <ele>68.39</ele>
        <time>2013-11-24T15:08:07Z</time>
      </trkpt>
      <trkpt lat="48.73316" lon="-3.25235">
        <ele>68.39</ele>
        <time>2013-11-24T15:08:09Z</time>
      </trkpt>
      <trkpt lat="48.73316" lon="-3.25239">
        <ele>68.39</ele>
        <time>2013-11-24T15:08:11Z</time>
      </trkpt>
      <trkpt lat="48.73315" lon="-3.25242">
        <ele>68.39</ele>
        <time>2013-11-24T15:08:13Z</time>
      </trkpt>
      <trkpt lat="48.73315" lon="-3.25246">
        <ele>68.39</ele>
        <time>2013-11-24T15:08:15Z</time>
      </trkpt>
      <trkpt lat="48.73315" lon="-3.25249">
        <ele>68.39</ele>
        <time>2013-11-24T15:08:17Z</time>
      </trkpt>
      <trkpt lat="48.73315" lon="-3.25253">
        <ele>68.39</ele>
        <time>2013-11-24T15:08:19Z</time>
      </trkpt>
      <trkpt lat="48.73314" lon="-3.25256">
        <ele>68.39</ele>
        <time>2013-11-24T15:08:21Z</time>
      </trkpt>
      <trkpt lat="48.73314" lon="-3.2526">
        <ele>68.39</ele>
        <time>2013-11-24T15:08:23Z</time>
      </trkpt>
      <trkpt lat="48.73313" lon="-3.25263">
        <ele>68.39</ele>
        <time>2013-11-24T15:08:25Z</time>
      </trkpt>
      <trkpt lat="48.73313" lon="-3.25267">
        <ele>68.39</ele>
        <time>2013-11-24T15:08:27Z</time>
      </trkpt>
      <trkpt lat="48.73313" lon="-3.2527">
        <ele>68.39</ele>
        <time>2013-11-24T15:08:29Z</time>
      </trkpt>
      <trkpt lat="48.73312" lon="-3.25274">
        <ele>68.39</ele>
        <time>2013-11-24T15:08:31Z</time>
      </trkpt>
      <trkpt lat="48.73311" lon="-3.25278">
        <ele>68.39</ele>
        <time>2013-11-24T15:08:33Z</time>
      </trkpt>
      <trkpt lat="48.73311" lon="-3.25282">
        <ele>68.39</ele>
        <time>2013-11-24T15:08:35Z</time>
      </trkpt>
      <trkpt lat="48.7331" lon="-3.25286">
        <ele>68.39</ele>
        <time>2013-11-24T15:08:37Z</time>
      </trkpt>
      <trkpt lat="48.7331" lon="-3.25289">
        <ele>68.39</ele>
        <time>2013-11-24T15:08:39Z</time>
      </trkpt>
      <trkpt lat="48.7331" lon="-3.25293">
        <ele>68.39</ele>
        <time>2013-11-24T15:08:41Z</time>
      </trkpt>
      <trkpt lat="48.73309" lon="-3.25297">
        <ele>68.39</ele>
        <time>2013-11-24T15:08:43Z</time>
      </trkpt>
      <trkpt lat="48.73309" lon="-3.25301">
        <ele>68.39</ele>
        <time>2013-11-24T15:08:45Z</time>
      </trkpt>
      <trkpt lat="48.73309" lon="-3.25304">
        <ele>68.39</ele>
        <time>2013-11-24T15:08:47Z</time>
      </trkpt>
      <trkpt lat="48.7331" lon="-3.25308">
        <ele>68.39</ele>
        <time>2013-11-24T15:08:49Z</time>
      </trkpt>
      <trkpt lat="48.73311" lon="-3.25311">
        <ele>68.39</ele>
        <time>2013-11-24T15:08:51Z</time>
      </trkpt>
      <trkpt lat="48.73313" lon="-3.25314">
        <ele>68.39</ele>
        <time>2013-11-24T15:08:53Z</time>
      </trkpt>
      <trkpt lat="48.73315" lon="-3.25315">
        <ele>68.39</ele>
        <time>2013-11-24T15:08:55Z</time>
      </trkpt>
      <trkpt lat="48.73317" lon="-3.25316">
        <ele>68.39</ele>
        <time>2013-11-24T15:08:57Z</time>
      </trkpt>
      <trkpt lat="48.73319" lon="-3.25317">
        <ele>68.39</ele>
        <time>2013-11-24T15:08:59Z</time>
      </trkpt>
      <trkpt lat="48.7332" lon="-3.25317">
        <ele>68.39</ele>
        <time>2013-11-24T15:09:01Z</time>
      </trkpt>
      <trkpt lat="48.73321" lon="-3.25316">
        <ele>68.39</ele>
        <time>2013-11-24T15:09:03Z</time>
      </trkpt>
      <trkpt lat="48.73322" lon="-3.25316">
        <ele>68.39</ele>
        <time>2013-11-24T15:09:05Z</time>
      </trkpt>
      <trkpt lat="48.73323" lon="-3.25316">
        <ele>68.39</ele>
        <time>2013-11-24T15:09:07Z</time>
      </trkpt>
      <trkpt lat="48.73324" lon="-3.25315">
        <ele>68.39</ele>
        <time>2013-11-24T15:09:09Z</time>
      </trkpt>
      <trkpt lat="48.73325" lon="-3.25316">
        <ele>68.39</ele>
        <time>2013-11-24T15:09:11Z</time>
      </trkpt>
      <trkpt lat="48.73325" lon="-3.25316">
        <ele>68.39</ele>
        <time>2013-11-24T15:09:13Z</time>
      </trkpt>
      <trkpt lat="48.73326" lon="-3.25315">
        <ele>68.39</ele>
        <time>2013-11-24T15:09:15Z</time>
      </trkpt>
      <trkpt lat="48.73328" lon="-3.25315">
        <ele>68.39</ele>
        <time>2013-11-24T15:09:17Z</time>
      </trkpt>
      <trkpt lat="48.73329" lon="-3.25314">
        <ele>68.39</ele>
        <time>2013-11-24T15:09:19Z</time>
      </trkpt>
      <trkpt lat="48.73332" lon="-3.25313">
        <ele>68.39</ele>
        <time>2013-11-24T15:09:21Z</time>
      </trkpt>
      <trkpt lat="48.73334" lon="-3.25312">
        <ele>68.39</ele>
        <time>2013-11-24T15:09:23Z</time>
      </trkpt>
      <trkpt lat="48.73336" lon="-3.25311">
        <ele>68.39</ele>
        <time>2013-11-24T15:09:25Z</time>
      </trkpt>
      <trkpt lat="48.73339" lon="-3.2531">
        <ele>68.39</ele>
        <time>2013-11-24T15:09:27Z</time>
      </trkpt>
      <trkpt lat="48.73341" lon="-3.25309">
        <ele>68.39</ele>
        <time>2013-11-24T15:09:29Z</time>
      </trkpt>
      <trkpt lat="48.73344" lon="-3.25308">
        <ele>68.39</ele>
        <time>2013-11-24T15:09:31Z</time>
      </trkpt>
      <trkpt lat="48.73345" lon="-3.25307">
        <ele>68.39</ele>
        <time>2013-11-24T15:09:33Z</time>
      </trkpt>
      <trkpt lat="48.73347" lon="-3.25306">
        <ele>68.39</ele>
        <time>2013-11-24T15:09:35Z</time>
      </trkpt>
      <trkpt lat="48.7335" lon="-3.25305">
        <ele>68.39</ele>
        <time>2013-11-24T15:09:37Z</time>
      </trkpt>
      <trkpt lat="48.73352" lon="-3.25304">
        <ele>68.39</ele>
        <time>2013-11-24T15:09:39Z</time>
      </trkpt>
      <trkpt lat="48.73355" lon="-3.25303">
        <ele>68.39</ele>
        <time>2013-11-24T15:09:41Z</time>
      </trkpt>
      <trkpt lat="48.73357" lon="-3.25302">
        <ele>68.39</ele>
        <time>2013-11-24T15:09:43Z</time>
      </trkpt>
      <trkpt lat="48.73359" lon="-3.25301">
        <ele>68.39</ele>
        <time>2013-11-24T15:09:45Z</time>
      </trkpt>
      <trkpt lat="48.73361" lon="-3.253">
        <ele>68.39</ele>
        <time>2013-11-24T15:09:47Z</time>
      </trkpt>
      <trkpt lat="48.73363" lon="-3.25299">
        <ele>68.39</ele>
        <time>2013-11-24T15:09:49Z</time>
      </trkpt>
      <trkpt lat="48.73366" lon="-3.25297">
        <ele>68.39</ele>
        <time>2013-11-24T15:09:51Z</time>
      </trkpt>
      <trkpt lat="48.73368" lon="-3.25297">
        <ele>68.39</ele>
        <time>2013-11-24T15:09:53Z</time>
      </trkpt>
      <trkpt lat="48.73371" lon="-3.25296">
        <ele>68.39</ele>
        <time>2013-11-24T15:09:55Z</time>
      </trkpt>
      <trkpt lat="48.73373" lon="-3.25295">
        <ele>68.39</ele>
        <time>2013-11-24T15:09:57Z</time>
      </trkpt>
      <trkpt lat="48.73375" lon="-3.25294">
        <ele>68.39</ele>
        <time>2013-11-24T15:09:59Z</time>
      </trkpt>
      <trkpt lat="48.73378" lon="-3.25293">
        <ele>68.39</ele>
        <time>2013-11-24T15:10:01Z</time>
      </trkpt>
      <trkpt lat="48.73381" lon="-3.25291">
        <ele>68.39</ele>
        <time>2013-11-24T15:10:03Z</time>
      </trkpt>
      <trkpt lat="48.73382" lon="-3.2529">
        <ele>68.39</ele>
        <time>2013-11-24T15:10:05Z</time>
      </trkpt>
      <trkpt lat="48.73384" lon="-3.25288">
        <ele>68.39</ele>
        <time>2013-11-24T15:10:07Z</time>
      </trkpt>
      <trkpt lat="48.73386" lon="-3.25286">
        <ele>68.87</ele>
        <time>2013-11-24T15:10:09Z</time>
      </trkpt>
      <trkpt lat="48.73388" lon="-3.25284">
        <ele>68.87</ele>
        <time>2013-11-24T15:10:11Z</time>
      </trkpt>
      <trkpt lat="48.73389" lon="-3.25281">
        <ele>68.87</ele>
        <time>2013-11-24T15:10:13Z</time>
      </trkpt>
      <trkpt lat="48.7339" lon="-3.25279">
        <ele>68.87</ele>
        <time>2013-11-24T15:10:15Z</time>
      </trkpt>
      <trkpt lat="48.73391" lon="-3.25277">
        <ele>68.87</ele>
        <time>2013-11-24T15:10:17Z</time>
      </trkpt>
      <trkpt lat="48.73392" lon="-3.25274">
        <ele>68.87</ele>
        <time>2013-11-24T15:10:19Z</time>
      </trkpt>
      <trkpt lat="48.73394" lon="-3.25272">
        <ele>68.87</ele>
        <time>2013-11-24T15:10:21Z</time>
      </trkpt>
      <trkpt lat="48.73396" lon="-3.25269">
        <ele>68.87</ele>
        <time>2013-11-24T15:10:23Z</time>
      </trkpt>
      <trkpt lat="48.73398" lon="-3.25266">
        <ele>68.87</ele>
        <time>2013-11-24T15:10:25Z</time>
      </trkpt>
      <trkpt lat="48.734" lon="-3.25263">
        <ele>68.87</ele>
        <time>2013-11-24T15:10:27Z</time>
      </trkpt>
      <trkpt lat="48.73402" lon="-3.2526">
        <ele>68.87</ele>
        <time>2013-11-24T15:10:29Z</time>
      </trkpt>
      <trkpt lat="48.73404" lon="-3.25257">
        <ele>68.87</ele>
        <time>2013-11-24T15:10:31Z</time>
      </trkpt>
      <trkpt lat="48.73405" lon="-3.25254">
        <ele>68.87</ele>
        <time>2013-11-24T15:10:33Z</time>
      </trkpt>
      <trkpt lat="48.73407" lon="-3.25251">
        <ele>68.87</ele>
        <time>2013-11-24T15:10:35Z</time>
      </trkpt>
      <trkpt lat="48.73409" lon="-3.25249">
        <ele>68.87</ele>
        <time>2013-11-24T15:10:37Z</time>
      </trkpt>
      <trkpt lat="48.7341" lon="-3.25246">
        <ele>68.87</ele>
        <time>2013-11-24T15:10:39Z</time>
      </trkpt>
      <trkpt lat="48.73411" lon="-3.25243">
        <ele>68.87</ele>
        <time>2013-11-24T15:10:41Z</time>
      </trkpt>
      <trkpt lat="48.73413" lon="-3.25239">
        <ele>69.35</ele>
        <time>2013-11-24T15:10:43Z</time>
      </trkpt>
      <trkpt lat="48.73414" lon="-3.25235">
        <ele>68.87</ele>
        <time>2013-11-24T15:10:45Z</time>
      </trkpt>
      <trkpt lat="48.73415" lon="-3.25232">
        <ele>68.87</ele>
        <time>2013-11-24T15:10:47Z</time>
      </trkpt>
      <trkpt lat="48.73416" lon="-3.25229">
        <ele>68.87</ele>
        <time>2013-11-24T15:10:49Z</time>
      </trkpt>
      <trkpt lat="48.73417" lon="-3.25226">
        <ele>68.87</ele>
        <time>2013-11-24T15:10:51Z</time>
      </trkpt>
      <trkpt lat="48.73418" lon="-3.25222">
        <ele>68.87</ele>
        <time>2013-11-24T15:10:53Z</time>
      </trkpt>
      <trkpt lat="48.7342" lon="-3.25218">
        <ele>68.87</ele>
        <time>2013-11-24T15:10:55Z</time>
      </trkpt>
      <trkpt lat="48.73421" lon="-3.25215">
        <ele>68.87</ele>
        <time>2013-11-24T15:10:57Z</time>
      </trkpt>
      <trkpt lat="48.73423" lon="-3.25212">
        <ele>68.87</ele>
        <time>2013-11-24T15:10:59Z</time>
      </trkpt>
      <trkpt lat="48.73424" lon="-3.25209">
        <ele>68.87</ele>
        <time>2013-11-24T15:11:01Z</time>
      </trkpt>
      <trkpt lat="48.73425" lon="-3.25206">
        <ele>68.87</ele>
        <time>2013-11-24T15:11:03Z</time>
      </trkpt>
      <trkpt lat="48.73426" lon="-3.25204">
        <ele>68.87</ele>
        <time>2013-11-24T15:11:05Z</time>
      </trkpt>
      <trkpt lat="48.73427" lon="-3.25201">
        <ele>68.87</ele>
        <time>2013-11-24T15:11:07Z</time>
      </trkpt>
      <trkpt lat="48.73429" lon="-3.25199">
        <ele>68.87</ele>
        <time>2013-11-24T15:11:09Z</time>
      </trkpt>
      <trkpt lat="48.7343" lon="-3.25196">
        <ele>68.87</ele>
        <time>2013-11-24T15:11:11Z</time>
      </trkpt>
      <trkpt lat="48.73432" lon="-3.25194">
        <ele>68.87</ele>
        <time>2013-11-24T15:11:13Z</time>
      </trkpt>
      <trkpt lat="48.73433" lon="-3.25192">
        <ele>68.87</ele>
        <time>2013-11-24T15:11:15Z</time>
      </trkpt>
      <trkpt lat="48.73434" lon="-3.2519">
        <ele>68.87</ele>
        <time>2013-11-24T15:11:17Z</time>
      </trkpt>
      <trkpt lat="48.73436" lon="-3.25188">
        <ele>68.87</ele>
        <time>2013-11-24T15:11:19Z</time>
      </trkpt>
      <trkpt lat="48.73437" lon="-3.25185">
        <ele>68.87</ele>
        <time>2013-11-24T15:11:21Z</time>
      </trkpt>
      <trkpt lat="48.73439" lon="-3.25183">
        <ele>68.87</ele>
        <time>2013-11-24T15:11:23Z</time>
      </trkpt>
      <trkpt lat="48.7344" lon="-3.25181">
        <ele>68.87</ele>
        <time>2013-11-24T15:11:25Z</time>
      </trkpt>
      <trkpt lat="48.73442" lon="-3.25179">
        <ele>68.87</ele>
        <time>2013-11-24T15:11:27Z</time>
      </trkpt>
      <trkpt lat="48.73444" lon="-3.25177">
        <ele>68.87</ele>
        <time>2013-11-24T15:11:29Z</time>
      </trkpt>
      <trkpt lat="48.73445" lon="-3.25175">
        <ele>68.87</ele>
        <time>2013-11-24T15:11:31Z</time>
      </trkpt>
      <trkpt lat="48.73448" lon="-3.25173">
        <ele>68.87</ele>
        <time>2013-11-24T15:11:33Z</time>
      </trkpt>
      <trkpt lat="48.73449" lon="-3.25171">
        <ele>68.87</ele>
        <time>2013-11-24T15:11:35Z</time>
      </trkpt>
      <trkpt lat="48.73451" lon="-3.2517">
        <ele>68.87</ele>
        <time>2013-11-24T15:11:37Z</time>
      </trkpt>
      <trkpt lat="48.73453" lon="-3.25168">
        <ele>68.87</ele>
        <time>2013-11-24T15:11:39Z</time>
      </trkpt>
      <trkpt lat="48.73455" lon="-3.25166">
        <ele>68.87</ele>
        <time>2013-11-24T15:11:41Z</time>
      </trkpt>
      <trkpt lat="48.73457" lon="-3.25164">
        <ele>68.87</ele>
        <time>2013-11-24T15:11:43Z</time>
      </trkpt>
      <trkpt lat="48.73459" lon="-3.25163">
        <ele>68.87</ele>
        <time>2013-11-24T15:11:45Z</time>
      </trkpt>
      <trkpt lat="48.73461" lon="-3.25161">
        <ele>68.87</ele>
        <time>2013-11-24T15:11:47Z</time>
      </trkpt>
      <trkpt lat="48.73463" lon="-3.25159">
        <ele>68.87</ele>
        <time>2013-11-24T15:11:49Z</time>
      </trkpt>
      <trkpt lat="48.73465" lon="-3.25157">
        <ele>68.87</ele>
        <time>2013-11-24T15:11:51Z</time>
      </trkpt>
      <trkpt lat="48.73467" lon="-3.25155">
        <ele>68.87</ele>
        <time>2013-11-24T15:11:53Z</time>
      </trkpt>
      <trkpt lat="48.73469" lon="-3.25153">
        <ele>68.87</ele>
        <time>2013-11-24T15:11:55Z</time>
      </trkpt>
      <trkpt lat="48.73471" lon="-3.25152">
        <ele>68.87</ele>
        <time>2013-11-24T15:11:57Z</time>
      </trkpt>
      <trkpt lat="48.73473" lon="-3.25151">
        <ele>68.87</ele>
        <time>2013-11-24T15:11:59Z</time>
      </trkpt>
      <trkpt lat="48.73475" lon="-3.2515">
        <ele>68.87</ele>
        <time>2013-11-24T15:12:01Z</time>
      </trkpt>
      <trkpt lat="48.73478" lon="-3.25148">
        <ele>68.87</ele>
        <time>2013-11-24T15:12:03Z</time>
      </trkpt>
      <trkpt lat="48.73481" lon="-3.25148">
        <ele>68.87</ele>
        <time>2013-11-24T15:12:05Z</time>
      </trkpt>
      <trkpt lat="48.73484" lon="-3.25147">
        <ele>68.87</ele>
        <time>2013-11-24T15:12:07Z</time>
      </trkpt>
      <trkpt lat="48.73487" lon="-3.25146">
        <ele>68.87</ele>
        <time>2013-11-24T15:12:09Z</time>
      </trkpt>
      <trkpt lat="48.73489" lon="-3.25145">
        <ele>68.87</ele>
        <time>2013-11-24T15:12:11Z</time>
      </trkpt>
      <trkpt lat="48.73491" lon="-3.25144">
        <ele>68.87</ele>
        <time>2013-11-24T15:12:13Z</time>
      </trkpt>
      <trkpt lat="48.73494" lon="-3.25144">
        <ele>68.87</ele>
        <time>2013-11-24T15:12:15Z</time>
      </trkpt>
      <trkpt lat="48.73496" lon="-3.25144">
        <ele>68.87</ele>
        <time>2013-11-24T15:12:17Z</time>
      </trkpt>
      <trkpt lat="48.73497" lon="-3.25143">
        <ele>68.87</ele>
        <time>2013-11-24T15:12:19Z</time>
      </trkpt>
      <trkpt lat="48.735" lon="-3.25143">
        <ele>68.87</ele>
        <time>2013-11-24T15:12:21Z</time>
      </trkpt>
      <trkpt lat="48.73501" lon="-3.25143">
        <ele>68.87</ele>
        <time>2013-11-24T15:12:23Z</time>
      </trkpt>
      <trkpt lat="48.73504" lon="-3.25143">
        <ele>68.87</ele>
        <time>2013-11-24T15:12:25Z</time>
      </trkpt>
      <trkpt lat="48.73506" lon="-3.25142">
        <ele>68.87</ele>
        <time>2013-11-24T15:12:27Z</time>
      </trkpt>
      <trkpt lat="48.73509" lon="-3.25141">
        <ele>68.87</ele>
        <time>2013-11-24T15:12:29Z</time>
      </trkpt>
      <trkpt lat="48.73511" lon="-3.2514">
        <ele>68.87</ele>
        <time>2013-11-24T15:12:31Z</time>
      </trkpt>
      <trkpt lat="48.73514" lon="-3.2514">
        <ele>68.87</ele>
        <time>2013-11-24T15:12:33Z</time>
      </trkpt>
      <trkpt lat="48.73516" lon="-3.25139">
        <ele>68.87</ele>
        <time>2013-11-24T15:12:35Z</time>
      </trkpt>
      <trkpt lat="48.73518" lon="-3.25138">
        <ele>68.87</ele>
        <time>2013-11-24T15:12:37Z</time>
      </trkpt>
      <trkpt lat="48.73521" lon="-3.25137">
        <ele>68.87</ele>
        <time>2013-11-24T15:12:39Z</time>
      </trkpt>
      <trkpt lat="48.73524" lon="-3.25136">
        <ele>68.87</ele>
        <time>2013-11-24T15:12:41Z</time>
      </trkpt>
      <trkpt lat="48.73527" lon="-3.25134">
        <ele>68.87</ele>
        <time>2013-11-24T15:12:43Z</time>
      </trkpt>
      <trkpt lat="48.73529" lon="-3.25135">
        <ele>68.87</ele>
        <time>2013-11-24T15:12:45Z</time>
      </trkpt>
      <trkpt lat="48.73532" lon="-3.25134">
        <ele>68.87</ele>
        <time>2013-11-24T15:12:47Z</time>
      </trkpt>
      <trkpt lat="48.73534" lon="-3.25133">
        <ele>68.87</ele>
        <time>2013-11-24T15:12:49Z</time>
      </trkpt>
      <trkpt lat="48.73537" lon="-3.25133">
        <ele>68.87</ele>
        <time>2013-11-24T15:12:51Z</time>
      </trkpt>
      <trkpt lat="48.73539" lon="-3.25133">
        <ele>68.87</ele>
        <time>2013-11-24T15:12:53Z</time>
      </trkpt>
      <trkpt lat="48.73541" lon="-3.25133">
        <ele>68.87</ele>
        <time>2013-11-24T15:12:55Z</time>
      </trkpt>
      <trkpt lat="48.73543" lon="-3.25134">
        <ele>68.87</ele>
        <time>2013-11-24T15:12:57Z</time>
      </trkpt>
      <trkpt lat="48.73546" lon="-3.25135">
        <ele>68.87</ele>
        <time>2013-11-24T15:12:59Z</time>
      </trkpt>
      <trkpt lat="48.73549" lon="-3.25135">
        <ele>68.87</ele>
        <time>2013-11-24T15:13:01Z</time>
      </trkpt>
      <trkpt lat="48.73551" lon="-3.25135">
        <ele>68.87</ele>
        <time>2013-11-24T15:13:03Z</time>
      </trkpt>
      <trkpt lat="48.73552" lon="-3.25136">
        <ele>68.87</ele>
        <time>2013-11-24T15:13:05Z</time>
      </trkpt>
      <trkpt lat="48.73554" lon="-3.25136">
        <ele>68.87</ele>
        <time>2013-11-24T15:13:07Z</time>
      </trkpt>
      <trkpt lat="48.73557" lon="-3.25137">
        <ele>68.87</ele>
        <time>2013-11-24T15:13:09Z</time>
      </trkpt>
      <trkpt lat="48.73559" lon="-3.25138">
        <ele>68.87</ele>
        <time>2013-11-24T15:13:11Z</time>
      </trkpt>
      <trkpt lat="48.73561" lon="-3.25138">
        <ele>68.87</ele>
        <time>2013-11-24T15:13:13Z</time>
      </trkpt>
      <trkpt lat="48.73563" lon="-3.25139">
        <ele>68.87</ele>
        <time>2013-11-24T15:13:15Z</time>
      </trkpt>
      <trkpt lat="48.73566" lon="-3.2514">
        <ele>68.87</ele>
        <time>2013-11-24T15:13:17Z</time>
      </trkpt>
      <trkpt lat="48.73568" lon="-3.25141">
        <ele>68.87</ele>
        <time>2013-11-24T15:13:19Z</time>
      </trkpt>
      <trkpt lat="48.7357" lon="-3.25143">
        <ele>69.35</ele>
        <time>2013-11-24T15:13:21Z</time>
      </trkpt>
      <trkpt lat="48.73572" lon="-3.25144">
        <ele>69.35</ele>
        <time>2013-11-24T15:13:23Z</time>
      </trkpt>
      <trkpt lat="48.73574" lon="-3.25145">
        <ele>69.35</ele>
        <time>2013-11-24T15:13:25Z</time>
      </trkpt>
      <trkpt lat="48.73575" lon="-3.25146">
        <ele>69.35</ele>
        <time>2013-11-24T15:13:27Z</time>
      </trkpt>
      <trkpt lat="48.73577" lon="-3.25147">
        <ele>69.35</ele>
        <time>2013-11-24T15:13:29Z</time>
      </trkpt>
      <trkpt lat="48.73579" lon="-3.25149">
        <ele>69.35</ele>
        <time>2013-11-24T15:13:31Z</time>
      </trkpt>
      <trkpt lat="48.7358" lon="-3.2515">
        <ele>69.35</ele>
        <time>2013-11-24T15:13:33Z</time>
      </trkpt>
      <trkpt lat="48.73582" lon="-3.25152">
        <ele>69.35</ele>
        <time>2013-11-24T15:13:35Z</time>
      </trkpt>
      <trkpt lat="48.73584" lon="-3.25153">
        <ele>68.87</ele>
        <time>2013-11-24T15:13:37Z</time>
      </trkpt>
      <trkpt lat="48.73586" lon="-3.25154">
        <ele>68.87</ele>
        <time>2013-11-24T15:13:39Z</time>
      </trkpt>
      <trkpt lat="48.73588" lon="-3.25156">
        <ele>68.87</ele>
        <time>2013-11-24T15:13:41Z</time>
      </trkpt>
      <trkpt lat="48.7359" lon="-3.25158">
        <ele>68.87</ele>
        <time>2013-11-24T15:13:43Z</time>
      </trkpt>
      <trkpt lat="48.73593" lon="-3.25159">
        <ele>68.87</ele>
        <time>2013-11-24T15:13:45Z</time>
      </trkpt>
      <trkpt lat="48.73595" lon="-3.25161">
        <ele>68.87</ele>
        <time>2013-11-24T15:13:47Z</time>
      </trkpt>
      <trkpt lat="48.73597" lon="-3.25162">
        <ele>68.87</ele>
        <time>2013-11-24T15:13:49Z</time>
      </trkpt>
      <trkpt lat="48.73599" lon="-3.25164">
        <ele>68.87</ele>
        <time>2013-11-24T15:13:51Z</time>
      </trkpt>
      <trkpt lat="48.73601" lon="-3.25165">
        <ele>68.87</ele>
        <time>2013-11-24T15:13:53Z</time>
      </trkpt>
      <trkpt lat="48.73603" lon="-3.25167">
        <ele>68.87</ele>
        <time>2013-11-24T15:13:55Z</time>
      </trkpt>
      <trkpt lat="48.73605" lon="-3.25168">
        <ele>68.87</ele>
        <time>2013-11-24T15:13:57Z</time>
      </trkpt>
      <trkpt lat="48.73607" lon="-3.25169">
        <ele>68.87</ele>
        <time>2013-11-24T15:13:59Z</time>
      </trkpt>
      <trkpt lat="48.73609" lon="-3.25171">
        <ele>68.87</ele>
        <time>2013-11-24T15:14:01Z</time>
      </trkpt>
      <trkpt lat="48.73611" lon="-3.25172">
        <ele>68.87</ele>
        <time>2013-11-24T15:14:03Z</time>
      </trkpt>
      <trkpt lat="48.73613" lon="-3.25174">
        <ele>68.87</ele>
        <time>2013-11-24T15:14:05Z</time>
      </trkpt>
      <trkpt lat="48.73615" lon="-3.25175">
        <ele>68.87</ele>
        <time>2013-11-24T15:14:07Z</time>
      </trkpt>
      <trkpt lat="48.73617" lon="-3.25176">
        <ele>68.87</ele>
        <time>2013-11-24T15:14:09Z</time>
      </trkpt>
      <trkpt lat="48.73619" lon="-3.25178">
        <ele>68.87</ele>
        <time>2013-11-24T15:14:11Z</time>
      </trkpt>
      <trkpt lat="48.73621" lon="-3.25179">
        <ele>68.87</ele>
        <time>2013-11-24T15:14:13Z</time>
      </trkpt>
      <trkpt lat="48.73623" lon="-3.2518">
        <ele>68.87</ele>
        <time>2013-11-24T15:14:15Z</time>
      </trkpt>
      <trkpt lat="48.73625" lon="-3.25181">
        <ele>68.87</ele>
        <time>2013-11-24T15:14:17Z</time>
      </trkpt>
      <trkpt lat="48.73627" lon="-3.25183">
        <ele>68.87</ele>
        <time>2013-11-24T15:14:19Z</time>
      </trkpt>
      <trkpt lat="48.7363" lon="-3.25184">
        <ele>68.87</ele>
        <time>2013-11-24T15:14:21Z</time>
      </trkpt>
      <trkpt lat="48.73632" lon="-3.25185">
        <ele>68.87</ele>
        <time>2013-11-24T15:14:23Z</time>
      </trkpt>
      <trkpt lat="48.73634" lon="-3.25186">
        <ele>68.87</ele>
        <time>2013-11-24T15:14:25Z</time>
      </trkpt>
      <trkpt lat="48.73636" lon="-3.25187">
        <ele>68.87</ele>
        <time>2013-11-24T15:14:27Z</time>
      </trkpt>
      <trkpt lat="48.73639" lon="-3.25189">
        <ele>68.87</ele>
        <time>2013-11-24T15:14:29Z</time>
      </trkpt>
      <trkpt lat="48.73641" lon="-3.2519">
        <ele>68.87</ele>
        <time>2013-11-24T15:14:31Z</time>
      </trkpt>
      <trkpt lat="48.73643" lon="-3.25191">
        <ele>68.87</ele>
        <time>2013-11-24T15:14:33Z</time>
      </trkpt>
      <trkpt lat="48.73646" lon="-3.25192">
        <ele>69.35</ele>
        <time>2013-11-24T15:14:35Z</time>
      </trkpt>
      <trkpt lat="48.73648" lon="-3.25193">
        <ele>69.35</ele>
        <time>2013-11-24T15:14:37Z</time>
      </trkpt>
      <trkpt lat="48.73651" lon="-3.25194">
        <ele>69.35</ele>
        <time>2013-11-24T15:14:39Z</time>
      </trkpt>
      <trkpt lat="48.73653" lon="-3.25196">
        <ele>69.35</ele>
        <time>2013-11-24T15:14:41Z</time>
      </trkpt>
      <trkpt lat="48.73656" lon="-3.25197">
        <ele>69.35</ele>
        <time>2013-11-24T15:14:43Z</time>
      </trkpt>
      <trkpt lat="48.73658" lon="-3.25198">
        <ele>69.35</ele>
        <time>2013-11-24T15:14:45Z</time>
      </trkpt>
      <trkpt lat="48.7366" lon="-3.25199">
        <ele>69.35</ele>
        <time>2013-11-24T15:14:47Z</time>
      </trkpt>
      <trkpt lat="48.73663" lon="-3.25201">
        <ele>69.35</ele>
        <time>2013-11-24T15:14:49Z</time>
      </trkpt>
      <trkpt lat="48.73665" lon="-3.25202">
        <ele>69.35</ele>
        <time>2013-11-24T15:14:51Z</time>
      </trkpt>
      <trkpt lat="48.73667" lon="-3.25203">
        <ele>69.35</ele>
        <time>2013-11-24T15:14:53Z</time>
      </trkpt>
      <trkpt lat="48.73669" lon="-3.25204">
        <ele>69.35</ele>
        <time>2013-11-24T15:14:55Z</time>
      </trkpt>
      <trkpt lat="48.73671" lon="-3.25206">
        <ele>69.35</ele>
        <time>2013-11-24T15:14:57Z</time>
      </trkpt>
      <trkpt lat="48.73673" lon="-3.25207">
        <ele>69.35</ele>
        <time>2013-11-24T15:14:59Z</time>
      </trkpt>
      <trkpt lat="48.73675" lon="-3.25209">
        <ele>69.35</ele>
        <time>2013-11-24T15:15:01Z</time>
      </trkpt>
      <trkpt lat="48.73677" lon="-3.2521">
        <ele>69.35</ele>
        <time>2013-11-24T15:15:03Z</time>
      </trkpt>
      <trkpt lat="48.73679" lon="-3.25211">
        <ele>69.35</ele>
        <time>2013-11-24T15:15:05Z</time>
      </trkpt>
      <trkpt lat="48.73681" lon="-3.25213">
        <ele>69.35</ele>
        <time>2013-11-24T15:15:07Z</time>
      </trkpt>
      <trkpt lat="48.73683" lon="-3.25215">
        <ele>69.35</ele>
        <time>2013-11-24T15:15:09Z</time>
      </trkpt>
      <trkpt lat="48.73685" lon="-3.25216">
        <ele>69.35</ele>
        <time>2013-11-24T15:15:11Z</time>
      </trkpt>
      <trkpt lat="48.73687" lon="-3.25218">
        <ele>69.35</ele>
        <time>2013-11-24T15:15:13Z</time>
      </trkpt>
      <trkpt lat="48.73689" lon="-3.25219">
        <ele>69.35</ele>
        <time>2013-11-24T15:15:15Z</time>
      </trkpt>
      <trkpt lat="48.73691" lon="-3.25221">
        <ele>68.87</ele>
        <time>2013-11-24T15:15:17Z</time>
      </trkpt>
      <trkpt lat="48.73693" lon="-3.25222">
        <ele>68.87</ele>
        <time>2013-11-24T15:15:19Z</time>
      </trkpt>
      <trkpt lat="48.73695" lon="-3.25224">
        <ele>69.35</ele>
        <time>2013-11-24T15:15:21Z</time>
      </trkpt>
      <trkpt lat="48.73697" lon="-3.25225">
        <ele>69.35</ele>
        <time>2013-11-24T15:15:23Z</time>
      </trkpt>
      <trkpt lat="48.73699" lon="-3.25227">
        <ele>69.35</ele>
        <time>2013-11-24T15:15:25Z</time>
      </trkpt>
      <trkpt lat="48.73702" lon="-3.25229">
        <ele>69.35</ele>
        <time>2013-11-24T15:15:27Z</time>
      </trkpt>
      <trkpt lat="48.73704" lon="-3.2523">
        <ele>69.35</ele>
        <time>2013-11-24T15:15:29Z</time>
      </trkpt>
      <trkpt lat="48.73706" lon="-3.25232">
        <ele>69.35</ele>
        <time>2013-11-24T15:15:31Z</time>
      </trkpt>
      <trkpt lat="48.73708" lon="-3.25233">
        <ele>69.35</ele>
        <time>2013-11-24T15:15:33Z</time>
      </trkpt>
      <trkpt lat="48.73711" lon="-3.25235">
        <ele>69.35</ele>
        <time>2013-11-24T15:15:35Z</time>
      </trkpt>
      <trkpt lat="48.73713" lon="-3.25236">
        <ele>69.35</ele>
        <time>2013-11-24T15:15:37Z</time>
      </trkpt>
      <trkpt lat="48.73715" lon="-3.25238">
        <ele>69.35</ele>
        <time>2013-11-24T15:15:39Z</time>
      </trkpt>
      <trkpt lat="48.73717" lon="-3.2524">
        <ele>69.35</ele>
        <time>2013-11-24T15:15:41Z</time>
      </trkpt>
      <trkpt lat="48.73719" lon="-3.25242">
        <ele>69.35</ele>
        <time>2013-11-24T15:15:43Z</time>
      </trkpt>
      <trkpt lat="48.73721" lon="-3.25245">
        <ele>69.35</ele>
        <time>2013-11-24T15:15:45Z</time>
      </trkpt>
      <trkpt lat="48.73723" lon="-3.25247">
        <ele>69.35</ele>
        <time>2013-11-24T15:15:47Z</time>
      </trkpt>
      <trkpt lat="48.73725" lon="-3.25249">
        <ele>69.35</ele>
        <time>2013-11-24T15:15:49Z</time>
      </trkpt>
      <trkpt lat="48.73727" lon="-3.25252">
        <ele>69.35</ele>
        <time>2013-11-24T15:15:51Z</time>
      </trkpt>
      <trkpt lat="48.73729" lon="-3.25254">
        <ele>69.35</ele>
        <time>2013-11-24T15:15:53Z</time>
      </trkpt>
      <trkpt lat="48.73731" lon="-3.25257">
        <ele>69.35</ele>
        <time>2013-11-24T15:15:55Z</time>
      </trkpt>
      <trkpt lat="48.73733" lon="-3.2526">
        <ele>69.35</ele>
        <time>2013-11-24T15:15:57Z</time>
      </trkpt>
      <trkpt lat="48.73735" lon="-3.25263">
        <ele>69.35</ele>
        <time>2013-11-24T15:15:59Z</time>
      </trkpt>
      <trkpt lat="48.73736" lon="-3.25266">
        <ele>69.35</ele>
        <time>2013-11-24T15:16:01Z</time>
      </trkpt>
      <trkpt lat="48.73738" lon="-3.25268">
        <ele>69.35</ele>
        <time>2013-11-24T15:16:03Z</time>
      </trkpt>
      <trkpt lat="48.7374" lon="-3.25271">
        <ele>69.35</ele>
        <time>2013-11-24T15:16:05Z</time>
      </trkpt>
      <trkpt lat="48.73741" lon="-3.25273">
        <ele>69.35</ele>
        <time>2013-11-24T15:16:07Z</time>
      </trkpt>
      <trkpt lat="48.73743" lon="-3.25276">
        <ele>69.35</ele>
        <time>2013-11-24T15:16:09Z</time>
      </trkpt>
      <trkpt lat="48.73745" lon="-3.25277">
        <ele>69.83</ele>
        <time>2013-11-24T15:16:11Z</time>
      </trkpt>
      <trkpt lat="48.73747" lon="-3.25279">
        <ele>69.35</ele>
        <time>2013-11-24T15:16:13Z</time>
      </trkpt>
      <trkpt lat="48.73748" lon="-3.25281">
        <ele>69.35</ele>
        <time>2013-11-24T15:16:15Z</time>
      </trkpt>
      <trkpt lat="48.7375" lon="-3.25283">
        <ele>69.35</ele>
        <time>2013-11-24T15:16:17Z</time>
      </trkpt>
      <trkpt lat="48.73752" lon="-3.25285">
        <ele>69.35</ele>
        <time>2013-11-24T15:16:19Z</time>
      </trkpt>
      <trkpt lat="48.73754" lon="-3.25287">
        <ele>69.35</ele>
        <time>2013-11-24T15:16:21Z</time>
      </trkpt>
      <trkpt lat="48.73756" lon="-3.25288">
        <ele>69.35</ele>
        <time>2013-11-24T15:16:23Z</time>
      </trkpt>
      <trkpt lat="48.73758" lon="-3.2529">
        <ele>69.35</ele>
        <time>2013-11-24T15:16:25Z</time>
      </trkpt>
      <trkpt lat="48.7376" lon="-3.25292">
        <ele>69.35</ele>
        <time>2013-11-24T15:16:27Z</time>
      </trkpt>
      <trkpt lat="48.73762" lon="-3.25294">
        <ele>69.35</ele>
        <time>2013-11-24T15:16:29Z</time>
      </trkpt>
      <trkpt lat="48.73764" lon="-3.25296">
        <ele>69.35</ele>
        <time>2013-11-24T15:16:31Z</time>
      </trkpt>
      <trkpt lat="48.73766" lon="-3.25299">
        <ele>69.35</ele>
        <time>2013-11-24T15:16:33Z</time>
      </trkpt>
      <trkpt lat="48.73767" lon="-3.25301">
        <ele>69.35</ele>
        <time>2013-11-24T15:16:35Z</time>
      </trkpt>
      <trkpt lat="48.73769" lon="-3.25304">
        <ele>69.35</ele>
        <time>2013-11-24T15:16:37Z</time>
      </trkpt>
      <trkpt lat="48.73771" lon="-3.25306">
        <ele>69.35</ele>
        <time>2013-11-24T15:16:39Z</time>
      </trkpt>
      <trkpt lat="48.73773" lon="-3.25308">
        <ele>69.35</ele>
        <time>2013-11-24T15:16:41Z</time>
      </trkpt>
      <trkpt lat="48.73775" lon="-3.2531">
        <ele>69.35</ele>
        <time>2013-11-24T15:16:43Z</time>
      </trkpt>
      <trkpt lat="48.73777" lon="-3.25312">
        <ele>69.35</ele>
        <time>2013-11-24T15:16:45Z</time>
      </trkpt>
      <trkpt lat="48.73778" lon="-3.25314">
        <ele>69.35</ele>
        <time>2013-11-24T15:16:47Z</time>
      </trkpt>
      <trkpt lat="48.7378" lon="-3.25316">
        <ele>69.35</ele>
        <time>2013-11-24T15:16:49Z</time>
      </trkpt>
      <trkpt lat="48.73782" lon="-3.25318">
        <ele>69.35</ele>
        <time>2013-11-24T15:16:51Z</time>
      </trkpt>
      <trkpt lat="48.73783" lon="-3.25321">
        <ele>69.35</ele>
        <time>2013-11-24T15:16:53Z</time>
      </trkpt>
      <trkpt lat="48.73785" lon="-3.25322">
        <ele>69.35</ele>
        <time>2013-11-24T15:16:55Z</time>
      </trkpt>
      <trkpt lat="48.73786" lon="-3.25324">
        <ele>69.35</ele>
        <time>2013-11-24T15:16:57Z</time>
      </trkpt>
      <trkpt lat="48.73788" lon="-3.25326">
        <ele>69.35</ele>
        <time>2013-11-24T15:16:59Z</time>
      </trkpt>
      <trkpt lat="48.73789" lon="-3.25329">
        <ele>69.35</ele>
        <time>2013-11-24T15:17:01Z</time>
      </trkpt>
      <trkpt lat="48.73791" lon="-3.25331">
        <ele>69.83</ele>
        <time>2013-11-24T15:17:03Z</time>
      </trkpt>
      <trkpt lat="48.73792" lon="-3.25334">
        <ele>69.83</ele>
        <time>2013-11-24T15:17:05Z</time>
      </trkpt>
      <trkpt lat="48.73794" lon="-3.25336">
        <ele>69.35</ele>
        <time>2013-11-24T15:17:07Z</time>
      </trkpt>
      <trkpt lat="48.73795" lon="-3.25338">
        <ele>69.35</ele>
        <time>2013-11-24T15:17:09Z</time>
      </trkpt>
      <trkpt lat="48.73797" lon="-3.2534">
        <ele>69.35</ele>
        <time>2013-11-24T15:17:11Z</time>
      </trkpt>
      <trkpt lat="48.73799" lon="-3.25342">
        <ele>69.35</ele>
        <time>2013-11-24T15:17:13Z</time>
      </trkpt>
      <trkpt lat="48.73801" lon="-3.25344">
        <ele>69.35</ele>
        <time>2013-11-24T15:17:15Z</time>
      </trkpt>
      <trkpt lat="48.73802" lon="-3.25347">
        <ele>69.35</ele>
        <time>2013-11-24T15:17:17Z</time>
      </trkpt>
      <trkpt lat="48.73804" lon="-3.25348">
        <ele>69.35</ele>
        <time>2013-11-24T15:17:19Z</time>
      </trkpt>
      <trkpt lat="48.73805" lon="-3.25351">
        <ele>69.35</ele>
        <time>2013-11-24T15:17:21Z</time>
      </trkpt>
      <trkpt lat="48.73807" lon="-3.25353">
        <ele>69.35</ele>
        <time>2013-11-24T15:17:23Z</time>
      </trkpt>
      <trkpt lat="48.73808" lon="-3.25356">
        <ele>69.35</ele>
        <time>2013-11-24T15:17:25Z</time>
      </trkpt>
      <trkpt lat="48.7381" lon="-3.25358">
        <ele>69.35</ele>
        <time>2013-11-24T15:17:27Z</time>
      </trkpt>
      <trkpt lat="48.73812" lon="-3.25361">
        <ele>69.35</ele>
        <time>2013-11-24T15:17:29Z</time>
      </trkpt>
      <trkpt lat="48.73813" lon="-3.25363">
        <ele>69.35</ele>
        <time>2013-11-24T15:17:31Z</time>
      </trkpt>
      <trkpt lat="48.73815" lon="-3.25366">
        <ele>69.35</ele>
        <time>2013-11-24T15:17:33Z</time>
      </trkpt>
      <trkpt lat="48.73816" lon="-3.25369">
        <ele>69.35</ele>
        <time>2013-11-24T15:17:35Z</time>
      </trkpt>
      <trkpt lat="48.73818" lon="-3.25372">
        <ele>69.35</ele>
        <time>2013-11-24T15:17:37Z</time>
      </trkpt>
      <trkpt lat="48.7382" lon="-3.25374">
        <ele>69.35</ele>
        <time>2013-11-24T15:17:39Z</time>
      </trkpt>
      <trkpt lat="48.73821" lon="-3.25377">
        <ele>69.35</ele>
        <time>2013-11-24T15:17:41Z</time>
      </trkpt>
      <trkpt lat="48.73822" lon="-3.25379">
        <ele>69.35</ele>
        <time>2013-11-24T15:17:43Z</time>
      </trkpt>
      <trkpt lat="48.73824" lon="-3.25382">
        <ele>69.35</ele>
        <time>2013-11-24T15:17:45Z</time>
      </trkpt>
      <trkpt lat="48.73825" lon="-3.25384">
        <ele>69.35</ele>
        <time>2013-11-24T15:17:47Z</time>
      </trkpt>
      <trkpt lat="48.73826" lon="-3.25386">
        <ele>69.35</ele>
        <time>2013-11-24T15:17:49Z</time>
      </trkpt>
      <trkpt lat="48.73828" lon="-3.25389">
        <ele>69.35</ele>
        <time>2013-11-24T15:17:51Z</time>
      </trkpt>
      <trkpt lat="48.73829" lon="-3.25392">
        <ele>68.87</ele>
        <time>2013-11-24T15:17:53Z</time>
      </trkpt>
      <trkpt lat="48.73831" lon="-3.25395">
        <ele>68.87</ele>
        <time>2013-11-24T15:17:55Z</time>
      </trkpt>
      <trkpt lat="48.73832" lon="-3.25397">
        <ele>68.87</ele>
        <time>2013-11-24T15:17:57Z</time>
      </trkpt>
      <trkpt lat="48.73834" lon="-3.254">
        <ele>68.87</ele>
        <time>2013-11-24T15:17:59Z</time>
      </trkpt>
      <trkpt lat="48.73835" lon="-3.25402">
        <ele>68.87</ele>
        <time>2013-11-24T15:18:01Z</time>
      </trkpt>
      <trkpt lat="48.73836" lon="-3.25404">
        <ele>68.87</ele>
        <time>2013-11-24T15:18:03Z</time>
      </trkpt>
      <trkpt lat="48.73838" lon="-3.25407">
        <ele>68.87</ele>
        <time>2013-11-24T15:18:05Z</time>
      </trkpt>
      <trkpt lat="48.7384" lon="-3.25409">
        <ele>68.87</ele>
        <time>2013-11-24T15:18:07Z</time>
      </trkpt>
      <trkpt lat="48.73841" lon="-3.25411">
        <ele>68.87</ele>
        <time>2013-11-24T15:18:09Z</time>
      </trkpt>
      <trkpt lat="48.73842" lon="-3.25413">
        <ele>68.87</ele>
        <time>2013-11-24T15:18:11Z</time>
      </trkpt>
      <trkpt lat="48.73844" lon="-3.25416">
        <ele>68.87</ele>
        <time>2013-11-24T15:18:13Z</time>
      </trkpt>
      <trkpt lat="48.73845" lon="-3.25419">
        <ele>68.87</ele>
        <time>2013-11-24T15:18:15Z</time>
      </trkpt>
      <trkpt lat="48.73846" lon="-3.25421">
        <ele>68.87</ele>
        <time>2013-11-24T15:18:17Z</time>
      </trkpt>
      <trkpt lat="48.73846" lon="-3.25422">
        <ele>68.87</ele>
        <time>2013-11-24T15:18:19Z</time>
      </trkpt>
      <trkpt lat="48.73846" lon="-3.25422">
        <ele>68.87</ele>
        <time>2013-11-24T15:18:21Z</time>
      </trkpt>
      <trkpt lat="48.73846" lon="-3.25422">
        <ele>68.87</ele>
        <time>2013-11-24T15:18:23Z</time>
      </trkpt>
      <trkpt lat="48.73845" lon="-3.25422">
        <ele>68.87</ele>
        <time>2013-11-24T15:18:25Z</time>
      </trkpt>
      <trkpt lat="48.73845" lon="-3.25422">
        <ele>68.87</ele>
        <time>2013-11-24T15:18:27Z</time>
      </trkpt>
      <trkpt lat="48.73846" lon="-3.25422">
        <ele>68.87</ele>
        <time>2013-11-24T15:18:29Z</time>
      </trkpt>
      <trkpt lat="48.73846" lon="-3.25422">
        <ele>68.39</ele>
        <time>2013-11-24T15:18:31Z</time>
      </trkpt>
      <trkpt lat="48.73846" lon="-3.25421">
        <ele>68.39</ele>
        <time>2013-11-24T15:18:33Z</time>
      </trkpt>
      <trkpt lat="48.73846" lon="-3.25421">
        <ele>68.39</ele>
        <time>2013-11-24T15:18:35Z</time>
      </trkpt>
      <trkpt lat="48.73845" lon="-3.25421">
        <ele>68.39</ele>
        <time>2013-11-24T15:18:37Z</time>
      </trkpt>
      <trkpt lat="48.73846" lon="-3.25421">
        <ele>68.39</ele>
        <time>2013-11-24T15:18:39Z</time>
      </trkpt>
      <trkpt lat="48.73846" lon="-3.25422">
        <ele>68.39</ele>
        <time>2013-11-24T15:18:41Z</time>
      </trkpt>
      <trkpt lat="48.73846" lon="-3.25421">
        <ele>68.39</ele>
        <time>2013-11-24T15:18:43Z</time>
      </trkpt>
      <trkpt lat="48.73846" lon="-3.25421">
        <ele>68.39</ele>
        <time>2013-11-24T15:18:45Z</time>
      </trkpt>
      <trkpt lat="48.73846" lon="-3.25422">
        <ele>68.39</ele>
        <time>2013-11-24T15:18:47Z</time>
      </trkpt>
      <trkpt lat="48.73846" lon="-3.25422">
        <ele>68.39</ele>
        <time>2013-11-24T15:18:49Z</time>
      </trkpt>
      <trkpt lat="48.73845" lon="-3.25422">
        <ele>68.39</ele>
        <time>2013-11-24T15:18:51Z</time>
      </trkpt>
      <trkpt lat="48.73845" lon="-3.25422">
        <ele>68.39</ele>
        <time>2013-11-24T15:18:53Z</time>
      </trkpt>
      <trkpt lat="48.73845" lon="-3.25423">
        <ele>68.39</ele>
        <time>2013-11-24T15:18:55Z</time>
      </trkpt>
      <trkpt lat="48.73845" lon="-3.25423">
        <ele>68.39</ele>
        <time>2013-11-24T15:18:57Z</time>
      </trkpt>
      <trkpt lat="48.73844" lon="-3.25424">
        <ele>68.87</ele>
        <time>2013-11-24T15:18:59Z</time>
      </trkpt>
      <trkpt lat="48.73844" lon="-3.25424">
        <ele>68.87</ele>
        <time>2013-11-24T15:19:01Z</time>
      </trkpt>
      <trkpt lat="48.73844" lon="-3.25424">
        <ele>68.87</ele>
        <time>2013-11-24T15:19:03Z</time>
      </trkpt>
      <trkpt lat="48.73844" lon="-3.25424">
        <ele>68.39</ele>
        <time>2013-11-24T15:19:05Z</time>
      </trkpt>
      <trkpt lat="48.73844" lon="-3.25425">
        <ele>68.39</ele>
        <time>2013-11-24T15:19:07Z</time>
      </trkpt>
      <trkpt lat="48.73843" lon="-3.25425">
        <ele>68.39</ele>
        <time>2013-11-24T15:19:09Z</time>
      </trkpt>
      <trkpt lat="48.73843" lon="-3.25426">
        <ele>68.39</ele>
        <time>2013-11-24T15:19:11Z</time>
      </trkpt>
      <trkpt lat="48.73843" lon="-3.25426">
        <ele>68.39</ele>
        <time>2013-11-24T15:19:13Z</time>
      </trkpt>
      <trkpt lat="48.73843" lon="-3.25427">
        <ele>68.39</ele>
        <time>2013-11-24T15:19:15Z</time>
      </trkpt>
      <trkpt lat="48.73843" lon="-3.25427">
        <ele>68.39</ele>
        <time>2013-11-24T15:19:17Z</time>
      </trkpt>
      <trkpt lat="48.73844" lon="-3.25428">
        <ele>68.39</ele>
        <time>2013-11-24T15:19:19Z</time>
      </trkpt>
      <trkpt lat="48.73844" lon="-3.25428">
        <ele>68.39</ele>
        <time>2013-11-24T15:19:21Z</time>
      </trkpt>
      <trkpt lat="48.73844" lon="-3.25428">
        <ele>68.39</ele>
        <time>2013-11-24T15:19:23Z</time>
      </trkpt>
      <trkpt lat="48.73844" lon="-3.25427">
        <ele>68.39</ele>
        <time>2013-11-24T15:19:25Z</time>
      </trkpt>
      <trkpt lat="48.73844" lon="-3.25427">
        <ele>68.39</ele>
        <time>2013-11-24T15:19:27Z</time>
      </trkpt>
      <trkpt lat="48.73844" lon="-3.25426">
        <ele>68.39</ele>
        <time>2013-11-24T15:19:29Z</time>
      </trkpt>
      <trkpt lat="48.73844" lon="-3.25426">
        <ele>68.39</ele>
        <time>2013-11-24T15:19:31Z</time>
      </trkpt>
      <trkpt lat="48.73844" lon="-3.25425">
        <ele>68.39</ele>
        <time>2013-11-24T15:19:33Z</time>
      </trkpt>
      <trkpt lat="48.73844" lon="-3.25425">
        <ele>68.39</ele>
        <time>2013-11-24T15:19:35Z</time>
      </trkpt>
      <trkpt lat="48.73844" lon="-3.25425">
        <ele>68.39</ele>
        <time>2013-11-24T15:19:37Z</time>
      </trkpt>
      <trkpt lat="48.73844" lon="-3.25425">
        <ele>68.39</ele>
        <time>2013-11-24T15:19:39Z</time>
      </trkpt>
      <trkpt lat="48.73843" lon="-3.25425">
        <ele>68.39</ele>
        <time>2013-11-24T15:19:41Z</time>
      </trkpt>
      <trkpt lat="48.73844" lon="-3.25425">
        <ele>68.39</ele>
        <time>2013-11-24T15:19:43Z</time>
      </trkpt>
      <trkpt lat="48.73844" lon="-3.25425">
        <ele>68.39</ele>
        <time>2013-11-24T15:19:45Z</time>
      </trkpt>
      <trkpt lat="48.73844" lon="-3.25425">
        <ele>68.39</ele>
        <time>2013-11-24T15:19:47Z</time>
      </trkpt>
      <trkpt lat="48.73843" lon="-3.25425">
        <ele>67.91</ele>
        <time>2013-11-24T15:19:49Z</time>
      </trkpt>
      <trkpt lat="48.73843" lon="-3.25426">
        <ele>66.95</ele>
        <time>2013-11-24T15:19:51Z</time>
      </trkpt>
      <trkpt lat="48.73843" lon="-3.25426">
        <ele>66.95</ele>
        <time>2013-11-24T15:19:53Z</time>
      </trkpt>
      <trkpt lat="48.73844" lon="-3.25427">
        <ele>66.95</ele>
        <time>2013-11-24T15:19:55Z</time>
      </trkpt>
      <trkpt lat="48.73844" lon="-3.25429">
        <ele>66.95</ele>
        <time>2013-11-24T15:19:57Z</time>
      </trkpt>
      <trkpt lat="48.73845" lon="-3.25431">
        <ele>66.95</ele>
        <time>2013-11-24T15:19:59Z</time>
      </trkpt>
      <trkpt lat="48.73847" lon="-3.25432">
        <ele>66.95</ele>
        <time>2013-11-24T15:20:01Z</time>
      </trkpt>
      <trkpt lat="48.73848" lon="-3.25433">
        <ele>66.95</ele>
        <time>2013-11-24T15:20:03Z</time>
      </trkpt>
      <trkpt lat="48.7385" lon="-3.25435">
        <ele>66.95</ele>
        <time>2013-11-24T15:20:05Z</time>
      </trkpt>
      <trkpt lat="48.73852" lon="-3.25437">
        <ele>66.95</ele>
        <time>2013-11-24T15:20:07Z</time>
      </trkpt>
      <trkpt lat="48.73853" lon="-3.25438">
        <ele>66.95</ele>
        <time>2013-11-24T15:20:09Z</time>
      </trkpt>
      <trkpt lat="48.73854" lon="-3.2544">
        <ele>66.95</ele>
        <time>2013-11-24T15:20:11Z</time>
      </trkpt>
      <trkpt lat="48.73855" lon="-3.25443">
        <ele>66.95</ele>
        <time>2013-11-24T15:20:13Z</time>
      </trkpt>
      <trkpt lat="48.73857" lon="-3.25444">
        <ele>66.95</ele>
        <time>2013-11-24T15:20:15Z</time>
      </trkpt>
      <trkpt lat="48.73858" lon="-3.25445">
        <ele>66.95</ele>
        <time>2013-11-24T15:20:17Z</time>
      </trkpt>
      <trkpt lat="48.73859" lon="-3.25447">
        <ele>66.47</ele>
        <time>2013-11-24T15:20:19Z</time>
      </trkpt>
      <trkpt lat="48.7386" lon="-3.25447">
        <ele>66.47</ele>
        <time>2013-11-24T15:20:21Z</time>
      </trkpt>
      <trkpt lat="48.7386" lon="-3.25447">
        <ele>66.47</ele>
        <time>2013-11-24T15:20:23Z</time>
      </trkpt>
      <trkpt lat="48.73861" lon="-3.25447">
        <ele>66.47</ele>
        <time>2013-11-24T15:20:25Z</time>
      </trkpt>
      <trkpt lat="48.73861" lon="-3.25447">
        <ele>66.47</ele>
        <time>2013-11-24T15:20:27Z</time>
      </trkpt>
      <trkpt lat="48.73861" lon="-3.25448">
        <ele>66.47</ele>
        <time>2013-11-24T15:20:29Z</time>
      </trkpt>
      <trkpt lat="48.73862" lon="-3.25449">
        <ele>66.47</ele>
        <time>2013-11-24T15:20:31Z</time>
      </trkpt>
      <trkpt lat="48.73863" lon="-3.25451">
        <ele>66.47</ele>
        <time>2013-11-24T15:20:33Z</time>
      </trkpt>
      <trkpt lat="48.73864" lon="-3.25453">
        <ele>66.47</ele>
        <time>2013-11-24T15:20:35Z</time>
      </trkpt>
      <trkpt lat="48.73865" lon="-3.25454">
        <ele>66.47</ele>
        <time>2013-11-24T15:20:37Z</time>
      </trkpt>
      <trkpt lat="48.73866" lon="-3.25457">
        <ele>66.47</ele>
        <time>2013-11-24T15:20:39Z</time>
      </trkpt>
      <trkpt lat="48.73868" lon="-3.25458">
        <ele>66.47</ele>
        <time>2013-11-24T15:20:41Z</time>
      </trkpt>
      <trkpt lat="48.73869" lon="-3.2546">
        <ele>66.47</ele>
        <time>2013-11-24T15:20:43Z</time>
      </trkpt>
      <trkpt lat="48.73871" lon="-3.25462">
        <ele>66.47</ele>
        <time>2013-11-24T15:20:45Z</time>
      </trkpt>
      <trkpt lat="48.73872" lon="-3.25464">
        <ele>66.47</ele>
        <time>2013-11-24T15:20:47Z</time>
      </trkpt>
      <trkpt lat="48.73874" lon="-3.25465">
        <ele>66.47</ele>
        <time>2013-11-24T15:20:49Z</time>
      </trkpt>
      <trkpt lat="48.73875" lon="-3.25467">
        <ele>66.47</ele>
        <time>2013-11-24T15:20:51Z</time>
      </trkpt>
      <trkpt lat="48.73876" lon="-3.25469">
        <ele>66.47</ele>
        <time>2013-11-24T15:20:53Z</time>
      </trkpt>
      <trkpt lat="48.73876" lon="-3.2547">
        <ele>66.47</ele>
        <time>2013-11-24T15:20:55Z</time>
      </trkpt>
      <trkpt lat="48.73876" lon="-3.2547">
        <ele>66.47</ele>
        <time>2013-11-24T15:20:57Z</time>
      </trkpt>
      <trkpt lat="48.73877" lon="-3.2547">
        <ele>66.47</ele>
        <time>2013-11-24T15:20:59Z</time>
      </trkpt>
      <trkpt lat="48.73878" lon="-3.25471">
        <ele>65.99</ele>
        <time>2013-11-24T15:21:01Z</time>
      </trkpt>
      <trkpt lat="48.7388" lon="-3.25473">
        <ele>65.99</ele>
        <time>2013-11-24T15:21:03Z</time>
      </trkpt>
      <trkpt lat="48.73881" lon="-3.25475">
        <ele>65.99</ele>
        <time>2013-11-24T15:21:05Z</time>
      </trkpt>
      <trkpt lat="48.73882" lon="-3.25476">
        <ele>65.99</ele>
        <time>2013-11-24T15:21:07Z</time>
      </trkpt>
      <trkpt lat="48.73883" lon="-3.25478">
        <ele>65.99</ele>
        <time>2013-11-24T15:21:09Z</time>
      </trkpt>
      <trkpt lat="48.73885" lon="-3.25479">
        <ele>65.99</ele>
        <time>2013-11-24T15:21:11Z</time>
      </trkpt>
      <trkpt lat="48.73886" lon="-3.25481">
        <ele>65.99</ele>
        <time>2013-11-24T15:21:13Z</time>
      </trkpt>
      <trkpt lat="48.73888" lon="-3.25483">
        <ele>65.99</ele>
        <time>2013-11-24T15:21:15Z</time>
      </trkpt>
      <trkpt lat="48.73889" lon="-3.25484">
        <ele>65.99</ele>
        <time>2013-11-24T15:21:17Z</time>
      </trkpt>
      <trkpt lat="48.73889" lon="-3.25484">
        <ele>65.99</ele>
        <time>2013-11-24T15:21:19Z</time>
      </trkpt>
      <trkpt lat="48.73891" lon="-3.25485">
        <ele>65.99</ele>
        <time>2013-11-24T15:21:21Z</time>
      </trkpt>
      <trkpt lat="48.73893" lon="-3.25486">
        <ele>65.99</ele>
        <time>2013-11-24T15:21:23Z</time>
      </trkpt>
      <trkpt lat="48.73895" lon="-3.25486">
        <ele>65.99</ele>
        <time>2013-11-24T15:21:25Z</time>
      </trkpt>
      <trkpt lat="48.73896" lon="-3.25488">
        <ele>65.99</ele>
        <time>2013-11-24T15:21:27Z</time>
      </trkpt>
      <trkpt lat="48.73898" lon="-3.25489">
        <ele>65.99</ele>
        <time>2013-11-24T15:21:29Z</time>
      </trkpt>
      <trkpt lat="48.73899" lon="-3.2549">
        <ele>65.99</ele>
        <time>2013-11-24T15:21:31Z</time>
      </trkpt>
      <trkpt lat="48.73901" lon="-3.25491">
        <ele>65.99</ele>
        <time>2013-11-24T15:21:33Z</time>
      </trkpt>
      <trkpt lat="48.73903" lon="-3.25493">
        <ele>65.99</ele>
        <time>2013-11-24T15:21:35Z</time>
      </trkpt>
      <trkpt lat="48.73904" lon="-3.25494">
        <ele>65.99</ele>
        <time>2013-11-24T15:21:37Z</time>
      </trkpt>
      <trkpt lat="48.73906" lon="-3.25495">
        <ele>65.99</ele>
        <time>2013-11-24T15:21:39Z</time>
      </trkpt>
      <trkpt lat="48.73908" lon="-3.25496">
        <ele>65.99</ele>
        <time>2013-11-24T15:21:41Z</time>
      </trkpt>
      <trkpt lat="48.7391" lon="-3.25497">
        <ele>65.51</ele>
        <time>2013-11-24T15:21:43Z</time>
      </trkpt>
      <trkpt lat="48.73911" lon="-3.25498">
        <ele>65.51</ele>
        <time>2013-11-24T15:21:45Z</time>
      </trkpt>
      <trkpt lat="48.73913" lon="-3.25499">
        <ele>65.51</ele>
        <time>2013-11-24T15:21:47Z</time>
      </trkpt>
      <trkpt lat="48.73915" lon="-3.25501">
        <ele>65.51</ele>
        <time>2013-11-24T15:21:49Z</time>
      </trkpt>
      <trkpt lat="48.73917" lon="-3.25502">
        <ele>65.51</ele>
        <time>2013-11-24T15:21:51Z</time>
      </trkpt>
      <trkpt lat="48.73919" lon="-3.25503">
        <ele>65.51</ele>
        <time>2013-11-24T15:21:53Z</time>
      </trkpt>
      <trkpt lat="48.73921" lon="-3.25505">
        <ele>65.51</ele>
        <time>2013-11-24T15:21:55Z</time>
      </trkpt>
      <trkpt lat="48.73922" lon="-3.25506">
        <ele>65.51</ele>
        <time>2013-11-24T15:21:57Z</time>
      </trkpt>
      <trkpt lat="48.73924" lon="-3.25507">
        <ele>65.51</ele>
        <time>2013-11-24T15:21:59Z</time>
      </trkpt>
      <trkpt lat="48.73926" lon="-3.25509">
        <ele>65.03</ele>
        <time>2013-11-24T15:22:01Z</time>
      </trkpt>
      <trkpt lat="48.73928" lon="-3.2551">
        <ele>65.03</ele>
        <time>2013-11-24T15:22:03Z</time>
      </trkpt>
      <trkpt lat="48.73929" lon="-3.25511">
        <ele>65.03</ele>
        <time>2013-11-24T15:22:05Z</time>
      </trkpt>
      <trkpt lat="48.73931" lon="-3.25513">
        <ele>65.03</ele>
        <time>2013-11-24T15:22:07Z</time>
      </trkpt>
      <trkpt lat="48.73933" lon="-3.25514">
        <ele>65.03</ele>
        <time>2013-11-24T15:22:09Z</time>
      </trkpt>
      <trkpt lat="48.73935" lon="-3.25514">
        <ele>65.03</ele>
        <time>2013-11-24T15:22:11Z</time>
      </trkpt>
      <trkpt lat="48.73937" lon="-3.25516">
        <ele>65.03</ele>
        <time>2013-11-24T15:22:13Z</time>
      </trkpt>
      <trkpt lat="48.73938" lon="-3.25517">
        <ele>65.03</ele>
        <time>2013-11-24T15:22:15Z</time>
      </trkpt>
      <trkpt lat="48.7394" lon="-3.25519">
        <ele>65.03</ele>
        <time>2013-11-24T15:22:17Z</time>
      </trkpt>
      <trkpt lat="48.73941" lon="-3.2552">
        <ele>65.03</ele>
        <time>2013-11-24T15:22:19Z</time>
      </trkpt>
      <trkpt lat="48.73943" lon="-3.25521">
        <ele>65.03</ele>
        <time>2013-11-24T15:22:21Z</time>
      </trkpt>
      <trkpt lat="48.73944" lon="-3.25522">
        <ele>65.03</ele>
        <time>2013-11-24T15:22:23Z</time>
      </trkpt>
      <trkpt lat="48.73946" lon="-3.25523">
        <ele>65.03</ele>
        <time>2013-11-24T15:22:25Z</time>
      </trkpt>
      <trkpt lat="48.73948" lon="-3.25525">
        <ele>65.03</ele>
        <time>2013-11-24T15:22:27Z</time>
      </trkpt>
      <trkpt lat="48.73949" lon="-3.25526">
        <ele>65.03</ele>
        <time>2013-11-24T15:22:29Z</time>
      </trkpt>
      <trkpt lat="48.73951" lon="-3.25528">
        <ele>64.55</ele>
        <time>2013-11-24T15:22:31Z</time>
      </trkpt>
      <trkpt lat="48.73951" lon="-3.25528">
        <ele>64.55</ele>
        <time>2013-11-24T15:22:33Z</time>
      </trkpt>
      <trkpt lat="48.73951" lon="-3.25528">
        <ele>64.55</ele>
        <time>2013-11-24T15:22:35Z</time>
      </trkpt>
      <trkpt lat="48.73952" lon="-3.25528">
        <ele>64.55</ele>
        <time>2013-11-24T15:22:37Z</time>
      </trkpt>
      <trkpt lat="48.73954" lon="-3.2553">
        <ele>64.55</ele>
        <time>2013-11-24T15:22:39Z</time>
      </trkpt>
      <trkpt lat="48.73955" lon="-3.25532">
        <ele>64.55</ele>
        <time>2013-11-24T15:22:41Z</time>
      </trkpt>
      <trkpt lat="48.73957" lon="-3.25533">
        <ele>64.55</ele>
        <time>2013-11-24T15:22:43Z</time>
      </trkpt>
      <trkpt lat="48.73959" lon="-3.25535">
        <ele>64.55</ele>
        <time>2013-11-24T15:22:45Z</time>
      </trkpt>
      <trkpt lat="48.73961" lon="-3.25536">
        <ele>64.55</ele>
        <time>2013-11-24T15:22:47Z</time>
      </trkpt>
      <trkpt lat="48.73962" lon="-3.25538">
        <ele>64.55</ele>
        <time>2013-11-24T15:22:49Z</time>
      </trkpt>
      <trkpt lat="48.73964" lon="-3.25539">
        <ele>64.55</ele>
        <time>2013-11-24T15:22:51Z</time>
      </trkpt>
      <trkpt lat="48.73966" lon="-3.25541">
        <ele>64.55</ele>
        <time>2013-11-24T15:22:53Z</time>
      </trkpt>
      <trkpt lat="48.73967" lon="-3.25542">
        <ele>64.55</ele>
        <time>2013-11-24T15:22:55Z</time>
      </trkpt>
      <trkpt lat="48.7397" lon="-3.25544">
        <ele>64.55</ele>
        <time>2013-11-24T15:22:57Z</time>
      </trkpt>
      <trkpt lat="48.73971" lon="-3.25545">
        <ele>64.55</ele>
        <time>2013-11-24T15:22:59Z</time>
      </trkpt>
      <trkpt lat="48.73973" lon="-3.25547">
        <ele>64.55</ele>
        <time>2013-11-24T15:23:01Z</time>
      </trkpt>
      <trkpt lat="48.73974" lon="-3.25548">
        <ele>64.55</ele>
        <time>2013-11-24T15:23:03Z</time>
      </trkpt>
      <trkpt lat="48.73976" lon="-3.2555">
        <ele>64.55</ele>
        <time>2013-11-24T15:23:05Z</time>
      </trkpt>
      <trkpt lat="48.73978" lon="-3.25551">
        <ele>64.55</ele>
        <time>2013-11-24T15:23:07Z</time>
      </trkpt>
      <trkpt lat="48.7398" lon="-3.25552">
        <ele>64.55</ele>
        <time>2013-11-24T15:23:09Z</time>
      </trkpt>
      <trkpt lat="48.73981" lon="-3.25554">
        <ele>64.55</ele>
        <time>2013-11-24T15:23:11Z</time>
      </trkpt>
      <trkpt lat="48.73983" lon="-3.25556">
        <ele>64.07</ele>
        <time>2013-11-24T15:23:13Z</time>
      </trkpt>
      <trkpt lat="48.73985" lon="-3.25557">
        <ele>64.07</ele>
        <time>2013-11-24T15:23:15Z</time>
      </trkpt>
      <trkpt lat="48.73987" lon="-3.25559">
        <ele>64.07</ele>
        <time>2013-11-24T15:23:17Z</time>
      </trkpt>
      <trkpt lat="48.73989" lon="-3.25561">
        <ele>64.07</ele>
        <time>2013-11-24T15:23:19Z</time>
      </trkpt>
      <trkpt lat="48.7399" lon="-3.25562">
        <ele>64.07</ele>
        <time>2013-11-24T15:23:21Z</time>
      </trkpt>
      <trkpt lat="48.73992" lon="-3.25564">
        <ele>64.07</ele>
        <time>2013-11-24T15:23:23Z</time>
      </trkpt>
      <trkpt lat="48.73994" lon="-3.25566">
        <ele>64.07</ele>
        <time>2013-11-24T15:23:25Z</time>
      </trkpt>
      <trkpt lat="48.73995" lon="-3.25568">
        <ele>64.07</ele>
        <time>2013-11-24T15:23:27Z</time>
      </trkpt>
      <trkpt lat="48.73997" lon="-3.25569">
        <ele>64.07</ele>
        <time>2013-11-24T15:23:29Z</time>
      </trkpt>
      <trkpt lat="48.73999" lon="-3.25571">
        <ele>64.07</ele>
        <time>2013-11-24T15:23:31Z</time>
      </trkpt>
      <trkpt lat="48.74001" lon="-3.25572">
        <ele>64.07</ele>
        <time>2013-11-24T15:23:33Z</time>
      </trkpt>
      <trkpt lat="48.74003" lon="-3.25573">
        <ele>64.07</ele>
        <time>2013-11-24T15:23:35Z</time>
      </trkpt>
      <trkpt lat="48.74004" lon="-3.25574">
        <ele>64.07</ele>
        <time>2013-11-24T15:23:37Z</time>
      </trkpt>
      <trkpt lat="48.74006" lon="-3.25575">
        <ele>64.07</ele>
        <time>2013-11-24T15:23:39Z</time>
      </trkpt>
      <trkpt lat="48.74008" lon="-3.25576">
        <ele>64.07</ele>
        <time>2013-11-24T15:23:41Z</time>
      </trkpt>
      <trkpt lat="48.7401" lon="-3.25578">
        <ele>64.07</ele>
        <time>2013-11-24T15:23:43Z</time>
      </trkpt>
      <trkpt lat="48.74012" lon="-3.25579">
        <ele>64.07</ele>
        <time>2013-11-24T15:23:45Z</time>
      </trkpt>
      <trkpt lat="48.74014" lon="-3.2558">
        <ele>64.07</ele>
        <time>2013-11-24T15:23:47Z</time>
      </trkpt>
      <trkpt lat="48.74015" lon="-3.25582">
        <ele>64.07</ele>
        <time>2013-11-24T15:23:49Z</time>
      </trkpt>
      <trkpt lat="48.74017" lon="-3.25583">
        <ele>64.07</ele>
        <time>2013-11-24T15:23:51Z</time>
      </trkpt>
      <trkpt lat="48.74019" lon="-3.25584">
        <ele>64.07</ele>
        <time>2013-11-24T15:23:53Z</time>
      </trkpt>
      <trkpt lat="48.74021" lon="-3.25586">
        <ele>63.58</ele>
        <time>2013-11-24T15:23:55Z</time>
      </trkpt>
      <trkpt lat="48.74023" lon="-3.25587">
        <ele>63.58</ele>
        <time>2013-11-24T15:23:57Z</time>
      </trkpt>
      <trkpt lat="48.74025" lon="-3.25589">
        <ele>63.58</ele>
        <time>2013-11-24T15:23:59Z</time>
      </trkpt>
      <trkpt lat="48.74027" lon="-3.2559">
        <ele>63.58</ele>
        <time>2013-11-24T15:24:01Z</time>
      </trkpt>
      <trkpt lat="48.74029" lon="-3.25592">
        <ele>63.58</ele>
        <time>2013-11-24T15:24:03Z</time>
      </trkpt>
      <trkpt lat="48.7403" lon="-3.25594">
        <ele>63.58</ele>
        <time>2013-11-24T15:24:05Z</time>
      </trkpt>
      <trkpt lat="48.74032" lon="-3.25595">
        <ele>63.58</ele>
        <time>2013-11-24T15:24:07Z</time>
      </trkpt>
      <trkpt lat="48.74034" lon="-3.25595">
        <ele>63.58</ele>
        <time>2013-11-24T15:24:09Z</time>
      </trkpt>
      <trkpt lat="48.74036" lon="-3.25596">
        <ele>63.58</ele>
        <time>2013-11-24T15:24:11Z</time>
      </trkpt>
      <trkpt lat="48.74039" lon="-3.25597">
        <ele>63.58</ele>
        <time>2013-11-24T15:24:13Z</time>
      </trkpt>
      <trkpt lat="48.74041" lon="-3.25598">
        <ele>63.58</ele>
        <time>2013-11-24T15:24:15Z</time>
      </trkpt>
      <trkpt lat="48.74042" lon="-3.25599">
        <ele>63.58</ele>
        <time>2013-11-24T15:24:17Z</time>
      </trkpt>
      <trkpt lat="48.74045" lon="-3.25599">
        <ele>63.58</ele>
        <time>2013-11-24T15:24:19Z</time>
      </trkpt>
      <trkpt lat="48.74046" lon="-3.25599">
        <ele>63.58</ele>
        <time>2013-11-24T15:24:21Z</time>
      </trkpt>
      <trkpt lat="48.74048" lon="-3.256">
        <ele>63.58</ele>
        <time>2013-11-24T15:24:23Z</time>
      </trkpt>
      <trkpt lat="48.7405" lon="-3.256">
        <ele>63.58</ele>
        <time>2013-11-24T15:24:25Z</time>
      </trkpt>
      <trkpt lat="48.74052" lon="-3.25601">
        <ele>63.58</ele>
        <time>2013-11-24T15:24:27Z</time>
      </trkpt>
      <trkpt lat="48.74054" lon="-3.25601">
        <ele>63.58</ele>
        <time>2013-11-24T15:24:29Z</time>
      </trkpt>
      <trkpt lat="48.74055" lon="-3.25602">
        <ele>63.58</ele>
        <time>2013-11-24T15:24:31Z</time>
      </trkpt>
      <trkpt lat="48.74057" lon="-3.25603">
        <ele>63.58</ele>
        <time>2013-11-24T15:24:33Z</time>
      </trkpt>
      <trkpt lat="48.74059" lon="-3.25604">
        <ele>63.58</ele>
        <time>2013-11-24T15:24:35Z</time>
      </trkpt>
      <trkpt lat="48.74061" lon="-3.25605">
        <ele>63.58</ele>
        <time>2013-11-24T15:24:37Z</time>
      </trkpt>
      <trkpt lat="48.74063" lon="-3.25605">
        <ele>63.1</ele>
        <time>2013-11-24T15:24:39Z</time>
      </trkpt>
      <trkpt lat="48.74065" lon="-3.25607">
        <ele>63.1</ele>
        <time>2013-11-24T15:24:41Z</time>
      </trkpt>
      <trkpt lat="48.74067" lon="-3.25608">
        <ele>63.1</ele>
        <time>2013-11-24T15:24:43Z</time>
      </trkpt>
      <trkpt lat="48.74069" lon="-3.2561">
        <ele>63.1</ele>
        <time>2013-11-24T15:24:45Z</time>
      </trkpt>
      <trkpt lat="48.74071" lon="-3.25612">
        <ele>63.1</ele>
        <time>2013-11-24T15:24:47Z</time>
      </trkpt>
      <trkpt lat="48.74073" lon="-3.25614">
        <ele>63.1</ele>
        <time>2013-11-24T15:24:49Z</time>
      </trkpt>
      <trkpt lat="48.74075" lon="-3.25616">
        <ele>63.1</ele>
        <time>2013-11-24T15:24:51Z</time>
      </trkpt>
      <trkpt lat="48.74077" lon="-3.25617">
        <ele>63.1</ele>
        <time>2013-11-24T15:24:53Z</time>
      </trkpt>
      <trkpt lat="48.74079" lon="-3.25619">
        <ele>63.1</ele>
        <time>2013-11-24T15:24:55Z</time>
      </trkpt>
      <trkpt lat="48.74081" lon="-3.25621">
        <ele>63.1</ele>
        <time>2013-11-24T15:24:57Z</time>
      </trkpt>
      <trkpt lat="48.74083" lon="-3.25623">
        <ele>63.1</ele>
        <time>2013-11-24T15:24:59Z</time>
      </trkpt>
      <trkpt lat="48.74084" lon="-3.25625">
        <ele>63.1</ele>
        <time>2013-11-24T15:25:01Z</time>
      </trkpt>
      <trkpt lat="48.74086" lon="-3.25626">
        <ele>63.1</ele>
        <time>2013-11-24T15:25:03Z</time>
      </trkpt>
      <trkpt lat="48.74088" lon="-3.25628">
        <ele>63.1</ele>
        <time>2013-11-24T15:25:05Z</time>
      </trkpt>
      <trkpt lat="48.7409" lon="-3.2563">
        <ele>63.1</ele>
        <time>2013-11-24T15:25:07Z</time>
      </trkpt>
      <trkpt lat="48.74091" lon="-3.25633">
        <ele>63.1</ele>
        <time>2013-11-24T15:25:09Z</time>
      </trkpt>
      <trkpt lat="48.74093" lon="-3.25634">
        <ele>63.1</ele>
        <time>2013-11-24T15:25:11Z</time>
      </trkpt>
      <trkpt lat="48.74094" lon="-3.25636">
        <ele>63.1</ele>
        <time>2013-11-24T15:25:13Z</time>
      </trkpt>
      <trkpt lat="48.74094" lon="-3.25638">
        <ele>63.1</ele>
        <time>2013-11-24T15:25:15Z</time>
      </trkpt>
      <trkpt lat="48.74095" lon="-3.2564">
        <ele>63.1</ele>
        <time>2013-11-24T15:25:17Z</time>
      </trkpt>
      <trkpt lat="48.74096" lon="-3.25641">
        <ele>62.62</ele>
        <time>2013-11-24T15:25:19Z</time>
      </trkpt>
      <trkpt lat="48.74097" lon="-3.25641">
        <ele>62.62</ele>
        <time>2013-11-24T15:25:21Z</time>
      </trkpt>
      <trkpt lat="48.74099" lon="-3.25641">
        <ele>62.62</ele>
        <time>2013-11-24T15:25:23Z</time>
      </trkpt>
      <trkpt lat="48.741" lon="-3.25642">
        <ele>62.62</ele>
        <time>2013-11-24T15:25:25Z</time>
      </trkpt>
      <trkpt lat="48.74101" lon="-3.25643">
        <ele>62.62</ele>
        <time>2013-11-24T15:25:27Z</time>
      </trkpt>
      <trkpt lat="48.74103" lon="-3.25645">
        <ele>62.62</ele>
        <time>2013-11-24T15:25:29Z</time>
      </trkpt>
      <trkpt lat="48.74104" lon="-3.25646">
        <ele>62.62</ele>
        <time>2013-11-24T15:25:31Z</time>
      </trkpt>
      <trkpt lat="48.74106" lon="-3.25648">
        <ele>62.62</ele>
        <time>2013-11-24T15:25:33Z</time>
      </trkpt>
      <trkpt lat="48.74107" lon="-3.25649">
        <ele>62.62</ele>
        <time>2013-11-24T15:25:35Z</time>
      </trkpt>
      <trkpt lat="48.74109" lon="-3.2565">
        <ele>62.62</ele>
        <time>2013-11-24T15:25:37Z</time>
      </trkpt>
      <trkpt lat="48.7411" lon="-3.25652">
        <ele>62.62</ele>
        <time>2013-11-24T15:25:39Z</time>
      </trkpt>
      <trkpt lat="48.74112" lon="-3.25654">
        <ele>62.62</ele>
        <time>2013-11-24T15:25:41Z</time>
      </trkpt>
      <trkpt lat="48.74114" lon="-3.25657">
        <ele>62.62</ele>
        <time>2013-11-24T15:25:43Z</time>
      </trkpt>
      <trkpt lat="48.74115" lon="-3.25659">
        <ele>62.62</ele>
        <time>2013-11-24T15:25:45Z</time>
      </trkpt>
      <trkpt lat="48.74117" lon="-3.25661">
        <ele>62.62</ele>
        <time>2013-11-24T15:25:47Z</time>
      </trkpt>
      <trkpt lat="48.74119" lon="-3.25663">
        <ele>62.62</ele>
        <time>2013-11-24T15:25:49Z</time>
      </trkpt>
      <trkpt lat="48.7412" lon="-3.25665">
        <ele>62.62</ele>
        <time>2013-11-24T15:25:51Z</time>
      </trkpt>
      <trkpt lat="48.74122" lon="-3.25666">
        <ele>62.62</ele>
        <time>2013-11-24T15:25:53Z</time>
      </trkpt>
      <trkpt lat="48.74123" lon="-3.25668">
        <ele>62.62</ele>
        <time>2013-11-24T15:25:55Z</time>
      </trkpt>
      <trkpt lat="48.74125" lon="-3.2567">
        <ele>62.14</ele>
        <time>2013-11-24T15:25:57Z</time>
      </trkpt>
      <trkpt lat="48.74126" lon="-3.25672">
        <ele>62.14</ele>
        <time>2013-11-24T15:25:59Z</time>
      </trkpt>
      <trkpt lat="48.74127" lon="-3.25674">
        <ele>62.14</ele>
        <time>2013-11-24T15:26:01Z</time>
      </trkpt>
      <trkpt lat="48.74128" lon="-3.25677">
        <ele>62.14</ele>
        <time>2013-11-24T15:26:03Z</time>
      </trkpt>
      <trkpt lat="48.7413" lon="-3.2568">
        <ele>62.14</ele>
        <time>2013-11-24T15:26:05Z</time>
      </trkpt>
      <trkpt lat="48.74131" lon="-3.25683">
        <ele>62.14</ele>
        <time>2013-11-24T15:26:07Z</time>
      </trkpt>
      <trkpt lat="48.74132" lon="-3.25685">
        <ele>62.14</ele>
        <time>2013-11-24T15:26:09Z</time>
      </trkpt>
      <trkpt lat="48.74133" lon="-3.25688">
        <ele>62.14</ele>
        <time>2013-11-24T15:26:11Z</time>
      </trkpt>
      <trkpt lat="48.74135" lon="-3.25691">
        <ele>62.14</ele>
        <time>2013-11-24T15:26:13Z</time>
      </trkpt>
      <trkpt lat="48.74136" lon="-3.25694">
        <ele>62.14</ele>
        <time>2013-11-24T15:26:15Z</time>
      </trkpt>
      <trkpt lat="48.74137" lon="-3.25697">
        <ele>62.14</ele>
        <time>2013-11-24T15:26:17Z</time>
      </trkpt>
      <trkpt lat="48.74138" lon="-3.257">
        <ele>62.14</ele>
        <time>2013-11-24T15:26:19Z</time>
      </trkpt>
      <trkpt lat="48.74139" lon="-3.25703">
        <ele>62.14</ele>
        <time>2013-11-24T15:26:21Z</time>
      </trkpt>
      <trkpt lat="48.74141" lon="-3.25707">
        <ele>62.14</ele>
        <time>2013-11-24T15:26:23Z</time>
      </trkpt>
      <trkpt lat="48.74142" lon="-3.25709">
        <ele>62.14</ele>
        <time>2013-11-24T15:26:25Z</time>
      </trkpt>
      <trkpt lat="48.74143" lon="-3.25712">
        <ele>62.14</ele>
        <time>2013-11-24T15:26:27Z</time>
      </trkpt>
      <trkpt lat="48.74144" lon="-3.25714">
        <ele>62.14</ele>
        <time>2013-11-24T15:26:29Z</time>
      </trkpt>
      <trkpt lat="48.74145" lon="-3.25717">
        <ele>62.14</ele>
        <time>2013-11-24T15:26:31Z</time>
      </trkpt>
      <trkpt lat="48.74146" lon="-3.25719">
        <ele>62.14</ele>
        <time>2013-11-24T15:26:33Z</time>
      </trkpt>
      <trkpt lat="48.74147" lon="-3.25722">
        <ele>61.66</ele>
        <time>2013-11-24T15:26:35Z</time>
      </trkpt>
      <trkpt lat="48.74148" lon="-3.25725">
        <ele>61.66</ele>
        <time>2013-11-24T15:26:37Z</time>
      </trkpt>
      <trkpt lat="48.7415" lon="-3.25728">
        <ele>61.66</ele>
        <time>2013-11-24T15:26:39Z</time>
      </trkpt>
      <trkpt lat="48.74151" lon="-3.25731">
        <ele>61.66</ele>
        <time>2013-11-24T15:26:41Z</time>
      </trkpt>
      <trkpt lat="48.74152" lon="-3.25734">
        <ele>61.66</ele>
        <time>2013-11-24T15:26:43Z</time>
      </trkpt>
      <trkpt lat="48.74153" lon="-3.25737">
        <ele>61.66</ele>
        <time>2013-11-24T15:26:45Z</time>
      </trkpt>
      <trkpt lat="48.74154" lon="-3.25739">
        <ele>61.66</ele>
        <time>2013-11-24T15:26:47Z</time>
      </trkpt>
      <trkpt lat="48.74155" lon="-3.25742">
        <ele>61.66</ele>
        <time>2013-11-24T15:26:49Z</time>
      </trkpt>
      <trkpt lat="48.74157" lon="-3.25746">
        <ele>61.66</ele>
        <time>2013-11-24T15:26:51Z</time>
      </trkpt>
      <trkpt lat="48.74158" lon="-3.25749">
        <ele>61.66</ele>
        <time>2013-11-24T15:26:53Z</time>
      </trkpt>
      <trkpt lat="48.74159" lon="-3.25751">
        <ele>61.66</ele>
        <time>2013-11-24T15:26:55Z</time>
      </trkpt>
      <trkpt lat="48.7416" lon="-3.25754">
        <ele>61.66</ele>
        <time>2013-11-24T15:26:57Z</time>
      </trkpt>
      <trkpt lat="48.74161" lon="-3.25756">
        <ele>61.66</ele>
        <time>2013-11-24T15:26:59Z</time>
      </trkpt>
      <trkpt lat="48.74161" lon="-3.25758">
        <ele>61.66</ele>
        <time>2013-11-24T15:27:01Z</time>
      </trkpt>
      <trkpt lat="48.74162" lon="-3.2576">
        <ele>61.66</ele>
        <time>2013-11-24T15:27:03Z</time>
      </trkpt>
      <trkpt lat="48.74163" lon="-3.25762">
        <ele>61.66</ele>
        <time>2013-11-24T15:27:05Z</time>
      </trkpt>
      <trkpt lat="48.74164" lon="-3.25765">
        <ele>61.66</ele>
        <time>2013-11-24T15:27:07Z</time>
      </trkpt>
      <trkpt lat="48.74165" lon="-3.25767">
        <ele>61.66</ele>
        <time>2013-11-24T15:27:09Z</time>
      </trkpt>
      <trkpt lat="48.74166" lon="-3.2577">
        <ele>61.18</ele>
        <time>2013-11-24T15:27:11Z</time>
      </trkpt>
      <trkpt lat="48.74167" lon="-3.25772">
        <ele>62.62</ele>
        <time>2013-11-24T15:27:13Z</time>
      </trkpt>
      <trkpt lat="48.74168" lon="-3.25775">
        <ele>62.62</ele>
        <time>2013-11-24T15:27:15Z</time>
      </trkpt>
      <trkpt lat="48.74169" lon="-3.25778">
        <ele>62.62</ele>
        <time>2013-11-24T15:27:17Z</time>
      </trkpt>
      <trkpt lat="48.7417" lon="-3.25781">
        <ele>62.62</ele>
        <time>2013-11-24T15:27:19Z</time>
      </trkpt>
      <trkpt lat="48.74171" lon="-3.25784">
        <ele>62.62</ele>
        <time>2013-11-24T15:27:21Z</time>
      </trkpt>
      <trkpt lat="48.74172" lon="-3.25787">
        <ele>62.62</ele>
        <time>2013-11-24T15:27:23Z</time>
      </trkpt>
      <trkpt lat="48.74173" lon="-3.2579">
        <ele>62.62</ele>
        <time>2013-11-24T15:27:25Z</time>
      </trkpt>
      <trkpt lat="48.74173" lon="-3.25793">
        <ele>62.14</ele>
        <time>2013-11-24T15:27:27Z</time>
      </trkpt>
      <trkpt lat="48.74174" lon="-3.25796">
        <ele>62.14</ele>
        <time>2013-11-24T15:27:29Z</time>
      </trkpt>
      <trkpt lat="48.74175" lon="-3.25798">
        <ele>62.14</ele>
        <time>2013-11-24T15:27:31Z</time>
      </trkpt>
      <trkpt lat="48.74176" lon="-3.258">
        <ele>62.14</ele>
        <time>2013-11-24T15:27:33Z</time>
      </trkpt>
      <trkpt lat="48.74177" lon="-3.25803">
        <ele>62.14</ele>
        <time>2013-11-24T15:27:35Z</time>
      </trkpt>
      <trkpt lat="48.74177" lon="-3.25806">
        <ele>62.14</ele>
        <time>2013-11-24T15:27:37Z</time>
      </trkpt>
      <trkpt lat="48.74178" lon="-3.25809">
        <ele>62.14</ele>
        <time>2013-11-24T15:27:39Z</time>
      </trkpt>
      <trkpt lat="48.74178" lon="-3.25813">
        <ele>62.14</ele>
        <time>2013-11-24T15:27:41Z</time>
      </trkpt>
      <trkpt lat="48.74179" lon="-3.25816">
        <ele>62.14</ele>
        <time>2013-11-24T15:27:43Z</time>
      </trkpt>
      <trkpt lat="48.7418" lon="-3.2582">
        <ele>62.14</ele>
        <time>2013-11-24T15:27:45Z</time>
      </trkpt>
      <trkpt lat="48.74181" lon="-3.25824">
        <ele>62.14</ele>
        <time>2013-11-24T15:27:47Z</time>
      </trkpt>
      <trkpt lat="48.74182" lon="-3.25827">
        <ele>62.14</ele>
        <time>2013-11-24T15:27:49Z</time>
      </trkpt>
      <trkpt lat="48.74183" lon="-3.2583">
        <ele>62.14</ele>
        <time>2013-11-24T15:27:51Z</time>
      </trkpt>
      <trkpt lat="48.74183" lon="-3.25833">
        <ele>62.14</ele>
        <time>2013-11-24T15:27:53Z</time>
      </trkpt>
      <trkpt lat="48.74184" lon="-3.25836">
        <ele>62.14</ele>
        <time>2013-11-24T15:27:55Z</time>
      </trkpt>
      <trkpt lat="48.74184" lon="-3.25839">
        <ele>62.14</ele>
        <time>2013-11-24T15:27:57Z</time>
      </trkpt>
      <trkpt lat="48.74185" lon="-3.25841">
        <ele>62.14</ele>
        <time>2013-11-24T15:27:59Z</time>
      </trkpt>
      <trkpt lat="48.74186" lon="-3.25844">
        <ele>62.14</ele>
        <time>2013-11-24T15:28:01Z</time>
      </trkpt>
      <trkpt lat="48.74187" lon="-3.25847">
        <ele>62.14</ele>
        <time>2013-11-24T15:28:03Z</time>
      </trkpt>
      <trkpt lat="48.74188" lon="-3.2585">
        <ele>61.66</ele>
        <time>2013-11-24T15:28:05Z</time>
      </trkpt>
      <trkpt lat="48.74189" lon="-3.25853">
        <ele>61.66</ele>
        <time>2013-11-24T15:28:07Z</time>
      </trkpt>
      <trkpt lat="48.7419" lon="-3.25855">
        <ele>61.66</ele>
        <time>2013-11-24T15:28:09Z</time>
      </trkpt>
      <trkpt lat="48.74191" lon="-3.25858">
        <ele>61.66</ele>
        <time>2013-11-24T15:28:11Z</time>
      </trkpt>
      <trkpt lat="48.74192" lon="-3.2586">
        <ele>61.66</ele>
        <time>2013-11-24T15:28:13Z</time>
      </trkpt>
      <trkpt lat="48.74193" lon="-3.25863">
        <ele>61.66</ele>
        <time>2013-11-24T15:28:15Z</time>
      </trkpt>
      <trkpt lat="48.74194" lon="-3.25866">
        <ele>61.66</ele>
        <time>2013-11-24T15:28:17Z</time>
      </trkpt>
      <trkpt lat="48.74195" lon="-3.25869">
        <ele>61.66</ele>
        <time>2013-11-24T15:28:19Z</time>
      </trkpt>
      <trkpt lat="48.74195" lon="-3.25872">
        <ele>61.66</ele>
        <time>2013-11-24T15:28:21Z</time>
      </trkpt>
      <trkpt lat="48.74196" lon="-3.25875">
        <ele>61.66</ele>
        <time>2013-11-24T15:28:23Z</time>
      </trkpt>
      <trkpt lat="48.74197" lon="-3.25878">
        <ele>61.66</ele>
        <time>2013-11-24T15:28:25Z</time>
      </trkpt>
      <trkpt lat="48.74198" lon="-3.25882">
        <ele>61.66</ele>
        <time>2013-11-24T15:28:27Z</time>
      </trkpt>
      <trkpt lat="48.74199" lon="-3.25885">
        <ele>61.66</ele>
        <time>2013-11-24T15:28:29Z</time>
      </trkpt>
      <trkpt lat="48.742" lon="-3.25888">
        <ele>61.66</ele>
        <time>2013-11-24T15:28:31Z</time>
      </trkpt>
      <trkpt lat="48.74201" lon="-3.2589">
        <ele>61.66</ele>
        <time>2013-11-24T15:28:33Z</time>
      </trkpt>
      <trkpt lat="48.74203" lon="-3.25893">
        <ele>61.66</ele>
        <time>2013-11-24T15:28:35Z</time>
      </trkpt>
      <trkpt lat="48.74204" lon="-3.25893">
        <ele>61.66</ele>
        <time>2013-11-24T15:28:37Z</time>
      </trkpt>
      <trkpt lat="48.74205" lon="-3.25894">
        <ele>61.18</ele>
        <time>2013-11-24T15:28:39Z</time>
      </trkpt>
      <trkpt lat="48.74205" lon="-3.25895">
        <ele>61.18</ele>
        <time>2013-11-24T15:28:41Z</time>
      </trkpt>
      <trkpt lat="48.74205" lon="-3.25895">
        <ele>61.18</ele>
        <time>2013-11-24T15:28:43Z</time>
      </trkpt>
      <trkpt lat="48.74205" lon="-3.25894">
        <ele>61.18</ele>
        <time>2013-11-24T15:28:45Z</time>
      </trkpt>
      <trkpt lat="48.74205" lon="-3.25894">
        <ele>61.18</ele>
        <time>2013-11-24T15:28:47Z</time>
      </trkpt>
      <trkpt lat="48.74205" lon="-3.25895">
        <ele>61.18</ele>
        <time>2013-11-24T15:28:49Z</time>
      </trkpt>
      <trkpt lat="48.74206" lon="-3.25896">
        <ele>61.18</ele>
        <time>2013-11-24T15:28:51Z</time>
      </trkpt>
      <trkpt lat="48.74206" lon="-3.25898">
        <ele>61.18</ele>
        <time>2013-11-24T15:28:53Z</time>
      </trkpt>
      <trkpt lat="48.74206" lon="-3.259">
        <ele>61.18</ele>
        <time>2013-11-24T15:28:55Z</time>
      </trkpt>
      <trkpt lat="48.74207" lon="-3.25902">
        <ele>61.18</ele>
        <time>2013-11-24T15:28:57Z</time>
      </trkpt>
      <trkpt lat="48.74209" lon="-3.25906">
        <ele>61.18</ele>
        <time>2013-11-24T15:28:59Z</time>
      </trkpt>
      <trkpt lat="48.74209" lon="-3.25909">
        <ele>61.18</ele>
        <time>2013-11-24T15:29:01Z</time>
      </trkpt>
      <trkpt lat="48.74209" lon="-3.25911">
        <ele>61.18</ele>
        <time>2013-11-24T15:29:03Z</time>
      </trkpt>
      <trkpt lat="48.7421" lon="-3.25913">
        <ele>61.18</ele>
        <time>2013-11-24T15:29:05Z</time>
      </trkpt>
      <trkpt lat="48.74211" lon="-3.25916">
        <ele>60.7</ele>
        <time>2013-11-24T15:29:07Z</time>
      </trkpt>
      <trkpt lat="48.74211" lon="-3.25919">
        <ele>60.7</ele>
        <time>2013-11-24T15:29:09Z</time>
      </trkpt>
      <trkpt lat="48.74212" lon="-3.25922">
        <ele>60.7</ele>
        <time>2013-11-24T15:29:11Z</time>
      </trkpt>
      <trkpt lat="48.74213" lon="-3.25926">
        <ele>60.7</ele>
        <time>2013-11-24T15:29:13Z</time>
      </trkpt>
      <trkpt lat="48.74214" lon="-3.25929">
        <ele>60.7</ele>
        <time>2013-11-24T15:29:15Z</time>
      </trkpt>
      <trkpt lat="48.74215" lon="-3.25932">
        <ele>60.7</ele>
        <time>2013-11-24T15:29:17Z</time>
      </trkpt>
      <trkpt lat="48.74216" lon="-3.25935">
        <ele>60.7</ele>
        <time>2013-11-24T15:29:19Z</time>
      </trkpt>
      <trkpt lat="48.74218" lon="-3.25939">
        <ele>60.7</ele>
        <time>2013-11-24T15:29:21Z</time>
      </trkpt>
      <trkpt lat="48.74219" lon="-3.25942">
        <ele>60.7</ele>
        <time>2013-11-24T15:29:23Z</time>
      </trkpt>
      <trkpt lat="48.7422" lon="-3.25946">
        <ele>60.7</ele>
        <time>2013-11-24T15:29:25Z</time>
      </trkpt>
      <trkpt lat="48.74221" lon="-3.25949">
        <ele>60.7</ele>
        <time>2013-11-24T15:29:27Z</time>
      </trkpt>
      <trkpt lat="48.74222" lon="-3.25952">
        <ele>60.7</ele>
        <time>2013-11-24T15:29:29Z</time>
      </trkpt>
      <trkpt lat="48.74223" lon="-3.25956">
        <ele>60.7</ele>
        <time>2013-11-24T15:29:31Z</time>
      </trkpt>
      <trkpt lat="48.74223" lon="-3.25959">
        <ele>60.7</ele>
        <time>2013-11-24T15:29:33Z</time>
      </trkpt>
      <trkpt lat="48.74224" lon="-3.25962">
        <ele>60.7</ele>
        <time>2013-11-24T15:29:35Z</time>
      </trkpt>
      <trkpt lat="48.74225" lon="-3.25965">
        <ele>60.22</ele>
        <time>2013-11-24T15:29:37Z</time>
      </trkpt>
      <trkpt lat="48.74227" lon="-3.25968">
        <ele>60.22</ele>
        <time>2013-11-24T15:29:39Z</time>
      </trkpt>
      <trkpt lat="48.74228" lon="-3.25971">
        <ele>60.22</ele>
        <time>2013-11-24T15:29:41Z</time>
      </trkpt>
      <trkpt lat="48.74229" lon="-3.25974">
        <ele>60.22</ele>
        <time>2013-11-24T15:29:43Z</time>
      </trkpt>
      <trkpt lat="48.7423" lon="-3.25977">
        <ele>60.22</ele>
        <time>2013-11-24T15:29:45Z</time>
      </trkpt>
      <trkpt lat="48.7423" lon="-3.25981">
        <ele>60.22</ele>
        <time>2013-11-24T15:29:47Z</time>
      </trkpt>
      <trkpt lat="48.74231" lon="-3.25984">
        <ele>60.22</ele>
        <time>2013-11-24T15:29:49Z</time>
      </trkpt>
      <trkpt lat="48.74232" lon="-3.25987">
        <ele>60.22</ele>
        <time>2013-11-24T15:29:51Z</time>
      </trkpt>
      <trkpt lat="48.74233" lon="-3.2599">
        <ele>60.22</ele>
        <time>2013-11-24T15:29:53Z</time>
      </trkpt>
      <trkpt lat="48.74234" lon="-3.25993">
        <ele>60.22</ele>
        <time>2013-11-24T15:29:55Z</time>
      </trkpt>
      <trkpt lat="48.74235" lon="-3.25995">
        <ele>60.22</ele>
        <time>2013-11-24T15:29:57Z</time>
      </trkpt>
      <trkpt lat="48.74236" lon="-3.25997">
        <ele>60.22</ele>
        <time>2013-11-24T15:29:59Z</time>
      </trkpt>
      <trkpt lat="48.74237" lon="-3.26">
        <ele>60.22</ele>
        <time>2013-11-24T15:30:01Z</time>
      </trkpt>
      <trkpt lat="48.74238" lon="-3.26003">
        <ele>60.22</ele>
        <time>2013-11-24T15:30:03Z</time>
      </trkpt>
      <trkpt lat="48.74239" lon="-3.26006">
        <ele>60.22</ele>
        <time>2013-11-24T15:30:05Z</time>
      </trkpt>
      <trkpt lat="48.7424" lon="-3.26009">
        <ele>59.74</ele>
        <time>2013-11-24T15:30:07Z</time>
      </trkpt>
      <trkpt lat="48.74241" lon="-3.26012">
        <ele>59.74</ele>
        <time>2013-11-24T15:30:09Z</time>
      </trkpt>
      <trkpt lat="48.74242" lon="-3.26015">
        <ele>59.74</ele>
        <time>2013-11-24T15:30:11Z</time>
      </trkpt>
      <trkpt lat="48.74243" lon="-3.26018">
        <ele>59.74</ele>
        <time>2013-11-24T15:30:13Z</time>
      </trkpt>
      <trkpt lat="48.74244" lon="-3.26021">
        <ele>59.74</ele>
        <time>2013-11-24T15:30:15Z</time>
      </trkpt>
      <trkpt lat="48.74245" lon="-3.26024">
        <ele>59.74</ele>
        <time>2013-11-24T15:30:17Z</time>
      </trkpt>
      <trkpt lat="48.74245" lon="-3.26027">
        <ele>59.74</ele>
        <time>2013-11-24T15:30:19Z</time>
      </trkpt>
      <trkpt lat="48.74246" lon="-3.2603">
        <ele>59.74</ele>
        <time>2013-11-24T15:30:21Z</time>
      </trkpt>
      <trkpt lat="48.74247" lon="-3.26033">
        <ele>60.22</ele>
        <time>2013-11-24T15:30:23Z</time>
      </trkpt>
      <trkpt lat="48.74248" lon="-3.26036">
        <ele>60.22</ele>
        <time>2013-11-24T15:30:25Z</time>
      </trkpt>
      <trkpt lat="48.74249" lon="-3.26039">
        <ele>60.22</ele>
        <time>2013-11-24T15:30:27Z</time>
      </trkpt>
      <trkpt lat="48.7425" lon="-3.26042">
        <ele>60.22</ele>
        <time>2013-11-24T15:30:29Z</time>
      </trkpt>
      <trkpt lat="48.74251" lon="-3.26045">
        <ele>60.22</ele>
        <time>2013-11-24T15:30:31Z</time>
      </trkpt>
      <trkpt lat="48.74251" lon="-3.26048">
        <ele>59.74</ele>
        <time>2013-11-24T15:30:33Z</time>
      </trkpt>
      <trkpt lat="48.74252" lon="-3.26051">
        <ele>59.74</ele>
        <time>2013-11-24T15:30:35Z</time>
      </trkpt>
      <trkpt lat="48.74253" lon="-3.26053">
        <ele>59.74</ele>
        <time>2013-11-24T15:30:37Z</time>
      </trkpt>
      <trkpt lat="48.74254" lon="-3.26056">
        <ele>59.74</ele>
        <time>2013-11-24T15:30:39Z</time>
      </trkpt>
      <trkpt lat="48.74254" lon="-3.26059">
        <ele>59.74</ele>
        <time>2013-11-24T15:30:41Z</time>
      </trkpt>
      <trkpt lat="48.74255" lon="-3.26062">
        <ele>59.74</ele>
        <time>2013-11-24T15:30:43Z</time>
      </trkpt>
      <trkpt lat="48.74257" lon="-3.26064">
        <ele>59.74</ele>
        <time>2013-11-24T15:30:45Z</time>
      </trkpt>
      <trkpt lat="48.74259" lon="-3.26066">
        <ele>59.74</ele>
        <time>2013-11-24T15:30:47Z</time>
      </trkpt>
      <trkpt lat="48.7426" lon="-3.26067">
        <ele>59.74</ele>
        <time>2013-11-24T15:30:49Z</time>
      </trkpt>
      <trkpt lat="48.74262" lon="-3.26067">
        <ele>59.74</ele>
        <time>2013-11-24T15:30:51Z</time>
      </trkpt>
      <trkpt lat="48.74264" lon="-3.26068">
        <ele>59.74</ele>
        <time>2013-11-24T15:30:53Z</time>
      </trkpt>
      <trkpt lat="48.74266" lon="-3.26068">
        <ele>59.74</ele>
        <time>2013-11-24T15:30:55Z</time>
      </trkpt>
      <trkpt lat="48.74268" lon="-3.26068">
        <ele>59.74</ele>
        <time>2013-11-24T15:30:57Z</time>
      </trkpt>
      <trkpt lat="48.7427" lon="-3.26068">
        <ele>59.74</ele>
        <time>2013-11-24T15:30:59Z</time>
      </trkpt>
      <trkpt lat="48.74272" lon="-3.26067">
        <ele>59.26</ele>
        <time>2013-11-24T15:31:01Z</time>
      </trkpt>
      <trkpt lat="48.74275" lon="-3.26067">
        <ele>59.26</ele>
        <time>2013-11-24T15:31:03Z</time>
      </trkpt>
      <trkpt lat="48.74277" lon="-3.26067">
        <ele>59.26</ele>
        <time>2013-11-24T15:31:05Z</time>
      </trkpt>
      <trkpt lat="48.74279" lon="-3.26067">
        <ele>59.26</ele>
        <time>2013-11-24T15:31:07Z</time>
      </trkpt>
      <trkpt lat="48.74281" lon="-3.26067">
        <ele>59.26</ele>
        <time>2013-11-24T15:31:09Z</time>
      </trkpt>
      <trkpt lat="48.74284" lon="-3.26066">
        <ele>59.26</ele>
        <time>2013-11-24T15:31:11Z</time>
      </trkpt>
      <trkpt lat="48.74286" lon="-3.26065">
        <ele>59.26</ele>
        <time>2013-11-24T15:31:13Z</time>
      </trkpt>
      <trkpt lat="48.74289" lon="-3.26064">
        <ele>59.26</ele>
        <time>2013-11-24T15:31:15Z</time>
      </trkpt>
      <trkpt lat="48.74291" lon="-3.26063">
        <ele>59.26</ele>
        <time>2013-11-24T15:31:17Z</time>
      </trkpt>
      <trkpt lat="48.74294" lon="-3.26062">
        <ele>59.26</ele>
        <time>2013-11-24T15:31:19Z</time>
      </trkpt>
      <trkpt lat="48.74296" lon="-3.26061">
        <ele>59.26</ele>
        <time>2013-11-24T15:31:21Z</time>
      </trkpt>
      <trkpt lat="48.74298" lon="-3.26061">
        <ele>59.26</ele>
        <time>2013-11-24T15:31:23Z</time>
      </trkpt>
      <trkpt lat="48.743" lon="-3.2606">
        <ele>59.26</ele>
        <time>2013-11-24T15:31:25Z</time>
      </trkpt>
      <trkpt lat="48.74302" lon="-3.26059">
        <ele>59.26</ele>
        <time>2013-11-24T15:31:27Z</time>
      </trkpt>
      <trkpt lat="48.74304" lon="-3.26058">
        <ele>59.26</ele>
        <time>2013-11-24T15:31:29Z</time>
      </trkpt>
      <trkpt lat="48.74305" lon="-3.26057">
        <ele>58.78</ele>
        <time>2013-11-24T15:31:31Z</time>
      </trkpt>
      <trkpt lat="48.74307" lon="-3.26057">
        <ele>58.78</ele>
        <time>2013-11-24T15:31:33Z</time>
      </trkpt>
      <trkpt lat="48.74309" lon="-3.26056">
        <ele>58.78</ele>
        <time>2013-11-24T15:31:35Z</time>
      </trkpt>
      <trkpt lat="48.74311" lon="-3.26054">
        <ele>58.78</ele>
        <time>2013-11-24T15:31:37Z</time>
      </trkpt>
      <trkpt lat="48.74313" lon="-3.26054">
        <ele>58.78</ele>
        <time>2013-11-24T15:31:39Z</time>
      </trkpt>
      <trkpt lat="48.74315" lon="-3.26053">
        <ele>58.78</ele>
        <time>2013-11-24T15:31:41Z</time>
      </trkpt>
      <trkpt lat="48.74317" lon="-3.26052">
        <ele>58.78</ele>
        <time>2013-11-24T15:31:43Z</time>
      </trkpt>
      <trkpt lat="48.74318" lon="-3.26052">
        <ele>58.78</ele>
        <time>2013-11-24T15:31:45Z</time>
      </trkpt>
      <trkpt lat="48.7432" lon="-3.26051">
        <ele>58.78</ele>
        <time>2013-11-24T15:31:47Z</time>
      </trkpt>
      <trkpt lat="48.74322" lon="-3.2605">
        <ele>58.78</ele>
        <time>2013-11-24T15:31:49Z</time>
      </trkpt>
      <trkpt lat="48.74325" lon="-3.2605">
        <ele>58.78</ele>
        <time>2013-11-24T15:31:51Z</time>
      </trkpt>
      <trkpt lat="48.74327" lon="-3.26049">
        <ele>58.78</ele>
        <time>2013-11-24T15:31:53Z</time>
      </trkpt>
      <trkpt lat="48.74329" lon="-3.26048">
        <ele>58.78</ele>
        <time>2013-11-24T15:31:55Z</time>
      </trkpt>
      <trkpt lat="48.74331" lon="-3.26046">
        <ele>58.3</ele>
        <time>2013-11-24T15:31:57Z</time>
      </trkpt>
      <trkpt lat="48.74333" lon="-3.26046">
        <ele>58.3</ele>
        <time>2013-11-24T15:31:59Z</time>
      </trkpt>
      <trkpt lat="48.74335" lon="-3.26045">
        <ele>58.3</ele>
        <time>2013-11-24T15:32:01Z</time>
      </trkpt>
      <trkpt lat="48.74337" lon="-3.26044">
        <ele>58.3</ele>
        <time>2013-11-24T15:32:03Z</time>
      </trkpt>
      <trkpt lat="48.74339" lon="-3.26043">
        <ele>58.3</ele>
        <time>2013-11-24T15:32:05Z</time>
      </trkpt>
      <trkpt lat="48.74341" lon="-3.26042">
        <ele>58.3</ele>
        <time>2013-11-24T15:32:07Z</time>
      </trkpt>
      <trkpt lat="48.74343" lon="-3.26042">
        <ele>58.3</ele>
        <time>2013-11-24T15:32:09Z</time>
      </trkpt>
      <trkpt lat="48.74345" lon="-3.26041">
        <ele>58.3</ele>
        <time>2013-11-24T15:32:11Z</time>
      </trkpt>
      <trkpt lat="48.74347" lon="-3.2604">
        <ele>58.3</ele>
        <time>2013-11-24T15:32:13Z</time>
      </trkpt>
      <trkpt lat="48.74349" lon="-3.2604">
        <ele>58.3</ele>
        <time>2013-11-24T15:32:15Z</time>
      </trkpt>
      <trkpt lat="48.74351" lon="-3.26039">
        <ele>58.3</ele>
        <time>2013-11-24T15:32:17Z</time>
      </trkpt>
      <trkpt lat="48.74353" lon="-3.26038">
        <ele>58.3</ele>
        <time>2013-11-24T15:32:19Z</time>
      </trkpt>
      <trkpt lat="48.74355" lon="-3.26038">
        <ele>58.3</ele>
        <time>2013-11-24T15:32:21Z</time>
      </trkpt>
      <trkpt lat="48.74357" lon="-3.26037">
        <ele>57.82</ele>
        <time>2013-11-24T15:32:23Z</time>
      </trkpt>
      <trkpt lat="48.74359" lon="-3.26036">
        <ele>57.82</ele>
        <time>2013-11-24T15:32:25Z</time>
      </trkpt>
      <trkpt lat="48.74361" lon="-3.26036">
        <ele>57.82</ele>
        <time>2013-11-24T15:32:27Z</time>
      </trkpt>
      <trkpt lat="48.74363" lon="-3.26035">
        <ele>57.82</ele>
        <time>2013-11-24T15:32:29Z</time>
      </trkpt>
      <trkpt lat="48.74365" lon="-3.26035">
        <ele>57.82</ele>
        <time>2013-11-24T15:32:31Z</time>
      </trkpt>
      <trkpt lat="48.74367" lon="-3.26035">
        <ele>57.82</ele>
        <time>2013-11-24T15:32:33Z</time>
      </trkpt>
      <trkpt lat="48.74369" lon="-3.26034">
        <ele>57.82</ele>
        <time>2013-11-24T15:32:35Z</time>
      </trkpt>
      <trkpt lat="48.7437" lon="-3.26034">
        <ele>57.82</ele>
        <time>2013-11-24T15:32:37Z</time>
      </trkpt>
      <trkpt lat="48.7437" lon="-3.26034">
        <ele>57.82</ele>
        <time>2013-11-24T15:32:39Z</time>
      </trkpt>
      <trkpt lat="48.74371" lon="-3.26034">
        <ele>57.82</ele>
        <time>2013-11-24T15:32:41Z</time>
      </trkpt>
      <trkpt lat="48.74372" lon="-3.26034">
        <ele>57.82</ele>
        <time>2013-11-24T15:32:43Z</time>
      </trkpt>
      <trkpt lat="48.74373" lon="-3.26035">
        <ele>57.34</ele>
        <time>2013-11-24T15:32:45Z</time>
      </trkpt>
      <trkpt lat="48.74374" lon="-3.26035">
        <ele>57.34</ele>
        <time>2013-11-24T15:32:47Z</time>
      </trkpt>
      <trkpt lat="48.74375" lon="-3.26036">
        <ele>57.34</ele>
        <time>2013-11-24T15:32:49Z</time>
      </trkpt>
      <trkpt lat="48.74376" lon="-3.26036">
        <ele>57.34</ele>
        <time>2013-11-24T15:32:51Z</time>
      </trkpt>
      <trkpt lat="48.74376" lon="-3.26038">
        <ele>57.34</ele>
        <time>2013-11-24T15:32:53Z</time>
      </trkpt>
      <trkpt lat="48.74377" lon="-3.26041">
        <ele>57.34</ele>
        <time>2013-11-24T15:32:55Z</time>
      </trkpt>
      <trkpt lat="48.74378" lon="-3.26043">
        <ele>57.34</ele>
        <time>2013-11-24T15:32:57Z</time>
      </trkpt>
      <trkpt lat="48.74378" lon="-3.26047">
        <ele>57.34</ele>
        <time>2013-11-24T15:32:59Z</time>
      </trkpt>
      <trkpt lat="48.74378" lon="-3.2605">
        <ele>57.34</ele>
        <time>2013-11-24T15:33:01Z</time>
      </trkpt>
      <trkpt lat="48.74377" lon="-3.26053">
        <ele>57.34</ele>
        <time>2013-11-24T15:33:03Z</time>
      </trkpt>
      <trkpt lat="48.74377" lon="-3.26054">
        <ele>57.34</ele>
        <time>2013-11-24T15:33:05Z</time>
      </trkpt>
      <trkpt lat="48.74377" lon="-3.26057">
        <ele>57.34</ele>
        <time>2013-11-24T15:33:07Z</time>
      </trkpt>
      <trkpt lat="48.74376" lon="-3.26059">
        <ele>56.86</ele>
        <time>2013-11-24T15:33:09Z</time>
      </trkpt>
      <trkpt lat="48.74375" lon="-3.26062">
        <ele>56.86</ele>
        <time>2013-11-24T15:33:11Z</time>
      </trkpt>
      <trkpt lat="48.74375" lon="-3.26065">
        <ele>56.86</ele>
        <time>2013-11-24T15:33:13Z</time>
      </trkpt>
      <trkpt lat="48.74375" lon="-3.26069">
        <ele>56.86</ele>
        <time>2013-11-24T15:33:15Z</time>
      </trkpt>
      <trkpt lat="48.74375" lon="-3.26073">
        <ele>56.86</ele>
        <time>2013-11-24T15:33:17Z</time>
      </trkpt>
      <trkpt lat="48.74375" lon="-3.26077">
        <ele>56.86</ele>
        <time>2013-11-24T15:33:19Z</time>
      </trkpt>
      <trkpt lat="48.74376" lon="-3.2608">
        <ele>56.86</ele>
        <time>2013-11-24T15:33:21Z</time>
      </trkpt>
      <trkpt lat="48.74377" lon="-3.26082">
        <ele>56.86</ele>
        <time>2013-11-24T15:33:23Z</time>
      </trkpt>
      <trkpt lat="48.74378" lon="-3.26084">
        <ele>56.86</ele>
        <time>2013-11-24T15:33:25Z</time>
      </trkpt>
      <trkpt lat="48.7438" lon="-3.26087">
        <ele>56.86</ele>
        <time>2013-11-24T15:33:27Z</time>
      </trkpt>
      <trkpt lat="48.74381" lon="-3.26087">
        <ele>56.86</ele>
        <time>2013-11-24T15:33:29Z</time>
      </trkpt>
      <trkpt lat="48.74382" lon="-3.26087">
        <ele>56.86</ele>
        <time>2013-11-24T15:33:31Z</time>
      </trkpt>
      <trkpt lat="48.74383" lon="-3.26087">
        <ele>56.37</ele>
        <time>2013-11-24T15:33:33Z</time>
      </trkpt>
      <trkpt lat="48.74383" lon="-3.26087">
        <ele>56.37</ele>
        <time>2013-11-24T15:33:35Z</time>
      </trkpt>
      <trkpt lat="48.74384" lon="-3.26087">
        <ele>56.37</ele>
        <time>2013-11-24T15:33:37Z</time>
      </trkpt>
      <trkpt lat="48.74384" lon="-3.26086">
        <ele>56.37</ele>
        <time>2013-11-24T15:33:39Z</time>
      </trkpt>
      <trkpt lat="48.74384" lon="-3.26087">
        <ele>56.37</ele>
        <time>2013-11-24T15:33:41Z</time>
      </trkpt>
      <trkpt lat="48.74385" lon="-3.26089">
        <ele>56.37</ele>
        <time>2013-11-24T15:33:43Z</time>
      </trkpt>
      <trkpt lat="48.74386" lon="-3.26089">
        <ele>56.37</ele>
        <time>2013-11-24T15:33:45Z</time>
      </trkpt>
      <trkpt lat="48.74388" lon="-3.26088">
        <ele>56.37</ele>
        <time>2013-11-24T15:33:47Z</time>
      </trkpt>
      <trkpt lat="48.7439" lon="-3.26088">
        <ele>56.37</ele>
        <time>2013-11-24T15:33:49Z</time>
      </trkpt>
      <trkpt lat="48.74391" lon="-3.26088">
        <ele>56.37</ele>
        <time>2013-11-24T15:33:51Z</time>
      </trkpt>
      <trkpt lat="48.74393" lon="-3.26088">
        <ele>56.37</ele>
        <time>2013-11-24T15:33:53Z</time>
      </trkpt>
      <trkpt lat="48.74394" lon="-3.26088">
        <ele>56.37</ele>
        <time>2013-11-24T15:33:55Z</time>
      </trkpt>
      <trkpt lat="48.74394" lon="-3.26088">
        <ele>56.37</ele>
        <time>2013-11-24T15:33:57Z</time>
      </trkpt>
      <trkpt lat="48.74395" lon="-3.26088">
        <ele>55.89</ele>
        <time>2013-11-24T15:33:59Z</time>
      </trkpt>
      <trkpt lat="48.74396" lon="-3.26089">
        <ele>55.89</ele>
        <time>2013-11-24T15:34:01Z</time>
      </trkpt>
      <trkpt lat="48.74398" lon="-3.26088">
        <ele>55.89</ele>
        <time>2013-11-24T15:34:03Z</time>
      </trkpt>
      <trkpt lat="48.74399" lon="-3.26088">
        <ele>55.89</ele>
        <time>2013-11-24T15:34:05Z</time>
      </trkpt>
      <trkpt lat="48.744" lon="-3.26088">
        <ele>55.89</ele>
        <time>2013-11-24T15:34:07Z</time>
      </trkpt>
      <trkpt lat="48.74401" lon="-3.26088">
        <ele>55.89</ele>
        <time>2013-11-24T15:34:09Z</time>
      </trkpt>
      <trkpt lat="48.74403" lon="-3.26088">
        <ele>55.89</ele>
        <time>2013-11-24T15:34:11Z</time>
      </trkpt>
      <trkpt lat="48.74404" lon="-3.26089">
        <ele>55.89</ele>
        <time>2013-11-24T15:34:13Z</time>
      </trkpt>
      <trkpt lat="48.74406" lon="-3.26089">
        <ele>55.89</ele>
        <time>2013-11-24T15:34:15Z</time>
      </trkpt>
      <trkpt lat="48.74407" lon="-3.26089">
        <ele>55.89</ele>
        <time>2013-11-24T15:34:17Z</time>
      </trkpt>
      <trkpt lat="48.74409" lon="-3.26089">
        <ele>55.89</ele>
        <time>2013-11-24T15:34:19Z</time>
      </trkpt>
      <trkpt lat="48.7441" lon="-3.26088">
        <ele>55.41</ele>
        <time>2013-11-24T15:34:21Z</time>
      </trkpt>
      <trkpt lat="48.74411" lon="-3.26087">
        <ele>55.41</ele>
        <time>2013-11-24T15:34:23Z</time>
      </trkpt>
      <trkpt lat="48.74413" lon="-3.26086">
        <ele>55.41</ele>
        <time>2013-11-24T15:34:25Z</time>
      </trkpt>
      <trkpt lat="48.74414" lon="-3.26085">
        <ele>55.41</ele>
        <time>2013-11-24T15:34:27Z</time>
      </trkpt>
      <trkpt lat="48.74415" lon="-3.26084">
        <ele>55.41</ele>
        <time>2013-11-24T15:34:29Z</time>
      </trkpt>
      <trkpt lat="48.74415" lon="-3.26084">
        <ele>55.41</ele>
        <time>2013-11-24T15:34:31Z</time>
      </trkpt>
      <trkpt lat="48.74415" lon="-3.26084">
        <ele>55.41</ele>
        <time>2013-11-24T15:34:33Z</time>
      </trkpt>
      <trkpt lat="48.74415" lon="-3.26084">
        <ele>55.41</ele>
        <time>2013-11-24T15:34:35Z</time>
      </trkpt>
      <trkpt lat="48.74416" lon="-3.26084">
        <ele>55.41</ele>
        <time>2013-11-24T15:34:37Z</time>
      </trkpt>
      <trkpt lat="48.74416" lon="-3.26083">
        <ele>55.41</ele>
        <time>2013-11-24T15:34:39Z</time>
      </trkpt>
      <trkpt lat="48.74417" lon="-3.26083">
        <ele>55.41</ele>
        <time>2013-11-24T15:34:41Z</time>
      </trkpt>
      <trkpt lat="48.74418" lon="-3.26083">
        <ele>54.93</ele>
        <time>2013-11-24T15:34:43Z</time>
      </trkpt>
      <trkpt lat="48.74419" lon="-3.26082">
        <ele>54.93</ele>
        <time>2013-11-24T15:34:45Z</time>
      </trkpt>
      <trkpt lat="48.74419" lon="-3.26081">
        <ele>54.93</ele>
        <time>2013-11-24T15:34:47Z</time>
      </trkpt>
      <trkpt lat="48.7442" lon="-3.26081">
        <ele>54.93</ele>
        <time>2013-11-24T15:34:49Z</time>
      </trkpt>
      <trkpt lat="48.74421" lon="-3.2608">
        <ele>54.93</ele>
        <time>2013-11-24T15:34:51Z</time>
      </trkpt>
      <trkpt lat="48.74423" lon="-3.26079">
        <ele>54.93</ele>
        <time>2013-11-24T15:34:53Z</time>
      </trkpt>
      <trkpt lat="48.74424" lon="-3.26079">
        <ele>54.93</ele>
        <time>2013-11-24T15:34:55Z</time>
      </trkpt>
      <trkpt lat="48.74425" lon="-3.26078">
        <ele>54.93</ele>
        <time>2013-11-24T15:34:57Z</time>
      </trkpt>
      <trkpt lat="48.74426" lon="-3.26077">
        <ele>54.93</ele>
        <time>2013-11-24T15:34:59Z</time>
      </trkpt>
      <trkpt lat="48.74428" lon="-3.26076">
        <ele>54.93</ele>
        <time>2013-11-24T15:35:01Z</time>
      </trkpt>
      <trkpt lat="48.74429" lon="-3.26075">
        <ele>54.93</ele>
        <time>2013-11-24T15:35:03Z</time>
      </trkpt>
      <trkpt lat="48.7443" lon="-3.26074">
        <ele>54.93</ele>
        <time>2013-11-24T15:35:05Z</time>
      </trkpt>
      <trkpt lat="48.74431" lon="-3.26073">
        <ele>54.45</ele>
        <time>2013-11-24T15:35:07Z</time>
      </trkpt>
      <trkpt lat="48.74432" lon="-3.26073">
        <ele>54.45</ele>
        <time>2013-11-24T15:35:09Z</time>
      </trkpt>
      <trkpt lat="48.74433" lon="-3.26072">
        <ele>54.45</ele>
        <time>2013-11-24T15:35:11Z</time>
      </trkpt>
      <trkpt lat="48.74434" lon="-3.26072">
        <ele>54.45</ele>
        <time>2013-11-24T15:35:13Z</time>
      </trkpt>
      <trkpt lat="48.74435" lon="-3.26071">
        <ele>54.45</ele>
        <time>2013-11-24T15:35:15Z</time>
      </trkpt>
      <trkpt lat="48.74436" lon="-3.2607">
        <ele>54.45</ele>
        <time>2013-11-24T15:35:17Z</time>
      </trkpt>
      <trkpt lat="48.74437" lon="-3.26069">
        <ele>54.45</ele>
        <time>2013-11-24T15:35:19Z</time>
      </trkpt>
      <trkpt lat="48.74439" lon="-3.26068">
        <ele>54.45</ele>
        <time>2013-11-24T15:35:21Z</time>
      </trkpt>
      <trkpt lat="48.7444" lon="-3.26068">
        <ele>54.45</ele>
        <time>2013-11-24T15:35:23Z</time>
      </trkpt>
      <trkpt lat="48.74442" lon="-3.26067">
        <ele>54.45</ele>
        <time>2013-11-24T15:35:25Z</time>
      </trkpt>
      <trkpt lat="48.74443" lon="-3.26066">
        <ele>54.45</ele>
        <time>2013-11-24T15:35:27Z</time>
      </trkpt>
      <trkpt lat="48.74445" lon="-3.26065">
        <ele>54.45</ele>
        <time>2013-11-24T15:35:29Z</time>
      </trkpt>
      <trkpt lat="48.74446" lon="-3.26064">
        <ele>53.97</ele>
        <time>2013-11-24T15:35:31Z</time>
      </trkpt>
      <trkpt lat="48.74448" lon="-3.26063">
        <ele>53.97</ele>
        <time>2013-11-24T15:35:33Z</time>
      </trkpt>
      <trkpt lat="48.74449" lon="-3.26062">
        <ele>53.97</ele>
        <time>2013-11-24T15:35:35Z</time>
      </trkpt>
      <trkpt lat="48.74451" lon="-3.26062">
        <ele>53.97</ele>
        <time>2013-11-24T15:35:37Z</time>
      </trkpt>
      <trkpt lat="48.74452" lon="-3.26061">
        <ele>53.97</ele>
        <time>2013-11-24T15:35:39Z</time>
      </trkpt>
      <trkpt lat="48.74453" lon="-3.26061">
        <ele>53.97</ele>
        <time>2013-11-24T15:35:41Z</time>
      </trkpt>
      <trkpt lat="48.74455" lon="-3.2606">
        <ele>53.97</ele>
        <time>2013-11-24T15:35:43Z</time>
      </trkpt>
      <trkpt lat="48.74457" lon="-3.26059">
        <ele>53.97</ele>
        <time>2013-11-24T15:35:45Z</time>
      </trkpt>
      <trkpt lat="48.74458" lon="-3.26058">
        <ele>53.97</ele>
        <time>2013-11-24T15:35:47Z</time>
      </trkpt>
      <trkpt lat="48.7446" lon="-3.26058">
        <ele>53.97</ele>
        <time>2013-11-24T15:35:49Z</time>
      </trkpt>
      <trkpt lat="48.74461" lon="-3.26057">
        <ele>53.97</ele>
        <time>2013-11-24T15:35:51Z</time>
      </trkpt>
      <trkpt lat="48.74462" lon="-3.26056">
        <ele>52.53</ele>
        <time>2013-11-24T15:35:53Z</time>
      </trkpt>
      <trkpt lat="48.74463" lon="-3.26055">
        <ele>52.53</ele>
        <time>2013-11-24T15:35:55Z</time>
      </trkpt>
      <trkpt lat="48.74464" lon="-3.26054">
        <ele>52.53</ele>
        <time>2013-11-24T15:35:57Z</time>
      </trkpt>
      <trkpt lat="48.74466" lon="-3.26053">
        <ele>52.53</ele>
        <time>2013-11-24T15:35:59Z</time>
      </trkpt>
      <trkpt lat="48.74468" lon="-3.26052">
        <ele>52.53</ele>
        <time>2013-11-24T15:36:01Z</time>
      </trkpt>
      <trkpt lat="48.74469" lon="-3.26052">
        <ele>52.53</ele>
        <time>2013-11-24T15:36:03Z</time>
      </trkpt>
      <trkpt lat="48.74471" lon="-3.26051">
        <ele>52.53</ele>
        <time>2013-11-24T15:36:05Z</time>
      </trkpt>
      <trkpt lat="48.74472" lon="-3.2605">
        <ele>52.53</ele>
        <time>2013-11-24T15:36:07Z</time>
      </trkpt>
      <trkpt lat="48.74474" lon="-3.26049">
        <ele>52.05</ele>
        <time>2013-11-24T15:36:09Z</time>
      </trkpt>
      <trkpt lat="48.74476" lon="-3.26048">
        <ele>52.05</ele>
        <time>2013-11-24T15:36:11Z</time>
      </trkpt>
      <trkpt lat="48.74477" lon="-3.26047">
        <ele>52.05</ele>
        <time>2013-11-24T15:36:13Z</time>
      </trkpt>
      <trkpt lat="48.74479" lon="-3.26046">
        <ele>52.05</ele>
        <time>2013-11-24T15:36:15Z</time>
      </trkpt>
      <trkpt lat="48.74481" lon="-3.26045">
        <ele>52.05</ele>
        <time>2013-11-24T15:36:17Z</time>
      </trkpt>
      <trkpt lat="48.74483" lon="-3.26044">
        <ele>52.05</ele>
        <time>2013-11-24T15:36:19Z</time>
      </trkpt>
      <trkpt lat="48.74484" lon="-3.26044">
        <ele>52.05</ele>
        <time>2013-11-24T15:36:21Z</time>
      </trkpt>
      <trkpt lat="48.74486" lon="-3.26043">
        <ele>52.05</ele>
        <time>2013-11-24T15:36:23Z</time>
      </trkpt>
      <trkpt lat="48.74488" lon="-3.26042">
        <ele>52.05</ele>
        <time>2013-11-24T15:36:25Z</time>
      </trkpt>
      <trkpt lat="48.74489" lon="-3.26041">
        <ele>52.05</ele>
        <time>2013-11-24T15:36:27Z</time>
      </trkpt>
      <trkpt lat="48.74491" lon="-3.26041">
        <ele>52.05</ele>
        <time>2013-11-24T15:36:29Z</time>
      </trkpt>
      <trkpt lat="48.74493" lon="-3.2604">
        <ele>52.05</ele>
        <time>2013-11-24T15:36:31Z</time>
      </trkpt>
      <trkpt lat="48.74495" lon="-3.26039">
        <ele>51.57</ele>
        <time>2013-11-24T15:36:33Z</time>
      </trkpt>
      <trkpt lat="48.74496" lon="-3.26038">
        <ele>51.09</ele>
        <time>2013-11-24T15:36:35Z</time>
      </trkpt>
      <trkpt lat="48.74498" lon="-3.26036">
        <ele>51.09</ele>
        <time>2013-11-24T15:36:37Z</time>
      </trkpt>
      <trkpt lat="48.745" lon="-3.26035">
        <ele>51.09</ele>
        <time>2013-11-24T15:36:39Z</time>
      </trkpt>
      <trkpt lat="48.74501" lon="-3.26034">
        <ele>51.09</ele>
        <time>2013-11-24T15:36:41Z</time>
      </trkpt>
      <trkpt lat="48.74503" lon="-3.26033">
        <ele>51.09</ele>
        <time>2013-11-24T15:36:43Z</time>
      </trkpt>
      <trkpt lat="48.74504" lon="-3.26032">
        <ele>51.09</ele>
        <time>2013-11-24T15:36:45Z</time>
      </trkpt>
      <trkpt lat="48.74506" lon="-3.26031">
        <ele>51.09</ele>
        <time>2013-11-24T15:36:47Z</time>
      </trkpt>
      <trkpt lat="48.74508" lon="-3.26029">
        <ele>51.09</ele>
        <time>2013-11-24T15:36:49Z</time>
      </trkpt>
      <trkpt lat="48.74509" lon="-3.26028">
        <ele>51.09</ele>
        <time>2013-11-24T15:36:51Z</time>
      </trkpt>
      <trkpt lat="48.74511" lon="-3.26027">
        <ele>51.09</ele>
        <time>2013-11-24T15:36:53Z</time>
      </trkpt>
      <trkpt lat="48.74513" lon="-3.26026">
        <ele>51.09</ele>
        <time>2013-11-24T15:36:55Z</time>
      </trkpt>
      <trkpt lat="48.74515" lon="-3.26025">
        <ele>51.09</ele>
        <time>2013-11-24T15:36:57Z</time>
      </trkpt>
      <trkpt lat="48.74517" lon="-3.26024">
        <ele>50.61</ele>
        <time>2013-11-24T15:36:59Z</time>
      </trkpt>
      <trkpt lat="48.74518" lon="-3.26024">
        <ele>50.61</ele>
        <time>2013-11-24T15:37:01Z</time>
      </trkpt>
      <trkpt lat="48.7452" lon="-3.26023">
        <ele>50.61</ele>
        <time>2013-11-24T15:37:03Z</time>
      </trkpt>
      <trkpt lat="48.74521" lon="-3.26022">
        <ele>50.61</ele>
        <time>2013-11-24T15:37:05Z</time>
      </trkpt>
      <trkpt lat="48.74523" lon="-3.26022">
        <ele>50.61</ele>
        <time>2013-11-24T15:37:07Z</time>
      </trkpt>
      <trkpt lat="48.74523" lon="-3.26022">
        <ele>50.61</ele>
        <time>2013-11-24T15:37:09Z</time>
      </trkpt>
      <trkpt lat="48.74524" lon="-3.26021">
        <ele>50.61</ele>
        <time>2013-11-24T15:37:11Z</time>
      </trkpt>
      <trkpt lat="48.74524" lon="-3.26021">
        <ele>50.61</ele>
        <time>2013-11-24T15:37:13Z</time>
      </trkpt>
      <trkpt lat="48.74525" lon="-3.26022">
        <ele>50.61</ele>
        <time>2013-11-24T15:37:15Z</time>
      </trkpt>
      <trkpt lat="48.74525" lon="-3.26022">
        <ele>50.61</ele>
        <time>2013-11-24T15:37:17Z</time>
      </trkpt>
      <trkpt lat="48.74526" lon="-3.26021">
        <ele>50.61</ele>
        <time>2013-11-24T15:37:19Z</time>
      </trkpt>
      <trkpt lat="48.74528" lon="-3.26021">
        <ele>50.61</ele>
        <time>2013-11-24T15:37:21Z</time>
      </trkpt>
      <trkpt lat="48.74529" lon="-3.26021">
        <ele>50.13</ele>
        <time>2013-11-24T15:37:23Z</time>
      </trkpt>
      <trkpt lat="48.7453" lon="-3.2602">
        <ele>50.13</ele>
        <time>2013-11-24T15:37:25Z</time>
      </trkpt>
      <trkpt lat="48.74532" lon="-3.2602">
        <ele>49.65</ele>
        <time>2013-11-24T15:37:27Z</time>
      </trkpt>
      <trkpt lat="48.74533" lon="-3.26019">
        <ele>49.65</ele>
        <time>2013-11-24T15:37:29Z</time>
      </trkpt>
      <trkpt lat="48.74535" lon="-3.26019">
        <ele>49.65</ele>
        <time>2013-11-24T15:37:31Z</time>
      </trkpt>
      <trkpt lat="48.74537" lon="-3.26018">
        <ele>49.65</ele>
        <time>2013-11-24T15:37:33Z</time>
      </trkpt>
      <trkpt lat="48.74538" lon="-3.26018">
        <ele>49.65</ele>
        <time>2013-11-24T15:37:35Z</time>
      </trkpt>
      <trkpt lat="48.7454" lon="-3.26018">
        <ele>49.65</ele>
        <time>2013-11-24T15:37:37Z</time>
      </trkpt>
      <trkpt lat="48.74541" lon="-3.26017">
        <ele>49.65</ele>
        <time>2013-11-24T15:37:39Z</time>
      </trkpt>
      <trkpt lat="48.74543" lon="-3.26017">
        <ele>49.65</ele>
        <time>2013-11-24T15:37:41Z</time>
      </trkpt>
      <trkpt lat="48.74544" lon="-3.26017">
        <ele>49.65</ele>
        <time>2013-11-24T15:37:43Z</time>
      </trkpt>
      <trkpt lat="48.74546" lon="-3.26017">
        <ele>49.65</ele>
        <time>2013-11-24T15:37:45Z</time>
      </trkpt>
      <trkpt lat="48.74548" lon="-3.26016">
        <ele>49.65</ele>
        <time>2013-11-24T15:37:47Z</time>
      </trkpt>
      <trkpt lat="48.74549" lon="-3.26016">
        <ele>49.16</ele>
        <time>2013-11-24T15:37:49Z</time>
      </trkpt>
      <trkpt lat="48.74551" lon="-3.26016">
        <ele>49.16</ele>
        <time>2013-11-24T15:37:51Z</time>
      </trkpt>
      <trkpt lat="48.74553" lon="-3.26016">
        <ele>49.16</ele>
        <time>2013-11-24T15:37:53Z</time>
      </trkpt>
      <trkpt lat="48.74554" lon="-3.26015">
        <ele>49.16</ele>
        <time>2013-11-24T15:37:55Z</time>
      </trkpt>
      <trkpt lat="48.74554" lon="-3.26016">
        <ele>49.16</ele>
        <time>2013-11-24T15:37:57Z</time>
      </trkpt>
      <trkpt lat="48.74555" lon="-3.26016">
        <ele>49.16</ele>
        <time>2013-11-24T15:37:59Z</time>
      </trkpt>
      <trkpt lat="48.74555" lon="-3.26016">
        <ele>49.16</ele>
        <time>2013-11-24T15:38:01Z</time>
      </trkpt>
      <trkpt lat="48.74557" lon="-3.26016">
        <ele>49.16</ele>
        <time>2013-11-24T15:38:03Z</time>
      </trkpt>
      <trkpt lat="48.74558" lon="-3.26015">
        <ele>49.16</ele>
        <time>2013-11-24T15:38:05Z</time>
      </trkpt>
      <trkpt lat="48.7456" lon="-3.26014">
        <ele>49.16</ele>
        <time>2013-11-24T15:38:07Z</time>
      </trkpt>
      <trkpt lat="48.74562" lon="-3.26013">
        <ele>49.16</ele>
        <time>2013-11-24T15:38:09Z</time>
      </trkpt>
      <trkpt lat="48.74563" lon="-3.26013">
        <ele>49.16</ele>
        <time>2013-11-24T15:38:11Z</time>
      </trkpt>
      <trkpt lat="48.74565" lon="-3.26012">
        <ele>48.68</ele>
        <time>2013-11-24T15:38:13Z</time>
      </trkpt>
      <trkpt lat="48.74567" lon="-3.26012">
        <ele>48.68</ele>
        <time>2013-11-24T15:38:15Z</time>
      </trkpt>
      <trkpt lat="48.74568" lon="-3.26012">
        <ele>48.68</ele>
        <time>2013-11-24T15:38:17Z</time>
      </trkpt>
      <trkpt lat="48.74569" lon="-3.26011">
        <ele>48.68</ele>
        <time>2013-11-24T15:38:19Z</time>
      </trkpt>
      <trkpt lat="48.74571" lon="-3.26011">
        <ele>48.68</ele>
        <time>2013-11-24T15:38:21Z</time>
      </trkpt>
      <trkpt lat="48.74572" lon="-3.26011">
        <ele>48.68</ele>
        <time>2013-11-24T15:38:23Z</time>
      </trkpt>
      <trkpt lat="48.74574" lon="-3.26012">
        <ele>48.68</ele>
        <time>2013-11-24T15:38:25Z</time>
      </trkpt>
      <trkpt lat="48.74575" lon="-3.26012">
        <ele>48.68</ele>
        <time>2013-11-24T15:38:27Z</time>
      </trkpt>
      <trkpt lat="48.74577" lon="-3.26012">
        <ele>48.68</ele>
        <time>2013-11-24T15:38:29Z</time>
      </trkpt>
      <trkpt lat="48.74579" lon="-3.26013">
        <ele>48.68</ele>
        <time>2013-11-24T15:38:31Z</time>
      </trkpt>
      <trkpt lat="48.7458" lon="-3.26013">
        <ele>48.68</ele>
        <time>2013-11-24T15:38:33Z</time>
      </trkpt>
      <trkpt lat="48.74582" lon="-3.26015">
        <ele>48.2</ele>
        <time>2013-11-24T15:38:35Z</time>
      </trkpt>
      <trkpt lat="48.74584" lon="-3.26015">
        <ele>48.2</ele>
        <time>2013-11-24T15:38:37Z</time>
      </trkpt>
      <trkpt lat="48.74586" lon="-3.26016">
        <ele>47.72</ele>
        <time>2013-11-24T15:38:39Z</time>
      </trkpt>
      <trkpt lat="48.74588" lon="-3.26016">
        <ele>47.72</ele>
        <time>2013-11-24T15:38:41Z</time>
      </trkpt>
      <trkpt lat="48.7459" lon="-3.26016">
        <ele>47.72</ele>
        <time>2013-11-24T15:38:43Z</time>
      </trkpt>
      <trkpt lat="48.74592" lon="-3.26017">
        <ele>47.72</ele>
        <time>2013-11-24T15:38:45Z</time>
      </trkpt>
      <trkpt lat="48.74594" lon="-3.26017">
        <ele>47.72</ele>
        <time>2013-11-24T15:38:47Z</time>
      </trkpt>
      <trkpt lat="48.74596" lon="-3.26018">
        <ele>47.72</ele>
        <time>2013-11-24T15:38:49Z</time>
      </trkpt>
      <trkpt lat="48.74598" lon="-3.26018">
        <ele>47.72</ele>
        <time>2013-11-24T15:38:51Z</time>
      </trkpt>
      <trkpt lat="48.746" lon="-3.26019">
        <ele>47.72</ele>
        <time>2013-11-24T15:38:53Z</time>
      </trkpt>
      <trkpt lat="48.74602" lon="-3.26019">
        <ele>47.72</ele>
        <time>2013-11-24T15:38:55Z</time>
      </trkpt>
      <trkpt lat="48.74604" lon="-3.26019">
        <ele>47.72</ele>
        <time>2013-11-24T15:38:57Z</time>
      </trkpt>
      <trkpt lat="48.74605" lon="-3.2602">
        <ele>47.72</ele>
        <time>2013-11-24T15:38:59Z</time>
      </trkpt>
      <trkpt lat="48.74607" lon="-3.26021">
        <ele>47.72</ele>
        <time>2013-11-24T15:39:01Z</time>
      </trkpt>
      <trkpt lat="48.74609" lon="-3.26023">
        <ele>47.72</ele>
        <time>2013-11-24T15:39:03Z</time>
      </trkpt>
      <trkpt lat="48.7461" lon="-3.26024">
        <ele>47.72</ele>
        <time>2013-11-24T15:39:05Z</time>
      </trkpt>
      <trkpt lat="48.74612" lon="-3.26025">
        <ele>47.72</ele>
        <time>2013-11-24T15:39:07Z</time>
      </trkpt>
      <trkpt lat="48.74613" lon="-3.26025">
        <ele>47.24</ele>
        <time>2013-11-24T15:39:09Z</time>
      </trkpt>
      <trkpt lat="48.74614" lon="-3.26025">
        <ele>47.24</ele>
        <time>2013-11-24T15:39:11Z</time>
      </trkpt>
      <trkpt lat="48.74615" lon="-3.26026">
        <ele>47.24</ele>
        <time>2013-11-24T15:39:13Z</time>
      </trkpt>
      <trkpt lat="48.74616" lon="-3.26026">
        <ele>47.24</ele>
        <time>2013-11-24T15:39:15Z</time>
      </trkpt>
      <trkpt lat="48.74617" lon="-3.26027">
        <ele>47.24</ele>
        <time>2013-11-24T15:39:17Z</time>
      </trkpt>
      <trkpt lat="48.74618" lon="-3.26028">
        <ele>47.24</ele>
        <time>2013-11-24T15:39:19Z</time>
      </trkpt>
      <trkpt lat="48.7462" lon="-3.2603">
        <ele>47.24</ele>
        <time>2013-11-24T15:39:21Z</time>
      </trkpt>
      <trkpt lat="48.74622" lon="-3.26031">
        <ele>47.24</ele>
        <time>2013-11-24T15:39:23Z</time>
      </trkpt>
      <trkpt lat="48.74624" lon="-3.26032">
        <ele>47.24</ele>
        <time>2013-11-24T15:39:25Z</time>
      </trkpt>
      <trkpt lat="48.74625" lon="-3.26033">
        <ele>47.24</ele>
        <time>2013-11-24T15:39:27Z</time>
      </trkpt>
      <trkpt lat="48.74627" lon="-3.26035">
        <ele>47.24</ele>
        <time>2013-11-24T15:39:29Z</time>
      </trkpt>
      <trkpt lat="48.74629" lon="-3.26036">
        <ele>47.24</ele>
        <time>2013-11-24T15:39:31Z</time>
      </trkpt>
      <trkpt lat="48.7463" lon="-3.26038">
        <ele>47.24</ele>
        <time>2013-11-24T15:39:33Z</time>
      </trkpt>
      <trkpt lat="48.74631" lon="-3.26041">
        <ele>47.24</ele>
        <time>2013-11-24T15:39:35Z</time>
      </trkpt>
      <trkpt lat="48.74632" lon="-3.26043">
        <ele>47.24</ele>
        <time>2013-11-24T15:39:37Z</time>
      </trkpt>
      <trkpt lat="48.74633" lon="-3.26044">
        <ele>47.24</ele>
        <time>2013-11-24T15:39:39Z</time>
      </trkpt>
      <trkpt lat="48.74635" lon="-3.26045">
        <ele>47.24</ele>
        <time>2013-11-24T15:39:41Z</time>
      </trkpt>
      <trkpt lat="48.74636" lon="-3.26046">
        <ele>47.24</ele>
        <time>2013-11-24T15:39:43Z</time>
      </trkpt>
      <trkpt lat="48.74637" lon="-3.26048">
        <ele>46.76</ele>
        <time>2013-11-24T15:39:45Z</time>
      </trkpt>
      <trkpt lat="48.74639" lon="-3.2605">
        <ele>46.76</ele>
        <time>2013-11-24T15:39:47Z</time>
      </trkpt>
      <trkpt lat="48.74641" lon="-3.26052">
        <ele>46.76</ele>
        <time>2013-11-24T15:39:49Z</time>
      </trkpt>
      <trkpt lat="48.74642" lon="-3.26054">
        <ele>46.28</ele>
        <time>2013-11-24T15:39:51Z</time>
      </trkpt>
      <trkpt lat="48.74644" lon="-3.26056">
        <ele>46.28</ele>
        <time>2013-11-24T15:39:53Z</time>
      </trkpt>
      <trkpt lat="48.74646" lon="-3.26059">
        <ele>46.28</ele>
        <time>2013-11-24T15:39:55Z</time>
      </trkpt>
      <trkpt lat="48.74647" lon="-3.26061">
        <ele>46.28</ele>
        <time>2013-11-24T15:39:57Z</time>
      </trkpt>
      <trkpt lat="48.74648" lon="-3.26064">
        <ele>46.28</ele>
        <time>2013-11-24T15:39:59Z</time>
      </trkpt>
      <trkpt lat="48.7465" lon="-3.26066">
        <ele>46.28</ele>
        <time>2013-11-24T15:40:01Z</time>
      </trkpt>
      <trkpt lat="48.74651" lon="-3.26068">
        <ele>46.28</ele>
        <time>2013-11-24T15:40:03Z</time>
      </trkpt>
      <trkpt lat="48.74652" lon="-3.26071">
        <ele>46.28</ele>
        <time>2013-11-24T15:40:05Z</time>
      </trkpt>
      <trkpt lat="48.74654" lon="-3.26073">
        <ele>46.28</ele>
        <time>2013-11-24T15:40:07Z</time>
      </trkpt>
      <trkpt lat="48.74655" lon="-3.26076">
        <ele>46.28</ele>
        <time>2013-11-24T15:40:09Z</time>
      </trkpt>
      <trkpt lat="48.74656" lon="-3.26079">
        <ele>46.28</ele>
        <time>2013-11-24T15:40:11Z</time>
      </trkpt>
      <trkpt lat="48.74657" lon="-3.26082">
        <ele>46.28</ele>
        <time>2013-11-24T15:40:13Z</time>
      </trkpt>
      <trkpt lat="48.74658" lon="-3.26085">
        <ele>46.28</ele>
        <time>2013-11-24T15:40:15Z</time>
      </trkpt>
      <trkpt lat="48.74659" lon="-3.26088">
        <ele>46.28</ele>
        <time>2013-11-24T15:40:17Z</time>
      </trkpt>
      <trkpt lat="48.7466" lon="-3.2609">
        <ele>46.28</ele>
        <time>2013-11-24T15:40:19Z</time>
      </trkpt>
      <trkpt lat="48.74661" lon="-3.26093">
        <ele>46.28</ele>
        <time>2013-11-24T15:40:21Z</time>
      </trkpt>
      <trkpt lat="48.74662" lon="-3.26097">
        <ele>45.8</ele>
        <time>2013-11-24T15:40:23Z</time>
      </trkpt>
      <trkpt lat="48.74662" lon="-3.261">
        <ele>45.8</ele>
        <time>2013-11-24T15:40:25Z</time>
      </trkpt>
      <trkpt lat="48.74663" lon="-3.26103">
        <ele>45.32</ele>
        <time>2013-11-24T15:40:27Z</time>
      </trkpt>
      <trkpt lat="48.74663" lon="-3.26106">
        <ele>45.32</ele>
        <time>2013-11-24T15:40:29Z</time>
      </trkpt>
      <trkpt lat="48.74664" lon="-3.2611">
        <ele>45.32</ele>
        <time>2013-11-24T15:40:31Z</time>
      </trkpt>
      <trkpt lat="48.74664" lon="-3.26114">
        <ele>45.32</ele>
        <time>2013-11-24T15:40:33Z</time>
      </trkpt>
      <trkpt lat="48.74665" lon="-3.26117">
        <ele>45.32</ele>
        <time>2013-11-24T15:40:35Z</time>
      </trkpt>
      <trkpt lat="48.74666" lon="-3.26119">
        <ele>45.32</ele>
        <time>2013-11-24T15:40:37Z</time>
      </trkpt>
      <trkpt lat="48.74667" lon="-3.26122">
        <ele>45.32</ele>
        <time>2013-11-24T15:40:39Z</time>
      </trkpt>
      <trkpt lat="48.74667" lon="-3.26125">
        <ele>45.32</ele>
        <time>2013-11-24T15:40:41Z</time>
      </trkpt>
      <trkpt lat="48.74668" lon="-3.26127">
        <ele>45.32</ele>
        <time>2013-11-24T15:40:43Z</time>
      </trkpt>
      <trkpt lat="48.74669" lon="-3.2613">
        <ele>45.32</ele>
        <time>2013-11-24T15:40:45Z</time>
      </trkpt>
      <trkpt lat="48.74669" lon="-3.26132">
        <ele>45.32</ele>
        <time>2013-11-24T15:40:47Z</time>
      </trkpt>
      <trkpt lat="48.7467" lon="-3.26136">
        <ele>45.32</ele>
        <time>2013-11-24T15:40:49Z</time>
      </trkpt>
      <trkpt lat="48.74671" lon="-3.26138">
        <ele>45.32</ele>
        <time>2013-11-24T15:40:51Z</time>
      </trkpt>
      <trkpt lat="48.74671" lon="-3.26141">
        <ele>45.32</ele>
        <time>2013-11-24T15:40:53Z</time>
      </trkpt>
      <trkpt lat="48.74671" lon="-3.26144">
        <ele>45.32</ele>
        <time>2013-11-24T15:40:55Z</time>
      </trkpt>
      <trkpt lat="48.74671" lon="-3.26147">
        <ele>45.32</ele>
        <time>2013-11-24T15:40:57Z</time>
      </trkpt>
      <trkpt lat="48.74672" lon="-3.2615">
        <ele>45.32</ele>
        <time>2013-11-24T15:40:59Z</time>
      </trkpt>
      <trkpt lat="48.74673" lon="-3.26153">
        <ele>44.84</ele>
        <time>2013-11-24T15:41:01Z</time>
      </trkpt>
      <trkpt lat="48.74673" lon="-3.26157">
        <ele>44.84</ele>
        <time>2013-11-24T15:41:03Z</time>
      </trkpt>
      <trkpt lat="48.74673" lon="-3.26159">
        <ele>44.84</ele>
        <time>2013-11-24T15:41:05Z</time>
      </trkpt>
      <trkpt lat="48.74674" lon="-3.26162">
        <ele>44.84</ele>
        <time>2013-11-24T15:41:07Z</time>
      </trkpt>
      <trkpt lat="48.74674" lon="-3.26164">
        <ele>44.84</ele>
        <time>2013-11-24T15:41:09Z</time>
      </trkpt>
      <trkpt lat="48.74674" lon="-3.26167">
        <ele>44.84</ele>
        <time>2013-11-24T15:41:11Z</time>
      </trkpt>
      <trkpt lat="48.74675" lon="-3.2617">
        <ele>44.84</ele>
        <time>2013-11-24T15:41:13Z</time>
      </trkpt>
      <trkpt lat="48.74675" lon="-3.26172">
        <ele>44.84</ele>
        <time>2013-11-24T15:41:15Z</time>
      </trkpt>
      <trkpt lat="48.74677" lon="-3.26173">
        <ele>44.84</ele>
        <time>2013-11-24T15:41:17Z</time>
      </trkpt>
      <trkpt lat="48.74679" lon="-3.26175">
        <ele>44.84</ele>
        <time>2013-11-24T15:41:19Z</time>
      </trkpt>
      <trkpt lat="48.74681" lon="-3.26176">
        <ele>44.84</ele>
        <time>2013-11-24T15:41:21Z</time>
      </trkpt>
      <trkpt lat="48.74684" lon="-3.26177">
        <ele>44.84</ele>
        <time>2013-11-24T15:41:23Z</time>
      </trkpt>
      <trkpt lat="48.74686" lon="-3.26178">
        <ele>44.84</ele>
        <time>2013-11-24T15:41:25Z</time>
      </trkpt>
      <trkpt lat="48.74687" lon="-3.26178">
        <ele>44.84</ele>
        <time>2013-11-24T15:41:27Z</time>
      </trkpt>
      <trkpt lat="48.74689" lon="-3.26179">
        <ele>44.84</ele>
        <time>2013-11-24T15:41:29Z</time>
      </trkpt>
      <trkpt lat="48.7469" lon="-3.26179">
        <ele>44.36</ele>
        <time>2013-11-24T15:41:31Z</time>
      </trkpt>
      <trkpt lat="48.74692" lon="-3.26179">
        <ele>44.36</ele>
        <time>2013-11-24T15:41:33Z</time>
      </trkpt>
      <trkpt lat="48.74694" lon="-3.26179">
        <ele>44.36</ele>
        <time>2013-11-24T15:41:35Z</time>
      </trkpt>
      <trkpt lat="48.74696" lon="-3.26179">
        <ele>44.36</ele>
        <time>2013-11-24T15:41:37Z</time>
      </trkpt>
      <trkpt lat="48.74697" lon="-3.26179">
        <ele>43.88</ele>
        <time>2013-11-24T15:41:39Z</time>
      </trkpt>
      <trkpt lat="48.74699" lon="-3.26179">
        <ele>43.88</ele>
        <time>2013-11-24T15:41:41Z</time>
      </trkpt>
      <trkpt lat="48.74701" lon="-3.2618">
        <ele>43.88</ele>
        <time>2013-11-24T15:41:43Z</time>
      </trkpt>
      <trkpt lat="48.74703" lon="-3.2618">
        <ele>43.88</ele>
        <time>2013-11-24T15:41:45Z</time>
      </trkpt>
      <trkpt lat="48.74705" lon="-3.2618">
        <ele>43.88</ele>
        <time>2013-11-24T15:41:47Z</time>
      </trkpt>
      <trkpt lat="48.74707" lon="-3.2618">
        <ele>43.88</ele>
        <time>2013-11-24T15:41:49Z</time>
      </trkpt>
      <trkpt lat="48.74709" lon="-3.2618">
        <ele>43.88</ele>
        <time>2013-11-24T15:41:51Z</time>
      </trkpt>
      <trkpt lat="48.74711" lon="-3.26181">
        <ele>43.88</ele>
        <time>2013-11-24T15:41:53Z</time>
      </trkpt>
      <trkpt lat="48.74713" lon="-3.26181">
        <ele>43.88</ele>
        <time>2013-11-24T15:41:55Z</time>
      </trkpt>
      <trkpt lat="48.74714" lon="-3.26181">
        <ele>43.88</ele>
        <time>2013-11-24T15:41:57Z</time>
      </trkpt>
      <trkpt lat="48.74716" lon="-3.26181">
        <ele>43.88</ele>
        <time>2013-11-24T15:41:59Z</time>
      </trkpt>
      <trkpt lat="48.74717" lon="-3.26181">
        <ele>43.88</ele>
        <time>2013-11-24T15:42:01Z</time>
      </trkpt>
      <trkpt lat="48.74719" lon="-3.26181">
        <ele>43.88</ele>
        <time>2013-11-24T15:42:03Z</time>
      </trkpt>
      <trkpt lat="48.74721" lon="-3.26182">
        <ele>43.4</ele>
        <time>2013-11-24T15:42:05Z</time>
      </trkpt>
      <trkpt lat="48.74722" lon="-3.26182">
        <ele>43.4</ele>
        <time>2013-11-24T15:42:07Z</time>
      </trkpt>
      <trkpt lat="48.74724" lon="-3.26183">
        <ele>43.4</ele>
        <time>2013-11-24T15:42:09Z</time>
      </trkpt>
      <trkpt lat="48.74725" lon="-3.26183">
        <ele>43.4</ele>
        <time>2013-11-24T15:42:11Z</time>
      </trkpt>
      <trkpt lat="48.74726" lon="-3.26182">
        <ele>43.4</ele>
        <time>2013-11-24T15:42:13Z</time>
      </trkpt>
      <trkpt lat="48.74727" lon="-3.26182">
        <ele>43.4</ele>
        <time>2013-11-24T15:42:15Z</time>
      </trkpt>
      <trkpt lat="48.74728" lon="-3.26183">
        <ele>43.4</ele>
        <time>2013-11-24T15:42:17Z</time>
      </trkpt>
      <trkpt lat="48.74728" lon="-3.26185">
        <ele>43.4</ele>
        <time>2013-11-24T15:42:19Z</time>
      </trkpt>
      <trkpt lat="48.74729" lon="-3.26187">
        <ele>43.4</ele>
        <time>2013-11-24T15:42:21Z</time>
      </trkpt>
      <trkpt lat="48.74729" lon="-3.2619">
        <ele>43.4</ele>
        <time>2013-11-24T15:42:23Z</time>
      </trkpt>
      <trkpt lat="48.7473" lon="-3.26193">
        <ele>43.4</ele>
        <time>2013-11-24T15:42:25Z</time>
      </trkpt>
      <trkpt lat="48.7473" lon="-3.26195">
        <ele>43.4</ele>
        <time>2013-11-24T15:42:27Z</time>
      </trkpt>
      <trkpt lat="48.74731" lon="-3.26198">
        <ele>43.4</ele>
        <time>2013-11-24T15:42:29Z</time>
      </trkpt>
      <trkpt lat="48.74731" lon="-3.26201">
        <ele>43.4</ele>
        <time>2013-11-24T15:42:31Z</time>
      </trkpt>
      <trkpt lat="48.74731" lon="-3.26204">
        <ele>43.4</ele>
        <time>2013-11-24T15:42:33Z</time>
      </trkpt>
      <trkpt lat="48.74732" lon="-3.26207">
        <ele>43.4</ele>
        <time>2013-11-24T15:42:35Z</time>
      </trkpt>
      <trkpt lat="48.74732" lon="-3.26209">
        <ele>43.4</ele>
        <time>2013-11-24T15:42:37Z</time>
      </trkpt>
      <trkpt lat="48.74732" lon="-3.26212">
        <ele>42.92</ele>
        <time>2013-11-24T15:42:39Z</time>
      </trkpt>
      <trkpt lat="48.74733" lon="-3.26214">
        <ele>42.92</ele>
        <time>2013-11-24T15:42:41Z</time>
      </trkpt>
      <trkpt lat="48.74734" lon="-3.26217">
        <ele>42.92</ele>
        <time>2013-11-24T15:42:43Z</time>
      </trkpt>
      <trkpt lat="48.74734" lon="-3.26221">
        <ele>42.92</ele>
        <time>2013-11-24T15:42:45Z</time>
      </trkpt>
      <trkpt lat="48.74735" lon="-3.26224">
        <ele>42.92</ele>
        <time>2013-11-24T15:42:47Z</time>
      </trkpt>
      <trkpt lat="48.74736" lon="-3.26227">
        <ele>42.92</ele>
        <time>2013-11-24T15:42:49Z</time>
      </trkpt>
      <trkpt lat="48.74736" lon="-3.2623">
        <ele>42.92</ele>
        <time>2013-11-24T15:42:51Z</time>
      </trkpt>
      <trkpt lat="48.74737" lon="-3.26234">
        <ele>42.44</ele>
        <time>2013-11-24T15:42:53Z</time>
      </trkpt>
      <trkpt lat="48.74737" lon="-3.26237">
        <ele>42.44</ele>
        <time>2013-11-24T15:42:55Z</time>
      </trkpt>
      <trkpt lat="48.74737" lon="-3.2624">
        <ele>42.44</ele>
        <time>2013-11-24T15:42:57Z</time>
      </trkpt>
      <trkpt lat="48.74737" lon="-3.26243">
        <ele>42.44</ele>
        <time>2013-11-24T15:42:59Z</time>
      </trkpt>
      <trkpt lat="48.74736" lon="-3.26246">
        <ele>42.44</ele>
        <time>2013-11-24T15:43:01Z</time>
      </trkpt>
      <trkpt lat="48.74735" lon="-3.26249">
        <ele>40.03</ele>
        <time>2013-11-24T15:43:03Z</time>
      </trkpt>
      <trkpt lat="48.74735" lon="-3.26251">
        <ele>39.07</ele>
        <time>2013-11-24T15:43:05Z</time>
      </trkpt>
      <trkpt lat="48.74734" lon="-3.26254">
        <ele>40.51</ele>
        <time>2013-11-24T15:43:07Z</time>
      </trkpt>
      <trkpt lat="48.74733" lon="-3.26256">
        <ele>41.47</ele>
        <time>2013-11-24T15:43:09Z</time>
      </trkpt>
      <trkpt lat="48.74732" lon="-3.26258">
        <ele>42.44</ele>
        <time>2013-11-24T15:43:11Z</time>
      </trkpt>
      <trkpt lat="48.74731" lon="-3.2626">
        <ele>42.44</ele>
        <time>2013-11-24T15:43:13Z</time>
      </trkpt>
      <trkpt lat="48.74731" lon="-3.26263">
        <ele>42.44</ele>
        <time>2013-11-24T15:43:15Z</time>
      </trkpt>
      <trkpt lat="48.7473" lon="-3.26264">
        <ele>42.44</ele>
        <time>2013-11-24T15:43:17Z</time>
      </trkpt>
      <trkpt lat="48.74731" lon="-3.26264">
        <ele>42.44</ele>
        <time>2013-11-24T15:43:19Z</time>
      </trkpt>
      <trkpt lat="48.74731" lon="-3.26265">
        <ele>40.03</ele>
        <time>2013-11-24T15:43:21Z</time>
      </trkpt>
      <trkpt lat="48.74731" lon="-3.26265">
        <ele>40.03</ele>
        <time>2013-11-24T15:43:23Z</time>
      </trkpt>
      <trkpt lat="48.74731" lon="-3.26265">
        <ele>39.55</ele>
        <time>2013-11-24T15:43:25Z</time>
      </trkpt>
      <trkpt lat="48.74731" lon="-3.26265">
        <ele>39.55</ele>
        <time>2013-11-24T15:43:27Z</time>
      </trkpt>
      <trkpt lat="48.74731" lon="-3.26266">
        <ele>39.07</ele>
        <time>2013-11-24T15:43:29Z</time>
      </trkpt>
    </trkseg>
  </trk>
</gpx>